<?xml version="1.0" encoding="UTF-8" standalone="no" ?>
<gpx xmlns="http://www.topografix.com/GPX/1/1" xmlns:xsi="http://www.w3.org/2001/XMLSchema-instance" xsi:schemaLocation="http://www.topografix.com/GPX/1/1 http://www.topografix.com/GPX/1/1/gpx.xsd" version="1.1" creator="VisuGPX - https://www.visugpx.com">
  <metadata>
    <name>Les 7 Laux 10/02/2013</name>
    <desc><![CDATA[Ski Les 7 Laux 10/02/2013 - avec Olivier, Fabien, Morgane]]></desc>
  </metadata>
  <trk>
    <name><![CDATA[2013-02-10T08:00:37Z]]></name>
    <trkseg>
      <trkpt lat="45.25665" lon="5.99718">
        <ele>1343</ele>
        <time>2013-02-10T08:00:37Z</time>
      </trkpt>
      <trkpt lat="45.25662" lon="5.99721">
        <ele>1343</ele>
        <time>2013-02-10T08:00:51Z</time>
      </trkpt>
      <trkpt lat="45.25664" lon="5.99722">
        <ele>1343</ele>
        <time>2013-02-10T08:00:57Z</time>
      </trkpt>
      <trkpt lat="45.25667" lon="5.99725">
        <ele>1334</ele>
        <time>2013-02-10T08:01:01Z</time>
      </trkpt>
      <trkpt lat="45.25669" lon="5.99726">
        <ele>1334</ele>
        <time>2013-02-10T08:01:06Z</time>
      </trkpt>
      <trkpt lat="45.2567" lon="5.9973">
        <ele>1335</ele>
        <time>2013-02-10T08:01:11Z</time>
      </trkpt>
      <trkpt lat="45.2567" lon="5.99733">
        <ele>1336</ele>
        <time>2013-02-10T08:01:15Z</time>
      </trkpt>
      <trkpt lat="45.25669" lon="5.99736">
        <ele>1336</ele>
        <time>2013-02-10T08:01:16Z</time>
      </trkpt>
      <trkpt lat="45.25657" lon="5.99757">
        <ele>1346</ele>
        <time>2013-02-10T08:01:21Z</time>
      </trkpt>
      <trkpt lat="45.25645" lon="5.99784">
        <ele>1350</ele>
        <time>2013-02-10T08:01:26Z</time>
      </trkpt>
      <trkpt lat="45.25631" lon="5.99816">
        <ele>1352</ele>
        <time>2013-02-10T08:01:32Z</time>
      </trkpt>
      <trkpt lat="45.25616" lon="5.99849">
        <ele>1361</ele>
        <time>2013-02-10T08:01:38Z</time>
      </trkpt>
      <trkpt lat="45.25602" lon="5.99881">
        <ele>1365</ele>
        <time>2013-02-10T08:01:44Z</time>
      </trkpt>
      <trkpt lat="45.25586" lon="5.99918">
        <ele>1376</ele>
        <time>2013-02-10T08:01:51Z</time>
      </trkpt>
      <trkpt lat="45.2556" lon="5.99976">
        <ele>1398</ele>
        <time>2013-02-10T08:02:02Z</time>
      </trkpt>
      <trkpt lat="45.25544" lon="6.00012">
        <ele>1412</ele>
        <time>2013-02-10T08:02:09Z</time>
      </trkpt>
      <trkpt lat="45.2552" lon="6.00068">
        <ele>1424</ele>
        <time>2013-02-10T08:02:20Z</time>
      </trkpt>
      <trkpt lat="45.25502" lon="6.00108">
        <ele>1431</ele>
        <time>2013-02-10T08:02:28Z</time>
      </trkpt>
      <trkpt lat="45.25486" lon="6.00144">
        <ele>1452</ele>
        <time>2013-02-10T08:02:35Z</time>
      </trkpt>
      <trkpt lat="45.25466" lon="6.00189">
        <ele>1464</ele>
        <time>2013-02-10T08:02:44Z</time>
      </trkpt>
      <trkpt lat="45.2545" lon="6.00225">
        <ele>1471</ele>
        <time>2013-02-10T08:02:51Z</time>
      </trkpt>
      <trkpt lat="45.25435" lon="6.00261">
        <ele>1484</ele>
        <time>2013-02-10T08:02:58Z</time>
      </trkpt>
      <trkpt lat="45.2541" lon="6.00317">
        <ele>1511</ele>
        <time>2013-02-10T08:03:09Z</time>
      </trkpt>
      <trkpt lat="45.25395" lon="6.00354">
        <ele>1515</ele>
        <time>2013-02-10T08:03:16Z</time>
      </trkpt>
      <trkpt lat="45.25379" lon="6.00392">
        <ele>1517</ele>
        <time>2013-02-10T08:03:23Z</time>
      </trkpt>
      <trkpt lat="45.25367" lon="6.0042">
        <ele>1511</ele>
        <time>2013-02-10T08:03:28Z</time>
      </trkpt>
      <trkpt lat="45.25357" lon="6.00441">
        <ele>1511</ele>
        <time>2013-02-10T08:03:32Z</time>
      </trkpt>
      <trkpt lat="45.25353" lon="6.00452">
        <ele>1510</ele>
        <time>2013-02-10T08:03:34Z</time>
      </trkpt>
      <trkpt lat="45.25329" lon="6.00505">
        <ele>1508</ele>
        <time>2013-02-10T08:03:44Z</time>
      </trkpt>
      <trkpt lat="45.25307" lon="6.00553">
        <ele>1504</ele>
        <time>2013-02-10T08:03:53Z</time>
      </trkpt>
      <trkpt lat="45.25287" lon="6.00595">
        <ele>1490</ele>
        <time>2013-02-10T08:04:01Z</time>
      </trkpt>
      <trkpt lat="45.25267" lon="6.00637">
        <ele>1486</ele>
        <time>2013-02-10T08:04:09Z</time>
      </trkpt>
      <trkpt lat="45.2524" lon="6.00696">
        <ele>1485</ele>
        <time>2013-02-10T08:04:20Z</time>
      </trkpt>
      <trkpt lat="45.25209" lon="6.00767">
        <ele>1484</ele>
        <time>2013-02-10T08:04:33Z</time>
      </trkpt>
      <trkpt lat="45.25184" lon="6.00821">
        <ele>1491</ele>
        <time>2013-02-10T08:04:43Z</time>
      </trkpt>
      <trkpt lat="45.25154" lon="6.0089">
        <ele>1510</ele>
        <time>2013-02-10T08:04:56Z</time>
      </trkpt>
      <trkpt lat="45.25128" lon="6.00948">
        <ele>1518</ele>
        <time>2013-02-10T08:05:07Z</time>
      </trkpt>
      <trkpt lat="45.25106" lon="6.01">
        <ele>1526</ele>
        <time>2013-02-10T08:05:17Z</time>
      </trkpt>
      <trkpt lat="45.2509" lon="6.01037">
        <ele>1532</ele>
        <time>2013-02-10T08:05:24Z</time>
      </trkpt>
      <trkpt lat="45.25067" lon="6.01091">
        <ele>1557</ele>
        <time>2013-02-10T08:05:34Z</time>
      </trkpt>
      <trkpt lat="45.25049" lon="6.01133">
        <ele>1567</ele>
        <time>2013-02-10T08:05:42Z</time>
      </trkpt>
      <trkpt lat="45.25022" lon="6.01194">
        <ele>1583</ele>
        <time>2013-02-10T08:05:54Z</time>
      </trkpt>
      <trkpt lat="45.2499" lon="6.0127">
        <ele>1616</ele>
        <time>2013-02-10T08:06:09Z</time>
      </trkpt>
      <trkpt lat="45.24977" lon="6.01298">
        <ele>1626</ele>
        <time>2013-02-10T08:06:15Z</time>
      </trkpt>
      <trkpt lat="45.2495" lon="6.01359">
        <ele>1656</ele>
        <time>2013-02-10T08:06:28Z</time>
      </trkpt>
      <trkpt lat="45.24928" lon="6.0141">
        <ele>1676</ele>
        <time>2013-02-10T08:06:39Z</time>
      </trkpt>
      <trkpt lat="45.2491" lon="6.0145">
        <ele>1712</ele>
        <time>2013-02-10T08:06:48Z</time>
      </trkpt>
      <trkpt lat="45.24879" lon="6.0152">
        <ele>1757</ele>
        <time>2013-02-10T08:07:04Z</time>
      </trkpt>
      <trkpt lat="45.24863" lon="6.01555">
        <ele>1768</ele>
        <time>2013-02-10T08:07:12Z</time>
      </trkpt>
      <trkpt lat="45.24843" lon="6.01599">
        <ele>1805</ele>
        <time>2013-02-10T08:07:22Z</time>
      </trkpt>
      <trkpt lat="45.2482" lon="6.0165">
        <ele>1839</ele>
        <time>2013-02-10T08:07:34Z</time>
      </trkpt>
      <trkpt lat="45.24811" lon="6.01672">
        <ele>1868</ele>
        <time>2013-02-10T08:07:39Z</time>
      </trkpt>
      <trkpt lat="45.24793" lon="6.01712">
        <ele>1883</ele>
        <time>2013-02-10T08:07:48Z</time>
      </trkpt>
      <trkpt lat="45.24771" lon="6.01763">
        <ele>1922</ele>
        <time>2013-02-10T08:08:00Z</time>
      </trkpt>
      <trkpt lat="45.24756" lon="6.01796">
        <ele>1929</ele>
        <time>2013-02-10T08:08:08Z</time>
      </trkpt>
      <trkpt lat="45.24744" lon="6.01824">
        <ele>1950</ele>
        <time>2013-02-10T08:08:14Z</time>
      </trkpt>
      <trkpt lat="45.24733" lon="6.0185">
        <ele>1961</ele>
        <time>2013-02-10T08:08:19Z</time>
      </trkpt>
      <trkpt lat="45.2473" lon="6.0186">
        <ele>1963</ele>
        <time>2013-02-10T08:08:21Z</time>
      </trkpt>
      <trkpt lat="45.24725" lon="6.01879">
        <ele>1965</ele>
        <time>2013-02-10T08:08:25Z</time>
      </trkpt>
      <trkpt lat="45.24722" lon="6.01886">
        <ele>1966</ele>
        <time>2013-02-10T08:08:29Z</time>
      </trkpt>
      <trkpt lat="45.24717" lon="6.01896">
        <ele>1967</ele>
        <time>2013-02-10T08:08:33Z</time>
      </trkpt>
      <trkpt lat="45.24717" lon="6.01903">
        <ele>1968</ele>
        <time>2013-02-10T08:08:37Z</time>
      </trkpt>
      <trkpt lat="45.24718" lon="6.0191">
        <ele>1968</ele>
        <time>2013-02-10T08:08:42Z</time>
      </trkpt>
      <trkpt lat="45.24718" lon="6.01909">
        <ele>1968</ele>
        <time>2013-02-10T08:08:49Z</time>
      </trkpt>
      <trkpt lat="45.2472" lon="6.01909">
        <ele>1968</ele>
        <time>2013-02-10T08:09:01Z</time>
      </trkpt>
      <trkpt lat="45.24725" lon="6.0191">
        <ele>1969</ele>
        <time>2013-02-10T08:09:06Z</time>
      </trkpt>
      <trkpt lat="45.24726" lon="6.01911">
        <ele>1969</ele>
        <time>2013-02-10T08:09:07Z</time>
      </trkpt>
      <trkpt lat="45.24736" lon="6.01915">
        <ele>1972</ele>
        <time>2013-02-10T08:09:13Z</time>
      </trkpt>
      <trkpt lat="45.24742" lon="6.01919">
        <ele>1976</ele>
        <time>2013-02-10T08:09:19Z</time>
      </trkpt>
      <trkpt lat="45.24743" lon="6.0192">
        <ele>1976</ele>
        <time>2013-02-10T08:09:26Z</time>
      </trkpt>
      <trkpt lat="45.24744" lon="6.01921">
        <ele>1976</ele>
        <time>2013-02-10T08:09:36Z</time>
      </trkpt>
      <trkpt lat="45.24752" lon="6.01926">
        <ele>1972</ele>
        <time>2013-02-10T08:09:40Z</time>
      </trkpt>
      <trkpt lat="45.24766" lon="6.0194">
        <ele>1966</ele>
        <time>2013-02-10T08:09:44Z</time>
      </trkpt>
      <trkpt lat="45.24781" lon="6.01962">
        <ele>1963</ele>
        <time>2013-02-10T08:09:48Z</time>
      </trkpt>
      <trkpt lat="45.24786" lon="6.01968">
        <ele>1962</ele>
        <time>2013-02-10T08:09:49Z</time>
      </trkpt>
      <trkpt lat="45.24801" lon="6.01998">
        <ele>1959</ele>
        <time>2013-02-10T08:09:53Z</time>
      </trkpt>
      <trkpt lat="45.24822" lon="6.02052">
        <ele>1962</ele>
        <time>2013-02-10T08:09:59Z</time>
      </trkpt>
      <trkpt lat="45.24839" lon="6.02092">
        <ele>1946</ele>
        <time>2013-02-10T08:10:03Z</time>
      </trkpt>
      <trkpt lat="45.24849" lon="6.02113">
        <ele>1939</ele>
        <time>2013-02-10T08:10:05Z</time>
      </trkpt>
      <trkpt lat="45.24859" lon="6.02135">
        <ele>1936</ele>
        <time>2013-02-10T08:10:07Z</time>
      </trkpt>
      <trkpt lat="45.24867" lon="6.02191">
        <ele>1935</ele>
        <time>2013-02-10T08:10:11Z</time>
      </trkpt>
      <trkpt lat="45.24877" lon="6.02218">
        <ele>1933</ele>
        <time>2013-02-10T08:10:13Z</time>
      </trkpt>
      <trkpt lat="45.24906" lon="6.02252">
        <ele>1926</ele>
        <time>2013-02-10T08:10:16Z</time>
      </trkpt>
      <trkpt lat="45.24983" lon="6.02314">
        <ele>1907</ele>
        <time>2013-02-10T08:10:22Z</time>
      </trkpt>
      <trkpt lat="45.25009" lon="6.02333">
        <ele>1900</ele>
        <time>2013-02-10T08:10:24Z</time>
      </trkpt>
      <trkpt lat="45.25047" lon="6.02346">
        <ele>1902</ele>
        <time>2013-02-10T08:10:27Z</time>
      </trkpt>
      <trkpt lat="45.25059" lon="6.02342">
        <ele>1901</ele>
        <time>2013-02-10T08:10:28Z</time>
      </trkpt>
      <trkpt lat="45.25081" lon="6.02332">
        <ele>1896</ele>
        <time>2013-02-10T08:10:30Z</time>
      </trkpt>
      <trkpt lat="45.2512" lon="6.02328">
        <ele>1886</ele>
        <time>2013-02-10T08:10:34Z</time>
      </trkpt>
      <trkpt lat="45.25177" lon="6.02343">
        <ele>1889</ele>
        <time>2013-02-10T08:10:41Z</time>
      </trkpt>
      <trkpt lat="45.25184" lon="6.02345">
        <ele>1890</ele>
        <time>2013-02-10T08:10:42Z</time>
      </trkpt>
      <trkpt lat="45.25206" lon="6.02349">
        <ele>1889</ele>
        <time>2013-02-10T08:10:45Z</time>
      </trkpt>
      <trkpt lat="45.25241" lon="6.02356">
        <ele>1888</ele>
        <time>2013-02-10T08:10:50Z</time>
      </trkpt>
      <trkpt lat="45.25269" lon="6.02343">
        <ele>1883</ele>
        <time>2013-02-10T08:10:54Z</time>
      </trkpt>
      <trkpt lat="45.25271" lon="6.0234">
        <ele>1883</ele>
        <time>2013-02-10T08:10:56Z</time>
      </trkpt>
      <trkpt lat="45.2527" lon="6.02339">
        <ele>1883</ele>
        <time>2013-02-10T08:11:02Z</time>
      </trkpt>
      <trkpt lat="45.2527" lon="6.02339">
        <ele>1883</ele>
        <time>2013-02-10T08:11:11Z</time>
      </trkpt>
      <trkpt lat="45.25272" lon="6.02344">
        <ele>1883</ele>
        <time>2013-02-10T08:11:18Z</time>
      </trkpt>
      <trkpt lat="45.25281" lon="6.02353">
        <ele>1883</ele>
        <time>2013-02-10T08:11:23Z</time>
      </trkpt>
      <trkpt lat="45.25285" lon="6.0236">
        <ele>1884</ele>
        <time>2013-02-10T08:11:29Z</time>
      </trkpt>
      <trkpt lat="45.25287" lon="6.02363">
        <ele>1884</ele>
        <time>2013-02-10T08:11:36Z</time>
      </trkpt>
      <trkpt lat="45.25291" lon="6.0237">
        <ele>1884</ele>
        <time>2013-02-10T08:11:42Z</time>
      </trkpt>
      <trkpt lat="45.25296" lon="6.02377">
        <ele>1885</ele>
        <time>2013-02-10T08:11:45Z</time>
      </trkpt>
      <trkpt lat="45.25301" lon="6.02386">
        <ele>1885</ele>
        <time>2013-02-10T08:11:49Z</time>
      </trkpt>
      <trkpt lat="45.25311" lon="6.02402">
        <ele>1887</ele>
        <time>2013-02-10T08:11:56Z</time>
      </trkpt>
      <trkpt lat="45.2532" lon="6.02415">
        <ele>1888</ele>
        <time>2013-02-10T08:12:02Z</time>
      </trkpt>
      <trkpt lat="45.25328" lon="6.02432">
        <ele>1895</ele>
        <time>2013-02-10T08:12:08Z</time>
      </trkpt>
      <trkpt lat="45.25347" lon="6.02465">
        <ele>1902</ele>
        <time>2013-02-10T08:12:22Z</time>
      </trkpt>
      <trkpt lat="45.25361" lon="6.02486">
        <ele>1904</ele>
        <time>2013-02-10T08:12:31Z</time>
      </trkpt>
      <trkpt lat="45.25379" lon="6.02517">
        <ele>1918</ele>
        <time>2013-02-10T08:12:44Z</time>
      </trkpt>
      <trkpt lat="45.25397" lon="6.02543">
        <ele>1922</ele>
        <time>2013-02-10T08:12:56Z</time>
      </trkpt>
      <trkpt lat="45.25408" lon="6.02561">
        <ele>1927</ele>
        <time>2013-02-10T08:13:04Z</time>
      </trkpt>
      <trkpt lat="45.2542" lon="6.02581">
        <ele>1937</ele>
        <time>2013-02-10T08:13:12Z</time>
      </trkpt>
      <trkpt lat="45.25434" lon="6.02605">
        <ele>1951</ele>
        <time>2013-02-10T08:13:22Z</time>
      </trkpt>
      <trkpt lat="45.25448" lon="6.02629">
        <ele>1956</ele>
        <time>2013-02-10T08:13:32Z</time>
      </trkpt>
      <trkpt lat="45.25466" lon="6.02659">
        <ele>1962</ele>
        <time>2013-02-10T08:13:45Z</time>
      </trkpt>
      <trkpt lat="45.25475" lon="6.02674">
        <ele>1974</ele>
        <time>2013-02-10T08:13:51Z</time>
      </trkpt>
      <trkpt lat="45.25499" lon="6.02714">
        <ele>1978</ele>
        <time>2013-02-10T08:14:07Z</time>
      </trkpt>
      <trkpt lat="45.2552" lon="6.02749">
        <ele>1998</ele>
        <time>2013-02-10T08:14:22Z</time>
      </trkpt>
      <trkpt lat="45.25533" lon="6.02768">
        <ele>2010</ele>
        <time>2013-02-10T08:14:31Z</time>
      </trkpt>
      <trkpt lat="45.25552" lon="6.02798">
        <ele>2017</ele>
        <time>2013-02-10T08:14:45Z</time>
      </trkpt>
      <trkpt lat="45.25568" lon="6.02827">
        <ele>2027</ele>
        <time>2013-02-10T08:14:58Z</time>
      </trkpt>
      <trkpt lat="45.25584" lon="6.02852">
        <ele>2050</ele>
        <time>2013-02-10T08:15:09Z</time>
      </trkpt>
      <trkpt lat="45.256" lon="6.02879">
        <ele>2058</ele>
        <time>2013-02-10T08:15:21Z</time>
      </trkpt>
      <trkpt lat="45.2562" lon="6.02912">
        <ele>2064</ele>
        <time>2013-02-10T08:15:36Z</time>
      </trkpt>
      <trkpt lat="45.25634" lon="6.02934">
        <ele>2080</ele>
        <time>2013-02-10T08:15:46Z</time>
      </trkpt>
      <trkpt lat="45.25645" lon="6.02952">
        <ele>2083</ele>
        <time>2013-02-10T08:15:54Z</time>
      </trkpt>
      <trkpt lat="45.25659" lon="6.02973">
        <ele>2090</ele>
        <time>2013-02-10T08:16:04Z</time>
      </trkpt>
      <trkpt lat="45.25668" lon="6.02987">
        <ele>2101</ele>
        <time>2013-02-10T08:16:10Z</time>
      </trkpt>
      <trkpt lat="45.25677" lon="6.03001">
        <ele>2104</ele>
        <time>2013-02-10T08:16:16Z</time>
      </trkpt>
      <trkpt lat="45.25681" lon="6.03007">
        <ele>2102</ele>
        <time>2013-02-10T08:16:18Z</time>
      </trkpt>
      <trkpt lat="45.25679" lon="6.03023">
        <ele>2100</ele>
        <time>2013-02-10T08:16:22Z</time>
      </trkpt>
      <trkpt lat="45.25676" lon="6.03027">
        <ele>2100</ele>
        <time>2013-02-10T08:16:24Z</time>
      </trkpt>
      <trkpt lat="45.25662" lon="6.03034">
        <ele>2098</ele>
        <time>2013-02-10T08:16:32Z</time>
      </trkpt>
      <trkpt lat="45.25651" lon="6.03043">
        <ele>2096</ele>
        <time>2013-02-10T08:16:41Z</time>
      </trkpt>
      <trkpt lat="45.25652" lon="6.03042">
        <ele>2096</ele>
        <time>2013-02-10T08:16:50Z</time>
      </trkpt>
      <trkpt lat="45.25653" lon="6.0304">
        <ele>2097</ele>
        <time>2013-02-10T08:17:06Z</time>
      </trkpt>
      <trkpt lat="45.25652" lon="6.03044">
        <ele>2096</ele>
        <time>2013-02-10T08:17:15Z</time>
      </trkpt>
      <trkpt lat="45.25647" lon="6.03052">
        <ele>2096</ele>
        <time>2013-02-10T08:17:19Z</time>
      </trkpt>
      <trkpt lat="45.25637" lon="6.03071">
        <ele>2096</ele>
        <time>2013-02-10T08:17:23Z</time>
      </trkpt>
      <trkpt lat="45.25623" lon="6.03108">
        <ele>2092</ele>
        <time>2013-02-10T08:17:27Z</time>
      </trkpt>
      <trkpt lat="45.25619" lon="6.03129">
        <ele>2091</ele>
        <time>2013-02-10T08:17:29Z</time>
      </trkpt>
      <trkpt lat="45.25623" lon="6.03157">
        <ele>2090</ele>
        <time>2013-02-10T08:17:32Z</time>
      </trkpt>
      <trkpt lat="45.25623" lon="6.03173">
        <ele>2080</ele>
        <time>2013-02-10T08:17:35Z</time>
      </trkpt>
      <trkpt lat="45.25621" lon="6.03175">
        <ele>2080</ele>
        <time>2013-02-10T08:17:39Z</time>
      </trkpt>
      <trkpt lat="45.25621" lon="6.03175">
        <ele>2080</ele>
        <time>2013-02-10T08:17:49Z</time>
      </trkpt>
      <trkpt lat="45.25622" lon="6.03177">
        <ele>2080</ele>
        <time>2013-02-10T08:17:58Z</time>
      </trkpt>
      <trkpt lat="45.25627" lon="6.03198">
        <ele>2077</ele>
        <time>2013-02-10T08:18:02Z</time>
      </trkpt>
      <trkpt lat="45.25629" lon="6.03227">
        <ele>2073</ele>
        <time>2013-02-10T08:18:05Z</time>
      </trkpt>
      <trkpt lat="45.25632" lon="6.03262">
        <ele>2059</ele>
        <time>2013-02-10T08:18:08Z</time>
      </trkpt>
      <trkpt lat="45.25649" lon="6.03274">
        <ele>2055</ele>
        <time>2013-02-10T08:18:10Z</time>
      </trkpt>
      <trkpt lat="45.25672" lon="6.03289">
        <ele>2038</ele>
        <time>2013-02-10T08:18:12Z</time>
      </trkpt>
      <trkpt lat="45.25703" lon="6.03331">
        <ele>2034</ele>
        <time>2013-02-10T08:18:15Z</time>
      </trkpt>
      <trkpt lat="45.25716" lon="6.03367">
        <ele>2023</ele>
        <time>2013-02-10T08:18:17Z</time>
      </trkpt>
      <trkpt lat="45.25736" lon="6.03437">
        <ele>2011</ele>
        <time>2013-02-10T08:18:21Z</time>
      </trkpt>
      <trkpt lat="45.25734" lon="6.03484">
        <ele>2006</ele>
        <time>2013-02-10T08:18:24Z</time>
      </trkpt>
      <trkpt lat="45.25734" lon="6.0353">
        <ele>1995</ele>
        <time>2013-02-10T08:18:27Z</time>
      </trkpt>
      <trkpt lat="45.25731" lon="6.03564">
        <ele>1989</ele>
        <time>2013-02-10T08:18:29Z</time>
      </trkpt>
      <trkpt lat="45.25734" lon="6.03601">
        <ele>1979</ele>
        <time>2013-02-10T08:18:31Z</time>
      </trkpt>
      <trkpt lat="45.2574" lon="6.03634">
        <ele>1975</ele>
        <time>2013-02-10T08:18:33Z</time>
      </trkpt>
      <trkpt lat="45.25761" lon="6.03682">
        <ele>1953</ele>
        <time>2013-02-10T08:18:36Z</time>
      </trkpt>
      <trkpt lat="45.25767" lon="6.03699">
        <ele>1950</ele>
        <time>2013-02-10T08:18:37Z</time>
      </trkpt>
      <trkpt lat="45.2578" lon="6.03735">
        <ele>1945</ele>
        <time>2013-02-10T08:18:39Z</time>
      </trkpt>
      <trkpt lat="45.25808" lon="6.03804">
        <ele>1922</ele>
        <time>2013-02-10T08:18:43Z</time>
      </trkpt>
      <trkpt lat="45.25823" lon="6.03858">
        <ele>1904</ele>
        <time>2013-02-10T08:18:46Z</time>
      </trkpt>
      <trkpt lat="45.25824" lon="6.03891">
        <ele>1899</ele>
        <time>2013-02-10T08:18:48Z</time>
      </trkpt>
      <trkpt lat="45.25824" lon="6.03908">
        <ele>1894</ele>
        <time>2013-02-10T08:18:50Z</time>
      </trkpt>
      <trkpt lat="45.25825" lon="6.03905">
        <ele>1895</ele>
        <time>2013-02-10T08:18:54Z</time>
      </trkpt>
      <trkpt lat="45.25825" lon="6.03904">
        <ele>1895</ele>
        <time>2013-02-10T08:18:57Z</time>
      </trkpt>
      <trkpt lat="45.25827" lon="6.03913">
        <ele>1892</ele>
        <time>2013-02-10T08:19:00Z</time>
      </trkpt>
      <trkpt lat="45.2583" lon="6.03919">
        <ele>1888</ele>
        <time>2013-02-10T08:19:04Z</time>
      </trkpt>
      <trkpt lat="45.25833" lon="6.03925">
        <ele>1886</ele>
        <time>2013-02-10T08:19:13Z</time>
      </trkpt>
      <trkpt lat="45.25841" lon="6.03951">
        <ele>1880</ele>
        <time>2013-02-10T08:19:16Z</time>
      </trkpt>
      <trkpt lat="45.25845" lon="6.03964">
        <ele>1878</ele>
        <time>2013-02-10T08:19:17Z</time>
      </trkpt>
      <trkpt lat="45.25849" lon="6.04009">
        <ele>1868</ele>
        <time>2013-02-10T08:19:20Z</time>
      </trkpt>
      <trkpt lat="45.25844" lon="6.04041">
        <ele>1864</ele>
        <time>2013-02-10T08:19:22Z</time>
      </trkpt>
      <trkpt lat="45.25805" lon="6.0412">
        <ele>1855</ele>
        <time>2013-02-10T08:19:27Z</time>
      </trkpt>
      <trkpt lat="45.25797" lon="6.04136">
        <ele>1853</ele>
        <time>2013-02-10T08:19:28Z</time>
      </trkpt>
      <trkpt lat="45.25775" lon="6.0421">
        <ele>1840</ele>
        <time>2013-02-10T08:19:32Z</time>
      </trkpt>
      <trkpt lat="45.25765" lon="6.04289">
        <ele>1826</ele>
        <time>2013-02-10T08:19:36Z</time>
      </trkpt>
      <trkpt lat="45.25768" lon="6.04325">
        <ele>1823</ele>
        <time>2013-02-10T08:19:38Z</time>
      </trkpt>
      <trkpt lat="45.25791" lon="6.04362">
        <ele>1808</ele>
        <time>2013-02-10T08:19:41Z</time>
      </trkpt>
      <trkpt lat="45.2584" lon="6.04413">
        <ele>1790</ele>
        <time>2013-02-10T08:19:45Z</time>
      </trkpt>
      <trkpt lat="45.25872" lon="6.04459">
        <ele>1770</ele>
        <time>2013-02-10T08:19:48Z</time>
      </trkpt>
      <trkpt lat="45.25879" lon="6.04476">
        <ele>1766</ele>
        <time>2013-02-10T08:19:49Z</time>
      </trkpt>
      <trkpt lat="45.25923" lon="6.04531">
        <ele>1738</ele>
        <time>2013-02-10T08:19:53Z</time>
      </trkpt>
      <trkpt lat="45.25948" lon="6.04557">
        <ele>1734</ele>
        <time>2013-02-10T08:19:55Z</time>
      </trkpt>
      <trkpt lat="45.25998" lon="6.04615">
        <ele>1712</ele>
        <time>2013-02-10T08:19:59Z</time>
      </trkpt>
      <trkpt lat="45.26089" lon="6.04694">
        <ele>1685</ele>
        <time>2013-02-10T08:20:05Z</time>
      </trkpt>
      <trkpt lat="45.26117" lon="6.04722">
        <ele>1680</ele>
        <time>2013-02-10T08:20:07Z</time>
      </trkpt>
      <trkpt lat="45.26153" lon="6.04765">
        <ele>1667</ele>
        <time>2013-02-10T08:20:10Z</time>
      </trkpt>
      <trkpt lat="45.26172" lon="6.04809">
        <ele>1670</ele>
        <time>2013-02-10T08:20:13Z</time>
      </trkpt>
      <trkpt lat="45.26168" lon="6.04828">
        <ele>1665</ele>
        <time>2013-02-10T08:20:15Z</time>
      </trkpt>
      <trkpt lat="45.26164" lon="6.04831">
        <ele>1663</ele>
        <time>2013-02-10T08:20:17Z</time>
      </trkpt>
      <trkpt lat="45.26164" lon="6.04831">
        <ele>1663</ele>
        <time>2013-02-10T08:20:18Z</time>
      </trkpt>
      <trkpt lat="45.26162" lon="6.04826">
        <ele>1662</ele>
        <time>2013-02-10T08:20:25Z</time>
      </trkpt>
      <trkpt lat="45.26162" lon="6.04827">
        <ele>1662</ele>
        <time>2013-02-10T08:20:36Z</time>
      </trkpt>
      <trkpt lat="45.2616" lon="6.04827">
        <ele>1662</ele>
        <time>2013-02-10T08:20:44Z</time>
      </trkpt>
      <trkpt lat="45.26157" lon="6.04822">
        <ele>1662</ele>
        <time>2013-02-10T08:20:50Z</time>
      </trkpt>
      <trkpt lat="45.26156" lon="6.04823">
        <ele>1662</ele>
        <time>2013-02-10T08:21:01Z</time>
      </trkpt>
      <trkpt lat="45.26152" lon="6.04823">
        <ele>1661</ele>
        <time>2013-02-10T08:21:09Z</time>
      </trkpt>
      <trkpt lat="45.26149" lon="6.04814">
        <ele>1661</ele>
        <time>2013-02-10T08:21:21Z</time>
      </trkpt>
      <trkpt lat="45.26144" lon="6.048">
        <ele>1662</ele>
        <time>2013-02-10T08:21:25Z</time>
      </trkpt>
      <trkpt lat="45.26136" lon="6.04781">
        <ele>1663</ele>
        <time>2013-02-10T08:21:29Z</time>
      </trkpt>
      <trkpt lat="45.26126" lon="6.04761">
        <ele>1663</ele>
        <time>2013-02-10T08:21:33Z</time>
      </trkpt>
      <trkpt lat="45.26108" lon="6.04727">
        <ele>1678</ele>
        <time>2013-02-10T08:21:40Z</time>
      </trkpt>
      <trkpt lat="45.26088" lon="6.04689">
        <ele>1686</ele>
        <time>2013-02-10T08:21:48Z</time>
      </trkpt>
      <trkpt lat="45.26068" lon="6.04651">
        <ele>1702</ele>
        <time>2013-02-10T08:21:56Z</time>
      </trkpt>
      <trkpt lat="45.2605" lon="6.04619">
        <ele>1709</ele>
        <time>2013-02-10T08:22:03Z</time>
      </trkpt>
      <trkpt lat="45.26025" lon="6.04574">
        <ele>1731</ele>
        <time>2013-02-10T08:22:13Z</time>
      </trkpt>
      <trkpt lat="45.26001" lon="6.04529">
        <ele>1740</ele>
        <time>2013-02-10T08:22:23Z</time>
      </trkpt>
      <trkpt lat="45.25985" lon="6.04501">
        <ele>1744</ele>
        <time>2013-02-10T08:22:29Z</time>
      </trkpt>
      <trkpt lat="45.25966" lon="6.04464">
        <ele>1762</ele>
        <time>2013-02-10T08:22:37Z</time>
      </trkpt>
      <trkpt lat="45.25947" lon="6.04428">
        <ele>1767</ele>
        <time>2013-02-10T08:22:45Z</time>
      </trkpt>
      <trkpt lat="45.25927" lon="6.04392">
        <ele>1787</ele>
        <time>2013-02-10T08:22:53Z</time>
      </trkpt>
      <trkpt lat="45.25901" lon="6.04342">
        <ele>1802</ele>
        <time>2013-02-10T08:23:04Z</time>
      </trkpt>
      <trkpt lat="45.2588" lon="6.04301">
        <ele>1819</ele>
        <time>2013-02-10T08:23:13Z</time>
      </trkpt>
      <trkpt lat="45.25865" lon="6.04273">
        <ele>1823</ele>
        <time>2013-02-10T08:23:19Z</time>
      </trkpt>
      <trkpt lat="45.25845" lon="6.04235">
        <ele>1836</ele>
        <time>2013-02-10T08:23:27Z</time>
      </trkpt>
      <trkpt lat="45.25823" lon="6.04193">
        <ele>1842</ele>
        <time>2013-02-10T08:23:36Z</time>
      </trkpt>
      <trkpt lat="45.25805" lon="6.04159">
        <ele>1851</ele>
        <time>2013-02-10T08:23:43Z</time>
      </trkpt>
      <trkpt lat="45.25778" lon="6.04111">
        <ele>1856</ele>
        <time>2013-02-10T08:23:53Z</time>
      </trkpt>
      <trkpt lat="45.25747" lon="6.04051">
        <ele>1885</ele>
        <time>2013-02-10T08:24:06Z</time>
      </trkpt>
      <trkpt lat="45.25729" lon="6.04017">
        <ele>1891</ele>
        <time>2013-02-10T08:24:14Z</time>
      </trkpt>
      <trkpt lat="45.25699" lon="6.03962">
        <ele>1915</ele>
        <time>2013-02-10T08:24:27Z</time>
      </trkpt>
      <trkpt lat="45.25675" lon="6.03918">
        <ele>1937</ele>
        <time>2013-02-10T08:24:38Z</time>
      </trkpt>
      <trkpt lat="45.25659" lon="6.03886">
        <ele>1971</ele>
        <time>2013-02-10T08:24:46Z</time>
      </trkpt>
      <trkpt lat="45.25634" lon="6.0384">
        <ele>1983</ele>
        <time>2013-02-10T08:24:58Z</time>
      </trkpt>
      <trkpt lat="45.25616" lon="6.03804">
        <ele>2007</ele>
        <time>2013-02-10T08:25:07Z</time>
      </trkpt>
      <trkpt lat="45.25605" lon="6.03782">
        <ele>2014</ele>
        <time>2013-02-10T08:25:12Z</time>
      </trkpt>
      <trkpt lat="45.25589" lon="6.03752">
        <ele>2037</ele>
        <time>2013-02-10T08:25:19Z</time>
      </trkpt>
      <trkpt lat="45.25572" lon="6.03719">
        <ele>2061</ele>
        <time>2013-02-10T08:25:27Z</time>
      </trkpt>
      <trkpt lat="45.25562" lon="6.037">
        <ele>2065</ele>
        <time>2013-02-10T08:25:31Z</time>
      </trkpt>
      <trkpt lat="45.2555" lon="6.03677">
        <ele>2068</ele>
        <time>2013-02-10T08:25:36Z</time>
      </trkpt>
      <trkpt lat="45.25533" lon="6.03644">
        <ele>2085</ele>
        <time>2013-02-10T08:25:43Z</time>
      </trkpt>
      <trkpt lat="45.25515" lon="6.03611">
        <ele>2091</ele>
        <time>2013-02-10T08:25:50Z</time>
      </trkpt>
      <trkpt lat="45.25496" lon="6.03574">
        <ele>2108</ele>
        <time>2013-02-10T08:25:58Z</time>
      </trkpt>
      <trkpt lat="45.25475" lon="6.03536">
        <ele>2111</ele>
        <time>2013-02-10T08:26:06Z</time>
      </trkpt>
      <trkpt lat="45.25452" lon="6.03493">
        <ele>2122</ele>
        <time>2013-02-10T08:26:15Z</time>
      </trkpt>
      <trkpt lat="45.25432" lon="6.03454">
        <ele>2125</ele>
        <time>2013-02-10T08:26:24Z</time>
      </trkpt>
      <trkpt lat="45.25406" lon="6.03406">
        <ele>2151</ele>
        <time>2013-02-10T08:26:35Z</time>
      </trkpt>
      <trkpt lat="45.25383" lon="6.03365">
        <ele>2171</ele>
        <time>2013-02-10T08:26:45Z</time>
      </trkpt>
      <trkpt lat="45.25366" lon="6.03331">
        <ele>2199</ele>
        <time>2013-02-10T08:26:53Z</time>
      </trkpt>
      <trkpt lat="45.25346" lon="6.03294">
        <ele>2205</ele>
        <time>2013-02-10T08:27:01Z</time>
      </trkpt>
      <trkpt lat="45.25337" lon="6.03279">
        <ele>2210</ele>
        <time>2013-02-10T08:27:05Z</time>
      </trkpt>
      <trkpt lat="45.25337" lon="6.03276">
        <ele>2211</ele>
        <time>2013-02-10T08:27:07Z</time>
      </trkpt>
      <trkpt lat="45.25337" lon="6.0327">
        <ele>2214</ele>
        <time>2013-02-10T08:27:10Z</time>
      </trkpt>
      <trkpt lat="45.25343" lon="6.03269">
        <ele>2213</ele>
        <time>2013-02-10T08:27:15Z</time>
      </trkpt>
      <trkpt lat="45.25347" lon="6.03271">
        <ele>2211</ele>
        <time>2013-02-10T08:27:21Z</time>
      </trkpt>
      <trkpt lat="45.25349" lon="6.03272">
        <ele>2210</ele>
        <time>2013-02-10T08:27:35Z</time>
      </trkpt>
      <trkpt lat="45.2535" lon="6.03274">
        <ele>2209</ele>
        <time>2013-02-10T08:27:36Z</time>
      </trkpt>
      <trkpt lat="45.25352" lon="6.03277">
        <ele>2208</ele>
        <time>2013-02-10T08:27:38Z</time>
      </trkpt>
      <trkpt lat="45.25354" lon="6.03278">
        <ele>2207</ele>
        <time>2013-02-10T08:27:44Z</time>
      </trkpt>
      <trkpt lat="45.25354" lon="6.03278">
        <ele>2207</ele>
        <time>2013-02-10T08:27:57Z</time>
      </trkpt>
      <trkpt lat="45.25354" lon="6.03278">
        <ele>2207</ele>
        <time>2013-02-10T08:28:07Z</time>
      </trkpt>
      <trkpt lat="45.25356" lon="6.03278">
        <ele>2206</ele>
        <time>2013-02-10T08:28:16Z</time>
      </trkpt>
      <trkpt lat="45.25369" lon="6.03281">
        <ele>2202</ele>
        <time>2013-02-10T08:28:20Z</time>
      </trkpt>
      <trkpt lat="45.25378" lon="6.03276">
        <ele>2200</ele>
        <time>2013-02-10T08:28:22Z</time>
      </trkpt>
      <trkpt lat="45.25393" lon="6.0326">
        <ele>2196</ele>
        <time>2013-02-10T08:28:25Z</time>
      </trkpt>
      <trkpt lat="45.2541" lon="6.03238">
        <ele>2188</ele>
        <time>2013-02-10T08:28:28Z</time>
      </trkpt>
      <trkpt lat="45.25425" lon="6.03226">
        <ele>2170</ele>
        <time>2013-02-10T08:28:30Z</time>
      </trkpt>
      <trkpt lat="45.25459" lon="6.03202">
        <ele>2160</ele>
        <time>2013-02-10T08:28:34Z</time>
      </trkpt>
      <trkpt lat="45.25486" lon="6.03202">
        <ele>2156</ele>
        <time>2013-02-10T08:28:37Z</time>
      </trkpt>
      <trkpt lat="45.25496" lon="6.03219">
        <ele>2156</ele>
        <time>2013-02-10T08:28:39Z</time>
      </trkpt>
      <trkpt lat="45.25493" lon="6.03244">
        <ele>2153</ele>
        <time>2013-02-10T08:28:41Z</time>
      </trkpt>
      <trkpt lat="45.25483" lon="6.03283">
        <ele>2156</ele>
        <time>2013-02-10T08:28:44Z</time>
      </trkpt>
      <trkpt lat="45.25482" lon="6.03324">
        <ele>2149</ele>
        <time>2013-02-10T08:28:47Z</time>
      </trkpt>
      <trkpt lat="45.25493" lon="6.03342">
        <ele>2138</ele>
        <time>2013-02-10T08:28:49Z</time>
      </trkpt>
      <trkpt lat="45.25515" lon="6.03336">
        <ele>2119</ele>
        <time>2013-02-10T08:28:51Z</time>
      </trkpt>
      <trkpt lat="45.2553" lon="6.03315">
        <ele>2114</ele>
        <time>2013-02-10T08:28:53Z</time>
      </trkpt>
      <trkpt lat="45.25537" lon="6.033">
        <ele>2112</ele>
        <time>2013-02-10T08:28:54Z</time>
      </trkpt>
      <trkpt lat="45.2555" lon="6.03267">
        <ele>2108</ele>
        <time>2013-02-10T08:28:56Z</time>
      </trkpt>
      <trkpt lat="45.25577" lon="6.03205">
        <ele>2108</ele>
        <time>2013-02-10T08:29:00Z</time>
      </trkpt>
      <trkpt lat="45.25591" lon="6.03179">
        <ele>2086</ele>
        <time>2013-02-10T08:29:02Z</time>
      </trkpt>
      <trkpt lat="45.2562" lon="6.03163">
        <ele>2090</ele>
        <time>2013-02-10T08:29:06Z</time>
      </trkpt>
      <trkpt lat="45.25629" lon="6.03181">
        <ele>2079</ele>
        <time>2013-02-10T08:29:09Z</time>
      </trkpt>
      <trkpt lat="45.25631" lon="6.03212">
        <ele>2075</ele>
        <time>2013-02-10T08:29:12Z</time>
      </trkpt>
      <trkpt lat="45.25631" lon="6.03242">
        <ele>2071</ele>
        <time>2013-02-10T08:29:14Z</time>
      </trkpt>
      <trkpt lat="45.25641" lon="6.03266">
        <ele>2057</ele>
        <time>2013-02-10T08:29:16Z</time>
      </trkpt>
      <trkpt lat="45.25674" lon="6.03293">
        <ele>2037</ele>
        <time>2013-02-10T08:29:19Z</time>
      </trkpt>
      <trkpt lat="45.25703" lon="6.03338">
        <ele>2025</ele>
        <time>2013-02-10T08:29:22Z</time>
      </trkpt>
      <trkpt lat="45.25726" lon="6.03407">
        <ele>2019</ele>
        <time>2013-02-10T08:29:26Z</time>
      </trkpt>
      <trkpt lat="45.25723" lon="6.03454">
        <ele>2009</ele>
        <time>2013-02-10T08:29:29Z</time>
      </trkpt>
      <trkpt lat="45.25724" lon="6.03482">
        <ele>2007</ele>
        <time>2013-02-10T08:29:31Z</time>
      </trkpt>
      <trkpt lat="45.25726" lon="6.03521">
        <ele>1996</ele>
        <time>2013-02-10T08:29:34Z</time>
      </trkpt>
      <trkpt lat="45.25722" lon="6.0357">
        <ele>1990</ele>
        <time>2013-02-10T08:29:37Z</time>
      </trkpt>
      <trkpt lat="45.2572" lon="6.03627">
        <ele>1980</ele>
        <time>2013-02-10T08:29:41Z</time>
      </trkpt>
      <trkpt lat="45.25717" lon="6.03652">
        <ele>1978</ele>
        <time>2013-02-10T08:29:46Z</time>
      </trkpt>
      <trkpt lat="45.25716" lon="6.0365">
        <ele>1979</ele>
        <time>2013-02-10T08:29:54Z</time>
      </trkpt>
      <trkpt lat="45.25719" lon="6.03661">
        <ele>1976</ele>
        <time>2013-02-10T08:29:56Z</time>
      </trkpt>
      <trkpt lat="45.25742" lon="6.03709">
        <ele>1963</ele>
        <time>2013-02-10T08:30:00Z</time>
      </trkpt>
      <trkpt lat="45.25749" lon="6.03723">
        <ele>1959</ele>
        <time>2013-02-10T08:30:01Z</time>
      </trkpt>
      <trkpt lat="45.25779" lon="6.03782">
        <ele>1927</ele>
        <time>2013-02-10T08:30:05Z</time>
      </trkpt>
      <trkpt lat="45.25809" lon="6.03848">
        <ele>1905</ele>
        <time>2013-02-10T08:30:09Z</time>
      </trkpt>
      <trkpt lat="45.25828" lon="6.03899">
        <ele>1896</ele>
        <time>2013-02-10T08:30:12Z</time>
      </trkpt>
      <trkpt lat="45.25835" lon="6.03938">
        <ele>1883</ele>
        <time>2013-02-10T08:30:15Z</time>
      </trkpt>
      <trkpt lat="45.25834" lon="6.03944">
        <ele>1881</ele>
        <time>2013-02-10T08:30:21Z</time>
      </trkpt>
      <trkpt lat="45.25833" lon="6.03943">
        <ele>1886</ele>
        <time>2013-02-10T08:30:29Z</time>
      </trkpt>
      <trkpt lat="45.25834" lon="6.03943">
        <ele>1882</ele>
        <time>2013-02-10T08:30:46Z</time>
      </trkpt>
      <trkpt lat="45.25834" lon="6.03943">
        <ele>1882</ele>
        <time>2013-02-10T08:30:55Z</time>
      </trkpt>
      <trkpt lat="45.25834" lon="6.03946">
        <ele>1881</ele>
        <time>2013-02-10T08:30:59Z</time>
      </trkpt>
      <trkpt lat="45.2582" lon="6.03955">
        <ele>1884</ele>
        <time>2013-02-10T08:31:03Z</time>
      </trkpt>
      <trkpt lat="45.25814" lon="6.03972">
        <ele>1882</ele>
        <time>2013-02-10T08:31:05Z</time>
      </trkpt>
      <trkpt lat="45.25802" lon="6.04014">
        <ele>1872</ele>
        <time>2013-02-10T08:31:09Z</time>
      </trkpt>
      <trkpt lat="45.25802" lon="6.04047">
        <ele>1869</ele>
        <time>2013-02-10T08:31:13Z</time>
      </trkpt>
      <trkpt lat="45.2581" lon="6.04075">
        <ele>1866</ele>
        <time>2013-02-10T08:31:17Z</time>
      </trkpt>
      <trkpt lat="45.25801" lon="6.04113">
        <ele>1856</ele>
        <time>2013-02-10T08:31:22Z</time>
      </trkpt>
      <trkpt lat="45.2579" lon="6.04146">
        <ele>1853</ele>
        <time>2013-02-10T08:31:25Z</time>
      </trkpt>
      <trkpt lat="45.25777" lon="6.04202">
        <ele>1841</ele>
        <time>2013-02-10T08:31:29Z</time>
      </trkpt>
      <trkpt lat="45.25768" lon="6.0426">
        <ele>1830</ele>
        <time>2013-02-10T08:31:33Z</time>
      </trkpt>
      <trkpt lat="45.25764" lon="6.04315">
        <ele>1823</ele>
        <time>2013-02-10T08:31:37Z</time>
      </trkpt>
      <trkpt lat="45.25765" lon="6.04326">
        <ele>1823</ele>
        <time>2013-02-10T08:31:38Z</time>
      </trkpt>
      <trkpt lat="45.25769" lon="6.04348">
        <ele>1812</ele>
        <time>2013-02-10T08:31:42Z</time>
      </trkpt>
      <trkpt lat="45.25771" lon="6.04347">
        <ele>1812</ele>
        <time>2013-02-10T08:31:45Z</time>
      </trkpt>
      <trkpt lat="45.25772" lon="6.04347">
        <ele>1812</ele>
        <time>2013-02-10T08:31:52Z</time>
      </trkpt>
      <trkpt lat="45.25781" lon="6.04359">
        <ele>1809</ele>
        <time>2013-02-10T08:31:55Z</time>
      </trkpt>
      <trkpt lat="45.25784" lon="6.04372">
        <ele>1808</ele>
        <time>2013-02-10T08:31:57Z</time>
      </trkpt>
      <trkpt lat="45.25786" lon="6.04374">
        <ele>1807</ele>
        <time>2013-02-10T08:32:00Z</time>
      </trkpt>
      <trkpt lat="45.25787" lon="6.04374">
        <ele>1807</ele>
        <time>2013-02-10T08:32:03Z</time>
      </trkpt>
      <trkpt lat="45.25799" lon="6.04396">
        <ele>1803</ele>
        <time>2013-02-10T08:32:07Z</time>
      </trkpt>
      <trkpt lat="45.25813" lon="6.04419">
        <ele>1788</ele>
        <time>2013-02-10T08:32:09Z</time>
      </trkpt>
      <trkpt lat="45.25843" lon="6.0446">
        <ele>1772</ele>
        <time>2013-02-10T08:32:12Z</time>
      </trkpt>
      <trkpt lat="45.25889" lon="6.04516">
        <ele>1746</ele>
        <time>2013-02-10T08:32:16Z</time>
      </trkpt>
      <trkpt lat="45.25924" lon="6.04557">
        <ele>1733</ele>
        <time>2013-02-10T08:32:19Z</time>
      </trkpt>
      <trkpt lat="45.25949" lon="6.04581">
        <ele>1732</ele>
        <time>2013-02-10T08:32:21Z</time>
      </trkpt>
      <trkpt lat="45.25989" lon="6.04615">
        <ele>1712</ele>
        <time>2013-02-10T08:32:24Z</time>
      </trkpt>
      <trkpt lat="45.26042" lon="6.0466">
        <ele>1703</ele>
        <time>2013-02-10T08:32:28Z</time>
      </trkpt>
      <trkpt lat="45.26096" lon="6.04706">
        <ele>1682</ele>
        <time>2013-02-10T08:32:32Z</time>
      </trkpt>
      <trkpt lat="45.26144" lon="6.04766">
        <ele>1665</ele>
        <time>2013-02-10T08:32:37Z</time>
      </trkpt>
      <trkpt lat="45.26152" lon="6.04778">
        <ele>1664</ele>
        <time>2013-02-10T08:32:38Z</time>
      </trkpt>
      <trkpt lat="45.26171" lon="6.04824">
        <ele>1666</ele>
        <time>2013-02-10T08:32:42Z</time>
      </trkpt>
      <trkpt lat="45.26167" lon="6.04829">
        <ele>1665</ele>
        <time>2013-02-10T08:32:44Z</time>
      </trkpt>
      <trkpt lat="45.26164" lon="6.04828">
        <ele>1662</ele>
        <time>2013-02-10T08:32:49Z</time>
      </trkpt>
      <trkpt lat="45.26161" lon="6.04826">
        <ele>1662</ele>
        <time>2013-02-10T08:32:55Z</time>
      </trkpt>
      <trkpt lat="45.26159" lon="6.04824">
        <ele>1662</ele>
        <time>2013-02-10T08:32:59Z</time>
      </trkpt>
      <trkpt lat="45.26156" lon="6.0482">
        <ele>1662</ele>
        <time>2013-02-10T08:33:06Z</time>
      </trkpt>
      <trkpt lat="45.26155" lon="6.0482">
        <ele>1662</ele>
        <time>2013-02-10T08:33:19Z</time>
      </trkpt>
      <trkpt lat="45.26151" lon="6.0482">
        <ele>1661</ele>
        <time>2013-02-10T08:33:24Z</time>
      </trkpt>
      <trkpt lat="45.26142" lon="6.04804">
        <ele>1661</ele>
        <time>2013-02-10T08:33:40Z</time>
      </trkpt>
      <trkpt lat="45.26138" lon="6.04789">
        <ele>1662</ele>
        <time>2013-02-10T08:33:43Z</time>
      </trkpt>
      <trkpt lat="45.26132" lon="6.04769">
        <ele>1663</ele>
        <time>2013-02-10T08:33:47Z</time>
      </trkpt>
      <trkpt lat="45.26119" lon="6.04749">
        <ele>1677</ele>
        <time>2013-02-10T08:33:51Z</time>
      </trkpt>
      <trkpt lat="45.26103" lon="6.04721">
        <ele>1679</ele>
        <time>2013-02-10T08:33:57Z</time>
      </trkpt>
      <trkpt lat="45.26088" lon="6.04694">
        <ele>1685</ele>
        <time>2013-02-10T08:34:03Z</time>
      </trkpt>
      <trkpt lat="45.26078" lon="6.04676">
        <ele>1689</ele>
        <time>2013-02-10T08:34:07Z</time>
      </trkpt>
      <trkpt lat="45.26068" lon="6.04656">
        <ele>1701</ele>
        <time>2013-02-10T08:34:11Z</time>
      </trkpt>
      <trkpt lat="45.26063" lon="6.04647">
        <ele>1704</ele>
        <time>2013-02-10T08:34:13Z</time>
      </trkpt>
      <trkpt lat="45.26059" lon="6.04638">
        <ele>1706</ele>
        <time>2013-02-10T08:34:15Z</time>
      </trkpt>
      <trkpt lat="45.26049" lon="6.0462">
        <ele>1709</ele>
        <time>2013-02-10T08:34:19Z</time>
      </trkpt>
      <trkpt lat="45.26026" lon="6.04578">
        <ele>1731</ele>
        <time>2013-02-10T08:34:28Z</time>
      </trkpt>
      <trkpt lat="45.26002" lon="6.04533">
        <ele>1739</ele>
        <time>2013-02-10T08:34:38Z</time>
      </trkpt>
      <trkpt lat="45.25985" lon="6.04501">
        <ele>1744</ele>
        <time>2013-02-10T08:34:45Z</time>
      </trkpt>
      <trkpt lat="45.25959" lon="6.04451">
        <ele>1764</ele>
        <time>2013-02-10T08:34:56Z</time>
      </trkpt>
      <trkpt lat="45.25937" lon="6.0441">
        <ele>1784</ele>
        <time>2013-02-10T08:35:05Z</time>
      </trkpt>
      <trkpt lat="45.25915" lon="6.04369">
        <ele>1796</ele>
        <time>2013-02-10T08:35:14Z</time>
      </trkpt>
      <trkpt lat="45.25897" lon="6.04333">
        <ele>1815</ele>
        <time>2013-02-10T08:35:22Z</time>
      </trkpt>
      <trkpt lat="45.25878" lon="6.04296">
        <ele>1820</ele>
        <time>2013-02-10T08:35:30Z</time>
      </trkpt>
      <trkpt lat="45.2586" lon="6.04263">
        <ele>1824</ele>
        <time>2013-02-10T08:35:37Z</time>
      </trkpt>
      <trkpt lat="45.2584" lon="6.04226">
        <ele>1838</ele>
        <time>2013-02-10T08:35:45Z</time>
      </trkpt>
      <trkpt lat="45.25818" lon="6.04183">
        <ele>1843</ele>
        <time>2013-02-10T08:35:54Z</time>
      </trkpt>
      <trkpt lat="45.25797" lon="6.04145">
        <ele>1853</ele>
        <time>2013-02-10T08:36:02Z</time>
      </trkpt>
      <trkpt lat="45.2577" lon="6.04092">
        <ele>1859</ele>
        <time>2013-02-10T08:36:13Z</time>
      </trkpt>
      <trkpt lat="45.25743" lon="6.04041">
        <ele>1888</ele>
        <time>2013-02-10T08:36:24Z</time>
      </trkpt>
      <trkpt lat="45.25719" lon="6.03995">
        <ele>1905</ele>
        <time>2013-02-10T08:36:35Z</time>
      </trkpt>
      <trkpt lat="45.25691" lon="6.03943">
        <ele>1920</ele>
        <time>2013-02-10T08:36:48Z</time>
      </trkpt>
      <trkpt lat="45.25668" lon="6.039">
        <ele>1941</ele>
        <time>2013-02-10T08:36:59Z</time>
      </trkpt>
      <trkpt lat="45.25645" lon="6.03857">
        <ele>1979</ele>
        <time>2013-02-10T08:37:10Z</time>
      </trkpt>
      <trkpt lat="45.25616" lon="6.03802">
        <ele>2007</ele>
        <time>2013-02-10T08:37:24Z</time>
      </trkpt>
      <trkpt lat="45.25602" lon="6.03777">
        <ele>2016</ele>
        <time>2013-02-10T08:37:30Z</time>
      </trkpt>
      <trkpt lat="45.25584" lon="6.03742">
        <ele>2041</ele>
        <time>2013-02-10T08:37:38Z</time>
      </trkpt>
      <trkpt lat="45.25566" lon="6.03708">
        <ele>2063</ele>
        <time>2013-02-10T08:37:46Z</time>
      </trkpt>
      <trkpt lat="45.2555" lon="6.03679">
        <ele>2068</ele>
        <time>2013-02-10T08:37:52Z</time>
      </trkpt>
      <trkpt lat="45.25527" lon="6.03637">
        <ele>2086</ele>
        <time>2013-02-10T08:38:01Z</time>
      </trkpt>
      <trkpt lat="45.25503" lon="6.0359">
        <ele>2101</ele>
        <time>2013-02-10T08:38:11Z</time>
      </trkpt>
      <trkpt lat="45.25483" lon="6.03552">
        <ele>2109</ele>
        <time>2013-02-10T08:38:19Z</time>
      </trkpt>
      <trkpt lat="45.2545" lon="6.0349">
        <ele>2122</ele>
        <time>2013-02-10T08:38:32Z</time>
      </trkpt>
      <trkpt lat="45.25426" lon="6.03445">
        <ele>2127</ele>
        <time>2013-02-10T08:38:42Z</time>
      </trkpt>
      <trkpt lat="45.25391" lon="6.03378">
        <ele>2167</ele>
        <time>2013-02-10T08:38:58Z</time>
      </trkpt>
      <trkpt lat="45.25369" lon="6.03336">
        <ele>2181</ele>
        <time>2013-02-10T08:39:08Z</time>
      </trkpt>
      <trkpt lat="45.25351" lon="6.03303">
        <ele>2204</ele>
        <time>2013-02-10T08:39:16Z</time>
      </trkpt>
      <trkpt lat="45.25342" lon="6.03282">
        <ele>2208</ele>
        <time>2013-02-10T08:39:21Z</time>
      </trkpt>
      <trkpt lat="45.25337" lon="6.03271">
        <ele>2213</ele>
        <time>2013-02-10T08:39:27Z</time>
      </trkpt>
      <trkpt lat="45.25339" lon="6.03266">
        <ele>2216</ele>
        <time>2013-02-10T08:39:29Z</time>
      </trkpt>
      <trkpt lat="45.25344" lon="6.03263">
        <ele>2215</ele>
        <time>2013-02-10T08:39:38Z</time>
      </trkpt>
      <trkpt lat="45.25351" lon="6.03264">
        <ele>2211</ele>
        <time>2013-02-10T08:39:43Z</time>
      </trkpt>
      <trkpt lat="45.25357" lon="6.03267">
        <ele>2208</ele>
        <time>2013-02-10T08:39:49Z</time>
      </trkpt>
      <trkpt lat="45.25357" lon="6.03267">
        <ele>2208</ele>
        <time>2013-02-10T08:40:05Z</time>
      </trkpt>
      <trkpt lat="45.25357" lon="6.03268">
        <ele>2208</ele>
        <time>2013-02-10T08:40:22Z</time>
      </trkpt>
      <trkpt lat="45.2536" lon="6.0327">
        <ele>2207</ele>
        <time>2013-02-10T08:40:49Z</time>
      </trkpt>
      <trkpt lat="45.25371" lon="6.03282">
        <ele>2201</ele>
        <time>2013-02-10T08:40:54Z</time>
      </trkpt>
      <trkpt lat="45.25381" lon="6.03277">
        <ele>2199</ele>
        <time>2013-02-10T08:40:56Z</time>
      </trkpt>
      <trkpt lat="45.25402" lon="6.03252">
        <ele>2193</ele>
        <time>2013-02-10T08:41:00Z</time>
      </trkpt>
      <trkpt lat="45.25421" lon="6.03234">
        <ele>2174</ele>
        <time>2013-02-10T08:41:03Z</time>
      </trkpt>
      <trkpt lat="45.25448" lon="6.0321">
        <ele>2162</ele>
        <time>2013-02-10T08:41:07Z</time>
      </trkpt>
      <trkpt lat="45.25464" lon="6.03201">
        <ele>2159</ele>
        <time>2013-02-10T08:41:09Z</time>
      </trkpt>
      <trkpt lat="45.25492" lon="6.03212">
        <ele>2156</ele>
        <time>2013-02-10T08:41:12Z</time>
      </trkpt>
      <trkpt lat="45.25495" lon="6.03243">
        <ele>2153</ele>
        <time>2013-02-10T08:41:14Z</time>
      </trkpt>
      <trkpt lat="45.25484" lon="6.03269">
        <ele>2156</ele>
        <time>2013-02-10T08:41:16Z</time>
      </trkpt>
      <trkpt lat="45.2548" lon="6.03295">
        <ele>2155</ele>
        <time>2013-02-10T08:41:18Z</time>
      </trkpt>
      <trkpt lat="45.25487" lon="6.03329">
        <ele>2146</ele>
        <time>2013-02-10T08:41:21Z</time>
      </trkpt>
      <trkpt lat="45.25506" lon="6.03334">
        <ele>2128</ele>
        <time>2013-02-10T08:41:23Z</time>
      </trkpt>
      <trkpt lat="45.25524" lon="6.03317">
        <ele>2118</ele>
        <time>2013-02-10T08:41:25Z</time>
      </trkpt>
      <trkpt lat="45.25538" lon="6.03295">
        <ele>2112</ele>
        <time>2013-02-10T08:41:27Z</time>
      </trkpt>
      <trkpt lat="45.25548" lon="6.03269">
        <ele>2109</ele>
        <time>2013-02-10T08:41:29Z</time>
      </trkpt>
      <trkpt lat="45.25567" lon="6.0322">
        <ele>2108</ele>
        <time>2013-02-10T08:41:33Z</time>
      </trkpt>
      <trkpt lat="45.25585" lon="6.0319">
        <ele>2084</ele>
        <time>2013-02-10T08:41:36Z</time>
      </trkpt>
      <trkpt lat="45.25604" lon="6.03171">
        <ele>2084</ele>
        <time>2013-02-10T08:41:39Z</time>
      </trkpt>
      <trkpt lat="45.25625" lon="6.03167">
        <ele>2080</ele>
        <time>2013-02-10T08:41:42Z</time>
      </trkpt>
      <trkpt lat="45.25637" lon="6.03173">
        <ele>2078</ele>
        <time>2013-02-10T08:41:44Z</time>
      </trkpt>
      <trkpt lat="45.25644" lon="6.03176">
        <ele>2078</ele>
        <time>2013-02-10T08:41:45Z</time>
      </trkpt>
      <trkpt lat="45.2568" lon="6.03183">
        <ele>2065</ele>
        <time>2013-02-10T08:41:49Z</time>
      </trkpt>
      <trkpt lat="45.25721" lon="6.0319">
        <ele>2057</ele>
        <time>2013-02-10T08:41:53Z</time>
      </trkpt>
      <trkpt lat="45.25763" lon="6.03206">
        <ele>2044</ele>
        <time>2013-02-10T08:41:57Z</time>
      </trkpt>
      <trkpt lat="45.25798" lon="6.03253">
        <ele>2037</ele>
        <time>2013-02-10T08:42:01Z</time>
      </trkpt>
      <trkpt lat="45.2583" lon="6.0332">
        <ele>2033</ele>
        <time>2013-02-10T08:42:05Z</time>
      </trkpt>
      <trkpt lat="45.25864" lon="6.03387">
        <ele>2030</ele>
        <time>2013-02-10T08:42:09Z</time>
      </trkpt>
      <trkpt lat="45.25895" lon="6.03441">
        <ele>2024</ele>
        <time>2013-02-10T08:42:13Z</time>
      </trkpt>
      <trkpt lat="45.25915" lon="6.03476">
        <ele>2020</ele>
        <time>2013-02-10T08:42:16Z</time>
      </trkpt>
      <trkpt lat="45.25937" lon="6.03514">
        <ele>2016</ele>
        <time>2013-02-10T08:42:20Z</time>
      </trkpt>
      <trkpt lat="45.25972" lon="6.03576">
        <ele>2010</ele>
        <time>2013-02-10T08:42:26Z</time>
      </trkpt>
      <trkpt lat="45.25985" lon="6.036">
        <ele>1994</ele>
        <time>2013-02-10T08:42:28Z</time>
      </trkpt>
      <trkpt lat="45.26026" lon="6.0365">
        <ele>1998</ele>
        <time>2013-02-10T08:42:33Z</time>
      </trkpt>
      <trkpt lat="45.26053" lon="6.03703">
        <ele>1981</ele>
        <time>2013-02-10T08:42:37Z</time>
      </trkpt>
      <trkpt lat="45.26069" lon="6.0375">
        <ele>1969</ele>
        <time>2013-02-10T08:42:40Z</time>
      </trkpt>
      <trkpt lat="45.26097" lon="6.03806">
        <ele>1973</ele>
        <time>2013-02-10T08:42:44Z</time>
      </trkpt>
      <trkpt lat="45.26113" lon="6.03831">
        <ele>1972</ele>
        <time>2013-02-10T08:42:46Z</time>
      </trkpt>
      <trkpt lat="45.26141" lon="6.03874">
        <ele>1954</ele>
        <time>2013-02-10T08:42:50Z</time>
      </trkpt>
      <trkpt lat="45.26152" lon="6.03895">
        <ele>1951</ele>
        <time>2013-02-10T08:42:53Z</time>
      </trkpt>
      <trkpt lat="45.26171" lon="6.03922">
        <ele>1946</ele>
        <time>2013-02-10T08:42:57Z</time>
      </trkpt>
      <trkpt lat="45.26186" lon="6.03942">
        <ele>1943</ele>
        <time>2013-02-10T08:43:00Z</time>
      </trkpt>
      <trkpt lat="45.26191" lon="6.0395">
        <ele>1942</ele>
        <time>2013-02-10T08:43:01Z</time>
      </trkpt>
      <trkpt lat="45.26212" lon="6.0398">
        <ele>1939</ele>
        <time>2013-02-10T08:43:04Z</time>
      </trkpt>
      <trkpt lat="45.26239" lon="6.04009">
        <ele>1927</ele>
        <time>2013-02-10T08:43:07Z</time>
      </trkpt>
      <trkpt lat="45.26267" lon="6.04039">
        <ele>1923</ele>
        <time>2013-02-10T08:43:10Z</time>
      </trkpt>
      <trkpt lat="45.26295" lon="6.04068">
        <ele>1918</ele>
        <time>2013-02-10T08:43:13Z</time>
      </trkpt>
      <trkpt lat="45.26315" lon="6.04082">
        <ele>1914</ele>
        <time>2013-02-10T08:43:15Z</time>
      </trkpt>
      <trkpt lat="45.26334" lon="6.04097">
        <ele>1897</ele>
        <time>2013-02-10T08:43:17Z</time>
      </trkpt>
      <trkpt lat="45.26345" lon="6.04101">
        <ele>1893</ele>
        <time>2013-02-10T08:43:18Z</time>
      </trkpt>
      <trkpt lat="45.26387" lon="6.0411">
        <ele>1885</ele>
        <time>2013-02-10T08:43:22Z</time>
      </trkpt>
      <trkpt lat="45.26417" lon="6.0411">
        <ele>1883</ele>
        <time>2013-02-10T08:43:25Z</time>
      </trkpt>
      <trkpt lat="45.26426" lon="6.04107">
        <ele>1876</ele>
        <time>2013-02-10T08:43:26Z</time>
      </trkpt>
      <trkpt lat="45.26477" lon="6.04105">
        <ele>1871</ele>
        <time>2013-02-10T08:43:31Z</time>
      </trkpt>
      <trkpt lat="45.26488" lon="6.0411">
        <ele>1870</ele>
        <time>2013-02-10T08:43:32Z</time>
      </trkpt>
      <trkpt lat="45.26538" lon="6.04143">
        <ele>1859</ele>
        <time>2013-02-10T08:43:37Z</time>
      </trkpt>
      <trkpt lat="45.26546" lon="6.0415">
        <ele>1858</ele>
        <time>2013-02-10T08:43:39Z</time>
      </trkpt>
      <trkpt lat="45.26551" lon="6.04149">
        <ele>1858</ele>
        <time>2013-02-10T08:43:41Z</time>
      </trkpt>
      <trkpt lat="45.26551" lon="6.04147">
        <ele>1858</ele>
        <time>2013-02-10T08:43:47Z</time>
      </trkpt>
      <trkpt lat="45.26554" lon="6.04148">
        <ele>1858</ele>
        <time>2013-02-10T08:43:52Z</time>
      </trkpt>
      <trkpt lat="45.26559" lon="6.04155">
        <ele>1856</ele>
        <time>2013-02-10T08:43:55Z</time>
      </trkpt>
      <trkpt lat="45.26559" lon="6.04156">
        <ele>1856</ele>
        <time>2013-02-10T08:44:00Z</time>
      </trkpt>
      <trkpt lat="45.26559" lon="6.04157">
        <ele>1856</ele>
        <time>2013-02-10T08:44:08Z</time>
      </trkpt>
      <trkpt lat="45.2656" lon="6.04157">
        <ele>1856</ele>
        <time>2013-02-10T08:44:10Z</time>
      </trkpt>
      <trkpt lat="45.26578" lon="6.04164">
        <ele>1851</ele>
        <time>2013-02-10T08:44:14Z</time>
      </trkpt>
      <trkpt lat="45.26596" lon="6.04169">
        <ele>1843</ele>
        <time>2013-02-10T08:44:16Z</time>
      </trkpt>
      <trkpt lat="45.26631" lon="6.04178">
        <ele>1835</ele>
        <time>2013-02-10T08:44:20Z</time>
      </trkpt>
      <trkpt lat="45.26651" lon="6.04183">
        <ele>1832</ele>
        <time>2013-02-10T08:44:22Z</time>
      </trkpt>
      <trkpt lat="45.26682" lon="6.0419">
        <ele>1818</ele>
        <time>2013-02-10T08:44:25Z</time>
      </trkpt>
      <trkpt lat="45.267" lon="6.042">
        <ele>1814</ele>
        <time>2013-02-10T08:44:27Z</time>
      </trkpt>
      <trkpt lat="45.26718" lon="6.04207">
        <ele>1811</ele>
        <time>2013-02-10T08:44:29Z</time>
      </trkpt>
      <trkpt lat="45.26723" lon="6.04217">
        <ele>1809</ele>
        <time>2013-02-10T08:44:30Z</time>
      </trkpt>
      <trkpt lat="45.26753" lon="6.04273">
        <ele>1777</ele>
        <time>2013-02-10T08:44:35Z</time>
      </trkpt>
      <trkpt lat="45.26762" lon="6.04306">
        <ele>1771</ele>
        <time>2013-02-10T08:44:37Z</time>
      </trkpt>
      <trkpt lat="45.26786" lon="6.04366">
        <ele>1754</ele>
        <time>2013-02-10T08:44:41Z</time>
      </trkpt>
      <trkpt lat="45.26789" lon="6.0438">
        <ele>1752</ele>
        <time>2013-02-10T08:44:42Z</time>
      </trkpt>
      <trkpt lat="45.26802" lon="6.04423">
        <ele>1735</ele>
        <time>2013-02-10T08:44:45Z</time>
      </trkpt>
      <trkpt lat="45.26826" lon="6.04478">
        <ele>1726</ele>
        <time>2013-02-10T08:44:49Z</time>
      </trkpt>
      <trkpt lat="45.26836" lon="6.04509">
        <ele>1709</ele>
        <time>2013-02-10T08:44:51Z</time>
      </trkpt>
      <trkpt lat="45.26835" lon="6.04525">
        <ele>1704</ele>
        <time>2013-02-10T08:44:52Z</time>
      </trkpt>
      <trkpt lat="45.26843" lon="6.04596">
        <ele>1680</ele>
        <time>2013-02-10T08:44:56Z</time>
      </trkpt>
      <trkpt lat="45.26841" lon="6.04614">
        <ele>1675</ele>
        <time>2013-02-10T08:44:57Z</time>
      </trkpt>
      <trkpt lat="45.26851" lon="6.04676">
        <ele>1656</ele>
        <time>2013-02-10T08:45:01Z</time>
      </trkpt>
      <trkpt lat="45.26864" lon="6.04705">
        <ele>1650</ele>
        <time>2013-02-10T08:45:03Z</time>
      </trkpt>
      <trkpt lat="45.26903" lon="6.04754">
        <ele>1631</ele>
        <time>2013-02-10T08:45:07Z</time>
      </trkpt>
      <trkpt lat="45.26931" lon="6.0479">
        <ele>1619</ele>
        <time>2013-02-10T08:45:10Z</time>
      </trkpt>
      <trkpt lat="45.2694" lon="6.04817">
        <ele>1616</ele>
        <time>2013-02-10T08:45:12Z</time>
      </trkpt>
      <trkpt lat="45.26953" lon="6.0484">
        <ele>1603</ele>
        <time>2013-02-10T08:45:14Z</time>
      </trkpt>
      <trkpt lat="45.2698" lon="6.04868">
        <ele>1599</ele>
        <time>2013-02-10T08:45:17Z</time>
      </trkpt>
      <trkpt lat="45.27014" lon="6.04922">
        <ele>1584</ele>
        <time>2013-02-10T08:45:21Z</time>
      </trkpt>
      <trkpt lat="45.27022" lon="6.04938">
        <ele>1583</ele>
        <time>2013-02-10T08:45:22Z</time>
      </trkpt>
      <trkpt lat="45.27043" lon="6.04991">
        <ele>1578</ele>
        <time>2013-02-10T08:45:25Z</time>
      </trkpt>
      <trkpt lat="45.27063" lon="6.05055">
        <ele>1561</ele>
        <time>2013-02-10T08:45:29Z</time>
      </trkpt>
      <trkpt lat="45.27062" lon="6.05073">
        <ele>1559</ele>
        <time>2013-02-10T08:45:31Z</time>
      </trkpt>
      <trkpt lat="45.27062" lon="6.05075">
        <ele>1558</ele>
        <time>2013-02-10T08:45:33Z</time>
      </trkpt>
      <trkpt lat="45.27064" lon="6.05075">
        <ele>1558</ele>
        <time>2013-02-10T08:45:36Z</time>
      </trkpt>
      <trkpt lat="45.27063" lon="6.05095">
        <ele>1549</ele>
        <time>2013-02-10T08:45:40Z</time>
      </trkpt>
      <trkpt lat="45.27062" lon="6.05103">
        <ele>1548</ele>
        <time>2013-02-10T08:45:41Z</time>
      </trkpt>
      <trkpt lat="45.27064" lon="6.05123">
        <ele>1546</ele>
        <time>2013-02-10T08:45:43Z</time>
      </trkpt>
      <trkpt lat="45.27074" lon="6.05175">
        <ele>1530</ele>
        <time>2013-02-10T08:45:47Z</time>
      </trkpt>
      <trkpt lat="45.27093" lon="6.05231">
        <ele>1517</ele>
        <time>2013-02-10T08:45:51Z</time>
      </trkpt>
      <trkpt lat="45.27107" lon="6.05259">
        <ele>1502</ele>
        <time>2013-02-10T08:45:53Z</time>
      </trkpt>
      <trkpt lat="45.27145" lon="6.05319">
        <ele>1491</ele>
        <time>2013-02-10T08:45:58Z</time>
      </trkpt>
      <trkpt lat="45.2715" lon="6.05344">
        <ele>1478</ele>
        <time>2013-02-10T08:46:00Z</time>
      </trkpt>
      <trkpt lat="45.27153" lon="6.05367">
        <ele>1476</ele>
        <time>2013-02-10T08:46:02Z</time>
      </trkpt>
      <trkpt lat="45.27154" lon="6.05383">
        <ele>1473</ele>
        <time>2013-02-10T08:46:07Z</time>
      </trkpt>
      <trkpt lat="45.27154" lon="6.0538">
        <ele>1474</ele>
        <time>2013-02-10T08:46:14Z</time>
      </trkpt>
      <trkpt lat="45.27153" lon="6.05382">
        <ele>1473</ele>
        <time>2013-02-10T08:46:20Z</time>
      </trkpt>
      <trkpt lat="45.27153" lon="6.05384">
        <ele>1473</ele>
        <time>2013-02-10T08:46:29Z</time>
      </trkpt>
      <trkpt lat="45.27152" lon="6.05387">
        <ele>1473</ele>
        <time>2013-02-10T08:46:33Z</time>
      </trkpt>
      <trkpt lat="45.27154" lon="6.05401">
        <ele>1471</ele>
        <time>2013-02-10T08:46:37Z</time>
      </trkpt>
      <trkpt lat="45.27158" lon="6.05423">
        <ele>1464</ele>
        <time>2013-02-10T08:46:40Z</time>
      </trkpt>
      <trkpt lat="45.27161" lon="6.05432">
        <ele>1463</ele>
        <time>2013-02-10T08:46:41Z</time>
      </trkpt>
      <trkpt lat="45.27168" lon="6.05455">
        <ele>1463</ele>
        <time>2013-02-10T08:46:43Z</time>
      </trkpt>
      <trkpt lat="45.27184" lon="6.05478">
        <ele>1461</ele>
        <time>2013-02-10T08:46:46Z</time>
      </trkpt>
      <trkpt lat="45.27195" lon="6.05482">
        <ele>1461</ele>
        <time>2013-02-10T08:46:48Z</time>
      </trkpt>
      <trkpt lat="45.27203" lon="6.05483">
        <ele>1462</ele>
        <time>2013-02-10T08:46:50Z</time>
      </trkpt>
      <trkpt lat="45.27212" lon="6.05486">
        <ele>1463</ele>
        <time>2013-02-10T08:46:54Z</time>
      </trkpt>
      <trkpt lat="45.27219" lon="6.05484">
        <ele>1463</ele>
        <time>2013-02-10T08:46:59Z</time>
      </trkpt>
      <trkpt lat="45.27219" lon="6.05481">
        <ele>1463</ele>
        <time>2013-02-10T08:47:02Z</time>
      </trkpt>
      <trkpt lat="45.27215" lon="6.05476">
        <ele>1463</ele>
        <time>2013-02-10T08:47:10Z</time>
      </trkpt>
      <trkpt lat="45.27213" lon="6.05474">
        <ele>1463</ele>
        <time>2013-02-10T08:47:19Z</time>
      </trkpt>
      <trkpt lat="45.27212" lon="6.0548">
        <ele>1463</ele>
        <time>2013-02-10T08:47:33Z</time>
      </trkpt>
      <trkpt lat="45.27211" lon="6.05482">
        <ele>1463</ele>
        <time>2013-02-10T08:47:39Z</time>
      </trkpt>
      <trkpt lat="45.27211" lon="6.05481">
        <ele>1463</ele>
        <time>2013-02-10T08:47:47Z</time>
      </trkpt>
      <trkpt lat="45.27209" lon="6.0548">
        <ele>1463</ele>
        <time>2013-02-10T08:47:55Z</time>
      </trkpt>
      <trkpt lat="45.27206" lon="6.05478">
        <ele>1462</ele>
        <time>2013-02-10T08:48:01Z</time>
      </trkpt>
      <trkpt lat="45.27203" lon="6.05475">
        <ele>1463</ele>
        <time>2013-02-10T08:48:07Z</time>
      </trkpt>
      <trkpt lat="45.27204" lon="6.05471">
        <ele>1463</ele>
        <time>2013-02-10T08:48:13Z</time>
      </trkpt>
      <trkpt lat="45.27204" lon="6.05467">
        <ele>1463</ele>
        <time>2013-02-10T08:48:23Z</time>
      </trkpt>
      <trkpt lat="45.27205" lon="6.05459">
        <ele>1464</ele>
        <time>2013-02-10T08:48:34Z</time>
      </trkpt>
      <trkpt lat="45.27206" lon="6.05451">
        <ele>1464</ele>
        <time>2013-02-10T08:48:38Z</time>
      </trkpt>
      <trkpt lat="45.2721" lon="6.05437">
        <ele>1466</ele>
        <time>2013-02-10T08:48:43Z</time>
      </trkpt>
      <trkpt lat="45.27214" lon="6.05425">
        <ele>1466</ele>
        <time>2013-02-10T08:48:47Z</time>
      </trkpt>
      <trkpt lat="45.27218" lon="6.05414">
        <ele>1477</ele>
        <time>2013-02-10T08:48:51Z</time>
      </trkpt>
      <trkpt lat="45.2722" lon="6.05403">
        <ele>1478</ele>
        <time>2013-02-10T08:48:56Z</time>
      </trkpt>
      <trkpt lat="45.27222" lon="6.05392">
        <ele>1479</ele>
        <time>2013-02-10T08:49:01Z</time>
      </trkpt>
      <trkpt lat="45.27226" lon="6.0538">
        <ele>1481</ele>
        <time>2013-02-10T08:49:06Z</time>
      </trkpt>
      <trkpt lat="45.2723" lon="6.05365">
        <ele>1484</ele>
        <time>2013-02-10T08:49:12Z</time>
      </trkpt>
      <trkpt lat="45.27235" lon="6.05346">
        <ele>1489</ele>
        <time>2013-02-10T08:49:20Z</time>
      </trkpt>
      <trkpt lat="45.27239" lon="6.05328">
        <ele>1501</ele>
        <time>2013-02-10T08:49:27Z</time>
      </trkpt>
      <trkpt lat="45.27243" lon="6.05307">
        <ele>1503</ele>
        <time>2013-02-10T08:49:35Z</time>
      </trkpt>
      <trkpt lat="45.27249" lon="6.05281">
        <ele>1509</ele>
        <time>2013-02-10T08:49:45Z</time>
      </trkpt>
      <trkpt lat="45.27258" lon="6.05247">
        <ele>1527</ele>
        <time>2013-02-10T08:49:59Z</time>
      </trkpt>
      <trkpt lat="45.27267" lon="6.05208">
        <ele>1539</ele>
        <time>2013-02-10T08:50:15Z</time>
      </trkpt>
      <trkpt lat="45.27273" lon="6.05184">
        <ele>1543</ele>
        <time>2013-02-10T08:50:24Z</time>
      </trkpt>
      <trkpt lat="45.27282" lon="6.05155">
        <ele>1558</ele>
        <time>2013-02-10T08:50:35Z</time>
      </trkpt>
      <trkpt lat="45.27281" lon="6.05155">
        <ele>1558</ele>
        <time>2013-02-10T08:50:39Z</time>
      </trkpt>
      <trkpt lat="45.27283" lon="6.05154">
        <ele>1558</ele>
        <time>2013-02-10T08:50:47Z</time>
      </trkpt>
      <trkpt lat="45.27284" lon="6.05154">
        <ele>1559</ele>
        <time>2013-02-10T08:50:56Z</time>
      </trkpt>
      <trkpt lat="45.27288" lon="6.05146">
        <ele>1560</ele>
        <time>2013-02-10T08:51:04Z</time>
      </trkpt>
      <trkpt lat="45.27291" lon="6.05136">
        <ele>1562</ele>
        <time>2013-02-10T08:51:10Z</time>
      </trkpt>
      <trkpt lat="45.27295" lon="6.05114">
        <ele>1565</ele>
        <time>2013-02-10T08:51:19Z</time>
      </trkpt>
      <trkpt lat="45.27299" lon="6.05095">
        <ele>1568</ele>
        <time>2013-02-10T08:51:27Z</time>
      </trkpt>
      <trkpt lat="45.27302" lon="6.05075">
        <ele>1585</ele>
        <time>2013-02-10T08:51:36Z</time>
      </trkpt>
      <trkpt lat="45.27307" lon="6.05053">
        <ele>1589</ele>
        <time>2013-02-10T08:51:45Z</time>
      </trkpt>
      <trkpt lat="45.27311" lon="6.05037">
        <ele>1592</ele>
        <time>2013-02-10T08:51:52Z</time>
      </trkpt>
      <trkpt lat="45.27317" lon="6.05014">
        <ele>1599</ele>
        <time>2013-02-10T08:52:02Z</time>
      </trkpt>
      <trkpt lat="45.27321" lon="6.04994">
        <ele>1617</ele>
        <time>2013-02-10T08:52:11Z</time>
      </trkpt>
      <trkpt lat="45.27325" lon="6.04976">
        <ele>1621</ele>
        <time>2013-02-10T08:52:19Z</time>
      </trkpt>
      <trkpt lat="45.27328" lon="6.04964">
        <ele>1625</ele>
        <time>2013-02-10T08:52:24Z</time>
      </trkpt>
      <trkpt lat="45.27331" lon="6.04945">
        <ele>1633</ele>
        <time>2013-02-10T08:52:32Z</time>
      </trkpt>
      <trkpt lat="45.27336" lon="6.04926">
        <ele>1650</ele>
        <time>2013-02-10T08:52:40Z</time>
      </trkpt>
      <trkpt lat="45.2734" lon="6.04912">
        <ele>1660</ele>
        <time>2013-02-10T08:52:46Z</time>
      </trkpt>
      <trkpt lat="45.27342" lon="6.04899">
        <ele>1665</ele>
        <time>2013-02-10T08:52:52Z</time>
      </trkpt>
      <trkpt lat="45.27348" lon="6.04874">
        <ele>1673</ele>
        <time>2013-02-10T08:53:01Z</time>
      </trkpt>
      <trkpt lat="45.27353" lon="6.04857">
        <ele>1676</ele>
        <time>2013-02-10T08:53:08Z</time>
      </trkpt>
      <trkpt lat="45.27358" lon="6.04834">
        <ele>1679</ele>
        <time>2013-02-10T08:53:17Z</time>
      </trkpt>
      <trkpt lat="45.27362" lon="6.04814">
        <ele>1696</ele>
        <time>2013-02-10T08:53:25Z</time>
      </trkpt>
      <trkpt lat="45.27368" lon="6.04795">
        <ele>1700</ele>
        <time>2013-02-10T08:53:33Z</time>
      </trkpt>
      <trkpt lat="45.27372" lon="6.0478">
        <ele>1703</ele>
        <time>2013-02-10T08:53:39Z</time>
      </trkpt>
      <trkpt lat="45.2738" lon="6.04758">
        <ele>1706</ele>
        <time>2013-02-10T08:53:47Z</time>
      </trkpt>
      <trkpt lat="45.27385" lon="6.04739">
        <ele>1724</ele>
        <time>2013-02-10T08:53:56Z</time>
      </trkpt>
      <trkpt lat="45.27392" lon="6.04717">
        <ele>1728</ele>
        <time>2013-02-10T08:54:05Z</time>
      </trkpt>
      <trkpt lat="45.27398" lon="6.04699">
        <ele>1731</ele>
        <time>2013-02-10T08:54:13Z</time>
      </trkpt>
      <trkpt lat="45.27406" lon="6.04676">
        <ele>1739</ele>
        <time>2013-02-10T08:54:22Z</time>
      </trkpt>
      <trkpt lat="45.27416" lon="6.0465">
        <ele>1751</ele>
        <time>2013-02-10T08:54:32Z</time>
      </trkpt>
      <trkpt lat="45.2742" lon="6.04628">
        <ele>1760</ele>
        <time>2013-02-10T08:54:42Z</time>
      </trkpt>
      <trkpt lat="45.27424" lon="6.04611">
        <ele>1764</ele>
        <time>2013-02-10T08:54:49Z</time>
      </trkpt>
      <trkpt lat="45.27431" lon="6.04575">
        <ele>1776</ele>
        <time>2013-02-10T08:55:03Z</time>
      </trkpt>
      <trkpt lat="45.2744" lon="6.0454">
        <ele>1782</ele>
        <time>2013-02-10T08:55:17Z</time>
      </trkpt>
      <trkpt lat="45.27447" lon="6.04508">
        <ele>1786</ele>
        <time>2013-02-10T08:55:29Z</time>
      </trkpt>
      <trkpt lat="45.27458" lon="6.04463">
        <ele>1800</ele>
        <time>2013-02-10T08:55:46Z</time>
      </trkpt>
      <trkpt lat="45.27467" lon="6.04429">
        <ele>1803</ele>
        <time>2013-02-10T08:55:59Z</time>
      </trkpt>
      <trkpt lat="45.27479" lon="6.04381">
        <ele>1820</ele>
        <time>2013-02-10T08:56:18Z</time>
      </trkpt>
      <trkpt lat="45.27487" lon="6.04344">
        <ele>1828</ele>
        <time>2013-02-10T08:56:32Z</time>
      </trkpt>
      <trkpt lat="45.27496" lon="6.04311">
        <ele>1839</ele>
        <time>2013-02-10T08:56:45Z</time>
      </trkpt>
      <trkpt lat="45.27501" lon="6.0429">
        <ele>1848</ele>
        <time>2013-02-10T08:56:53Z</time>
      </trkpt>
      <trkpt lat="45.27505" lon="6.04271">
        <ele>1850</ele>
        <time>2013-02-10T08:57:00Z</time>
      </trkpt>
      <trkpt lat="45.2751" lon="6.0425">
        <ele>1858</ele>
        <time>2013-02-10T08:57:08Z</time>
      </trkpt>
      <trkpt lat="45.27518" lon="6.04219">
        <ele>1864</ele>
        <time>2013-02-10T08:57:20Z</time>
      </trkpt>
      <trkpt lat="45.27526" lon="6.04181">
        <ele>1869</ele>
        <time>2013-02-10T08:57:34Z</time>
      </trkpt>
      <trkpt lat="45.27535" lon="6.04144">
        <ele>1879</ele>
        <time>2013-02-10T08:57:48Z</time>
      </trkpt>
      <trkpt lat="45.2754" lon="6.0412">
        <ele>1881</ele>
        <time>2013-02-10T08:57:57Z</time>
      </trkpt>
      <trkpt lat="45.27545" lon="6.04104">
        <ele>1882</ele>
        <time>2013-02-10T08:58:02Z</time>
      </trkpt>
      <trkpt lat="45.27554" lon="6.04096">
        <ele>1882</ele>
        <time>2013-02-10T08:58:06Z</time>
      </trkpt>
      <trkpt lat="45.27557" lon="6.04096">
        <ele>1882</ele>
        <time>2013-02-10T08:58:07Z</time>
      </trkpt>
      <trkpt lat="45.2757" lon="6.04108">
        <ele>1881</ele>
        <time>2013-02-10T08:58:15Z</time>
      </trkpt>
      <trkpt lat="45.27573" lon="6.04111">
        <ele>1881</ele>
        <time>2013-02-10T08:58:18Z</time>
      </trkpt>
      <trkpt lat="45.27575" lon="6.04114">
        <ele>1881</ele>
        <time>2013-02-10T08:58:22Z</time>
      </trkpt>
      <trkpt lat="45.27582" lon="6.04119">
        <ele>1881</ele>
        <time>2013-02-10T08:58:30Z</time>
      </trkpt>
      <trkpt lat="45.27583" lon="6.04119">
        <ele>1881</ele>
        <time>2013-02-10T08:58:37Z</time>
      </trkpt>
      <trkpt lat="45.27583" lon="6.04119">
        <ele>1881</ele>
        <time>2013-02-10T08:58:48Z</time>
      </trkpt>
      <trkpt lat="45.27585" lon="6.04121">
        <ele>1877</ele>
        <time>2013-02-10T08:58:57Z</time>
      </trkpt>
      <trkpt lat="45.27585" lon="6.04121">
        <ele>1877</ele>
        <time>2013-02-10T08:59:04Z</time>
      </trkpt>
      <trkpt lat="45.27585" lon="6.04121">
        <ele>1877</ele>
        <time>2013-02-10T08:59:18Z</time>
      </trkpt>
      <trkpt lat="45.27585" lon="6.04121">
        <ele>1877</ele>
        <time>2013-02-10T08:59:29Z</time>
      </trkpt>
      <trkpt lat="45.27585" lon="6.04121">
        <ele>1877</ele>
        <time>2013-02-10T08:59:39Z</time>
      </trkpt>
      <trkpt lat="45.27585" lon="6.04121">
        <ele>1877</ele>
        <time>2013-02-10T08:59:45Z</time>
      </trkpt>
      <trkpt lat="45.27586" lon="6.04122">
        <ele>1877</ele>
        <time>2013-02-10T08:59:56Z</time>
      </trkpt>
      <trkpt lat="45.27592" lon="6.04124">
        <ele>1877</ele>
        <time>2013-02-10T09:00:04Z</time>
      </trkpt>
      <trkpt lat="45.27595" lon="6.04125">
        <ele>1876</ele>
        <time>2013-02-10T09:00:06Z</time>
      </trkpt>
      <trkpt lat="45.2761" lon="6.0413">
        <ele>1876</ele>
        <time>2013-02-10T09:00:10Z</time>
      </trkpt>
      <trkpt lat="45.27637" lon="6.04138">
        <ele>1874</ele>
        <time>2013-02-10T09:00:14Z</time>
      </trkpt>
      <trkpt lat="45.27677" lon="6.04138">
        <ele>1864</ele>
        <time>2013-02-10T09:00:18Z</time>
      </trkpt>
      <trkpt lat="45.27733" lon="6.04168">
        <ele>1857</ele>
        <time>2013-02-10T09:00:23Z</time>
      </trkpt>
      <trkpt lat="45.27792" lon="6.04223">
        <ele>1847</ele>
        <time>2013-02-10T09:00:29Z</time>
      </trkpt>
      <trkpt lat="45.27802" lon="6.04234">
        <ele>1847</ele>
        <time>2013-02-10T09:00:30Z</time>
      </trkpt>
      <trkpt lat="45.27838" lon="6.04291">
        <ele>1837</ele>
        <time>2013-02-10T09:00:35Z</time>
      </trkpt>
      <trkpt lat="45.27861" lon="6.04342">
        <ele>1833</ele>
        <time>2013-02-10T09:00:39Z</time>
      </trkpt>
      <trkpt lat="45.27877" lon="6.0439">
        <ele>1831</ele>
        <time>2013-02-10T09:00:42Z</time>
      </trkpt>
      <trkpt lat="45.27896" lon="6.04456">
        <ele>1825</ele>
        <time>2013-02-10T09:00:47Z</time>
      </trkpt>
      <trkpt lat="45.27916" lon="6.0452">
        <ele>1817</ele>
        <time>2013-02-10T09:00:52Z</time>
      </trkpt>
      <trkpt lat="45.27928" lon="6.04571">
        <ele>1810</ele>
        <time>2013-02-10T09:00:55Z</time>
      </trkpt>
      <trkpt lat="45.27937" lon="6.04624">
        <ele>1805</ele>
        <time>2013-02-10T09:00:58Z</time>
      </trkpt>
      <trkpt lat="45.27947" lon="6.04702">
        <ele>1800</ele>
        <time>2013-02-10T09:01:03Z</time>
      </trkpt>
      <trkpt lat="45.27956" lon="6.04756">
        <ele>1794</ele>
        <time>2013-02-10T09:01:07Z</time>
      </trkpt>
      <trkpt lat="45.27955" lon="6.04793">
        <ele>1792</ele>
        <time>2013-02-10T09:01:10Z</time>
      </trkpt>
      <trkpt lat="45.27953" lon="6.04819">
        <ele>1791</ele>
        <time>2013-02-10T09:01:13Z</time>
      </trkpt>
      <trkpt lat="45.27953" lon="6.04823">
        <ele>1790</ele>
        <time>2013-02-10T09:01:15Z</time>
      </trkpt>
      <trkpt lat="45.27951" lon="6.04822">
        <ele>1790</ele>
        <time>2013-02-10T09:01:22Z</time>
      </trkpt>
      <trkpt lat="45.27943" lon="6.04842">
        <ele>1782</ele>
        <time>2013-02-10T09:01:26Z</time>
      </trkpt>
      <trkpt lat="45.27941" lon="6.04852">
        <ele>1782</ele>
        <time>2013-02-10T09:01:27Z</time>
      </trkpt>
      <trkpt lat="45.27939" lon="6.0487">
        <ele>1781</ele>
        <time>2013-02-10T09:01:29Z</time>
      </trkpt>
      <trkpt lat="45.27935" lon="6.049">
        <ele>1777</ele>
        <time>2013-02-10T09:01:32Z</time>
      </trkpt>
      <trkpt lat="45.27938" lon="6.04935">
        <ele>1772</ele>
        <time>2013-02-10T09:01:36Z</time>
      </trkpt>
      <trkpt lat="45.27946" lon="6.0496">
        <ele>1772</ele>
        <time>2013-02-10T09:01:40Z</time>
      </trkpt>
      <trkpt lat="45.27953" lon="6.04979">
        <ele>1772</ele>
        <time>2013-02-10T09:01:44Z</time>
      </trkpt>
      <trkpt lat="45.27956" lon="6.04996">
        <ele>1771</ele>
        <time>2013-02-10T09:01:51Z</time>
      </trkpt>
      <trkpt lat="45.27959" lon="6.0501">
        <ele>1765</ele>
        <time>2013-02-10T09:01:56Z</time>
      </trkpt>
      <trkpt lat="45.27963" lon="6.05027">
        <ele>1765</ele>
        <time>2013-02-10T09:02:00Z</time>
      </trkpt>
      <trkpt lat="45.27963" lon="6.05032">
        <ele>1765</ele>
        <time>2013-02-10T09:02:04Z</time>
      </trkpt>
      <trkpt lat="45.27964" lon="6.05035">
        <ele>1765</ele>
        <time>2013-02-10T09:02:09Z</time>
      </trkpt>
      <trkpt lat="45.27971" lon="6.0506">
        <ele>1764</ele>
        <time>2013-02-10T09:02:13Z</time>
      </trkpt>
      <trkpt lat="45.2796" lon="6.0508">
        <ele>1762</ele>
        <time>2013-02-10T09:02:15Z</time>
      </trkpt>
      <trkpt lat="45.27945" lon="6.05081">
        <ele>1759</ele>
        <time>2013-02-10T09:02:17Z</time>
      </trkpt>
      <trkpt lat="45.27912" lon="6.05067">
        <ele>1747</ele>
        <time>2013-02-10T09:02:21Z</time>
      </trkpt>
      <trkpt lat="45.27891" lon="6.05051">
        <ele>1746</ele>
        <time>2013-02-10T09:02:24Z</time>
      </trkpt>
      <trkpt lat="45.27883" lon="6.05042">
        <ele>1745</ele>
        <time>2013-02-10T09:02:26Z</time>
      </trkpt>
      <trkpt lat="45.27861" lon="6.05033">
        <ele>1744</ele>
        <time>2013-02-10T09:02:31Z</time>
      </trkpt>
      <trkpt lat="45.27838" lon="6.05028">
        <ele>1742</ele>
        <time>2013-02-10T09:02:35Z</time>
      </trkpt>
      <trkpt lat="45.27828" lon="6.05021">
        <ele>1733</ele>
        <time>2013-02-10T09:02:37Z</time>
      </trkpt>
      <trkpt lat="45.27821" lon="6.05015">
        <ele>1733</ele>
        <time>2013-02-10T09:02:39Z</time>
      </trkpt>
      <trkpt lat="45.27818" lon="6.05011">
        <ele>1734</ele>
        <time>2013-02-10T09:02:43Z</time>
      </trkpt>
      <trkpt lat="45.27818" lon="6.05011">
        <ele>1734</ele>
        <time>2013-02-10T09:02:48Z</time>
      </trkpt>
      <trkpt lat="45.27818" lon="6.05013">
        <ele>1733</ele>
        <time>2013-02-10T09:02:54Z</time>
      </trkpt>
      <trkpt lat="45.27818" lon="6.05013">
        <ele>1733</ele>
        <time>2013-02-10T09:03:01Z</time>
      </trkpt>
      <trkpt lat="45.27818" lon="6.05014">
        <ele>1733</ele>
        <time>2013-02-10T09:03:12Z</time>
      </trkpt>
      <trkpt lat="45.27807" lon="6.05013">
        <ele>1731</ele>
        <time>2013-02-10T09:03:16Z</time>
      </trkpt>
      <trkpt lat="45.27791" lon="6.0501">
        <ele>1729</ele>
        <time>2013-02-10T09:03:19Z</time>
      </trkpt>
      <trkpt lat="45.27775" lon="6.05004">
        <ele>1727</ele>
        <time>2013-02-10T09:03:22Z</time>
      </trkpt>
      <trkpt lat="45.27756" lon="6.04987">
        <ele>1731</ele>
        <time>2013-02-10T09:03:26Z</time>
      </trkpt>
      <trkpt lat="45.27735" lon="6.04983">
        <ele>1725</ele>
        <time>2013-02-10T09:03:29Z</time>
      </trkpt>
      <trkpt lat="45.27716" lon="6.04971">
        <ele>1724</ele>
        <time>2013-02-10T09:03:32Z</time>
      </trkpt>
      <trkpt lat="45.27703" lon="6.0497">
        <ele>1723</ele>
        <time>2013-02-10T09:03:34Z</time>
      </trkpt>
      <trkpt lat="45.27658" lon="6.04966">
        <ele>1710</ele>
        <time>2013-02-10T09:03:40Z</time>
      </trkpt>
      <trkpt lat="45.27634" lon="6.04955">
        <ele>1709</ele>
        <time>2013-02-10T09:03:43Z</time>
      </trkpt>
      <trkpt lat="45.27608" lon="6.04929">
        <ele>1709</ele>
        <time>2013-02-10T09:03:47Z</time>
      </trkpt>
      <trkpt lat="45.27592" lon="6.04926">
        <ele>1708</ele>
        <time>2013-02-10T09:03:49Z</time>
      </trkpt>
      <trkpt lat="45.27558" lon="6.04909">
        <ele>1706</ele>
        <time>2013-02-10T09:03:53Z</time>
      </trkpt>
      <trkpt lat="45.27543" lon="6.04897">
        <ele>1704</ele>
        <time>2013-02-10T09:03:55Z</time>
      </trkpt>
      <trkpt lat="45.27512" lon="6.04892">
        <ele>1699</ele>
        <time>2013-02-10T09:03:59Z</time>
      </trkpt>
      <trkpt lat="45.27465" lon="6.04887">
        <ele>1687</ele>
        <time>2013-02-10T09:04:04Z</time>
      </trkpt>
      <trkpt lat="45.27417" lon="6.04879">
        <ele>1685</ele>
        <time>2013-02-10T09:04:09Z</time>
      </trkpt>
      <trkpt lat="45.27351" lon="6.04878">
        <ele>1672</ele>
        <time>2013-02-10T09:04:16Z</time>
      </trkpt>
      <trkpt lat="45.27305" lon="6.04879">
        <ele>1659</ele>
        <time>2013-02-10T09:04:21Z</time>
      </trkpt>
      <trkpt lat="45.27267" lon="6.04867">
        <ele>1657</ele>
        <time>2013-02-10T09:04:25Z</time>
      </trkpt>
      <trkpt lat="45.27257" lon="6.04862">
        <ele>1658</ele>
        <time>2013-02-10T09:04:26Z</time>
      </trkpt>
      <trkpt lat="45.27227" lon="6.04856">
        <ele>1647</ele>
        <time>2013-02-10T09:04:29Z</time>
      </trkpt>
      <trkpt lat="45.27208" lon="6.04853">
        <ele>1645</ele>
        <time>2013-02-10T09:04:31Z</time>
      </trkpt>
      <trkpt lat="45.2719" lon="6.04851">
        <ele>1643</ele>
        <time>2013-02-10T09:04:33Z</time>
      </trkpt>
      <trkpt lat="45.27163" lon="6.04846">
        <ele>1636</ele>
        <time>2013-02-10T09:04:36Z</time>
      </trkpt>
      <trkpt lat="45.27121" lon="6.0483">
        <ele>1640</ele>
        <time>2013-02-10T09:04:41Z</time>
      </trkpt>
      <trkpt lat="45.27101" lon="6.04817">
        <ele>1636</ele>
        <time>2013-02-10T09:04:44Z</time>
      </trkpt>
      <trkpt lat="45.27074" lon="6.04789">
        <ele>1626</ele>
        <time>2013-02-10T09:04:49Z</time>
      </trkpt>
      <trkpt lat="45.27051" lon="6.04766">
        <ele>1626</ele>
        <time>2013-02-10T09:04:53Z</time>
      </trkpt>
      <trkpt lat="45.27018" lon="6.04758">
        <ele>1622</ele>
        <time>2013-02-10T09:04:57Z</time>
      </trkpt>
      <trkpt lat="45.26995" lon="6.04769">
        <ele>1619</ele>
        <time>2013-02-10T09:05:01Z</time>
      </trkpt>
      <trkpt lat="45.26987" lon="6.04787">
        <ele>1616</ele>
        <time>2013-02-10T09:05:05Z</time>
      </trkpt>
      <trkpt lat="45.26995" lon="6.04819">
        <ele>1609</ele>
        <time>2013-02-10T09:05:08Z</time>
      </trkpt>
      <trkpt lat="45.27011" lon="6.04865">
        <ele>1601</ele>
        <time>2013-02-10T09:05:11Z</time>
      </trkpt>
      <trkpt lat="45.27026" lon="6.04916">
        <ele>1596</ele>
        <time>2013-02-10T09:05:14Z</time>
      </trkpt>
      <trkpt lat="45.27031" lon="6.04934">
        <ele>1584</ele>
        <time>2013-02-10T09:05:15Z</time>
      </trkpt>
      <trkpt lat="45.27043" lon="6.04987">
        <ele>1579</ele>
        <time>2013-02-10T09:05:18Z</time>
      </trkpt>
      <trkpt lat="45.2706" lon="6.05053">
        <ele>1561</ele>
        <time>2013-02-10T09:05:22Z</time>
      </trkpt>
      <trkpt lat="45.27072" lon="6.05095">
        <ele>1549</ele>
        <time>2013-02-10T09:05:25Z</time>
      </trkpt>
      <trkpt lat="45.27074" lon="6.05106">
        <ele>1548</ele>
        <time>2013-02-10T09:05:26Z</time>
      </trkpt>
      <trkpt lat="45.27076" lon="6.05115">
        <ele>1547</ele>
        <time>2013-02-10T09:05:30Z</time>
      </trkpt>
      <trkpt lat="45.27076" lon="6.05113">
        <ele>1547</ele>
        <time>2013-02-10T09:05:37Z</time>
      </trkpt>
      <trkpt lat="45.27074" lon="6.05113">
        <ele>1547</ele>
        <time>2013-02-10T09:05:51Z</time>
      </trkpt>
      <trkpt lat="45.27073" lon="6.05116">
        <ele>1546</ele>
        <time>2013-02-10T09:06:00Z</time>
      </trkpt>
      <trkpt lat="45.27075" lon="6.05149">
        <ele>1541</ele>
        <time>2013-02-10T09:06:04Z</time>
      </trkpt>
      <trkpt lat="45.27081" lon="6.05179">
        <ele>1530</ele>
        <time>2013-02-10T09:06:06Z</time>
      </trkpt>
      <trkpt lat="45.271" lon="6.05243">
        <ele>1516</ele>
        <time>2013-02-10T09:06:10Z</time>
      </trkpt>
      <trkpt lat="45.27106" lon="6.05257">
        <ele>1502</ele>
        <time>2013-02-10T09:06:11Z</time>
      </trkpt>
      <trkpt lat="45.27141" lon="6.05328">
        <ele>1491</ele>
        <time>2013-02-10T09:06:16Z</time>
      </trkpt>
      <trkpt lat="45.27135" lon="6.05357">
        <ele>1476</ele>
        <time>2013-02-10T09:06:18Z</time>
      </trkpt>
      <trkpt lat="45.2713" lon="6.05388">
        <ele>1473</ele>
        <time>2013-02-10T09:06:20Z</time>
      </trkpt>
      <trkpt lat="45.27117" lon="6.05432">
        <ele>1461</ele>
        <time>2013-02-10T09:06:23Z</time>
      </trkpt>
      <trkpt lat="45.2711" lon="6.05456">
        <ele>1460</ele>
        <time>2013-02-10T09:06:25Z</time>
      </trkpt>
      <trkpt lat="45.27099" lon="6.05482">
        <ele>1458</ele>
        <time>2013-02-10T09:06:28Z</time>
      </trkpt>
      <trkpt lat="45.2709" lon="6.05489">
        <ele>1457</ele>
        <time>2013-02-10T09:06:31Z</time>
      </trkpt>
      <trkpt lat="45.27087" lon="6.05485">
        <ele>1457</ele>
        <time>2013-02-10T09:06:35Z</time>
      </trkpt>
      <trkpt lat="45.27087" lon="6.05484">
        <ele>1457</ele>
        <time>2013-02-10T09:06:42Z</time>
      </trkpt>
      <trkpt lat="45.27087" lon="6.05483">
        <ele>1457</ele>
        <time>2013-02-10T09:06:49Z</time>
      </trkpt>
      <trkpt lat="45.27087" lon="6.05484">
        <ele>1457</ele>
        <time>2013-02-10T09:06:58Z</time>
      </trkpt>
      <trkpt lat="45.27088" lon="6.05484">
        <ele>1457</ele>
        <time>2013-02-10T09:07:14Z</time>
      </trkpt>
      <trkpt lat="45.27089" lon="6.05483">
        <ele>1458</ele>
        <time>2013-02-10T09:08:04Z</time>
      </trkpt>
      <trkpt lat="45.27089" lon="6.05481">
        <ele>1458</ele>
        <time>2013-02-10T09:08:13Z</time>
      </trkpt>
      <trkpt lat="45.27087" lon="6.05478">
        <ele>1458</ele>
        <time>2013-02-10T09:08:18Z</time>
      </trkpt>
      <trkpt lat="45.27084" lon="6.05476">
        <ele>1458</ele>
        <time>2013-02-10T09:08:25Z</time>
      </trkpt>
      <trkpt lat="45.27082" lon="6.05475">
        <ele>1455</ele>
        <time>2013-02-10T09:08:33Z</time>
      </trkpt>
      <trkpt lat="45.27079" lon="6.05474">
        <ele>1455</ele>
        <time>2013-02-10T09:08:42Z</time>
      </trkpt>
      <trkpt lat="45.27075" lon="6.05472">
        <ele>1455</ele>
        <time>2013-02-10T09:08:50Z</time>
      </trkpt>
      <trkpt lat="45.27074" lon="6.0547">
        <ele>1455</ele>
        <time>2013-02-10T09:08:57Z</time>
      </trkpt>
      <trkpt lat="45.27073" lon="6.05468">
        <ele>1455</ele>
        <time>2013-02-10T09:09:04Z</time>
      </trkpt>
      <trkpt lat="45.27072" lon="6.05465">
        <ele>1455</ele>
        <time>2013-02-10T09:09:12Z</time>
      </trkpt>
      <trkpt lat="45.27072" lon="6.05464">
        <ele>1455</ele>
        <time>2013-02-10T09:09:18Z</time>
      </trkpt>
      <trkpt lat="45.27071" lon="6.05459">
        <ele>1456</ele>
        <time>2013-02-10T09:09:24Z</time>
      </trkpt>
      <trkpt lat="45.27069" lon="6.05456">
        <ele>1456</ele>
        <time>2013-02-10T09:09:29Z</time>
      </trkpt>
      <trkpt lat="45.27063" lon="6.05441">
        <ele>1457</ele>
        <time>2013-02-10T09:09:34Z</time>
      </trkpt>
      <trkpt lat="45.27061" lon="6.05435">
        <ele>1457</ele>
        <time>2013-02-10T09:09:35Z</time>
      </trkpt>
      <trkpt lat="45.27049" lon="6.05401">
        <ele>1467</ele>
        <time>2013-02-10T09:09:41Z</time>
      </trkpt>
      <trkpt lat="45.27037" lon="6.05376">
        <ele>1469</ele>
        <time>2013-02-10T09:09:46Z</time>
      </trkpt>
      <trkpt lat="45.27024" lon="6.05345">
        <ele>1472</ele>
        <time>2013-02-10T09:09:52Z</time>
      </trkpt>
      <trkpt lat="45.27015" lon="6.05325">
        <ele>1485</ele>
        <time>2013-02-10T09:09:56Z</time>
      </trkpt>
      <trkpt lat="45.27002" lon="6.05293">
        <ele>1492</ele>
        <time>2013-02-10T09:10:02Z</time>
      </trkpt>
      <trkpt lat="45.26991" lon="6.05267">
        <ele>1495</ele>
        <time>2013-02-10T09:10:07Z</time>
      </trkpt>
      <trkpt lat="45.26978" lon="6.05236">
        <ele>1512</ele>
        <time>2013-02-10T09:10:13Z</time>
      </trkpt>
      <trkpt lat="45.26968" lon="6.05212">
        <ele>1517</ele>
        <time>2013-02-10T09:10:18Z</time>
      </trkpt>
      <trkpt lat="45.26954" lon="6.05177">
        <ele>1523</ele>
        <time>2013-02-10T09:10:25Z</time>
      </trkpt>
      <trkpt lat="45.26935" lon="6.05132">
        <ele>1545</ele>
        <time>2013-02-10T09:10:34Z</time>
      </trkpt>
      <trkpt lat="45.2692" lon="6.05092">
        <ele>1555</ele>
        <time>2013-02-10T09:10:42Z</time>
      </trkpt>
      <trkpt lat="45.26914" lon="6.05078">
        <ele>1561</ele>
        <time>2013-02-10T09:10:46Z</time>
      </trkpt>
      <trkpt lat="45.26913" lon="6.05077">
        <ele>1561</ele>
        <time>2013-02-10T09:10:51Z</time>
      </trkpt>
      <trkpt lat="45.26913" lon="6.05077">
        <ele>1561</ele>
        <time>2013-02-10T09:10:59Z</time>
      </trkpt>
      <trkpt lat="45.26914" lon="6.05077">
        <ele>1561</ele>
        <time>2013-02-10T09:11:10Z</time>
      </trkpt>
      <trkpt lat="45.26912" lon="6.05074">
        <ele>1562</ele>
        <time>2013-02-10T09:11:20Z</time>
      </trkpt>
      <trkpt lat="45.2691" lon="6.05067">
        <ele>1564</ele>
        <time>2013-02-10T09:11:24Z</time>
      </trkpt>
      <trkpt lat="45.26903" lon="6.0505">
        <ele>1567</ele>
        <time>2013-02-10T09:11:34Z</time>
      </trkpt>
      <trkpt lat="45.26893" lon="6.05027">
        <ele>1571</ele>
        <time>2013-02-10T09:11:42Z</time>
      </trkpt>
      <trkpt lat="45.26881" lon="6.04997">
        <ele>1585</ele>
        <time>2013-02-10T09:11:49Z</time>
      </trkpt>
      <trkpt lat="45.26868" lon="6.04967">
        <ele>1587</ele>
        <time>2013-02-10T09:11:55Z</time>
      </trkpt>
      <trkpt lat="45.26851" lon="6.04924">
        <ele>1592</ele>
        <time>2013-02-10T09:12:03Z</time>
      </trkpt>
      <trkpt lat="45.26832" lon="6.04877">
        <ele>1610</ele>
        <time>2013-02-10T09:12:12Z</time>
      </trkpt>
      <trkpt lat="45.26815" lon="6.04833">
        <ele>1629</ele>
        <time>2013-02-10T09:12:21Z</time>
      </trkpt>
      <trkpt lat="45.26799" lon="6.04794">
        <ele>1638</ele>
        <time>2013-02-10T09:12:29Z</time>
      </trkpt>
      <trkpt lat="45.26787" lon="6.04764">
        <ele>1643</ele>
        <time>2013-02-10T09:12:35Z</time>
      </trkpt>
      <trkpt lat="45.26773" lon="6.0473">
        <ele>1663</ele>
        <time>2013-02-10T09:12:42Z</time>
      </trkpt>
      <trkpt lat="45.26757" lon="6.04691">
        <ele>1674</ele>
        <time>2013-02-10T09:12:50Z</time>
      </trkpt>
      <trkpt lat="45.26745" lon="6.04663">
        <ele>1696</ele>
        <time>2013-02-10T09:12:56Z</time>
      </trkpt>
      <trkpt lat="45.26733" lon="6.04634">
        <ele>1711</ele>
        <time>2013-02-10T09:13:02Z</time>
      </trkpt>
      <trkpt lat="45.26719" lon="6.04599">
        <ele>1718</ele>
        <time>2013-02-10T09:13:09Z</time>
      </trkpt>
      <trkpt lat="45.26705" lon="6.04565">
        <ele>1738</ele>
        <time>2013-02-10T09:13:16Z</time>
      </trkpt>
      <trkpt lat="45.26696" lon="6.04545">
        <ele>1741</ele>
        <time>2013-02-10T09:13:20Z</time>
      </trkpt>
      <trkpt lat="45.26684" lon="6.04513">
        <ele>1750</ele>
        <time>2013-02-10T09:13:26Z</time>
      </trkpt>
      <trkpt lat="45.26671" lon="6.04483">
        <ele>1764</ele>
        <time>2013-02-10T09:13:32Z</time>
      </trkpt>
      <trkpt lat="45.2666" lon="6.04454">
        <ele>1779</ele>
        <time>2013-02-10T09:13:38Z</time>
      </trkpt>
      <trkpt lat="45.26651" lon="6.04433">
        <ele>1783</ele>
        <time>2013-02-10T09:13:42Z</time>
      </trkpt>
      <trkpt lat="45.26638" lon="6.04401">
        <ele>1799</ele>
        <time>2013-02-10T09:13:48Z</time>
      </trkpt>
      <trkpt lat="45.26621" lon="6.0436">
        <ele>1806</ele>
        <time>2013-02-10T09:13:56Z</time>
      </trkpt>
      <trkpt lat="45.26594" lon="6.04293">
        <ele>1824</ele>
        <time>2013-02-10T09:14:09Z</time>
      </trkpt>
      <trkpt lat="45.26579" lon="6.04258">
        <ele>1837</ele>
        <time>2013-02-10T09:14:16Z</time>
      </trkpt>
      <trkpt lat="45.26565" lon="6.04221">
        <ele>1846</ele>
        <time>2013-02-10T09:14:23Z</time>
      </trkpt>
      <trkpt lat="45.26548" lon="6.04179">
        <ele>1849</ele>
        <time>2013-02-10T09:14:31Z</time>
      </trkpt>
      <trkpt lat="45.26526" lon="6.04125">
        <ele>1861</ele>
        <time>2013-02-10T09:14:41Z</time>
      </trkpt>
      <trkpt lat="45.265" lon="6.0406">
        <ele>1881</ele>
        <time>2013-02-10T09:14:53Z</time>
      </trkpt>
      <trkpt lat="45.26487" lon="6.04028">
        <ele>1887</ele>
        <time>2013-02-10T09:14:59Z</time>
      </trkpt>
      <trkpt lat="45.2647" lon="6.03987">
        <ele>1903</ele>
        <time>2013-02-10T09:15:07Z</time>
      </trkpt>
      <trkpt lat="45.26453" lon="6.03946">
        <ele>1910</ele>
        <time>2013-02-10T09:15:15Z</time>
      </trkpt>
      <trkpt lat="45.26447" lon="6.03931">
        <ele>1913</ele>
        <time>2013-02-10T09:15:18Z</time>
      </trkpt>
      <trkpt lat="45.2644" lon="6.03914">
        <ele>1923</ele>
        <time>2013-02-10T09:15:21Z</time>
      </trkpt>
      <trkpt lat="45.26436" lon="6.039">
        <ele>1923</ele>
        <time>2013-02-10T09:15:25Z</time>
      </trkpt>
      <trkpt lat="45.26433" lon="6.03886">
        <ele>1923</ele>
        <time>2013-02-10T09:15:31Z</time>
      </trkpt>
      <trkpt lat="45.26433" lon="6.03881">
        <ele>1924</ele>
        <time>2013-02-10T09:15:37Z</time>
      </trkpt>
      <trkpt lat="45.26434" lon="6.03878">
        <ele>1924</ele>
        <time>2013-02-10T09:15:44Z</time>
      </trkpt>
      <trkpt lat="45.26433" lon="6.03875">
        <ele>1924</ele>
        <time>2013-02-10T09:15:46Z</time>
      </trkpt>
      <trkpt lat="45.2644" lon="6.03862">
        <ele>1924</ele>
        <time>2013-02-10T09:15:50Z</time>
      </trkpt>
      <trkpt lat="45.26443" lon="6.03862">
        <ele>1924</ele>
        <time>2013-02-10T09:15:55Z</time>
      </trkpt>
      <trkpt lat="45.26442" lon="6.03862">
        <ele>1924</ele>
        <time>2013-02-10T09:16:04Z</time>
      </trkpt>
      <trkpt lat="45.26442" lon="6.03862">
        <ele>1924</ele>
        <time>2013-02-10T09:16:15Z</time>
      </trkpt>
      <trkpt lat="45.26442" lon="6.03862">
        <ele>1924</ele>
        <time>2013-02-10T09:16:23Z</time>
      </trkpt>
      <trkpt lat="45.2644" lon="6.03862">
        <ele>1924</ele>
        <time>2013-02-10T09:17:30Z</time>
      </trkpt>
      <trkpt lat="45.26436" lon="6.03866">
        <ele>1924</ele>
        <time>2013-02-10T09:17:34Z</time>
      </trkpt>
      <trkpt lat="45.26431" lon="6.03871">
        <ele>1924</ele>
        <time>2013-02-10T09:17:40Z</time>
      </trkpt>
      <trkpt lat="45.26431" lon="6.03872">
        <ele>1924</ele>
        <time>2013-02-10T09:17:41Z</time>
      </trkpt>
      <trkpt lat="45.26426" lon="6.03875">
        <ele>1924</ele>
        <time>2013-02-10T09:17:46Z</time>
      </trkpt>
      <trkpt lat="45.26424" lon="6.03877">
        <ele>1925</ele>
        <time>2013-02-10T09:17:48Z</time>
      </trkpt>
      <trkpt lat="45.26419" lon="6.03885">
        <ele>1924</ele>
        <time>2013-02-10T09:17:53Z</time>
      </trkpt>
      <trkpt lat="45.26416" lon="6.03894">
        <ele>1939</ele>
        <time>2013-02-10T09:17:58Z</time>
      </trkpt>
      <trkpt lat="45.26415" lon="6.03901">
        <ele>1937</ele>
        <time>2013-02-10T09:18:02Z</time>
      </trkpt>
      <trkpt lat="45.26414" lon="6.03912">
        <ele>1932</ele>
        <time>2013-02-10T09:18:06Z</time>
      </trkpt>
      <trkpt lat="45.26412" lon="6.03921">
        <ele>1929</ele>
        <time>2013-02-10T09:18:09Z</time>
      </trkpt>
      <trkpt lat="45.26409" lon="6.03936">
        <ele>1930</ele>
        <time>2013-02-10T09:18:15Z</time>
      </trkpt>
      <trkpt lat="45.26406" lon="6.03951">
        <ele>1930</ele>
        <time>2013-02-10T09:18:20Z</time>
      </trkpt>
      <trkpt lat="45.26399" lon="6.03967">
        <ele>1928</ele>
        <time>2013-02-10T09:18:26Z</time>
      </trkpt>
      <trkpt lat="45.26398" lon="6.0397">
        <ele>1928</ele>
        <time>2013-02-10T09:18:27Z</time>
      </trkpt>
      <trkpt lat="45.26391" lon="6.03986">
        <ele>1926</ele>
        <time>2013-02-10T09:18:33Z</time>
      </trkpt>
      <trkpt lat="45.26389" lon="6.03991">
        <ele>1926</ele>
        <time>2013-02-10T09:18:35Z</time>
      </trkpt>
      <trkpt lat="45.26387" lon="6.03998">
        <ele>1926</ele>
        <time>2013-02-10T09:18:39Z</time>
      </trkpt>
      <trkpt lat="45.26383" lon="6.04019">
        <ele>1912</ele>
        <time>2013-02-10T09:18:45Z</time>
      </trkpt>
      <trkpt lat="45.26381" lon="6.0403">
        <ele>1911</ele>
        <time>2013-02-10T09:18:47Z</time>
      </trkpt>
      <trkpt lat="45.26375" lon="6.04035">
        <ele>1911</ele>
        <time>2013-02-10T09:18:51Z</time>
      </trkpt>
      <trkpt lat="45.26372" lon="6.04034">
        <ele>1911</ele>
        <time>2013-02-10T09:18:57Z</time>
      </trkpt>
      <trkpt lat="45.2637" lon="6.04032">
        <ele>1912</ele>
        <time>2013-02-10T09:19:01Z</time>
      </trkpt>
      <trkpt lat="45.26371" lon="6.04029">
        <ele>1912</ele>
        <time>2013-02-10T09:19:05Z</time>
      </trkpt>
      <trkpt lat="45.26371" lon="6.04028">
        <ele>1912</ele>
        <time>2013-02-10T09:19:10Z</time>
      </trkpt>
      <trkpt lat="45.26371" lon="6.04026">
        <ele>1913</ele>
        <time>2013-02-10T09:19:12Z</time>
      </trkpt>
      <trkpt lat="45.26364" lon="6.04005">
        <ele>1917</ele>
        <time>2013-02-10T09:19:22Z</time>
      </trkpt>
      <trkpt lat="45.26358" lon="6.03983">
        <ele>1932</ele>
        <time>2013-02-10T09:19:32Z</time>
      </trkpt>
      <trkpt lat="45.26352" lon="6.03964">
        <ele>1935</ele>
        <time>2013-02-10T09:19:41Z</time>
      </trkpt>
      <trkpt lat="45.26342" lon="6.03934">
        <ele>1943</ele>
        <time>2013-02-10T09:19:55Z</time>
      </trkpt>
      <trkpt lat="45.26334" lon="6.03911">
        <ele>1954</ele>
        <time>2013-02-10T09:20:07Z</time>
      </trkpt>
      <trkpt lat="45.26328" lon="6.03891">
        <ele>1965</ele>
        <time>2013-02-10T09:20:16Z</time>
      </trkpt>
      <trkpt lat="45.26317" lon="6.03859">
        <ele>1971</ele>
        <time>2013-02-10T09:20:31Z</time>
      </trkpt>
      <trkpt lat="45.26309" lon="6.03831">
        <ele>1986</ele>
        <time>2013-02-10T09:20:43Z</time>
      </trkpt>
      <trkpt lat="45.26299" lon="6.038">
        <ele>1992</ele>
        <time>2013-02-10T09:20:57Z</time>
      </trkpt>
      <trkpt lat="45.26289" lon="6.0377">
        <ele>1997</ele>
        <time>2013-02-10T09:21:11Z</time>
      </trkpt>
      <trkpt lat="45.26277" lon="6.03734">
        <ele>2019</ele>
        <time>2013-02-10T09:21:28Z</time>
      </trkpt>
      <trkpt lat="45.26269" lon="6.03709">
        <ele>2024</ele>
        <time>2013-02-10T09:21:40Z</time>
      </trkpt>
      <trkpt lat="45.2626" lon="6.03682">
        <ele>2033</ele>
        <time>2013-02-10T09:21:53Z</time>
      </trkpt>
      <trkpt lat="45.26249" lon="6.03646">
        <ele>2053</ele>
        <time>2013-02-10T09:22:10Z</time>
      </trkpt>
      <trkpt lat="45.26241" lon="6.03622">
        <ele>2059</ele>
        <time>2013-02-10T09:22:21Z</time>
      </trkpt>
      <trkpt lat="45.26233" lon="6.03599">
        <ele>2066</ele>
        <time>2013-02-10T09:22:32Z</time>
      </trkpt>
      <trkpt lat="45.26226" lon="6.03574">
        <ele>2078</ele>
        <time>2013-02-10T09:22:43Z</time>
      </trkpt>
      <trkpt lat="45.26219" lon="6.03551">
        <ele>2079</ele>
        <time>2013-02-10T09:22:53Z</time>
      </trkpt>
      <trkpt lat="45.26219" lon="6.03541">
        <ele>2080</ele>
        <time>2013-02-10T09:22:58Z</time>
      </trkpt>
      <trkpt lat="45.2622" lon="6.03541">
        <ele>2080</ele>
        <time>2013-02-10T09:23:08Z</time>
      </trkpt>
      <trkpt lat="45.2622" lon="6.03541">
        <ele>2080</ele>
        <time>2013-02-10T09:23:25Z</time>
      </trkpt>
      <trkpt lat="45.26219" lon="6.03541">
        <ele>2080</ele>
        <time>2013-02-10T09:23:36Z</time>
      </trkpt>
      <trkpt lat="45.26219" lon="6.03541">
        <ele>2080</ele>
        <time>2013-02-10T09:24:01Z</time>
      </trkpt>
      <trkpt lat="45.26218" lon="6.03541">
        <ele>2080</ele>
        <time>2013-02-10T09:24:11Z</time>
      </trkpt>
      <trkpt lat="45.26218" lon="6.0354">
        <ele>2080</ele>
        <time>2013-02-10T09:24:20Z</time>
      </trkpt>
      <trkpt lat="45.26218" lon="6.0354">
        <ele>2080</ele>
        <time>2013-02-10T09:24:22Z</time>
      </trkpt>
      <trkpt lat="45.26223" lon="6.03535">
        <ele>2081</ele>
        <time>2013-02-10T09:24:27Z</time>
      </trkpt>
      <trkpt lat="45.26229" lon="6.03531">
        <ele>2082</ele>
        <time>2013-02-10T09:24:32Z</time>
      </trkpt>
      <trkpt lat="45.26237" lon="6.03528">
        <ele>2083</ele>
        <time>2013-02-10T09:24:38Z</time>
      </trkpt>
      <trkpt lat="45.26247" lon="6.03528">
        <ele>2083</ele>
        <time>2013-02-10T09:24:44Z</time>
      </trkpt>
      <trkpt lat="45.26254" lon="6.03528">
        <ele>2084</ele>
        <time>2013-02-10T09:24:50Z</time>
      </trkpt>
      <trkpt lat="45.26262" lon="6.03529">
        <ele>2084</ele>
        <time>2013-02-10T09:24:59Z</time>
      </trkpt>
      <trkpt lat="45.26267" lon="6.0353">
        <ele>2084</ele>
        <time>2013-02-10T09:25:07Z</time>
      </trkpt>
      <trkpt lat="45.26273" lon="6.03531">
        <ele>2083</ele>
        <time>2013-02-10T09:25:14Z</time>
      </trkpt>
      <trkpt lat="45.26279" lon="6.03533">
        <ele>2083</ele>
        <time>2013-02-10T09:25:20Z</time>
      </trkpt>
      <trkpt lat="45.26279" lon="6.03534">
        <ele>2083</ele>
        <time>2013-02-10T09:25:25Z</time>
      </trkpt>
      <trkpt lat="45.2628" lon="6.03535">
        <ele>2082</ele>
        <time>2013-02-10T09:25:26Z</time>
      </trkpt>
      <trkpt lat="45.26284" lon="6.03544">
        <ele>2081</ele>
        <time>2013-02-10T09:25:33Z</time>
      </trkpt>
      <trkpt lat="45.26283" lon="6.03544">
        <ele>2082</ele>
        <time>2013-02-10T09:25:44Z</time>
      </trkpt>
      <trkpt lat="45.26283" lon="6.03543">
        <ele>2082</ele>
        <time>2013-02-10T09:25:53Z</time>
      </trkpt>
      <trkpt lat="45.26283" lon="6.03543">
        <ele>2082</ele>
        <time>2013-02-10T09:26:06Z</time>
      </trkpt>
      <trkpt lat="45.26283" lon="6.03543">
        <ele>2082</ele>
        <time>2013-02-10T09:26:16Z</time>
      </trkpt>
      <trkpt lat="45.26283" lon="6.03545">
        <ele>2081</ele>
        <time>2013-02-10T09:26:23Z</time>
      </trkpt>
      <trkpt lat="45.26283" lon="6.03548">
        <ele>2081</ele>
        <time>2013-02-10T09:26:24Z</time>
      </trkpt>
      <trkpt lat="45.26285" lon="6.0355">
        <ele>2081</ele>
        <time>2013-02-10T09:26:30Z</time>
      </trkpt>
      <trkpt lat="45.26285" lon="6.0355">
        <ele>2081</ele>
        <time>2013-02-10T09:26:32Z</time>
      </trkpt>
      <trkpt lat="45.26293" lon="6.03551">
        <ele>2080</ele>
        <time>2013-02-10T09:26:37Z</time>
      </trkpt>
      <trkpt lat="45.26291" lon="6.03559">
        <ele>2080</ele>
        <time>2013-02-10T09:26:40Z</time>
      </trkpt>
      <trkpt lat="45.26294" lon="6.03562">
        <ele>2079</ele>
        <time>2013-02-10T09:26:43Z</time>
      </trkpt>
      <trkpt lat="45.26299" lon="6.03568">
        <ele>2078</ele>
        <time>2013-02-10T09:26:47Z</time>
      </trkpt>
      <trkpt lat="45.26298" lon="6.0357">
        <ele>2078</ele>
        <time>2013-02-10T09:26:50Z</time>
      </trkpt>
      <trkpt lat="45.26302" lon="6.0357">
        <ele>2078</ele>
        <time>2013-02-10T09:26:57Z</time>
      </trkpt>
      <trkpt lat="45.26304" lon="6.03573">
        <ele>2077</ele>
        <time>2013-02-10T09:27:01Z</time>
      </trkpt>
      <trkpt lat="45.26307" lon="6.03574">
        <ele>2077</ele>
        <time>2013-02-10T09:27:06Z</time>
      </trkpt>
      <trkpt lat="45.26306" lon="6.03583">
        <ele>2061</ele>
        <time>2013-02-10T09:27:10Z</time>
      </trkpt>
      <trkpt lat="45.26308" lon="6.03585">
        <ele>2061</ele>
        <time>2013-02-10T09:27:14Z</time>
      </trkpt>
      <trkpt lat="45.26308" lon="6.03584">
        <ele>2061</ele>
        <time>2013-02-10T09:27:22Z</time>
      </trkpt>
      <trkpt lat="45.26309" lon="6.03583">
        <ele>2061</ele>
        <time>2013-02-10T09:27:30Z</time>
      </trkpt>
      <trkpt lat="45.26309" lon="6.03583">
        <ele>2062</ele>
        <time>2013-02-10T09:27:42Z</time>
      </trkpt>
      <trkpt lat="45.2631" lon="6.03588">
        <ele>2061</ele>
        <time>2013-02-10T09:27:46Z</time>
      </trkpt>
      <trkpt lat="45.26311" lon="6.0359">
        <ele>2061</ele>
        <time>2013-02-10T09:27:52Z</time>
      </trkpt>
      <trkpt lat="45.26312" lon="6.03591">
        <ele>2061</ele>
        <time>2013-02-10T09:28:01Z</time>
      </trkpt>
      <trkpt lat="45.26312" lon="6.03591">
        <ele>2061</ele>
        <time>2013-02-10T09:28:05Z</time>
      </trkpt>
      <trkpt lat="45.26317" lon="6.03595">
        <ele>2061</ele>
        <time>2013-02-10T09:28:08Z</time>
      </trkpt>
      <trkpt lat="45.26318" lon="6.03594">
        <ele>2061</ele>
        <time>2013-02-10T09:28:11Z</time>
      </trkpt>
      <trkpt lat="45.26319" lon="6.03595">
        <ele>2061</ele>
        <time>2013-02-10T09:28:12Z</time>
      </trkpt>
      <trkpt lat="45.26317" lon="6.03604">
        <ele>2059</ele>
        <time>2013-02-10T09:28:16Z</time>
      </trkpt>
      <trkpt lat="45.26317" lon="6.03605">
        <ele>2059</ele>
        <time>2013-02-10T09:28:19Z</time>
      </trkpt>
      <trkpt lat="45.26325" lon="6.03606">
        <ele>2058</ele>
        <time>2013-02-10T09:28:23Z</time>
      </trkpt>
      <trkpt lat="45.26326" lon="6.03607">
        <ele>2058</ele>
        <time>2013-02-10T09:28:27Z</time>
      </trkpt>
      <trkpt lat="45.26326" lon="6.03622">
        <ele>2054</ele>
        <time>2013-02-10T09:28:30Z</time>
      </trkpt>
      <trkpt lat="45.26324" lon="6.03624">
        <ele>2053</ele>
        <time>2013-02-10T09:28:31Z</time>
      </trkpt>
      <trkpt lat="45.26324" lon="6.03626">
        <ele>2052</ele>
        <time>2013-02-10T09:28:40Z</time>
      </trkpt>
      <trkpt lat="45.26325" lon="6.03628">
        <ele>2051</ele>
        <time>2013-02-10T09:28:43Z</time>
      </trkpt>
      <trkpt lat="45.26331" lon="6.03634">
        <ele>2049</ele>
        <time>2013-02-10T09:28:46Z</time>
      </trkpt>
      <trkpt lat="45.2633" lon="6.03645">
        <ele>2044</ele>
        <time>2013-02-10T09:28:49Z</time>
      </trkpt>
      <trkpt lat="45.26327" lon="6.03652">
        <ele>2041</ele>
        <time>2013-02-10T09:28:51Z</time>
      </trkpt>
      <trkpt lat="45.26328" lon="6.03654">
        <ele>2039</ele>
        <time>2013-02-10T09:28:56Z</time>
      </trkpt>
      <trkpt lat="45.26327" lon="6.03663">
        <ele>2035</ele>
        <time>2013-02-10T09:29:01Z</time>
      </trkpt>
      <trkpt lat="45.26331" lon="6.03665">
        <ele>2030</ele>
        <time>2013-02-10T09:29:03Z</time>
      </trkpt>
      <trkpt lat="45.26336" lon="6.03664">
        <ele>2028</ele>
        <time>2013-02-10T09:29:05Z</time>
      </trkpt>
      <trkpt lat="45.26336" lon="6.03677">
        <ele>2015</ele>
        <time>2013-02-10T09:29:08Z</time>
      </trkpt>
      <trkpt lat="45.26334" lon="6.03678">
        <ele>2015</ele>
        <time>2013-02-10T09:29:11Z</time>
      </trkpt>
      <trkpt lat="45.26336" lon="6.0368">
        <ele>2014</ele>
        <time>2013-02-10T09:29:18Z</time>
      </trkpt>
      <trkpt lat="45.26342" lon="6.03688">
        <ele>2007</ele>
        <time>2013-02-10T09:29:22Z</time>
      </trkpt>
      <trkpt lat="45.26342" lon="6.03697">
        <ele>2003</ele>
        <time>2013-02-10T09:29:25Z</time>
      </trkpt>
      <trkpt lat="45.2635" lon="6.037">
        <ele>2001</ele>
        <time>2013-02-10T09:29:28Z</time>
      </trkpt>
      <trkpt lat="45.26351" lon="6.03708">
        <ele>1998</ele>
        <time>2013-02-10T09:29:30Z</time>
      </trkpt>
      <trkpt lat="45.26352" lon="6.03716">
        <ele>1996</ele>
        <time>2013-02-10T09:29:33Z</time>
      </trkpt>
      <trkpt lat="45.26361" lon="6.03719">
        <ele>1994</ele>
        <time>2013-02-10T09:29:36Z</time>
      </trkpt>
      <trkpt lat="45.26362" lon="6.03727">
        <ele>1993</ele>
        <time>2013-02-10T09:29:38Z</time>
      </trkpt>
      <trkpt lat="45.2636" lon="6.03731">
        <ele>1992</ele>
        <time>2013-02-10T09:29:41Z</time>
      </trkpt>
      <trkpt lat="45.26365" lon="6.03733">
        <ele>1991</ele>
        <time>2013-02-10T09:29:46Z</time>
      </trkpt>
      <trkpt lat="45.26369" lon="6.03732">
        <ele>1991</ele>
        <time>2013-02-10T09:29:47Z</time>
      </trkpt>
      <trkpt lat="45.26373" lon="6.0374">
        <ele>1989</ele>
        <time>2013-02-10T09:29:50Z</time>
      </trkpt>
      <trkpt lat="45.26375" lon="6.03749">
        <ele>1987</ele>
        <time>2013-02-10T09:29:53Z</time>
      </trkpt>
      <trkpt lat="45.26378" lon="6.03751">
        <ele>1968</ele>
        <time>2013-02-10T09:29:54Z</time>
      </trkpt>
      <trkpt lat="45.26386" lon="6.03753">
        <ele>1966</ele>
        <time>2013-02-10T09:29:56Z</time>
      </trkpt>
      <trkpt lat="45.26384" lon="6.03768">
        <ele>1966</ele>
        <time>2013-02-10T09:29:59Z</time>
      </trkpt>
      <trkpt lat="45.26383" lon="6.03776">
        <ele>1965</ele>
        <time>2013-02-10T09:30:02Z</time>
      </trkpt>
      <trkpt lat="45.26393" lon="6.03784">
        <ele>1963</ele>
        <time>2013-02-10T09:30:05Z</time>
      </trkpt>
      <trkpt lat="45.26393" lon="6.03797">
        <ele>1961</ele>
        <time>2013-02-10T09:30:07Z</time>
      </trkpt>
      <trkpt lat="45.26387" lon="6.03808">
        <ele>1960</ele>
        <time>2013-02-10T09:30:10Z</time>
      </trkpt>
      <trkpt lat="45.26385" lon="6.03811">
        <ele>1960</ele>
        <time>2013-02-10T09:30:13Z</time>
      </trkpt>
      <trkpt lat="45.26389" lon="6.0382">
        <ele>1957</ele>
        <time>2013-02-10T09:30:16Z</time>
      </trkpt>
      <trkpt lat="45.26396" lon="6.0383">
        <ele>1952</ele>
        <time>2013-02-10T09:30:19Z</time>
      </trkpt>
      <trkpt lat="45.264" lon="6.0384">
        <ele>1942</ele>
        <time>2013-02-10T09:30:22Z</time>
      </trkpt>
      <trkpt lat="45.26409" lon="6.03849">
        <ele>1941</ele>
        <time>2013-02-10T09:30:25Z</time>
      </trkpt>
      <trkpt lat="45.26403" lon="6.03871">
        <ele>1943</ele>
        <time>2013-02-10T09:30:28Z</time>
      </trkpt>
      <trkpt lat="45.26401" lon="6.03875">
        <ele>1943</ele>
        <time>2013-02-10T09:30:29Z</time>
      </trkpt>
      <trkpt lat="45.26398" lon="6.03878">
        <ele>1944</ele>
        <time>2013-02-10T09:30:34Z</time>
      </trkpt>
      <trkpt lat="45.26399" lon="6.03877">
        <ele>1944</ele>
        <time>2013-02-10T09:30:45Z</time>
      </trkpt>
      <trkpt lat="45.26404" lon="6.03895">
        <ele>1940</ele>
        <time>2013-02-10T09:30:49Z</time>
      </trkpt>
      <trkpt lat="45.26406" lon="6.03902">
        <ele>1938</ele>
        <time>2013-02-10T09:30:50Z</time>
      </trkpt>
      <trkpt lat="45.26414" lon="6.0391">
        <ele>1933</ele>
        <time>2013-02-10T09:30:54Z</time>
      </trkpt>
      <trkpt lat="45.26415" lon="6.0391">
        <ele>1933</ele>
        <time>2013-02-10T09:31:04Z</time>
      </trkpt>
      <trkpt lat="45.26416" lon="6.03909">
        <ele>1933</ele>
        <time>2013-02-10T09:31:26Z</time>
      </trkpt>
      <trkpt lat="45.26416" lon="6.03909">
        <ele>1933</ele>
        <time>2013-02-10T09:31:35Z</time>
      </trkpt>
      <trkpt lat="45.26416" lon="6.0391">
        <ele>1933</ele>
        <time>2013-02-10T09:31:50Z</time>
      </trkpt>
      <trkpt lat="45.26416" lon="6.0391">
        <ele>1933</ele>
        <time>2013-02-10T09:31:57Z</time>
      </trkpt>
      <trkpt lat="45.26419" lon="6.03906">
        <ele>1926</ele>
        <time>2013-02-10T09:32:03Z</time>
      </trkpt>
      <trkpt lat="45.26421" lon="6.03902">
        <ele>1925</ele>
        <time>2013-02-10T09:32:06Z</time>
      </trkpt>
      <trkpt lat="45.26427" lon="6.03888">
        <ele>1924</ele>
        <time>2013-02-10T09:32:13Z</time>
      </trkpt>
      <trkpt lat="45.26432" lon="6.03876">
        <ele>1924</ele>
        <time>2013-02-10T09:32:17Z</time>
      </trkpt>
      <trkpt lat="45.26452" lon="6.03864">
        <ele>1923</ele>
        <time>2013-02-10T09:32:22Z</time>
      </trkpt>
      <trkpt lat="45.26491" lon="6.03853">
        <ele>1919</ele>
        <time>2013-02-10T09:32:27Z</time>
      </trkpt>
      <trkpt lat="45.2652" lon="6.03863">
        <ele>1913</ele>
        <time>2013-02-10T09:32:31Z</time>
      </trkpt>
      <trkpt lat="45.26537" lon="6.03885">
        <ele>1910</ele>
        <time>2013-02-10T09:32:34Z</time>
      </trkpt>
      <trkpt lat="45.26547" lon="6.03903">
        <ele>1907</ele>
        <time>2013-02-10T09:32:36Z</time>
      </trkpt>
      <trkpt lat="45.26565" lon="6.03937">
        <ele>1891</ele>
        <time>2013-02-10T09:32:40Z</time>
      </trkpt>
      <trkpt lat="45.2657" lon="6.0395">
        <ele>1890</ele>
        <time>2013-02-10T09:32:42Z</time>
      </trkpt>
      <trkpt lat="45.26568" lon="6.03956">
        <ele>1889</ele>
        <time>2013-02-10T09:32:43Z</time>
      </trkpt>
      <trkpt lat="45.26568" lon="6.0396">
        <ele>1889</ele>
        <time>2013-02-10T09:32:46Z</time>
      </trkpt>
      <trkpt lat="45.26569" lon="6.03959">
        <ele>1889</ele>
        <time>2013-02-10T09:32:53Z</time>
      </trkpt>
      <trkpt lat="45.26569" lon="6.03958">
        <ele>1889</ele>
        <time>2013-02-10T09:33:05Z</time>
      </trkpt>
      <trkpt lat="45.2657" lon="6.03962">
        <ele>1888</ele>
        <time>2013-02-10T09:33:07Z</time>
      </trkpt>
      <trkpt lat="45.26577" lon="6.03981">
        <ele>1884</ele>
        <time>2013-02-10T09:33:11Z</time>
      </trkpt>
      <trkpt lat="45.2658" lon="6.04001">
        <ele>1877</ele>
        <time>2013-02-10T09:33:14Z</time>
      </trkpt>
      <trkpt lat="45.26581" lon="6.0402">
        <ele>1875</ele>
        <time>2013-02-10T09:33:17Z</time>
      </trkpt>
      <trkpt lat="45.26585" lon="6.04044">
        <ele>1866</ele>
        <time>2013-02-10T09:33:20Z</time>
      </trkpt>
      <trkpt lat="45.26588" lon="6.04067">
        <ele>1863</ele>
        <time>2013-02-10T09:33:23Z</time>
      </trkpt>
      <trkpt lat="45.26586" lon="6.04081">
        <ele>1862</ele>
        <time>2013-02-10T09:33:25Z</time>
      </trkpt>
      <trkpt lat="45.26591" lon="6.04094">
        <ele>1856</ele>
        <time>2013-02-10T09:33:27Z</time>
      </trkpt>
      <trkpt lat="45.26592" lon="6.04111">
        <ele>1852</ele>
        <time>2013-02-10T09:33:29Z</time>
      </trkpt>
      <trkpt lat="45.266" lon="6.04175">
        <ele>1841</ele>
        <time>2013-02-10T09:33:35Z</time>
      </trkpt>
      <trkpt lat="45.26601" lon="6.04184">
        <ele>1840</ele>
        <time>2013-02-10T09:33:36Z</time>
      </trkpt>
      <trkpt lat="45.26605" lon="6.04189">
        <ele>1838</ele>
        <time>2013-02-10T09:33:40Z</time>
      </trkpt>
      <trkpt lat="45.26606" lon="6.04189">
        <ele>1838</ele>
        <time>2013-02-10T09:33:47Z</time>
      </trkpt>
      <trkpt lat="45.26606" lon="6.04189">
        <ele>1838</ele>
        <time>2013-02-10T09:33:55Z</time>
      </trkpt>
      <trkpt lat="45.26606" lon="6.04189">
        <ele>1838</ele>
        <time>2013-02-10T09:34:03Z</time>
      </trkpt>
      <trkpt lat="45.26606" lon="6.04189">
        <ele>1838</ele>
        <time>2013-02-10T09:34:11Z</time>
      </trkpt>
      <trkpt lat="45.26607" lon="6.0419">
        <ele>1838</ele>
        <time>2013-02-10T09:34:22Z</time>
      </trkpt>
      <trkpt lat="45.26607" lon="6.04187">
        <ele>1838</ele>
        <time>2013-02-10T09:34:28Z</time>
      </trkpt>
      <trkpt lat="45.26607" lon="6.04187">
        <ele>1838</ele>
        <time>2013-02-10T09:34:36Z</time>
      </trkpt>
      <trkpt lat="45.26607" lon="6.04187">
        <ele>1838</ele>
        <time>2013-02-10T09:34:43Z</time>
      </trkpt>
      <trkpt lat="45.26607" lon="6.04187">
        <ele>1838</ele>
        <time>2013-02-10T09:34:53Z</time>
      </trkpt>
      <trkpt lat="45.26607" lon="6.04187">
        <ele>1838</ele>
        <time>2013-02-10T09:35:01Z</time>
      </trkpt>
      <trkpt lat="45.26607" lon="6.04188">
        <ele>1838</ele>
        <time>2013-02-10T09:35:14Z</time>
      </trkpt>
      <trkpt lat="45.26608" lon="6.04188">
        <ele>1838</ele>
        <time>2013-02-10T09:35:44Z</time>
      </trkpt>
      <trkpt lat="45.26617" lon="6.04189">
        <ele>1836</ele>
        <time>2013-02-10T09:35:48Z</time>
      </trkpt>
      <trkpt lat="45.26638" lon="6.04197">
        <ele>1833</ele>
        <time>2013-02-10T09:35:51Z</time>
      </trkpt>
      <trkpt lat="45.26671" lon="6.04198">
        <ele>1818</ele>
        <time>2013-02-10T09:35:54Z</time>
      </trkpt>
      <trkpt lat="45.26695" lon="6.04216">
        <ele>1813</ele>
        <time>2013-02-10T09:35:57Z</time>
      </trkpt>
      <trkpt lat="45.26717" lon="6.04236">
        <ele>1807</ele>
        <time>2013-02-10T09:36:00Z</time>
      </trkpt>
      <trkpt lat="45.26735" lon="6.04271">
        <ele>1792</ele>
        <time>2013-02-10T09:36:03Z</time>
      </trkpt>
      <trkpt lat="45.26745" lon="6.04294">
        <ele>1789</ele>
        <time>2013-02-10T09:36:05Z</time>
      </trkpt>
      <trkpt lat="45.26761" lon="6.04311">
        <ele>1771</ele>
        <time>2013-02-10T09:36:07Z</time>
      </trkpt>
      <trkpt lat="45.26772" lon="6.04338">
        <ele>1760</ele>
        <time>2013-02-10T09:36:09Z</time>
      </trkpt>
      <trkpt lat="45.26784" lon="6.04364">
        <ele>1754</ele>
        <time>2013-02-10T09:36:11Z</time>
      </trkpt>
      <trkpt lat="45.26803" lon="6.04393">
        <ele>1749</ele>
        <time>2013-02-10T09:36:14Z</time>
      </trkpt>
      <trkpt lat="45.26815" lon="6.04411">
        <ele>1743</ele>
        <time>2013-02-10T09:36:16Z</time>
      </trkpt>
      <trkpt lat="45.26823" lon="6.04444">
        <ele>1732</ele>
        <time>2013-02-10T09:36:18Z</time>
      </trkpt>
      <trkpt lat="45.26838" lon="6.04523">
        <ele>1704</ele>
        <time>2013-02-10T09:36:23Z</time>
      </trkpt>
      <trkpt lat="45.26851" lon="6.04553">
        <ele>1697</ele>
        <time>2013-02-10T09:36:26Z</time>
      </trkpt>
      <trkpt lat="45.26861" lon="6.04558">
        <ele>1696</ele>
        <time>2013-02-10T09:36:28Z</time>
      </trkpt>
      <trkpt lat="45.2686" lon="6.04567">
        <ele>1694</ele>
        <time>2013-02-10T09:36:30Z</time>
      </trkpt>
      <trkpt lat="45.26861" lon="6.04571">
        <ele>1694</ele>
        <time>2013-02-10T09:36:33Z</time>
      </trkpt>
      <trkpt lat="45.26862" lon="6.04571">
        <ele>1694</ele>
        <time>2013-02-10T09:36:39Z</time>
      </trkpt>
      <trkpt lat="45.26861" lon="6.04573">
        <ele>1694</ele>
        <time>2013-02-10T09:36:48Z</time>
      </trkpt>
      <trkpt lat="45.26858" lon="6.04594">
        <ele>1677</ele>
        <time>2013-02-10T09:36:51Z</time>
      </trkpt>
      <trkpt lat="45.2686" lon="6.04646">
        <ele>1669</ele>
        <time>2013-02-10T09:36:54Z</time>
      </trkpt>
      <trkpt lat="45.26868" lon="6.04689">
        <ele>1652</ele>
        <time>2013-02-10T09:36:57Z</time>
      </trkpt>
      <trkpt lat="45.26882" lon="6.04737">
        <ele>1645</ele>
        <time>2013-02-10T09:37:00Z</time>
      </trkpt>
      <trkpt lat="45.269" lon="6.04759">
        <ele>1631</ele>
        <time>2013-02-10T09:37:02Z</time>
      </trkpt>
      <trkpt lat="45.26916" lon="6.04787">
        <ele>1627</ele>
        <time>2013-02-10T09:37:04Z</time>
      </trkpt>
      <trkpt lat="45.26933" lon="6.04811">
        <ele>1616</ele>
        <time>2013-02-10T09:37:06Z</time>
      </trkpt>
      <trkpt lat="45.26947" lon="6.04835">
        <ele>1604</ele>
        <time>2013-02-10T09:37:08Z</time>
      </trkpt>
      <trkpt lat="45.26961" lon="6.04854">
        <ele>1601</ele>
        <time>2013-02-10T09:37:10Z</time>
      </trkpt>
      <trkpt lat="45.26995" lon="6.04899">
        <ele>1593</ele>
        <time>2013-02-10T09:37:14Z</time>
      </trkpt>
      <trkpt lat="45.27018" lon="6.04938">
        <ele>1583</ele>
        <time>2013-02-10T09:37:17Z</time>
      </trkpt>
      <trkpt lat="45.27033" lon="6.04962">
        <ele>1581</ele>
        <time>2013-02-10T09:37:19Z</time>
      </trkpt>
      <trkpt lat="45.27045" lon="6.04988">
        <ele>1578</ele>
        <time>2013-02-10T09:37:21Z</time>
      </trkpt>
      <trkpt lat="45.27055" lon="6.05029">
        <ele>1564</ele>
        <time>2013-02-10T09:37:24Z</time>
      </trkpt>
      <trkpt lat="45.27058" lon="6.05042">
        <ele>1563</ele>
        <time>2013-02-10T09:37:25Z</time>
      </trkpt>
      <trkpt lat="45.27069" lon="6.05087">
        <ele>1550</ele>
        <time>2013-02-10T09:37:29Z</time>
      </trkpt>
      <trkpt lat="45.27069" lon="6.05111">
        <ele>1547</ele>
        <time>2013-02-10T09:37:32Z</time>
      </trkpt>
      <trkpt lat="45.27068" lon="6.05111">
        <ele>1547</ele>
        <time>2013-02-10T09:37:35Z</time>
      </trkpt>
      <trkpt lat="45.27068" lon="6.05108">
        <ele>1547</ele>
        <time>2013-02-10T09:37:43Z</time>
      </trkpt>
      <trkpt lat="45.27068" lon="6.05107">
        <ele>1547</ele>
        <time>2013-02-10T09:37:51Z</time>
      </trkpt>
      <trkpt lat="45.27068" lon="6.05108">
        <ele>1547</ele>
        <time>2013-02-10T09:38:04Z</time>
      </trkpt>
      <trkpt lat="45.27067" lon="6.05108">
        <ele>1547</ele>
        <time>2013-02-10T09:38:17Z</time>
      </trkpt>
      <trkpt lat="45.27067" lon="6.05108">
        <ele>1547</ele>
        <time>2013-02-10T09:38:36Z</time>
      </trkpt>
      <trkpt lat="45.27068" lon="6.05107">
        <ele>1547</ele>
        <time>2013-02-10T09:38:46Z</time>
      </trkpt>
      <trkpt lat="45.27068" lon="6.05108">
        <ele>1547</ele>
        <time>2013-02-10T09:39:25Z</time>
      </trkpt>
      <trkpt lat="45.27067" lon="6.05109">
        <ele>1547</ele>
        <time>2013-02-10T09:40:00Z</time>
      </trkpt>
      <trkpt lat="45.27067" lon="6.05111">
        <ele>1547</ele>
        <time>2013-02-10T09:40:01Z</time>
      </trkpt>
      <trkpt lat="45.27067" lon="6.05116">
        <ele>1546</ele>
        <time>2013-02-10T09:40:06Z</time>
      </trkpt>
      <trkpt lat="45.27069" lon="6.05123">
        <ele>1545</ele>
        <time>2013-02-10T09:40:11Z</time>
      </trkpt>
      <trkpt lat="45.2707" lon="6.05133">
        <ele>1544</ele>
        <time>2013-02-10T09:40:12Z</time>
      </trkpt>
      <trkpt lat="45.27079" lon="6.05169">
        <ele>1533</ele>
        <time>2013-02-10T09:40:15Z</time>
      </trkpt>
      <trkpt lat="45.27088" lon="6.05205">
        <ele>1523</ele>
        <time>2013-02-10T09:40:18Z</time>
      </trkpt>
      <trkpt lat="45.27106" lon="6.05253">
        <ele>1502</ele>
        <time>2013-02-10T09:40:23Z</time>
      </trkpt>
      <trkpt lat="45.27118" lon="6.05271">
        <ele>1500</ele>
        <time>2013-02-10T09:40:25Z</time>
      </trkpt>
      <trkpt lat="45.2714" lon="6.05322">
        <ele>1492</ele>
        <time>2013-02-10T09:40:30Z</time>
      </trkpt>
      <trkpt lat="45.27138" lon="6.05336">
        <ele>1478</ele>
        <time>2013-02-10T09:40:31Z</time>
      </trkpt>
      <trkpt lat="45.27134" lon="6.0537">
        <ele>1475</ele>
        <time>2013-02-10T09:40:33Z</time>
      </trkpt>
      <trkpt lat="45.2712" lon="6.05418">
        <ele>1462</ele>
        <time>2013-02-10T09:40:36Z</time>
      </trkpt>
      <trkpt lat="45.27114" lon="6.05449">
        <ele>1460</ele>
        <time>2013-02-10T09:40:38Z</time>
      </trkpt>
      <trkpt lat="45.27107" lon="6.05468">
        <ele>1459</ele>
        <time>2013-02-10T09:40:40Z</time>
      </trkpt>
      <trkpt lat="45.27102" lon="6.05474">
        <ele>1459</ele>
        <time>2013-02-10T09:40:42Z</time>
      </trkpt>
      <trkpt lat="45.27101" lon="6.05478">
        <ele>1458</ele>
        <time>2013-02-10T09:40:45Z</time>
      </trkpt>
      <trkpt lat="45.27099" lon="6.05483">
        <ele>1458</ele>
        <time>2013-02-10T09:40:50Z</time>
      </trkpt>
      <trkpt lat="45.27098" lon="6.05484">
        <ele>1458</ele>
        <time>2013-02-10T09:40:56Z</time>
      </trkpt>
      <trkpt lat="45.27098" lon="6.05483">
        <ele>1458</ele>
        <time>2013-02-10T09:41:04Z</time>
      </trkpt>
      <trkpt lat="45.27098" lon="6.05483">
        <ele>1458</ele>
        <time>2013-02-10T09:41:14Z</time>
      </trkpt>
      <trkpt lat="45.27097" lon="6.05482">
        <ele>1458</ele>
        <time>2013-02-10T09:41:26Z</time>
      </trkpt>
      <trkpt lat="45.27097" lon="6.05482">
        <ele>1458</ele>
        <time>2013-02-10T09:41:35Z</time>
      </trkpt>
      <trkpt lat="45.27096" lon="6.05482">
        <ele>1458</ele>
        <time>2013-02-10T09:41:56Z</time>
      </trkpt>
      <trkpt lat="45.27096" lon="6.05482">
        <ele>1458</ele>
        <time>2013-02-10T09:42:20Z</time>
      </trkpt>
      <trkpt lat="45.27095" lon="6.05482">
        <ele>1458</ele>
        <time>2013-02-10T09:42:31Z</time>
      </trkpt>
      <trkpt lat="45.27094" lon="6.05481">
        <ele>1458</ele>
        <time>2013-02-10T09:42:41Z</time>
      </trkpt>
      <trkpt lat="45.27093" lon="6.05481">
        <ele>1458</ele>
        <time>2013-02-10T09:42:56Z</time>
      </trkpt>
      <trkpt lat="45.27092" lon="6.05481">
        <ele>1458</ele>
        <time>2013-02-10T09:43:08Z</time>
      </trkpt>
      <trkpt lat="45.27092" lon="6.0548">
        <ele>1458</ele>
        <time>2013-02-10T09:43:18Z</time>
      </trkpt>
      <trkpt lat="45.27091" lon="6.05479">
        <ele>1458</ele>
        <time>2013-02-10T09:43:39Z</time>
      </trkpt>
      <trkpt lat="45.27089" lon="6.05478">
        <ele>1458</ele>
        <time>2013-02-10T09:43:48Z</time>
      </trkpt>
      <trkpt lat="45.27089" lon="6.05477">
        <ele>1458</ele>
        <time>2013-02-10T09:43:59Z</time>
      </trkpt>
      <trkpt lat="45.27089" lon="6.05475">
        <ele>1458</ele>
        <time>2013-02-10T09:44:09Z</time>
      </trkpt>
      <trkpt lat="45.27088" lon="6.05475">
        <ele>1458</ele>
        <time>2013-02-10T09:44:17Z</time>
      </trkpt>
      <trkpt lat="45.27087" lon="6.05476">
        <ele>1458</ele>
        <time>2013-02-10T09:44:30Z</time>
      </trkpt>
      <trkpt lat="45.27086" lon="6.05476">
        <ele>1458</ele>
        <time>2013-02-10T09:44:43Z</time>
      </trkpt>
      <trkpt lat="45.27085" lon="6.05476">
        <ele>1458</ele>
        <time>2013-02-10T09:44:56Z</time>
      </trkpt>
      <trkpt lat="45.27084" lon="6.05475">
        <ele>1458</ele>
        <time>2013-02-10T09:45:06Z</time>
      </trkpt>
      <trkpt lat="45.27083" lon="6.05474">
        <ele>1455</ele>
        <time>2013-02-10T09:45:15Z</time>
      </trkpt>
      <trkpt lat="45.2708" lon="6.05474">
        <ele>1455</ele>
        <time>2013-02-10T09:45:24Z</time>
      </trkpt>
      <trkpt lat="45.27079" lon="6.05473">
        <ele>1455</ele>
        <time>2013-02-10T09:45:33Z</time>
      </trkpt>
      <trkpt lat="45.27077" lon="6.05472">
        <ele>1455</ele>
        <time>2013-02-10T09:45:47Z</time>
      </trkpt>
      <trkpt lat="45.27076" lon="6.0547">
        <ele>1455</ele>
        <time>2013-02-10T09:46:05Z</time>
      </trkpt>
      <trkpt lat="45.27076" lon="6.05467">
        <ele>1455</ele>
        <time>2013-02-10T09:46:20Z</time>
      </trkpt>
      <trkpt lat="45.27074" lon="6.05465">
        <ele>1455</ele>
        <time>2013-02-10T09:46:32Z</time>
      </trkpt>
      <trkpt lat="45.27074" lon="6.05464">
        <ele>1455</ele>
        <time>2013-02-10T09:46:37Z</time>
      </trkpt>
      <trkpt lat="45.27073" lon="6.05462">
        <ele>1455</ele>
        <time>2013-02-10T09:46:43Z</time>
      </trkpt>
      <trkpt lat="45.27073" lon="6.0546">
        <ele>1456</ele>
        <time>2013-02-10T09:46:51Z</time>
      </trkpt>
      <trkpt lat="45.27072" lon="6.0546">
        <ele>1456</ele>
        <time>2013-02-10T09:46:58Z</time>
      </trkpt>
      <trkpt lat="45.27072" lon="6.05457">
        <ele>1456</ele>
        <time>2013-02-10T09:47:07Z</time>
      </trkpt>
      <trkpt lat="45.27072" lon="6.05454">
        <ele>1456</ele>
        <time>2013-02-10T09:47:12Z</time>
      </trkpt>
      <trkpt lat="45.2707" lon="6.05447">
        <ele>1457</ele>
        <time>2013-02-10T09:47:15Z</time>
      </trkpt>
      <trkpt lat="45.27054" lon="6.05409">
        <ele>1467</ele>
        <time>2013-02-10T09:47:21Z</time>
      </trkpt>
      <trkpt lat="45.27039" lon="6.05379">
        <ele>1469</ele>
        <time>2013-02-10T09:47:27Z</time>
      </trkpt>
      <trkpt lat="45.27022" lon="6.0534">
        <ele>1473</ele>
        <time>2013-02-10T09:47:35Z</time>
      </trkpt>
      <trkpt lat="45.2701" lon="6.05314">
        <ele>1486</ele>
        <time>2013-02-10T09:47:40Z</time>
      </trkpt>
      <trkpt lat="45.26997" lon="6.05283">
        <ele>1490</ele>
        <time>2013-02-10T09:47:46Z</time>
      </trkpt>
      <trkpt lat="45.26981" lon="6.05245">
        <ele>1511</ele>
        <time>2013-02-10T09:47:53Z</time>
      </trkpt>
      <trkpt lat="45.26968" lon="6.05215">
        <ele>1516</ele>
        <time>2013-02-10T09:47:59Z</time>
      </trkpt>
      <trkpt lat="45.26956" lon="6.05185">
        <ele>1522</ele>
        <time>2013-02-10T09:48:05Z</time>
      </trkpt>
      <trkpt lat="45.26939" lon="6.05142">
        <ele>1543</ele>
        <time>2013-02-10T09:48:14Z</time>
      </trkpt>
      <trkpt lat="45.26927" lon="6.05112">
        <ele>1549</ele>
        <time>2013-02-10T09:48:20Z</time>
      </trkpt>
      <trkpt lat="45.26913" lon="6.05079">
        <ele>1561</ele>
        <time>2013-02-10T09:48:27Z</time>
      </trkpt>
      <trkpt lat="45.26902" lon="6.05052">
        <ele>1567</ele>
        <time>2013-02-10T09:48:32Z</time>
      </trkpt>
      <trkpt lat="45.26887" lon="6.05015">
        <ele>1572</ele>
        <time>2013-02-10T09:48:39Z</time>
      </trkpt>
      <trkpt lat="45.26871" lon="6.04977">
        <ele>1586</ele>
        <time>2013-02-10T09:48:46Z</time>
      </trkpt>
      <trkpt lat="45.26853" lon="6.04933">
        <ele>1591</ele>
        <time>2013-02-10T09:48:54Z</time>
      </trkpt>
      <trkpt lat="45.26829" lon="6.04876">
        <ele>1610</ele>
        <time>2013-02-10T09:49:05Z</time>
      </trkpt>
      <trkpt lat="45.2681" lon="6.0483">
        <ele>1631</ele>
        <time>2013-02-10T09:49:15Z</time>
      </trkpt>
      <trkpt lat="45.26793" lon="6.04787">
        <ele>1639</ele>
        <time>2013-02-10T09:49:24Z</time>
      </trkpt>
      <trkpt lat="45.26781" lon="6.04757">
        <ele>1645</ele>
        <time>2013-02-10T09:49:30Z</time>
      </trkpt>
      <trkpt lat="45.26767" lon="6.04723">
        <ele>1665</ele>
        <time>2013-02-10T09:49:37Z</time>
      </trkpt>
      <trkpt lat="45.26753" lon="6.0469">
        <ele>1675</ele>
        <time>2013-02-10T09:49:44Z</time>
      </trkpt>
      <trkpt lat="45.26742" lon="6.04663">
        <ele>1698</ele>
        <time>2013-02-10T09:49:50Z</time>
      </trkpt>
      <trkpt lat="45.26736" lon="6.04646">
        <ele>1707</ele>
        <time>2013-02-10T09:49:53Z</time>
      </trkpt>
      <trkpt lat="45.26724" lon="6.04617">
        <ele>1715</ele>
        <time>2013-02-10T09:49:59Z</time>
      </trkpt>
      <trkpt lat="45.2671" lon="6.04583">
        <ele>1736</ele>
        <time>2013-02-10T09:50:06Z</time>
      </trkpt>
      <trkpt lat="45.26698" lon="6.04553">
        <ele>1740</ele>
        <time>2013-02-10T09:50:12Z</time>
      </trkpt>
      <trkpt lat="45.26685" lon="6.04522">
        <ele>1748</ele>
        <time>2013-02-10T09:50:18Z</time>
      </trkpt>
      <trkpt lat="45.2667" lon="6.04486">
        <ele>1764</ele>
        <time>2013-02-10T09:50:25Z</time>
      </trkpt>
      <trkpt lat="45.26656" lon="6.04451">
        <ele>1780</ele>
        <time>2013-02-10T09:50:32Z</time>
      </trkpt>
      <trkpt lat="45.26645" lon="6.04425">
        <ele>1783</ele>
        <time>2013-02-10T09:50:37Z</time>
      </trkpt>
      <trkpt lat="45.26633" lon="6.04394">
        <ele>1800</ele>
        <time>2013-02-10T09:50:43Z</time>
      </trkpt>
      <trkpt lat="45.26616" lon="6.04353">
        <ele>1807</ele>
        <time>2013-02-10T09:50:51Z</time>
      </trkpt>
      <trkpt lat="45.26595" lon="6.04302">
        <ele>1823</ele>
        <time>2013-02-10T09:51:01Z</time>
      </trkpt>
      <trkpt lat="45.26589" lon="6.04287">
        <ele>1825</ele>
        <time>2013-02-10T09:51:04Z</time>
      </trkpt>
      <trkpt lat="45.26577" lon="6.04257">
        <ele>1837</ele>
        <time>2013-02-10T09:51:10Z</time>
      </trkpt>
      <trkpt lat="45.26559" lon="6.04214">
        <ele>1846</ele>
        <time>2013-02-10T09:51:18Z</time>
      </trkpt>
      <trkpt lat="45.26542" lon="6.04172">
        <ele>1850</ele>
        <time>2013-02-10T09:51:26Z</time>
      </trkpt>
      <trkpt lat="45.2652" lon="6.04118">
        <ele>1862</ele>
        <time>2013-02-10T09:51:36Z</time>
      </trkpt>
      <trkpt lat="45.26503" lon="6.04073">
        <ele>1872</ele>
        <time>2013-02-10T09:51:44Z</time>
      </trkpt>
      <trkpt lat="45.26481" lon="6.0402">
        <ele>1888</ele>
        <time>2013-02-10T09:51:54Z</time>
      </trkpt>
      <trkpt lat="45.26463" lon="6.03974">
        <ele>1906</ele>
        <time>2013-02-10T09:52:03Z</time>
      </trkpt>
      <trkpt lat="45.26451" lon="6.03941">
        <ele>1911</ele>
        <time>2013-02-10T09:52:09Z</time>
      </trkpt>
      <trkpt lat="45.26444" lon="6.03925">
        <ele>1914</ele>
        <time>2013-02-10T09:52:12Z</time>
      </trkpt>
      <trkpt lat="45.26435" lon="6.03903">
        <ele>1923</ele>
        <time>2013-02-10T09:52:16Z</time>
      </trkpt>
      <trkpt lat="45.26434" lon="6.03887">
        <ele>1923</ele>
        <time>2013-02-10T09:52:21Z</time>
      </trkpt>
      <trkpt lat="45.26437" lon="6.03867">
        <ele>1924</ele>
        <time>2013-02-10T09:52:26Z</time>
      </trkpt>
      <trkpt lat="45.26441" lon="6.03859">
        <ele>1924</ele>
        <time>2013-02-10T09:52:30Z</time>
      </trkpt>
      <trkpt lat="45.26442" lon="6.03859">
        <ele>1924</ele>
        <time>2013-02-10T09:52:52Z</time>
      </trkpt>
      <trkpt lat="45.26442" lon="6.03858">
        <ele>1924</ele>
        <time>2013-02-10T09:53:11Z</time>
      </trkpt>
      <trkpt lat="45.26442" lon="6.03857">
        <ele>1924</ele>
        <time>2013-02-10T09:53:19Z</time>
      </trkpt>
      <trkpt lat="45.26441" lon="6.03854">
        <ele>1925</ele>
        <time>2013-02-10T09:53:25Z</time>
      </trkpt>
      <trkpt lat="45.26454" lon="6.03837">
        <ele>1924</ele>
        <time>2013-02-10T09:53:31Z</time>
      </trkpt>
      <trkpt lat="45.26456" lon="6.03834">
        <ele>1923</ele>
        <time>2013-02-10T09:53:32Z</time>
      </trkpt>
      <trkpt lat="45.26467" lon="6.03819">
        <ele>1935</ele>
        <time>2013-02-10T09:53:36Z</time>
      </trkpt>
      <trkpt lat="45.26472" lon="6.03809">
        <ele>1935</ele>
        <time>2013-02-10T09:53:40Z</time>
      </trkpt>
      <trkpt lat="45.26474" lon="6.03806">
        <ele>1936</ele>
        <time>2013-02-10T09:53:48Z</time>
      </trkpt>
      <trkpt lat="45.26475" lon="6.03806">
        <ele>1936</ele>
        <time>2013-02-10T09:53:57Z</time>
      </trkpt>
      <trkpt lat="45.26476" lon="6.03804">
        <ele>1936</ele>
        <time>2013-02-10T09:54:08Z</time>
      </trkpt>
      <trkpt lat="45.26478" lon="6.03803">
        <ele>1936</ele>
        <time>2013-02-10T09:54:13Z</time>
      </trkpt>
      <trkpt lat="45.26479" lon="6.03802">
        <ele>1936</ele>
        <time>2013-02-10T09:54:19Z</time>
      </trkpt>
      <trkpt lat="45.26481" lon="6.03801">
        <ele>1936</ele>
        <time>2013-02-10T09:54:24Z</time>
      </trkpt>
      <trkpt lat="45.26483" lon="6.03801">
        <ele>1936</ele>
        <time>2013-02-10T09:54:29Z</time>
      </trkpt>
      <trkpt lat="45.26484" lon="6.03801">
        <ele>1936</ele>
        <time>2013-02-10T09:54:32Z</time>
      </trkpt>
      <trkpt lat="45.26485" lon="6.03801">
        <ele>1936</ele>
        <time>2013-02-10T09:54:34Z</time>
      </trkpt>
      <trkpt lat="45.26497" lon="6.03796">
        <ele>1936</ele>
        <time>2013-02-10T09:54:39Z</time>
      </trkpt>
      <trkpt lat="45.26521" lon="6.03787">
        <ele>1940</ele>
        <time>2013-02-10T09:54:48Z</time>
      </trkpt>
      <trkpt lat="45.26548" lon="6.03776">
        <ele>1944</ele>
        <time>2013-02-10T09:54:59Z</time>
      </trkpt>
      <trkpt lat="45.26571" lon="6.03768">
        <ele>1951</ele>
        <time>2013-02-10T09:55:08Z</time>
      </trkpt>
      <trkpt lat="45.26593" lon="6.03759">
        <ele>1963</ele>
        <time>2013-02-10T09:55:17Z</time>
      </trkpt>
      <trkpt lat="45.26622" lon="6.03747">
        <ele>1986</ele>
        <time>2013-02-10T09:55:28Z</time>
      </trkpt>
      <trkpt lat="45.26649" lon="6.03737">
        <ele>1991</ele>
        <time>2013-02-10T09:55:39Z</time>
      </trkpt>
      <trkpt lat="45.26678" lon="6.03724">
        <ele>2007</ele>
        <time>2013-02-10T09:55:51Z</time>
      </trkpt>
      <trkpt lat="45.26702" lon="6.03714">
        <ele>2012</ele>
        <time>2013-02-10T09:56:01Z</time>
      </trkpt>
      <trkpt lat="45.26729" lon="6.03703">
        <ele>2018</ele>
        <time>2013-02-10T09:56:12Z</time>
      </trkpt>
      <trkpt lat="45.26755" lon="6.03692">
        <ele>2027</ele>
        <time>2013-02-10T09:56:23Z</time>
      </trkpt>
      <trkpt lat="45.26772" lon="6.03682">
        <ele>2028</ele>
        <time>2013-02-10T09:56:30Z</time>
      </trkpt>
      <trkpt lat="45.26775" lon="6.03673">
        <ele>2029</ele>
        <time>2013-02-10T09:56:34Z</time>
      </trkpt>
      <trkpt lat="45.26782" lon="6.03664">
        <ele>2034</ele>
        <time>2013-02-10T09:56:40Z</time>
      </trkpt>
      <trkpt lat="45.26782" lon="6.03664">
        <ele>2034</ele>
        <time>2013-02-10T09:56:41Z</time>
      </trkpt>
      <trkpt lat="45.26782" lon="6.03663">
        <ele>2034</ele>
        <time>2013-02-10T09:56:49Z</time>
      </trkpt>
      <trkpt lat="45.26781" lon="6.03662">
        <ele>2034</ele>
        <time>2013-02-10T09:57:02Z</time>
      </trkpt>
      <trkpt lat="45.26779" lon="6.03661">
        <ele>2034</ele>
        <time>2013-02-10T09:57:15Z</time>
      </trkpt>
      <trkpt lat="45.26778" lon="6.03661">
        <ele>2034</ele>
        <time>2013-02-10T09:57:25Z</time>
      </trkpt>
      <trkpt lat="45.26778" lon="6.03661">
        <ele>2034</ele>
        <time>2013-02-10T09:57:31Z</time>
      </trkpt>
      <trkpt lat="45.26778" lon="6.03661">
        <ele>2035</ele>
        <time>2013-02-10T09:57:42Z</time>
      </trkpt>
      <trkpt lat="45.26777" lon="6.0366">
        <ele>2035</ele>
        <time>2013-02-10T09:57:55Z</time>
      </trkpt>
      <trkpt lat="45.26777" lon="6.0366">
        <ele>2035</ele>
        <time>2013-02-10T09:58:08Z</time>
      </trkpt>
      <trkpt lat="45.26777" lon="6.0366">
        <ele>2035</ele>
        <time>2013-02-10T09:58:28Z</time>
      </trkpt>
      <trkpt lat="45.26777" lon="6.0366">
        <ele>2035</ele>
        <time>2013-02-10T09:58:41Z</time>
      </trkpt>
      <trkpt lat="45.26777" lon="6.0366">
        <ele>2035</ele>
        <time>2013-02-10T09:58:43Z</time>
      </trkpt>
      <trkpt lat="45.26774" lon="6.03643">
        <ele>2034</ele>
        <time>2013-02-10T09:58:46Z</time>
      </trkpt>
      <trkpt lat="45.26766" lon="6.03605">
        <ele>2031</ele>
        <time>2013-02-10T09:58:50Z</time>
      </trkpt>
      <trkpt lat="45.26761" lon="6.03578">
        <ele>2023</ele>
        <time>2013-02-10T09:58:53Z</time>
      </trkpt>
      <trkpt lat="45.2676" lon="6.03568">
        <ele>2021</ele>
        <time>2013-02-10T09:58:54Z</time>
      </trkpt>
      <trkpt lat="45.26752" lon="6.0352">
        <ele>2011</ele>
        <time>2013-02-10T09:58:59Z</time>
      </trkpt>
      <trkpt lat="45.26744" lon="6.03477">
        <ele>2005</ele>
        <time>2013-02-10T09:59:04Z</time>
      </trkpt>
      <trkpt lat="45.26744" lon="6.03464">
        <ele>2003</ele>
        <time>2013-02-10T09:59:07Z</time>
      </trkpt>
      <trkpt lat="45.26745" lon="6.03465">
        <ele>2003</ele>
        <time>2013-02-10T09:59:10Z</time>
      </trkpt>
      <trkpt lat="45.26747" lon="6.03467">
        <ele>2003</ele>
        <time>2013-02-10T09:59:20Z</time>
      </trkpt>
      <trkpt lat="45.26746" lon="6.03466">
        <ele>2003</ele>
        <time>2013-02-10T09:59:53Z</time>
      </trkpt>
      <trkpt lat="45.26746" lon="6.03464">
        <ele>2003</ele>
        <time>2013-02-10T09:59:59Z</time>
      </trkpt>
      <trkpt lat="45.26746" lon="6.03463">
        <ele>2003</ele>
        <time>2013-02-10T10:00:03Z</time>
      </trkpt>
      <trkpt lat="45.26753" lon="6.03458">
        <ele>1990</ele>
        <time>2013-02-10T10:00:07Z</time>
      </trkpt>
      <trkpt lat="45.26753" lon="6.03457">
        <ele>1990</ele>
        <time>2013-02-10T10:00:10Z</time>
      </trkpt>
      <trkpt lat="45.26764" lon="6.03461">
        <ele>1990</ele>
        <time>2013-02-10T10:00:14Z</time>
      </trkpt>
      <trkpt lat="45.26769" lon="6.03466">
        <ele>1990</ele>
        <time>2013-02-10T10:00:18Z</time>
      </trkpt>
      <trkpt lat="45.26777" lon="6.03474">
        <ele>1991</ele>
        <time>2013-02-10T10:00:21Z</time>
      </trkpt>
      <trkpt lat="45.26782" lon="6.03466">
        <ele>1989</ele>
        <time>2013-02-10T10:00:25Z</time>
      </trkpt>
      <trkpt lat="45.26787" lon="6.03459">
        <ele>1987</ele>
        <time>2013-02-10T10:00:27Z</time>
      </trkpt>
      <trkpt lat="45.26796" lon="6.03464">
        <ele>1987</ele>
        <time>2013-02-10T10:00:29Z</time>
      </trkpt>
      <trkpt lat="45.26808" lon="6.03469">
        <ele>1986</ele>
        <time>2013-02-10T10:00:33Z</time>
      </trkpt>
      <trkpt lat="45.26811" lon="6.03462">
        <ele>1985</ele>
        <time>2013-02-10T10:00:35Z</time>
      </trkpt>
      <trkpt lat="45.2681" lon="6.03444">
        <ele>1981</ele>
        <time>2013-02-10T10:00:38Z</time>
      </trkpt>
      <trkpt lat="45.26816" lon="6.03441">
        <ele>1979</ele>
        <time>2013-02-10T10:00:40Z</time>
      </trkpt>
      <trkpt lat="45.26814" lon="6.03425">
        <ele>1976</ele>
        <time>2013-02-10T10:00:43Z</time>
      </trkpt>
      <trkpt lat="45.26811" lon="6.03408">
        <ele>1962</ele>
        <time>2013-02-10T10:00:46Z</time>
      </trkpt>
      <trkpt lat="45.26812" lon="6.03396">
        <ele>1961</ele>
        <time>2013-02-10T10:00:49Z</time>
      </trkpt>
      <trkpt lat="45.2681" lon="6.03376">
        <ele>1958</ele>
        <time>2013-02-10T10:00:53Z</time>
      </trkpt>
      <trkpt lat="45.26815" lon="6.03361">
        <ele>1954</ele>
        <time>2013-02-10T10:00:56Z</time>
      </trkpt>
      <trkpt lat="45.26817" lon="6.03349">
        <ele>1951</ele>
        <time>2013-02-10T10:00:58Z</time>
      </trkpt>
      <trkpt lat="45.2682" lon="6.03331">
        <ele>1933</ele>
        <time>2013-02-10T10:01:01Z</time>
      </trkpt>
      <trkpt lat="45.26813" lon="6.03322">
        <ele>1931</ele>
        <time>2013-02-10T10:01:04Z</time>
      </trkpt>
      <trkpt lat="45.26814" lon="6.03311">
        <ele>1929</ele>
        <time>2013-02-10T10:01:06Z</time>
      </trkpt>
      <trkpt lat="45.26814" lon="6.0329">
        <ele>1924</ele>
        <time>2013-02-10T10:01:10Z</time>
      </trkpt>
      <trkpt lat="45.26806" lon="6.03285">
        <ele>1923</ele>
        <time>2013-02-10T10:01:13Z</time>
      </trkpt>
      <trkpt lat="45.26802" lon="6.03284">
        <ele>1923</ele>
        <time>2013-02-10T10:01:20Z</time>
      </trkpt>
      <trkpt lat="45.26797" lon="6.03281">
        <ele>1923</ele>
        <time>2013-02-10T10:01:24Z</time>
      </trkpt>
      <trkpt lat="45.26798" lon="6.03271">
        <ele>1920</ele>
        <time>2013-02-10T10:01:28Z</time>
      </trkpt>
      <trkpt lat="45.268" lon="6.0327">
        <ele>1920</ele>
        <time>2013-02-10T10:01:30Z</time>
      </trkpt>
      <trkpt lat="45.26804" lon="6.03264">
        <ele>1918</ele>
        <time>2013-02-10T10:01:36Z</time>
      </trkpt>
      <trkpt lat="45.26796" lon="6.03255">
        <ele>1918</ele>
        <time>2013-02-10T10:01:40Z</time>
      </trkpt>
      <trkpt lat="45.26789" lon="6.03248">
        <ele>1891</ele>
        <time>2013-02-10T10:01:44Z</time>
      </trkpt>
      <trkpt lat="45.26785" lon="6.03238">
        <ele>1890</ele>
        <time>2013-02-10T10:01:48Z</time>
      </trkpt>
      <trkpt lat="45.26787" lon="6.03236">
        <ele>1889</ele>
        <time>2013-02-10T10:01:49Z</time>
      </trkpt>
      <trkpt lat="45.26792" lon="6.03232">
        <ele>1888</ele>
        <time>2013-02-10T10:01:53Z</time>
      </trkpt>
      <trkpt lat="45.26798" lon="6.03228">
        <ele>1886</ele>
        <time>2013-02-10T10:01:57Z</time>
      </trkpt>
      <trkpt lat="45.268" lon="6.03227">
        <ele>1886</ele>
        <time>2013-02-10T10:01:58Z</time>
      </trkpt>
      <trkpt lat="45.26793" lon="6.03216">
        <ele>1883</ele>
        <time>2013-02-10T10:02:02Z</time>
      </trkpt>
      <trkpt lat="45.26792" lon="6.03215">
        <ele>1883</ele>
        <time>2013-02-10T10:02:03Z</time>
      </trkpt>
      <trkpt lat="45.26784" lon="6.03208">
        <ele>1882</ele>
        <time>2013-02-10T10:02:07Z</time>
      </trkpt>
      <trkpt lat="45.26786" lon="6.03197">
        <ele>1879</ele>
        <time>2013-02-10T10:02:10Z</time>
      </trkpt>
      <trkpt lat="45.26789" lon="6.03196">
        <ele>1878</ele>
        <time>2013-02-10T10:02:11Z</time>
      </trkpt>
      <trkpt lat="45.26791" lon="6.03195">
        <ele>1878</ele>
        <time>2013-02-10T10:02:14Z</time>
      </trkpt>
      <trkpt lat="45.26781" lon="6.03185">
        <ele>1876</ele>
        <time>2013-02-10T10:02:19Z</time>
      </trkpt>
      <trkpt lat="45.26766" lon="6.03172">
        <ele>1872</ele>
        <time>2013-02-10T10:02:24Z</time>
      </trkpt>
      <trkpt lat="45.26753" lon="6.03162">
        <ele>1861</ele>
        <time>2013-02-10T10:02:28Z</time>
      </trkpt>
      <trkpt lat="45.26754" lon="6.03153">
        <ele>1856</ele>
        <time>2013-02-10T10:02:31Z</time>
      </trkpt>
      <trkpt lat="45.26754" lon="6.03145">
        <ele>1853</ele>
        <time>2013-02-10T10:02:34Z</time>
      </trkpt>
      <trkpt lat="45.26748" lon="6.03139">
        <ele>1858</ele>
        <time>2013-02-10T10:02:36Z</time>
      </trkpt>
      <trkpt lat="45.26742" lon="6.03134">
        <ele>1857</ele>
        <time>2013-02-10T10:02:41Z</time>
      </trkpt>
      <trkpt lat="45.26741" lon="6.03133">
        <ele>1857</ele>
        <time>2013-02-10T10:02:45Z</time>
      </trkpt>
      <trkpt lat="45.26741" lon="6.03123">
        <ele>1855</ele>
        <time>2013-02-10T10:02:48Z</time>
      </trkpt>
      <trkpt lat="45.26747" lon="6.03117">
        <ele>1853</ele>
        <time>2013-02-10T10:02:50Z</time>
      </trkpt>
      <trkpt lat="45.26761" lon="6.03097">
        <ele>1840</ele>
        <time>2013-02-10T10:02:54Z</time>
      </trkpt>
      <trkpt lat="45.26767" lon="6.03089">
        <ele>1840</ele>
        <time>2013-02-10T10:02:55Z</time>
      </trkpt>
      <trkpt lat="45.26768" lon="6.03065">
        <ele>1826</ele>
        <time>2013-02-10T10:02:58Z</time>
      </trkpt>
      <trkpt lat="45.26768" lon="6.03057">
        <ele>1824</ele>
        <time>2013-02-10T10:03:00Z</time>
      </trkpt>
      <trkpt lat="45.26769" lon="6.03055">
        <ele>1824</ele>
        <time>2013-02-10T10:03:05Z</time>
      </trkpt>
      <trkpt lat="45.26766" lon="6.03046">
        <ele>1822</ele>
        <time>2013-02-10T10:03:08Z</time>
      </trkpt>
      <trkpt lat="45.26769" lon="6.03034">
        <ele>1820</ele>
        <time>2013-02-10T10:03:11Z</time>
      </trkpt>
      <trkpt lat="45.2677" lon="6.03034">
        <ele>1820</ele>
        <time>2013-02-10T10:03:13Z</time>
      </trkpt>
      <trkpt lat="45.26767" lon="6.03023">
        <ele>1818</ele>
        <time>2013-02-10T10:03:17Z</time>
      </trkpt>
      <trkpt lat="45.26769" lon="6.03014">
        <ele>1817</ele>
        <time>2013-02-10T10:03:19Z</time>
      </trkpt>
      <trkpt lat="45.26777" lon="6.03011">
        <ele>1817</ele>
        <time>2013-02-10T10:03:21Z</time>
      </trkpt>
      <trkpt lat="45.26785" lon="6.03014">
        <ele>1818</ele>
        <time>2013-02-10T10:03:23Z</time>
      </trkpt>
      <trkpt lat="45.26793" lon="6.03012">
        <ele>1817</ele>
        <time>2013-02-10T10:03:27Z</time>
      </trkpt>
      <trkpt lat="45.26789" lon="6.03006">
        <ele>1817</ele>
        <time>2013-02-10T10:03:30Z</time>
      </trkpt>
      <trkpt lat="45.26775" lon="6.02986">
        <ele>1804</ele>
        <time>2013-02-10T10:03:35Z</time>
      </trkpt>
      <trkpt lat="45.26751" lon="6.02947">
        <ele>1799</ele>
        <time>2013-02-10T10:03:41Z</time>
      </trkpt>
      <trkpt lat="45.26718" lon="6.02883">
        <ele>1799</ele>
        <time>2013-02-10T10:03:49Z</time>
      </trkpt>
      <trkpt lat="45.267" lon="6.02832">
        <ele>1791</ele>
        <time>2013-02-10T10:03:54Z</time>
      </trkpt>
      <trkpt lat="45.26684" lon="6.02767">
        <ele>1788</ele>
        <time>2013-02-10T10:04:00Z</time>
      </trkpt>
      <trkpt lat="45.26672" lon="6.02704">
        <ele>1778</ele>
        <time>2013-02-10T10:04:06Z</time>
      </trkpt>
      <trkpt lat="45.26669" lon="6.0266">
        <ele>1775</ele>
        <time>2013-02-10T10:04:10Z</time>
      </trkpt>
      <trkpt lat="45.26667" lon="6.0265">
        <ele>1772</ele>
        <time>2013-02-10T10:04:11Z</time>
      </trkpt>
      <trkpt lat="45.26649" lon="6.02616">
        <ele>1768</ele>
        <time>2013-02-10T10:04:16Z</time>
      </trkpt>
      <trkpt lat="45.26629" lon="6.02614">
        <ele>1767</ele>
        <time>2013-02-10T10:04:20Z</time>
      </trkpt>
      <trkpt lat="45.2661" lon="6.02627">
        <ele>1767</ele>
        <time>2013-02-10T10:04:24Z</time>
      </trkpt>
      <trkpt lat="45.266" lon="6.02629">
        <ele>1767</ele>
        <time>2013-02-10T10:04:27Z</time>
      </trkpt>
      <trkpt lat="45.266" lon="6.0263">
        <ele>1767</ele>
        <time>2013-02-10T10:04:31Z</time>
      </trkpt>
      <trkpt lat="45.266" lon="6.0263">
        <ele>1767</ele>
        <time>2013-02-10T10:04:36Z</time>
      </trkpt>
      <trkpt lat="45.266" lon="6.02631">
        <ele>1767</ele>
        <time>2013-02-10T10:04:50Z</time>
      </trkpt>
      <trkpt lat="45.26601" lon="6.02632">
        <ele>1767</ele>
        <time>2013-02-10T10:05:11Z</time>
      </trkpt>
      <trkpt lat="45.26602" lon="6.02634">
        <ele>1767</ele>
        <time>2013-02-10T10:05:28Z</time>
      </trkpt>
      <trkpt lat="45.26599" lon="6.02636">
        <ele>1767</ele>
        <time>2013-02-10T10:05:33Z</time>
      </trkpt>
      <trkpt lat="45.26589" lon="6.02645">
        <ele>1768</ele>
        <time>2013-02-10T10:05:38Z</time>
      </trkpt>
      <trkpt lat="45.26566" lon="6.02666">
        <ele>1761</ele>
        <time>2013-02-10T10:05:44Z</time>
      </trkpt>
      <trkpt lat="45.26547" lon="6.02682">
        <ele>1769</ele>
        <time>2013-02-10T10:05:48Z</time>
      </trkpt>
      <trkpt lat="45.26539" lon="6.02685">
        <ele>1768</ele>
        <time>2013-02-10T10:05:51Z</time>
      </trkpt>
      <trkpt lat="45.26539" lon="6.02669">
        <ele>1766</ele>
        <time>2013-02-10T10:05:55Z</time>
      </trkpt>
      <trkpt lat="45.26536" lon="6.02655">
        <ele>1752</ele>
        <time>2013-02-10T10:05:57Z</time>
      </trkpt>
      <trkpt lat="45.26524" lon="6.02653">
        <ele>1750</ele>
        <time>2013-02-10T10:05:59Z</time>
      </trkpt>
      <trkpt lat="45.26513" lon="6.02655">
        <ele>1748</ele>
        <time>2013-02-10T10:06:02Z</time>
      </trkpt>
      <trkpt lat="45.2651" lon="6.0264">
        <ele>1748</ele>
        <time>2013-02-10T10:06:04Z</time>
      </trkpt>
      <trkpt lat="45.26498" lon="6.0263">
        <ele>1737</ele>
        <time>2013-02-10T10:06:07Z</time>
      </trkpt>
      <trkpt lat="45.26472" lon="6.02627">
        <ele>1736</ele>
        <time>2013-02-10T10:06:11Z</time>
      </trkpt>
      <trkpt lat="45.26459" lon="6.02612">
        <ele>1734</ele>
        <time>2013-02-10T10:06:14Z</time>
      </trkpt>
      <trkpt lat="45.26445" lon="6.02586">
        <ele>1732</ele>
        <time>2013-02-10T10:06:18Z</time>
      </trkpt>
      <trkpt lat="45.26446" lon="6.02563">
        <ele>1725</ele>
        <time>2013-02-10T10:06:20Z</time>
      </trkpt>
      <trkpt lat="45.26455" lon="6.02499">
        <ele>1718</ele>
        <time>2013-02-10T10:06:25Z</time>
      </trkpt>
      <trkpt lat="45.26456" lon="6.02451">
        <ele>1717</ele>
        <time>2013-02-10T10:06:30Z</time>
      </trkpt>
      <trkpt lat="45.26459" lon="6.02417">
        <ele>1716</ele>
        <time>2013-02-10T10:06:36Z</time>
      </trkpt>
      <trkpt lat="45.2646" lon="6.02404">
        <ele>1712</ele>
        <time>2013-02-10T10:06:38Z</time>
      </trkpt>
      <trkpt lat="45.26464" lon="6.02367">
        <ele>1710</ele>
        <time>2013-02-10T10:06:44Z</time>
      </trkpt>
      <trkpt lat="45.2647" lon="6.02335">
        <ele>1709</ele>
        <time>2013-02-10T10:06:48Z</time>
      </trkpt>
      <trkpt lat="45.26476" lon="6.02308">
        <ele>1701</ele>
        <time>2013-02-10T10:06:52Z</time>
      </trkpt>
      <trkpt lat="45.26476" lon="6.02307">
        <ele>1700</ele>
        <time>2013-02-10T10:06:56Z</time>
      </trkpt>
      <trkpt lat="45.26475" lon="6.02308">
        <ele>1701</ele>
        <time>2013-02-10T10:07:02Z</time>
      </trkpt>
      <trkpt lat="45.26474" lon="6.02308">
        <ele>1701</ele>
        <time>2013-02-10T10:07:11Z</time>
      </trkpt>
      <trkpt lat="45.26475" lon="6.02308">
        <ele>1701</ele>
        <time>2013-02-10T10:07:23Z</time>
      </trkpt>
      <trkpt lat="45.26475" lon="6.02308">
        <ele>1701</ele>
        <time>2013-02-10T10:07:29Z</time>
      </trkpt>
      <trkpt lat="45.26475" lon="6.02308">
        <ele>1701</ele>
        <time>2013-02-10T10:07:36Z</time>
      </trkpt>
      <trkpt lat="45.26475" lon="6.02308">
        <ele>1701</ele>
        <time>2013-02-10T10:07:47Z</time>
      </trkpt>
      <trkpt lat="45.26474" lon="6.02307">
        <ele>1700</ele>
        <time>2013-02-10T10:07:55Z</time>
      </trkpt>
      <trkpt lat="45.26474" lon="6.02307">
        <ele>1700</ele>
        <time>2013-02-10T10:08:00Z</time>
      </trkpt>
      <trkpt lat="45.26474" lon="6.02307">
        <ele>1700</ele>
        <time>2013-02-10T10:08:05Z</time>
      </trkpt>
      <trkpt lat="45.26475" lon="6.02308">
        <ele>1701</ele>
        <time>2013-02-10T10:08:15Z</time>
      </trkpt>
      <trkpt lat="45.26475" lon="6.02308">
        <ele>1701</ele>
        <time>2013-02-10T10:08:23Z</time>
      </trkpt>
      <trkpt lat="45.26477" lon="6.02307">
        <ele>1701</ele>
        <time>2013-02-10T10:08:28Z</time>
      </trkpt>
      <trkpt lat="45.26479" lon="6.02301">
        <ele>1700</ele>
        <time>2013-02-10T10:08:30Z</time>
      </trkpt>
      <trkpt lat="45.26476" lon="6.02276">
        <ele>1697</ele>
        <time>2013-02-10T10:08:34Z</time>
      </trkpt>
      <trkpt lat="45.26476" lon="6.02258">
        <ele>1695</ele>
        <time>2013-02-10T10:08:36Z</time>
      </trkpt>
      <trkpt lat="45.26464" lon="6.02201">
        <ele>1684</ele>
        <time>2013-02-10T10:08:41Z</time>
      </trkpt>
      <trkpt lat="45.26448" lon="6.02146">
        <ele>1670</ele>
        <time>2013-02-10T10:08:46Z</time>
      </trkpt>
      <trkpt lat="45.26456" lon="6.02098">
        <ele>1663</ele>
        <time>2013-02-10T10:08:49Z</time>
      </trkpt>
      <trkpt lat="45.26475" lon="6.02074">
        <ele>1651</ele>
        <time>2013-02-10T10:08:51Z</time>
      </trkpt>
      <trkpt lat="45.265" lon="6.02045">
        <ele>1648</ele>
        <time>2013-02-10T10:08:54Z</time>
      </trkpt>
      <trkpt lat="45.26502" lon="6.02018">
        <ele>1650</ele>
        <time>2013-02-10T10:08:56Z</time>
      </trkpt>
      <trkpt lat="45.26492" lon="6.01983">
        <ele>1633</ele>
        <time>2013-02-10T10:08:58Z</time>
      </trkpt>
      <trkpt lat="45.26491" lon="6.01945">
        <ele>1625</ele>
        <time>2013-02-10T10:09:00Z</time>
      </trkpt>
      <trkpt lat="45.26497" lon="6.01838">
        <ele>1602</ele>
        <time>2013-02-10T10:09:05Z</time>
      </trkpt>
      <trkpt lat="45.26511" lon="6.01755">
        <ele>1592</ele>
        <time>2013-02-10T10:09:09Z</time>
      </trkpt>
      <trkpt lat="45.2651" lon="6.01663">
        <ele>1579</ele>
        <time>2013-02-10T10:09:14Z</time>
      </trkpt>
      <trkpt lat="45.26509" lon="6.01648">
        <ele>1580</ele>
        <time>2013-02-10T10:09:15Z</time>
      </trkpt>
      <trkpt lat="45.26499" lon="6.01609">
        <ele>1575</ele>
        <time>2013-02-10T10:09:18Z</time>
      </trkpt>
      <trkpt lat="45.26493" lon="6.01601">
        <ele>1575</ele>
        <time>2013-02-10T10:09:19Z</time>
      </trkpt>
      <trkpt lat="45.26473" lon="6.0158">
        <ele>1569</ele>
        <time>2013-02-10T10:09:22Z</time>
      </trkpt>
      <trkpt lat="45.2646" lon="6.01566">
        <ele>1567</ele>
        <time>2013-02-10T10:09:26Z</time>
      </trkpt>
      <trkpt lat="45.26456" lon="6.01564">
        <ele>1567</ele>
        <time>2013-02-10T10:09:28Z</time>
      </trkpt>
      <trkpt lat="45.26452" lon="6.01564">
        <ele>1567</ele>
        <time>2013-02-10T10:09:36Z</time>
      </trkpt>
      <trkpt lat="45.2645" lon="6.01564">
        <ele>1567</ele>
        <time>2013-02-10T10:09:42Z</time>
      </trkpt>
      <trkpt lat="45.26448" lon="6.01565">
        <ele>1567</ele>
        <time>2013-02-10T10:09:51Z</time>
      </trkpt>
      <trkpt lat="45.26448" lon="6.01566">
        <ele>1567</ele>
        <time>2013-02-10T10:10:00Z</time>
      </trkpt>
      <trkpt lat="45.26448" lon="6.01566">
        <ele>1567</ele>
        <time>2013-02-10T10:10:11Z</time>
      </trkpt>
      <trkpt lat="45.26449" lon="6.01566">
        <ele>1567</ele>
        <time>2013-02-10T10:10:25Z</time>
      </trkpt>
      <trkpt lat="45.26451" lon="6.01572">
        <ele>1567</ele>
        <time>2013-02-10T10:10:33Z</time>
      </trkpt>
      <trkpt lat="45.26453" lon="6.0158">
        <ele>1568</ele>
        <time>2013-02-10T10:10:41Z</time>
      </trkpt>
      <trkpt lat="45.26453" lon="6.01585">
        <ele>1574</ele>
        <time>2013-02-10T10:10:47Z</time>
      </trkpt>
      <trkpt lat="45.26452" lon="6.01586">
        <ele>1574</ele>
        <time>2013-02-10T10:10:48Z</time>
      </trkpt>
      <trkpt lat="45.2644" lon="6.01601">
        <ele>1574</ele>
        <time>2013-02-10T10:10:53Z</time>
      </trkpt>
      <trkpt lat="45.26424" lon="6.01625">
        <ele>1575</ele>
        <time>2013-02-10T10:10:58Z</time>
      </trkpt>
      <trkpt lat="45.26404" lon="6.01661">
        <ele>1577</ele>
        <time>2013-02-10T10:11:05Z</time>
      </trkpt>
      <trkpt lat="45.26386" lon="6.01696">
        <ele>1585</ele>
        <time>2013-02-10T10:11:12Z</time>
      </trkpt>
      <trkpt lat="45.26363" lon="6.01741">
        <ele>1591</ele>
        <time>2013-02-10T10:11:21Z</time>
      </trkpt>
      <trkpt lat="45.26341" lon="6.01784">
        <ele>1602</ele>
        <time>2013-02-10T10:11:30Z</time>
      </trkpt>
      <trkpt lat="45.26325" lon="6.01817">
        <ele>1614</ele>
        <time>2013-02-10T10:11:37Z</time>
      </trkpt>
      <trkpt lat="45.26305" lon="6.01857">
        <ele>1627</ele>
        <time>2013-02-10T10:11:45Z</time>
      </trkpt>
      <trkpt lat="45.26293" lon="6.01883">
        <ele>1630</ele>
        <time>2013-02-10T10:11:50Z</time>
      </trkpt>
      <trkpt lat="45.26276" lon="6.01918">
        <ele>1645</ele>
        <time>2013-02-10T10:11:57Z</time>
      </trkpt>
      <trkpt lat="45.26243" lon="6.01987">
        <ele>1664</ele>
        <time>2013-02-10T10:12:11Z</time>
      </trkpt>
      <trkpt lat="45.26226" lon="6.02021">
        <ele>1675</ele>
        <time>2013-02-10T10:12:18Z</time>
      </trkpt>
      <trkpt lat="45.26207" lon="6.0206">
        <ele>1679</ele>
        <time>2013-02-10T10:12:26Z</time>
      </trkpt>
      <trkpt lat="45.26195" lon="6.02085">
        <ele>1688</ele>
        <time>2013-02-10T10:12:31Z</time>
      </trkpt>
      <trkpt lat="45.2618" lon="6.02116">
        <ele>1689</ele>
        <time>2013-02-10T10:12:37Z</time>
      </trkpt>
      <trkpt lat="45.2616" lon="6.02155">
        <ele>1699</ele>
        <time>2013-02-10T10:12:45Z</time>
      </trkpt>
      <trkpt lat="45.26141" lon="6.02194">
        <ele>1716</ele>
        <time>2013-02-10T10:12:53Z</time>
      </trkpt>
      <trkpt lat="45.2612" lon="6.02237">
        <ele>1726</ele>
        <time>2013-02-10T10:13:02Z</time>
      </trkpt>
      <trkpt lat="45.26102" lon="6.02274">
        <ele>1743</ele>
        <time>2013-02-10T10:13:10Z</time>
      </trkpt>
      <trkpt lat="45.26079" lon="6.02319">
        <ele>1773</ele>
        <time>2013-02-10T10:13:20Z</time>
      </trkpt>
      <trkpt lat="45.26066" lon="6.02346">
        <ele>1789</ele>
        <time>2013-02-10T10:13:26Z</time>
      </trkpt>
      <trkpt lat="45.26049" lon="6.02381">
        <ele>1803</ele>
        <time>2013-02-10T10:13:34Z</time>
      </trkpt>
      <trkpt lat="45.26034" lon="6.02411">
        <ele>1813</ele>
        <time>2013-02-10T10:13:41Z</time>
      </trkpt>
      <trkpt lat="45.26016" lon="6.02449">
        <ele>1839</ele>
        <time>2013-02-10T10:13:50Z</time>
      </trkpt>
      <trkpt lat="45.25998" lon="6.02486">
        <ele>1883</ele>
        <time>2013-02-10T10:13:59Z</time>
      </trkpt>
      <trkpt lat="45.25971" lon="6.02542">
        <ele>1917</ele>
        <time>2013-02-10T10:14:13Z</time>
      </trkpt>
      <trkpt lat="45.25955" lon="6.02574">
        <ele>1928</ele>
        <time>2013-02-10T10:14:21Z</time>
      </trkpt>
      <trkpt lat="45.25943" lon="6.026">
        <ele>1950</ele>
        <time>2013-02-10T10:14:27Z</time>
      </trkpt>
      <trkpt lat="45.25925" lon="6.02636">
        <ele>1960</ele>
        <time>2013-02-10T10:14:36Z</time>
      </trkpt>
      <trkpt lat="45.25902" lon="6.02684">
        <ele>2006</ele>
        <time>2013-02-10T10:14:48Z</time>
      </trkpt>
      <trkpt lat="45.25887" lon="6.02713">
        <ele>2013</ele>
        <time>2013-02-10T10:14:54Z</time>
      </trkpt>
      <trkpt lat="45.25866" lon="6.02757">
        <ele>2022</ele>
        <time>2013-02-10T10:15:03Z</time>
      </trkpt>
      <trkpt lat="45.25844" lon="6.02803">
        <ele>2026</ele>
        <time>2013-02-10T10:15:12Z</time>
      </trkpt>
      <trkpt lat="45.25822" lon="6.02848">
        <ele>2050</ele>
        <time>2013-02-10T10:15:21Z</time>
      </trkpt>
      <trkpt lat="45.25795" lon="6.02903">
        <ele>2054</ele>
        <time>2013-02-10T10:15:32Z</time>
      </trkpt>
      <trkpt lat="45.25756" lon="6.02982">
        <ele>2068</ele>
        <time>2013-02-10T10:15:48Z</time>
      </trkpt>
      <trkpt lat="45.2574" lon="6.03016">
        <ele>2091</ele>
        <time>2013-02-10T10:15:55Z</time>
      </trkpt>
      <trkpt lat="45.2573" lon="6.03035">
        <ele>2093</ele>
        <time>2013-02-10T10:15:59Z</time>
      </trkpt>
      <trkpt lat="45.25721" lon="6.03054">
        <ele>2093</ele>
        <time>2013-02-10T10:16:03Z</time>
      </trkpt>
      <trkpt lat="45.25711" lon="6.03073">
        <ele>2094</ele>
        <time>2013-02-10T10:16:08Z</time>
      </trkpt>
      <trkpt lat="45.25712" lon="6.03076">
        <ele>2094</ele>
        <time>2013-02-10T10:16:11Z</time>
      </trkpt>
      <trkpt lat="45.25707" lon="6.03086">
        <ele>2085</ele>
        <time>2013-02-10T10:16:16Z</time>
      </trkpt>
      <trkpt lat="45.25705" lon="6.03087">
        <ele>2086</ele>
        <time>2013-02-10T10:16:17Z</time>
      </trkpt>
      <trkpt lat="45.25697" lon="6.03091">
        <ele>2088</ele>
        <time>2013-02-10T10:16:24Z</time>
      </trkpt>
      <trkpt lat="45.2569" lon="6.03095">
        <ele>2089</ele>
        <time>2013-02-10T10:16:30Z</time>
      </trkpt>
      <trkpt lat="45.25683" lon="6.03103">
        <ele>2089</ele>
        <time>2013-02-10T10:16:34Z</time>
      </trkpt>
      <trkpt lat="45.25683" lon="6.03102">
        <ele>2089</ele>
        <time>2013-02-10T10:16:40Z</time>
      </trkpt>
      <trkpt lat="45.25683" lon="6.03102">
        <ele>2089</ele>
        <time>2013-02-10T10:16:49Z</time>
      </trkpt>
      <trkpt lat="45.25684" lon="6.03101">
        <ele>2089</ele>
        <time>2013-02-10T10:17:00Z</time>
      </trkpt>
      <trkpt lat="45.25682" lon="6.03103">
        <ele>2089</ele>
        <time>2013-02-10T10:17:07Z</time>
      </trkpt>
      <trkpt lat="45.2567" lon="6.03108">
        <ele>2090</ele>
        <time>2013-02-10T10:17:11Z</time>
      </trkpt>
      <trkpt lat="45.2565" lon="6.03109">
        <ele>2094</ele>
        <time>2013-02-10T10:17:14Z</time>
      </trkpt>
      <trkpt lat="45.25632" lon="6.03114">
        <ele>2092</ele>
        <time>2013-02-10T10:17:17Z</time>
      </trkpt>
      <trkpt lat="45.25624" lon="6.0312">
        <ele>2092</ele>
        <time>2013-02-10T10:17:19Z</time>
      </trkpt>
      <trkpt lat="45.25628" lon="6.03146">
        <ele>2090</ele>
        <time>2013-02-10T10:17:24Z</time>
      </trkpt>
      <trkpt lat="45.25636" lon="6.03157">
        <ele>2088</ele>
        <time>2013-02-10T10:17:26Z</time>
      </trkpt>
      <trkpt lat="45.25662" lon="6.03174">
        <ele>2078</ele>
        <time>2013-02-10T10:17:31Z</time>
      </trkpt>
      <trkpt lat="45.25681" lon="6.03179">
        <ele>2067</ele>
        <time>2013-02-10T10:17:34Z</time>
      </trkpt>
      <trkpt lat="45.25709" lon="6.03182">
        <ele>2059</ele>
        <time>2013-02-10T10:17:38Z</time>
      </trkpt>
      <trkpt lat="45.25733" lon="6.03188">
        <ele>2056</ele>
        <time>2013-02-10T10:17:41Z</time>
      </trkpt>
      <trkpt lat="45.25757" lon="6.03196">
        <ele>2046</ele>
        <time>2013-02-10T10:17:44Z</time>
      </trkpt>
      <trkpt lat="45.25765" lon="6.03199">
        <ele>2045</ele>
        <time>2013-02-10T10:17:45Z</time>
      </trkpt>
      <trkpt lat="45.25797" lon="6.0321">
        <ele>2042</ele>
        <time>2013-02-10T10:17:49Z</time>
      </trkpt>
      <trkpt lat="45.25813" lon="6.0321">
        <ele>2041</ele>
        <time>2013-02-10T10:17:52Z</time>
      </trkpt>
      <trkpt lat="45.25824" lon="6.03205">
        <ele>2040</ele>
        <time>2013-02-10T10:17:56Z</time>
      </trkpt>
      <trkpt lat="45.25828" lon="6.03205">
        <ele>2039</ele>
        <time>2013-02-10T10:18:05Z</time>
      </trkpt>
      <trkpt lat="45.25832" lon="6.03203">
        <ele>2039</ele>
        <time>2013-02-10T10:18:09Z</time>
      </trkpt>
      <trkpt lat="45.25834" lon="6.03191">
        <ele>2025</ele>
        <time>2013-02-10T10:18:13Z</time>
      </trkpt>
      <trkpt lat="45.25832" lon="6.03176">
        <ele>2034</ele>
        <time>2013-02-10T10:18:15Z</time>
      </trkpt>
      <trkpt lat="45.25831" lon="6.0313">
        <ele>2038</ele>
        <time>2013-02-10T10:18:19Z</time>
      </trkpt>
      <trkpt lat="45.25848" lon="6.03092">
        <ele>2008</ele>
        <time>2013-02-10T10:18:23Z</time>
      </trkpt>
      <trkpt lat="45.25863" lon="6.03102">
        <ele>2002</ele>
        <time>2013-02-10T10:18:25Z</time>
      </trkpt>
      <trkpt lat="45.25885" lon="6.03135">
        <ele>1998</ele>
        <time>2013-02-10T10:18:28Z</time>
      </trkpt>
      <trkpt lat="45.25903" lon="6.03155">
        <ele>1993</ele>
        <time>2013-02-10T10:18:30Z</time>
      </trkpt>
      <trkpt lat="45.25933" lon="6.03178">
        <ele>1986</ele>
        <time>2013-02-10T10:18:33Z</time>
      </trkpt>
      <trkpt lat="45.25971" lon="6.03195">
        <ele>1983</ele>
        <time>2013-02-10T10:18:37Z</time>
      </trkpt>
      <trkpt lat="45.26006" lon="6.03171">
        <ele>1960</ele>
        <time>2013-02-10T10:18:41Z</time>
      </trkpt>
      <trkpt lat="45.26014" lon="6.03143">
        <ele>1948</ele>
        <time>2013-02-10T10:18:43Z</time>
      </trkpt>
      <trkpt lat="45.26018" lon="6.03128">
        <ele>1945</ele>
        <time>2013-02-10T10:18:44Z</time>
      </trkpt>
      <trkpt lat="45.26039" lon="6.0304">
        <ele>1927</ele>
        <time>2013-02-10T10:18:49Z</time>
      </trkpt>
      <trkpt lat="45.26046" lon="6.02981">
        <ele>1915</ele>
        <time>2013-02-10T10:18:52Z</time>
      </trkpt>
      <trkpt lat="45.26055" lon="6.02954">
        <ele>1913</ele>
        <time>2013-02-10T10:18:54Z</time>
      </trkpt>
      <trkpt lat="45.26066" lon="6.02918">
        <ele>1907</ele>
        <time>2013-02-10T10:18:57Z</time>
      </trkpt>
      <trkpt lat="45.26074" lon="6.02882">
        <ele>1900</ele>
        <time>2013-02-10T10:19:00Z</time>
      </trkpt>
      <trkpt lat="45.26084" lon="6.02841">
        <ele>1877</ele>
        <time>2013-02-10T10:19:03Z</time>
      </trkpt>
      <trkpt lat="45.26087" lon="6.02771">
        <ele>1859</ele>
        <time>2013-02-10T10:19:07Z</time>
      </trkpt>
      <trkpt lat="45.26089" lon="6.02737">
        <ele>1854</ele>
        <time>2013-02-10T10:19:09Z</time>
      </trkpt>
      <trkpt lat="45.26091" lon="6.02721">
        <ele>1846</ele>
        <time>2013-02-10T10:19:10Z</time>
      </trkpt>
      <trkpt lat="45.26108" lon="6.0269">
        <ele>1839</ele>
        <time>2013-02-10T10:19:14Z</time>
      </trkpt>
      <trkpt lat="45.26121" lon="6.0271">
        <ele>1837</ele>
        <time>2013-02-10T10:19:17Z</time>
      </trkpt>
      <trkpt lat="45.26148" lon="6.02734">
        <ele>1830</ele>
        <time>2013-02-10T10:19:20Z</time>
      </trkpt>
      <trkpt lat="45.26179" lon="6.02757">
        <ele>1815</ele>
        <time>2013-02-10T10:19:23Z</time>
      </trkpt>
      <trkpt lat="45.26209" lon="6.02777">
        <ele>1806</ele>
        <time>2013-02-10T10:19:26Z</time>
      </trkpt>
      <trkpt lat="45.26257" lon="6.02811">
        <ele>1784</ele>
        <time>2013-02-10T10:19:31Z</time>
      </trkpt>
      <trkpt lat="45.26277" lon="6.02816">
        <ele>1781</ele>
        <time>2013-02-10T10:19:33Z</time>
      </trkpt>
      <trkpt lat="45.26302" lon="6.02811">
        <ele>1776</ele>
        <time>2013-02-10T10:19:35Z</time>
      </trkpt>
      <trkpt lat="45.2634" lon="6.02804">
        <ele>1766</ele>
        <time>2013-02-10T10:19:38Z</time>
      </trkpt>
      <trkpt lat="45.26361" lon="6.02783">
        <ele>1763</ele>
        <time>2013-02-10T10:19:40Z</time>
      </trkpt>
      <trkpt lat="45.26384" lon="6.02733">
        <ele>1751</ele>
        <time>2013-02-10T10:19:45Z</time>
      </trkpt>
      <trkpt lat="45.26392" lon="6.02709">
        <ele>1749</ele>
        <time>2013-02-10T10:19:48Z</time>
      </trkpt>
      <trkpt lat="45.26412" lon="6.02694">
        <ele>1746</ele>
        <time>2013-02-10T10:19:53Z</time>
      </trkpt>
      <trkpt lat="45.26424" lon="6.02679">
        <ele>1744</ele>
        <time>2013-02-10T10:19:56Z</time>
      </trkpt>
      <trkpt lat="45.26432" lon="6.02661">
        <ele>1737</ele>
        <time>2013-02-10T10:19:58Z</time>
      </trkpt>
      <trkpt lat="45.26464" lon="6.02613">
        <ele>1735</ele>
        <time>2013-02-10T10:20:04Z</time>
      </trkpt>
      <trkpt lat="45.26474" lon="6.026">
        <ele>1734</ele>
        <time>2013-02-10T10:20:07Z</time>
      </trkpt>
      <trkpt lat="45.26481" lon="6.0259">
        <ele>1733</ele>
        <time>2013-02-10T10:20:12Z</time>
      </trkpt>
      <trkpt lat="45.26482" lon="6.02588">
        <ele>1733</ele>
        <time>2013-02-10T10:20:15Z</time>
      </trkpt>
      <trkpt lat="45.26487" lon="6.02584">
        <ele>1732</ele>
        <time>2013-02-10T10:20:23Z</time>
      </trkpt>
      <trkpt lat="45.26493" lon="6.02577">
        <ele>1728</ele>
        <time>2013-02-10T10:20:28Z</time>
      </trkpt>
      <trkpt lat="45.265" lon="6.0256">
        <ele>1727</ele>
        <time>2013-02-10T10:20:34Z</time>
      </trkpt>
      <trkpt lat="45.26503" lon="6.02551">
        <ele>1733</ele>
        <time>2013-02-10T10:20:39Z</time>
      </trkpt>
      <trkpt lat="45.26505" lon="6.02544">
        <ele>1733</ele>
        <time>2013-02-10T10:20:43Z</time>
      </trkpt>
      <trkpt lat="45.26507" lon="6.02536">
        <ele>1733</ele>
        <time>2013-02-10T10:20:47Z</time>
      </trkpt>
      <trkpt lat="45.26508" lon="6.02535">
        <ele>1732</ele>
        <time>2013-02-10T10:20:48Z</time>
      </trkpt>
      <trkpt lat="45.2651" lon="6.02534">
        <ele>1732</ele>
        <time>2013-02-10T10:20:55Z</time>
      </trkpt>
      <trkpt lat="45.26509" lon="6.02533">
        <ele>1732</ele>
        <time>2013-02-10T10:21:02Z</time>
      </trkpt>
      <trkpt lat="45.2651" lon="6.02534">
        <ele>1733</ele>
        <time>2013-02-10T10:21:07Z</time>
      </trkpt>
      <trkpt lat="45.26511" lon="6.02533">
        <ele>1733</ele>
        <time>2013-02-10T10:21:13Z</time>
      </trkpt>
      <trkpt lat="45.2651" lon="6.02535">
        <ele>1733</ele>
        <time>2013-02-10T10:21:26Z</time>
      </trkpt>
      <trkpt lat="45.2651" lon="6.02533">
        <ele>1732</ele>
        <time>2013-02-10T10:21:36Z</time>
      </trkpt>
      <trkpt lat="45.2651" lon="6.02532">
        <ele>1732</ele>
        <time>2013-02-10T10:21:43Z</time>
      </trkpt>
      <trkpt lat="45.2651" lon="6.02533">
        <ele>1732</ele>
        <time>2013-02-10T10:21:51Z</time>
      </trkpt>
      <trkpt lat="45.2651" lon="6.02534">
        <ele>1732</ele>
        <time>2013-02-10T10:22:26Z</time>
      </trkpt>
      <trkpt lat="45.26511" lon="6.02533">
        <ele>1732</ele>
        <time>2013-02-10T10:22:36Z</time>
      </trkpt>
      <trkpt lat="45.2651" lon="6.02531">
        <ele>1732</ele>
        <time>2013-02-10T10:22:53Z</time>
      </trkpt>
      <trkpt lat="45.26509" lon="6.0253">
        <ele>1732</ele>
        <time>2013-02-10T10:23:10Z</time>
      </trkpt>
      <trkpt lat="45.26508" lon="6.02532">
        <ele>1732</ele>
        <time>2013-02-10T10:23:27Z</time>
      </trkpt>
      <trkpt lat="45.2651" lon="6.02533">
        <ele>1732</ele>
        <time>2013-02-10T10:24:14Z</time>
      </trkpt>
      <trkpt lat="45.2651" lon="6.02534">
        <ele>1733</ele>
        <time>2013-02-10T10:24:32Z</time>
      </trkpt>
      <trkpt lat="45.2651" lon="6.02534">
        <ele>1733</ele>
        <time>2013-02-10T10:24:47Z</time>
      </trkpt>
      <trkpt lat="45.26511" lon="6.02534">
        <ele>1733</ele>
        <time>2013-02-10T10:25:06Z</time>
      </trkpt>
      <trkpt lat="45.2651" lon="6.02534">
        <ele>1733</ele>
        <time>2013-02-10T10:25:17Z</time>
      </trkpt>
      <trkpt lat="45.26509" lon="6.02534">
        <ele>1732</ele>
        <time>2013-02-10T10:25:34Z</time>
      </trkpt>
      <trkpt lat="45.2651" lon="6.02533">
        <ele>1732</ele>
        <time>2013-02-10T10:25:51Z</time>
      </trkpt>
      <trkpt lat="45.26511" lon="6.02533">
        <ele>1733</ele>
        <time>2013-02-10T10:26:28Z</time>
      </trkpt>
      <trkpt lat="45.2651" lon="6.02534">
        <ele>1732</ele>
        <time>2013-02-10T10:26:56Z</time>
      </trkpt>
      <trkpt lat="45.26512" lon="6.02532">
        <ele>1732</ele>
        <time>2013-02-10T10:27:19Z</time>
      </trkpt>
      <trkpt lat="45.2651" lon="6.02533">
        <ele>1732</ele>
        <time>2013-02-10T10:27:56Z</time>
      </trkpt>
      <trkpt lat="45.26512" lon="6.02532">
        <ele>1732</ele>
        <time>2013-02-10T10:28:16Z</time>
      </trkpt>
      <trkpt lat="45.2651" lon="6.02533">
        <ele>1732</ele>
        <time>2013-02-10T10:28:32Z</time>
      </trkpt>
      <trkpt lat="45.26513" lon="6.02531">
        <ele>1732</ele>
        <time>2013-02-10T10:28:41Z</time>
      </trkpt>
      <trkpt lat="45.26509" lon="6.02531">
        <ele>1732</ele>
        <time>2013-02-10T10:29:40Z</time>
      </trkpt>
      <trkpt lat="45.2651" lon="6.02531">
        <ele>1732</ele>
        <time>2013-02-10T10:30:26Z</time>
      </trkpt>
      <trkpt lat="45.26509" lon="6.02532">
        <ele>1732</ele>
        <time>2013-02-10T10:30:46Z</time>
      </trkpt>
      <trkpt lat="45.26509" lon="6.02533">
        <ele>1732</ele>
        <time>2013-02-10T10:31:01Z</time>
      </trkpt>
      <trkpt lat="45.2651" lon="6.02533">
        <ele>1732</ele>
        <time>2013-02-10T10:31:18Z</time>
      </trkpt>
      <trkpt lat="45.26511" lon="6.02533">
        <ele>1733</ele>
        <time>2013-02-10T10:31:37Z</time>
      </trkpt>
      <trkpt lat="45.26512" lon="6.02534">
        <ele>1733</ele>
        <time>2013-02-10T10:31:51Z</time>
      </trkpt>
      <trkpt lat="45.26512" lon="6.02533">
        <ele>1733</ele>
        <time>2013-02-10T10:32:02Z</time>
      </trkpt>
      <trkpt lat="45.26512" lon="6.02533">
        <ele>1733</ele>
        <time>2013-02-10T10:32:11Z</time>
      </trkpt>
      <trkpt lat="45.26513" lon="6.02534">
        <ele>1733</ele>
        <time>2013-02-10T10:32:36Z</time>
      </trkpt>
      <trkpt lat="45.26513" lon="6.02533">
        <ele>1733</ele>
        <time>2013-02-10T10:32:52Z</time>
      </trkpt>
      <trkpt lat="45.26512" lon="6.02533">
        <ele>1733</ele>
        <time>2013-02-10T10:33:03Z</time>
      </trkpt>
      <trkpt lat="45.26512" lon="6.02533">
        <ele>1733</ele>
        <time>2013-02-10T10:33:22Z</time>
      </trkpt>
      <trkpt lat="45.26511" lon="6.02533">
        <ele>1733</ele>
        <time>2013-02-10T10:33:39Z</time>
      </trkpt>
      <trkpt lat="45.26511" lon="6.02533">
        <ele>1732</ele>
        <time>2013-02-10T10:33:52Z</time>
      </trkpt>
      <trkpt lat="45.26511" lon="6.02533">
        <ele>1732</ele>
        <time>2013-02-10T10:34:06Z</time>
      </trkpt>
      <trkpt lat="45.26511" lon="6.02533">
        <ele>1732</ele>
        <time>2013-02-10T10:34:20Z</time>
      </trkpt>
      <trkpt lat="45.26511" lon="6.02532">
        <ele>1732</ele>
        <time>2013-02-10T10:34:30Z</time>
      </trkpt>
      <trkpt lat="45.2651" lon="6.02532">
        <ele>1732</ele>
        <time>2013-02-10T10:34:41Z</time>
      </trkpt>
      <trkpt lat="45.2651" lon="6.02532">
        <ele>1732</ele>
        <time>2013-02-10T10:34:49Z</time>
      </trkpt>
      <trkpt lat="45.2651" lon="6.02531">
        <ele>1732</ele>
        <time>2013-02-10T10:35:04Z</time>
      </trkpt>
      <trkpt lat="45.2651" lon="6.02531">
        <ele>1732</ele>
        <time>2013-02-10T10:35:15Z</time>
      </trkpt>
      <trkpt lat="45.26509" lon="6.02531">
        <ele>1732</ele>
        <time>2013-02-10T10:35:23Z</time>
      </trkpt>
      <trkpt lat="45.2651" lon="6.02531">
        <ele>1732</ele>
        <time>2013-02-10T10:35:35Z</time>
      </trkpt>
      <trkpt lat="45.2651" lon="6.02532">
        <ele>1732</ele>
        <time>2013-02-10T10:35:53Z</time>
      </trkpt>
      <trkpt lat="45.2651" lon="6.02532">
        <ele>1732</ele>
        <time>2013-02-10T10:36:02Z</time>
      </trkpt>
      <trkpt lat="45.26511" lon="6.02533">
        <ele>1732</ele>
        <time>2013-02-10T10:36:12Z</time>
      </trkpt>
      <trkpt lat="45.26513" lon="6.02531">
        <ele>1732</ele>
        <time>2013-02-10T10:36:25Z</time>
      </trkpt>
      <trkpt lat="45.26513" lon="6.02531">
        <ele>1732</ele>
        <time>2013-02-10T10:36:33Z</time>
      </trkpt>
      <trkpt lat="45.26513" lon="6.02531">
        <ele>1732</ele>
        <time>2013-02-10T10:36:38Z</time>
      </trkpt>
      <trkpt lat="45.26513" lon="6.02532">
        <ele>1733</ele>
        <time>2013-02-10T10:36:51Z</time>
      </trkpt>
      <trkpt lat="45.26514" lon="6.02533">
        <ele>1733</ele>
        <time>2013-02-10T10:37:00Z</time>
      </trkpt>
      <trkpt lat="45.26513" lon="6.02534">
        <ele>1733</ele>
        <time>2013-02-10T10:37:22Z</time>
      </trkpt>
      <trkpt lat="45.26513" lon="6.02533">
        <ele>1733</ele>
        <time>2013-02-10T10:37:49Z</time>
      </trkpt>
      <trkpt lat="45.26513" lon="6.02534">
        <ele>1733</ele>
        <time>2013-02-10T10:38:06Z</time>
      </trkpt>
      <trkpt lat="45.26512" lon="6.02532">
        <ele>1732</ele>
        <time>2013-02-10T10:38:23Z</time>
      </trkpt>
      <trkpt lat="45.26511" lon="6.02532">
        <ele>1732</ele>
        <time>2013-02-10T10:38:32Z</time>
      </trkpt>
      <trkpt lat="45.26511" lon="6.02532">
        <ele>1732</ele>
        <time>2013-02-10T10:38:40Z</time>
      </trkpt>
      <trkpt lat="45.2651" lon="6.02533">
        <ele>1732</ele>
        <time>2013-02-10T10:38:50Z</time>
      </trkpt>
      <trkpt lat="45.26509" lon="6.02533">
        <ele>1732</ele>
        <time>2013-02-10T10:39:04Z</time>
      </trkpt>
      <trkpt lat="45.26509" lon="6.02532">
        <ele>1732</ele>
        <time>2013-02-10T10:39:15Z</time>
      </trkpt>
      <trkpt lat="45.2651" lon="6.02531">
        <ele>1732</ele>
        <time>2013-02-10T10:39:22Z</time>
      </trkpt>
      <trkpt lat="45.2651" lon="6.02531">
        <ele>1732</ele>
        <time>2013-02-10T10:39:31Z</time>
      </trkpt>
      <trkpt lat="45.26509" lon="6.0253">
        <ele>1732</ele>
        <time>2013-02-10T10:39:43Z</time>
      </trkpt>
      <trkpt lat="45.26509" lon="6.02531">
        <ele>1732</ele>
        <time>2013-02-10T10:39:59Z</time>
      </trkpt>
      <trkpt lat="45.26508" lon="6.02534">
        <ele>1732</ele>
        <time>2013-02-10T10:40:13Z</time>
      </trkpt>
      <trkpt lat="45.26508" lon="6.02533">
        <ele>1732</ele>
        <time>2013-02-10T10:40:18Z</time>
      </trkpt>
      <trkpt lat="45.26507" lon="6.02532">
        <ele>1732</ele>
        <time>2013-02-10T10:40:32Z</time>
      </trkpt>
      <trkpt lat="45.26508" lon="6.02533">
        <ele>1732</ele>
        <time>2013-02-10T10:40:48Z</time>
      </trkpt>
      <trkpt lat="45.26507" lon="6.02533">
        <ele>1732</ele>
        <time>2013-02-10T10:41:04Z</time>
      </trkpt>
      <trkpt lat="45.26506" lon="6.0253">
        <ele>1732</ele>
        <time>2013-02-10T10:41:18Z</time>
      </trkpt>
      <trkpt lat="45.26505" lon="6.02526">
        <ele>1731</ele>
        <time>2013-02-10T10:41:22Z</time>
      </trkpt>
      <trkpt lat="45.26502" lon="6.02523">
        <ele>1730</ele>
        <time>2013-02-10T10:41:28Z</time>
      </trkpt>
      <trkpt lat="45.26498" lon="6.02521">
        <ele>1724</ele>
        <time>2013-02-10T10:41:31Z</time>
      </trkpt>
      <trkpt lat="45.26479" lon="6.02498">
        <ele>1719</ele>
        <time>2013-02-10T10:41:35Z</time>
      </trkpt>
      <trkpt lat="45.26473" lon="6.02475">
        <ele>1718</ele>
        <time>2013-02-10T10:41:38Z</time>
      </trkpt>
      <trkpt lat="45.26473" lon="6.02465">
        <ele>1718</ele>
        <time>2013-02-10T10:41:40Z</time>
      </trkpt>
      <trkpt lat="45.26473" lon="6.02439">
        <ele>1717</ele>
        <time>2013-02-10T10:41:45Z</time>
      </trkpt>
      <trkpt lat="45.26473" lon="6.02419">
        <ele>1716</ele>
        <time>2013-02-10T10:41:49Z</time>
      </trkpt>
      <trkpt lat="45.26475" lon="6.02395">
        <ele>1712</ele>
        <time>2013-02-10T10:41:53Z</time>
      </trkpt>
      <trkpt lat="45.26488" lon="6.02353">
        <ele>1709</ele>
        <time>2013-02-10T10:41:59Z</time>
      </trkpt>
      <trkpt lat="45.26504" lon="6.02309">
        <ele>1702</ele>
        <time>2013-02-10T10:42:05Z</time>
      </trkpt>
      <trkpt lat="45.26511" lon="6.02303">
        <ele>1701</ele>
        <time>2013-02-10T10:42:08Z</time>
      </trkpt>
      <trkpt lat="45.26511" lon="6.02303">
        <ele>1701</ele>
        <time>2013-02-10T10:42:15Z</time>
      </trkpt>
      <trkpt lat="45.2651" lon="6.02303">
        <ele>1701</ele>
        <time>2013-02-10T10:42:29Z</time>
      </trkpt>
      <trkpt lat="45.2651" lon="6.02303">
        <ele>1701</ele>
        <time>2013-02-10T10:42:37Z</time>
      </trkpt>
      <trkpt lat="45.26508" lon="6.02303">
        <ele>1701</ele>
        <time>2013-02-10T10:42:59Z</time>
      </trkpt>
      <trkpt lat="45.26508" lon="6.02303">
        <ele>1701</ele>
        <time>2013-02-10T10:43:05Z</time>
      </trkpt>
      <trkpt lat="45.26507" lon="6.02303">
        <ele>1701</ele>
        <time>2013-02-10T10:43:33Z</time>
      </trkpt>
      <trkpt lat="45.26507" lon="6.02302">
        <ele>1701</ele>
        <time>2013-02-10T10:43:41Z</time>
      </trkpt>
      <trkpt lat="45.26507" lon="6.02301">
        <ele>1701</ele>
        <time>2013-02-10T10:43:42Z</time>
      </trkpt>
      <trkpt lat="45.26501" lon="6.02274">
        <ele>1696</ele>
        <time>2013-02-10T10:43:46Z</time>
      </trkpt>
      <trkpt lat="45.26499" lon="6.02262">
        <ele>1693</ele>
        <time>2013-02-10T10:43:47Z</time>
      </trkpt>
      <trkpt lat="45.2649" lon="6.02236">
        <ele>1686</ele>
        <time>2013-02-10T10:43:49Z</time>
      </trkpt>
      <trkpt lat="45.26478" lon="6.02206">
        <ele>1684</ele>
        <time>2013-02-10T10:43:52Z</time>
      </trkpt>
      <trkpt lat="45.26473" lon="6.02186">
        <ele>1682</ele>
        <time>2013-02-10T10:43:54Z</time>
      </trkpt>
      <trkpt lat="45.26462" lon="6.02171">
        <ele>1682</ele>
        <time>2013-02-10T10:43:56Z</time>
      </trkpt>
      <trkpt lat="45.26457" lon="6.02161">
        <ele>1670</ele>
        <time>2013-02-10T10:43:57Z</time>
      </trkpt>
      <trkpt lat="45.26454" lon="6.02099">
        <ele>1663</ele>
        <time>2013-02-10T10:44:01Z</time>
      </trkpt>
      <trkpt lat="45.26465" lon="6.02079">
        <ele>1650</ele>
        <time>2013-02-10T10:44:03Z</time>
      </trkpt>
      <trkpt lat="45.26464" lon="6.0207">
        <ele>1650</ele>
        <time>2013-02-10T10:44:05Z</time>
      </trkpt>
      <trkpt lat="45.26462" lon="6.02069">
        <ele>1650</ele>
        <time>2013-02-10T10:44:08Z</time>
      </trkpt>
      <trkpt lat="45.26462" lon="6.02069">
        <ele>1650</ele>
        <time>2013-02-10T10:44:09Z</time>
      </trkpt>
      <trkpt lat="45.26472" lon="6.02061">
        <ele>1649</ele>
        <time>2013-02-10T10:44:13Z</time>
      </trkpt>
      <trkpt lat="45.26487" lon="6.02054">
        <ele>1649</ele>
        <time>2013-02-10T10:44:16Z</time>
      </trkpt>
      <trkpt lat="45.26495" lon="6.02022">
        <ele>1644</ele>
        <time>2013-02-10T10:44:19Z</time>
      </trkpt>
      <trkpt lat="45.26491" lon="6.01973">
        <ele>1630</ele>
        <time>2013-02-10T10:44:22Z</time>
      </trkpt>
      <trkpt lat="45.26494" lon="6.01937">
        <ele>1623</ele>
        <time>2013-02-10T10:44:24Z</time>
      </trkpt>
      <trkpt lat="45.26501" lon="6.0186">
        <ele>1614</ele>
        <time>2013-02-10T10:44:28Z</time>
      </trkpt>
      <trkpt lat="45.26504" lon="6.0182">
        <ele>1602</ele>
        <time>2013-02-10T10:44:30Z</time>
      </trkpt>
      <trkpt lat="45.2651" lon="6.01781">
        <ele>1599</ele>
        <time>2013-02-10T10:44:32Z</time>
      </trkpt>
      <trkpt lat="45.26511" lon="6.01704">
        <ele>1587</ele>
        <time>2013-02-10T10:44:36Z</time>
      </trkpt>
      <trkpt lat="45.2651" lon="6.01653">
        <ele>1580</ele>
        <time>2013-02-10T10:44:39Z</time>
      </trkpt>
      <trkpt lat="45.26501" lon="6.01613">
        <ele>1579</ele>
        <time>2013-02-10T10:44:42Z</time>
      </trkpt>
      <trkpt lat="45.26495" lon="6.01603">
        <ele>1575</ele>
        <time>2013-02-10T10:44:43Z</time>
      </trkpt>
      <trkpt lat="45.26483" lon="6.01586">
        <ele>1575</ele>
        <time>2013-02-10T10:44:45Z</time>
      </trkpt>
      <trkpt lat="45.26466" lon="6.01569">
        <ele>1568</ele>
        <time>2013-02-10T10:44:49Z</time>
      </trkpt>
      <trkpt lat="45.2646" lon="6.01566">
        <ele>1568</ele>
        <time>2013-02-10T10:44:52Z</time>
      </trkpt>
      <trkpt lat="45.26456" lon="6.01565">
        <ele>1567</ele>
        <time>2013-02-10T10:44:56Z</time>
      </trkpt>
      <trkpt lat="45.26453" lon="6.01564">
        <ele>1567</ele>
        <time>2013-02-10T10:45:04Z</time>
      </trkpt>
      <trkpt lat="45.26453" lon="6.01563">
        <ele>1567</ele>
        <time>2013-02-10T10:45:13Z</time>
      </trkpt>
      <trkpt lat="45.26452" lon="6.01564">
        <ele>1567</ele>
        <time>2013-02-10T10:45:28Z</time>
      </trkpt>
      <trkpt lat="45.2645" lon="6.01564">
        <ele>1567</ele>
        <time>2013-02-10T10:45:38Z</time>
      </trkpt>
      <trkpt lat="45.26449" lon="6.01566">
        <ele>1567</ele>
        <time>2013-02-10T10:45:47Z</time>
      </trkpt>
      <trkpt lat="45.26448" lon="6.01569">
        <ele>1567</ele>
        <time>2013-02-10T10:45:56Z</time>
      </trkpt>
      <trkpt lat="45.26449" lon="6.01569">
        <ele>1567</ele>
        <time>2013-02-10T10:46:06Z</time>
      </trkpt>
      <trkpt lat="45.2645" lon="6.01568">
        <ele>1567</ele>
        <time>2013-02-10T10:46:21Z</time>
      </trkpt>
      <trkpt lat="45.26451" lon="6.01572">
        <ele>1567</ele>
        <time>2013-02-10T10:46:27Z</time>
      </trkpt>
      <trkpt lat="45.26452" lon="6.01576">
        <ele>1568</ele>
        <time>2013-02-10T10:46:34Z</time>
      </trkpt>
      <trkpt lat="45.2645" lon="6.01582">
        <ele>1568</ele>
        <time>2013-02-10T10:46:38Z</time>
      </trkpt>
      <trkpt lat="45.26437" lon="6.01604">
        <ele>1573</ele>
        <time>2013-02-10T10:46:43Z</time>
      </trkpt>
      <trkpt lat="45.2643" lon="6.01614">
        <ele>1574</ele>
        <time>2013-02-10T10:46:45Z</time>
      </trkpt>
      <trkpt lat="45.26404" lon="6.01661">
        <ele>1577</ele>
        <time>2013-02-10T10:46:54Z</time>
      </trkpt>
      <trkpt lat="45.26383" lon="6.01702">
        <ele>1586</ele>
        <time>2013-02-10T10:47:02Z</time>
      </trkpt>
      <trkpt lat="45.26361" lon="6.01747">
        <ele>1592</ele>
        <time>2013-02-10T10:47:11Z</time>
      </trkpt>
      <trkpt lat="45.26334" lon="6.01801">
        <ele>1605</ele>
        <time>2013-02-10T10:47:22Z</time>
      </trkpt>
      <trkpt lat="45.26315" lon="6.0184">
        <ele>1624</ele>
        <time>2013-02-10T10:47:30Z</time>
      </trkpt>
      <trkpt lat="45.26295" lon="6.0188">
        <ele>1630</ele>
        <time>2013-02-10T10:47:38Z</time>
      </trkpt>
      <trkpt lat="45.26278" lon="6.01915">
        <ele>1635</ele>
        <time>2013-02-10T10:47:45Z</time>
      </trkpt>
      <trkpt lat="45.26259" lon="6.01955">
        <ele>1650</ele>
        <time>2013-02-10T10:47:53Z</time>
      </trkpt>
      <trkpt lat="45.26242" lon="6.01989">
        <ele>1664</ele>
        <time>2013-02-10T10:48:00Z</time>
      </trkpt>
      <trkpt lat="45.26219" lon="6.02036">
        <ele>1677</ele>
        <time>2013-02-10T10:48:10Z</time>
      </trkpt>
      <trkpt lat="45.26206" lon="6.02062">
        <ele>1680</ele>
        <time>2013-02-10T10:48:15Z</time>
      </trkpt>
      <trkpt lat="45.26192" lon="6.02093">
        <ele>1688</ele>
        <time>2013-02-10T10:48:21Z</time>
      </trkpt>
      <trkpt lat="45.26169" lon="6.02139">
        <ele>1691</ele>
        <time>2013-02-10T10:48:30Z</time>
      </trkpt>
      <trkpt lat="45.26152" lon="6.02173">
        <ele>1708</ele>
        <time>2013-02-10T10:48:37Z</time>
      </trkpt>
      <trkpt lat="45.26133" lon="6.02211">
        <ele>1720</ele>
        <time>2013-02-10T10:48:45Z</time>
      </trkpt>
      <trkpt lat="45.26113" lon="6.02253">
        <ele>1740</ele>
        <time>2013-02-10T10:48:54Z</time>
      </trkpt>
      <trkpt lat="45.26093" lon="6.02294">
        <ele>1746</ele>
        <time>2013-02-10T10:49:03Z</time>
      </trkpt>
      <trkpt lat="45.26069" lon="6.02344">
        <ele>1786</ele>
        <time>2013-02-10T10:49:14Z</time>
      </trkpt>
      <trkpt lat="45.26049" lon="6.02383">
        <ele>1804</ele>
        <time>2013-02-10T10:49:23Z</time>
      </trkpt>
      <trkpt lat="45.2603" lon="6.02422">
        <ele>1833</ele>
        <time>2013-02-10T10:49:32Z</time>
      </trkpt>
      <trkpt lat="45.26004" lon="6.02476">
        <ele>1852</ele>
        <time>2013-02-10T10:49:45Z</time>
      </trkpt>
      <trkpt lat="45.25982" lon="6.0252">
        <ele>1907</ele>
        <time>2013-02-10T10:49:56Z</time>
      </trkpt>
      <trkpt lat="45.25961" lon="6.02564">
        <ele>1924</ele>
        <time>2013-02-10T10:50:07Z</time>
      </trkpt>
      <trkpt lat="45.25947" lon="6.02593">
        <ele>1948</ele>
        <time>2013-02-10T10:50:14Z</time>
      </trkpt>
      <trkpt lat="45.25931" lon="6.02627">
        <ele>1955</ele>
        <time>2013-02-10T10:50:22Z</time>
      </trkpt>
      <trkpt lat="45.25917" lon="6.02655">
        <ele>1974</ele>
        <time>2013-02-10T10:50:29Z</time>
      </trkpt>
      <trkpt lat="45.25904" lon="6.02683">
        <ele>2005</ele>
        <time>2013-02-10T10:50:36Z</time>
      </trkpt>
      <trkpt lat="45.2589" lon="6.02711">
        <ele>2012</ele>
        <time>2013-02-10T10:50:42Z</time>
      </trkpt>
      <trkpt lat="45.25871" lon="6.0275">
        <ele>2020</ele>
        <time>2013-02-10T10:50:50Z</time>
      </trkpt>
      <trkpt lat="45.25854" lon="6.02786">
        <ele>2024</ele>
        <time>2013-02-10T10:50:57Z</time>
      </trkpt>
      <trkpt lat="45.25829" lon="6.02837">
        <ele>2047</ele>
        <time>2013-02-10T10:51:07Z</time>
      </trkpt>
      <trkpt lat="45.258" lon="6.02897">
        <ele>2052</ele>
        <time>2013-02-10T10:51:19Z</time>
      </trkpt>
      <trkpt lat="45.25766" lon="6.02966">
        <ele>2060</ele>
        <time>2013-02-10T10:51:33Z</time>
      </trkpt>
      <trkpt lat="45.25757" lon="6.02985">
        <ele>2070</ele>
        <time>2013-02-10T10:51:37Z</time>
      </trkpt>
      <trkpt lat="45.25738" lon="6.03024">
        <ele>2092</ele>
        <time>2013-02-10T10:51:45Z</time>
      </trkpt>
      <trkpt lat="45.25729" lon="6.03043">
        <ele>2093</ele>
        <time>2013-02-10T10:51:49Z</time>
      </trkpt>
      <trkpt lat="45.25727" lon="6.03059">
        <ele>2092</ele>
        <time>2013-02-10T10:51:53Z</time>
      </trkpt>
      <trkpt lat="45.25722" lon="6.03069">
        <ele>2092</ele>
        <time>2013-02-10T10:51:59Z</time>
      </trkpt>
      <trkpt lat="45.25713" lon="6.03081">
        <ele>2093</ele>
        <time>2013-02-10T10:52:04Z</time>
      </trkpt>
      <trkpt lat="45.257" lon="6.03094">
        <ele>2086</ele>
        <time>2013-02-10T10:52:11Z</time>
      </trkpt>
      <trkpt lat="45.2569" lon="6.03104">
        <ele>2087</ele>
        <time>2013-02-10T10:52:16Z</time>
      </trkpt>
      <trkpt lat="45.25688" lon="6.03104">
        <ele>2088</ele>
        <time>2013-02-10T10:52:27Z</time>
      </trkpt>
      <trkpt lat="45.25688" lon="6.03104">
        <ele>2088</ele>
        <time>2013-02-10T10:52:35Z</time>
      </trkpt>
      <trkpt lat="45.25688" lon="6.03103">
        <ele>2088</ele>
        <time>2013-02-10T10:52:42Z</time>
      </trkpt>
      <trkpt lat="45.25688" lon="6.03104">
        <ele>2088</ele>
        <time>2013-02-10T10:52:50Z</time>
      </trkpt>
      <trkpt lat="45.25688" lon="6.03104">
        <ele>2088</ele>
        <time>2013-02-10T10:53:01Z</time>
      </trkpt>
      <trkpt lat="45.25688" lon="6.03104">
        <ele>2088</ele>
        <time>2013-02-10T10:53:10Z</time>
      </trkpt>
      <trkpt lat="45.25688" lon="6.03104">
        <ele>2088</ele>
        <time>2013-02-10T10:53:23Z</time>
      </trkpt>
      <trkpt lat="45.25686" lon="6.03102">
        <ele>2089</ele>
        <time>2013-02-10T10:53:31Z</time>
      </trkpt>
      <trkpt lat="45.25684" lon="6.03103">
        <ele>2089</ele>
        <time>2013-02-10T10:53:38Z</time>
      </trkpt>
      <trkpt lat="45.25673" lon="6.03104">
        <ele>2091</ele>
        <time>2013-02-10T10:53:42Z</time>
      </trkpt>
      <trkpt lat="45.25666" lon="6.03105">
        <ele>2096</ele>
        <time>2013-02-10T10:53:43Z</time>
      </trkpt>
      <trkpt lat="45.25639" lon="6.03104">
        <ele>2094</ele>
        <time>2013-02-10T10:53:47Z</time>
      </trkpt>
      <trkpt lat="45.25616" lon="6.03103">
        <ele>2092</ele>
        <time>2013-02-10T10:53:50Z</time>
      </trkpt>
      <trkpt lat="45.2561" lon="6.03096">
        <ele>2091</ele>
        <time>2013-02-10T10:53:52Z</time>
      </trkpt>
      <trkpt lat="45.2561" lon="6.03082">
        <ele>2092</ele>
        <time>2013-02-10T10:53:57Z</time>
      </trkpt>
      <trkpt lat="45.256" lon="6.03072">
        <ele>2090</ele>
        <time>2013-02-10T10:54:00Z</time>
      </trkpt>
      <trkpt lat="45.25584" lon="6.03057">
        <ele>2089</ele>
        <time>2013-02-10T10:54:03Z</time>
      </trkpt>
      <trkpt lat="45.25571" lon="6.03044">
        <ele>2074</ele>
        <time>2013-02-10T10:54:05Z</time>
      </trkpt>
      <trkpt lat="45.25568" lon="6.03028">
        <ele>2071</ele>
        <time>2013-02-10T10:54:07Z</time>
      </trkpt>
      <trkpt lat="45.25563" lon="6.03014">
        <ele>2069</ele>
        <time>2013-02-10T10:54:09Z</time>
      </trkpt>
      <trkpt lat="45.25549" lon="6.03002">
        <ele>2067</ele>
        <time>2013-02-10T10:54:11Z</time>
      </trkpt>
      <trkpt lat="45.25539" lon="6.02983">
        <ele>2049</ele>
        <time>2013-02-10T10:54:13Z</time>
      </trkpt>
      <trkpt lat="45.25523" lon="6.02966">
        <ele>2045</ele>
        <time>2013-02-10T10:54:15Z</time>
      </trkpt>
      <trkpt lat="45.25512" lon="6.02947">
        <ele>2040</ele>
        <time>2013-02-10T10:54:17Z</time>
      </trkpt>
      <trkpt lat="45.25504" lon="6.02939">
        <ele>2037</ele>
        <time>2013-02-10T10:54:18Z</time>
      </trkpt>
      <trkpt lat="45.25463" lon="6.02891">
        <ele>2007</ele>
        <time>2013-02-10T10:54:23Z</time>
      </trkpt>
      <trkpt lat="45.25444" lon="6.02856">
        <ele>2001</ele>
        <time>2013-02-10T10:54:26Z</time>
      </trkpt>
      <trkpt lat="45.25434" lon="6.0283">
        <ele>1987</ele>
        <time>2013-02-10T10:54:28Z</time>
      </trkpt>
      <trkpt lat="45.25422" lon="6.02807">
        <ele>1986</ele>
        <time>2013-02-10T10:54:30Z</time>
      </trkpt>
      <trkpt lat="45.25411" lon="6.02784">
        <ele>1971</ele>
        <time>2013-02-10T10:54:32Z</time>
      </trkpt>
      <trkpt lat="45.25407" lon="6.02774">
        <ele>1970</ele>
        <time>2013-02-10T10:54:33Z</time>
      </trkpt>
      <trkpt lat="45.25394" lon="6.02732">
        <ele>1958</ele>
        <time>2013-02-10T10:54:37Z</time>
      </trkpt>
      <trkpt lat="45.25384" lon="6.02696">
        <ele>1953</ele>
        <time>2013-02-10T10:54:40Z</time>
      </trkpt>
      <trkpt lat="45.25376" lon="6.02668">
        <ele>1951</ele>
        <time>2013-02-10T10:54:42Z</time>
      </trkpt>
      <trkpt lat="45.25363" lon="6.0262">
        <ele>1937</ele>
        <time>2013-02-10T10:54:45Z</time>
      </trkpt>
      <trkpt lat="45.25373" lon="6.02574">
        <ele>1924</ele>
        <time>2013-02-10T10:54:48Z</time>
      </trkpt>
      <trkpt lat="45.25394" lon="6.02535">
        <ele>1921</ele>
        <time>2013-02-10T10:54:51Z</time>
      </trkpt>
      <trkpt lat="45.254" lon="6.02479">
        <ele>1906</ele>
        <time>2013-02-10T10:54:55Z</time>
      </trkpt>
      <trkpt lat="45.25383" lon="6.0245">
        <ele>1902</ele>
        <time>2013-02-10T10:54:57Z</time>
      </trkpt>
      <trkpt lat="45.25337" lon="6.02397">
        <ele>1886</ele>
        <time>2013-02-10T10:55:01Z</time>
      </trkpt>
      <trkpt lat="45.25307" lon="6.02364">
        <ele>1883</ele>
        <time>2013-02-10T10:55:04Z</time>
      </trkpt>
      <trkpt lat="45.253" lon="6.02356">
        <ele>1883</ele>
        <time>2013-02-10T10:55:05Z</time>
      </trkpt>
      <trkpt lat="45.25286" lon="6.02345">
        <ele>1883</ele>
        <time>2013-02-10T10:55:07Z</time>
      </trkpt>
      <trkpt lat="45.25275" lon="6.02336">
        <ele>1883</ele>
        <time>2013-02-10T10:55:09Z</time>
      </trkpt>
      <trkpt lat="45.25263" lon="6.02321">
        <ele>1871</ele>
        <time>2013-02-10T10:55:12Z</time>
      </trkpt>
      <trkpt lat="45.25262" lon="6.02313">
        <ele>1868</ele>
        <time>2013-02-10T10:55:15Z</time>
      </trkpt>
      <trkpt lat="45.25262" lon="6.02314">
        <ele>1869</ele>
        <time>2013-02-10T10:55:24Z</time>
      </trkpt>
      <trkpt lat="45.25262" lon="6.02314">
        <ele>1868</ele>
        <time>2013-02-10T10:55:30Z</time>
      </trkpt>
      <trkpt lat="45.25263" lon="6.02314">
        <ele>1868</ele>
        <time>2013-02-10T10:55:39Z</time>
      </trkpt>
      <trkpt lat="45.25261" lon="6.02314">
        <ele>1869</ele>
        <time>2013-02-10T10:55:49Z</time>
      </trkpt>
      <trkpt lat="45.25259" lon="6.02313">
        <ele>1868</ele>
        <time>2013-02-10T10:55:55Z</time>
      </trkpt>
      <trkpt lat="45.2525" lon="6.02302">
        <ele>1865</ele>
        <time>2013-02-10T10:55:59Z</time>
      </trkpt>
      <trkpt lat="45.25237" lon="6.02286">
        <ele>1869</ele>
        <time>2013-02-10T10:56:02Z</time>
      </trkpt>
      <trkpt lat="45.25221" lon="6.02264">
        <ele>1866</ele>
        <time>2013-02-10T10:56:05Z</time>
      </trkpt>
      <trkpt lat="45.25193" lon="6.0223">
        <ele>1849</ele>
        <time>2013-02-10T10:56:09Z</time>
      </trkpt>
      <trkpt lat="45.2518" lon="6.02212">
        <ele>1846</ele>
        <time>2013-02-10T10:56:11Z</time>
      </trkpt>
      <trkpt lat="45.25161" lon="6.0219">
        <ele>1853</ele>
        <time>2013-02-10T10:56:14Z</time>
      </trkpt>
      <trkpt lat="45.25139" lon="6.0217">
        <ele>1854</ele>
        <time>2013-02-10T10:56:17Z</time>
      </trkpt>
      <trkpt lat="45.25121" lon="6.02143">
        <ele>1837</ele>
        <time>2013-02-10T10:56:20Z</time>
      </trkpt>
      <trkpt lat="45.25114" lon="6.02123">
        <ele>1835</ele>
        <time>2013-02-10T10:56:22Z</time>
      </trkpt>
      <trkpt lat="45.25106" lon="6.02095">
        <ele>1831</ele>
        <time>2013-02-10T10:56:25Z</time>
      </trkpt>
      <trkpt lat="45.25098" lon="6.02058">
        <ele>1810</ele>
        <time>2013-02-10T10:56:29Z</time>
      </trkpt>
      <trkpt lat="45.25096" lon="6.0205">
        <ele>1808</ele>
        <time>2013-02-10T10:56:30Z</time>
      </trkpt>
      <trkpt lat="45.2509" lon="6.02028">
        <ele>1803</ele>
        <time>2013-02-10T10:56:33Z</time>
      </trkpt>
      <trkpt lat="45.25085" lon="6.01998">
        <ele>1796</ele>
        <time>2013-02-10T10:56:37Z</time>
      </trkpt>
      <trkpt lat="45.25077" lon="6.01987">
        <ele>1804</ele>
        <time>2013-02-10T10:56:39Z</time>
      </trkpt>
      <trkpt lat="45.25077" lon="6.01971">
        <ele>1804</ele>
        <time>2013-02-10T10:56:41Z</time>
      </trkpt>
      <trkpt lat="45.25074" lon="6.01944">
        <ele>1799</ele>
        <time>2013-02-10T10:56:44Z</time>
      </trkpt>
      <trkpt lat="45.25077" lon="6.01924">
        <ele>1787</ele>
        <time>2013-02-10T10:56:46Z</time>
      </trkpt>
      <trkpt lat="45.25084" lon="6.01893">
        <ele>1759</ele>
        <time>2013-02-10T10:56:49Z</time>
      </trkpt>
      <trkpt lat="45.25089" lon="6.01872">
        <ele>1753</ele>
        <time>2013-02-10T10:56:51Z</time>
      </trkpt>
      <trkpt lat="45.25094" lon="6.01848">
        <ele>1750</ele>
        <time>2013-02-10T10:56:53Z</time>
      </trkpt>
      <trkpt lat="45.25103" lon="6.01823">
        <ele>1738</ele>
        <time>2013-02-10T10:56:56Z</time>
      </trkpt>
      <trkpt lat="45.25108" lon="6.01788">
        <ele>1731</ele>
        <time>2013-02-10T10:56:59Z</time>
      </trkpt>
      <trkpt lat="45.25111" lon="6.0175">
        <ele>1715</ele>
        <time>2013-02-10T10:57:02Z</time>
      </trkpt>
      <trkpt lat="45.25104" lon="6.01717">
        <ele>1712</ele>
        <time>2013-02-10T10:57:05Z</time>
      </trkpt>
      <trkpt lat="45.25099" lon="6.01698">
        <ele>1709</ele>
        <time>2013-02-10T10:57:07Z</time>
      </trkpt>
      <trkpt lat="45.25096" lon="6.01679">
        <ele>1709</ele>
        <time>2013-02-10T10:57:09Z</time>
      </trkpt>
      <trkpt lat="45.25086" lon="6.01648">
        <ele>1696</ele>
        <time>2013-02-10T10:57:12Z</time>
      </trkpt>
      <trkpt lat="45.25081" lon="6.01629">
        <ele>1713</ele>
        <time>2013-02-10T10:57:14Z</time>
      </trkpt>
      <trkpt lat="45.25074" lon="6.01612">
        <ele>1708</ele>
        <time>2013-02-10T10:57:16Z</time>
      </trkpt>
      <trkpt lat="45.25069" lon="6.01559">
        <ele>1686</ele>
        <time>2013-02-10T10:57:21Z</time>
      </trkpt>
      <trkpt lat="45.2506" lon="6.01528">
        <ele>1683</ele>
        <time>2013-02-10T10:57:24Z</time>
      </trkpt>
      <trkpt lat="45.25056" lon="6.01516">
        <ele>1681</ele>
        <time>2013-02-10T10:57:25Z</time>
      </trkpt>
      <trkpt lat="45.25036" lon="6.01456">
        <ele>1662</ele>
        <time>2013-02-10T10:57:30Z</time>
      </trkpt>
      <trkpt lat="45.25026" lon="6.01418">
        <ele>1660</ele>
        <time>2013-02-10T10:57:33Z</time>
      </trkpt>
      <trkpt lat="45.25013" lon="6.0138">
        <ele>1640</ele>
        <time>2013-02-10T10:57:37Z</time>
      </trkpt>
      <trkpt lat="45.25003" lon="6.01357">
        <ele>1637</ele>
        <time>2013-02-10T10:57:40Z</time>
      </trkpt>
      <trkpt lat="45.24992" lon="6.01331">
        <ele>1633</ele>
        <time>2013-02-10T10:57:43Z</time>
      </trkpt>
      <trkpt lat="45.24987" lon="6.01323">
        <ele>1631</ele>
        <time>2013-02-10T10:57:44Z</time>
      </trkpt>
      <trkpt lat="45.24963" lon="6.01286">
        <ele>1625</ele>
        <time>2013-02-10T10:57:49Z</time>
      </trkpt>
      <trkpt lat="45.24954" lon="6.01275">
        <ele>1624</ele>
        <time>2013-02-10T10:57:51Z</time>
      </trkpt>
      <trkpt lat="45.24947" lon="6.01271">
        <ele>1624</ele>
        <time>2013-02-10T10:57:53Z</time>
      </trkpt>
      <trkpt lat="45.24946" lon="6.0127">
        <ele>1624</ele>
        <time>2013-02-10T10:57:59Z</time>
      </trkpt>
      <trkpt lat="45.24945" lon="6.01268">
        <ele>1624</ele>
        <time>2013-02-10T10:58:13Z</time>
      </trkpt>
      <trkpt lat="45.24938" lon="6.01247">
        <ele>1610</ele>
        <time>2013-02-10T10:58:18Z</time>
      </trkpt>
      <trkpt lat="45.24943" lon="6.01221">
        <ele>1606</ele>
        <time>2013-02-10T10:58:21Z</time>
      </trkpt>
      <trkpt lat="45.24961" lon="6.01199">
        <ele>1601</ele>
        <time>2013-02-10T10:58:25Z</time>
      </trkpt>
      <trkpt lat="45.24977" lon="6.01176">
        <ele>1596</ele>
        <time>2013-02-10T10:58:29Z</time>
      </trkpt>
      <trkpt lat="45.24991" lon="6.01158">
        <ele>1586</ele>
        <time>2013-02-10T10:58:32Z</time>
      </trkpt>
      <trkpt lat="45.25005" lon="6.01148">
        <ele>1575</ele>
        <time>2013-02-10T10:58:34Z</time>
      </trkpt>
      <trkpt lat="45.25018" lon="6.01136">
        <ele>1571</ele>
        <time>2013-02-10T10:58:36Z</time>
      </trkpt>
      <trkpt lat="45.25031" lon="6.01135">
        <ele>1569</ele>
        <time>2013-02-10T10:58:38Z</time>
      </trkpt>
      <trkpt lat="45.25051" lon="6.01119">
        <ele>1565</ele>
        <time>2013-02-10T10:58:41Z</time>
      </trkpt>
      <trkpt lat="45.25074" lon="6.01097">
        <ele>1557</ele>
        <time>2013-02-10T10:58:44Z</time>
      </trkpt>
      <trkpt lat="45.25095" lon="6.01076">
        <ele>1539</ele>
        <time>2013-02-10T10:58:47Z</time>
      </trkpt>
      <trkpt lat="45.2511" lon="6.01063">
        <ele>1532</ele>
        <time>2013-02-10T10:58:49Z</time>
      </trkpt>
      <trkpt lat="45.25131" lon="6.01043">
        <ele>1527</ele>
        <time>2013-02-10T10:58:52Z</time>
      </trkpt>
      <trkpt lat="45.25141" lon="6.0102">
        <ele>1522</ele>
        <time>2013-02-10T10:58:54Z</time>
      </trkpt>
      <trkpt lat="45.25148" lon="6.00976">
        <ele>1515</ele>
        <time>2013-02-10T10:58:57Z</time>
      </trkpt>
      <trkpt lat="45.2515" lon="6.0096">
        <ele>1514</ele>
        <time>2013-02-10T10:58:58Z</time>
      </trkpt>
      <trkpt lat="45.25173" lon="6.0089">
        <ele>1489</ele>
        <time>2013-02-10T10:59:03Z</time>
      </trkpt>
      <trkpt lat="45.252" lon="6.00837">
        <ele>1486</ele>
        <time>2013-02-10T10:59:07Z</time>
      </trkpt>
      <trkpt lat="45.2521" lon="6.00812">
        <ele>1485</ele>
        <time>2013-02-10T10:59:09Z</time>
      </trkpt>
      <trkpt lat="45.25231" lon="6.00751">
        <ele>1479</ele>
        <time>2013-02-10T10:59:14Z</time>
      </trkpt>
      <trkpt lat="45.25231" lon="6.00742">
        <ele>1481</ele>
        <time>2013-02-10T10:59:15Z</time>
      </trkpt>
      <trkpt lat="45.25227" lon="6.00726">
        <ele>1484</ele>
        <time>2013-02-10T10:59:20Z</time>
      </trkpt>
      <trkpt lat="45.25225" lon="6.00728">
        <ele>1484</ele>
        <time>2013-02-10T10:59:26Z</time>
      </trkpt>
      <trkpt lat="45.25222" lon="6.00731">
        <ele>1484</ele>
        <time>2013-02-10T10:59:32Z</time>
      </trkpt>
      <trkpt lat="45.25219" lon="6.00735">
        <ele>1485</ele>
        <time>2013-02-10T10:59:39Z</time>
      </trkpt>
      <trkpt lat="45.25213" lon="6.00739">
        <ele>1485</ele>
        <time>2013-02-10T10:59:46Z</time>
      </trkpt>
      <trkpt lat="45.25211" lon="6.00742">
        <ele>1486</ele>
        <time>2013-02-10T10:59:51Z</time>
      </trkpt>
      <trkpt lat="45.25207" lon="6.00747">
        <ele>1486</ele>
        <time>2013-02-10T10:59:53Z</time>
      </trkpt>
      <trkpt lat="45.25203" lon="6.00755">
        <ele>1485</ele>
        <time>2013-02-10T10:59:57Z</time>
      </trkpt>
      <trkpt lat="45.25196" lon="6.00766">
        <ele>1487</ele>
        <time>2013-02-10T11:00:02Z</time>
      </trkpt>
      <trkpt lat="45.2519" lon="6.00775">
        <ele>1488</ele>
        <time>2013-02-10T11:00:06Z</time>
      </trkpt>
      <trkpt lat="45.25182" lon="6.00784">
        <ele>1488</ele>
        <time>2013-02-10T11:00:11Z</time>
      </trkpt>
      <trkpt lat="45.25173" lon="6.00798">
        <ele>1490</ele>
        <time>2013-02-10T11:00:18Z</time>
      </trkpt>
      <trkpt lat="45.25162" lon="6.00813">
        <ele>1508</ele>
        <time>2013-02-10T11:00:26Z</time>
      </trkpt>
      <trkpt lat="45.25144" lon="6.00837">
        <ele>1511</ele>
        <time>2013-02-10T11:00:38Z</time>
      </trkpt>
      <trkpt lat="45.25131" lon="6.00858">
        <ele>1516</ele>
        <time>2013-02-10T11:00:48Z</time>
      </trkpt>
      <trkpt lat="45.25117" lon="6.00877">
        <ele>1519</ele>
        <time>2013-02-10T11:00:58Z</time>
      </trkpt>
      <trkpt lat="45.25102" lon="6.00899">
        <ele>1524</ele>
        <time>2013-02-10T11:01:09Z</time>
      </trkpt>
      <trkpt lat="45.25084" lon="6.00924">
        <ele>1533</ele>
        <time>2013-02-10T11:01:22Z</time>
      </trkpt>
      <trkpt lat="45.25069" lon="6.00943">
        <ele>1545</ele>
        <time>2013-02-10T11:01:32Z</time>
      </trkpt>
      <trkpt lat="45.25045" lon="6.00974">
        <ele>1550</ele>
        <time>2013-02-10T11:01:48Z</time>
      </trkpt>
      <trkpt lat="45.25022" lon="6.01006">
        <ele>1559</ele>
        <time>2013-02-10T11:02:04Z</time>
      </trkpt>
      <trkpt lat="45.24999" lon="6.01038">
        <ele>1576</ele>
        <time>2013-02-10T11:02:21Z</time>
      </trkpt>
      <trkpt lat="45.24984" lon="6.01058">
        <ele>1578</ele>
        <time>2013-02-10T11:02:31Z</time>
      </trkpt>
      <trkpt lat="45.24965" lon="6.01086">
        <ele>1586</ele>
        <time>2013-02-10T11:02:45Z</time>
      </trkpt>
      <trkpt lat="45.24943" lon="6.01115">
        <ele>1590</ele>
        <time>2013-02-10T11:03:00Z</time>
      </trkpt>
      <trkpt lat="45.24922" lon="6.01144">
        <ele>1596</ele>
        <time>2013-02-10T11:03:15Z</time>
      </trkpt>
      <trkpt lat="45.24903" lon="6.01171">
        <ele>1611</ele>
        <time>2013-02-10T11:03:29Z</time>
      </trkpt>
      <trkpt lat="45.24893" lon="6.01186">
        <ele>1614</ele>
        <time>2013-02-10T11:03:36Z</time>
      </trkpt>
      <trkpt lat="45.24872" lon="6.01213">
        <ele>1619</ele>
        <time>2013-02-10T11:03:50Z</time>
      </trkpt>
      <trkpt lat="45.24853" lon="6.0124">
        <ele>1623</ele>
        <time>2013-02-10T11:04:03Z</time>
      </trkpt>
      <trkpt lat="45.24833" lon="6.01267">
        <ele>1636</ele>
        <time>2013-02-10T11:04:17Z</time>
      </trkpt>
      <trkpt lat="45.24818" lon="6.01288">
        <ele>1652</ele>
        <time>2013-02-10T11:04:28Z</time>
      </trkpt>
      <trkpt lat="45.248" lon="6.01313">
        <ele>1659</ele>
        <time>2013-02-10T11:04:42Z</time>
      </trkpt>
      <trkpt lat="45.24784" lon="6.01335">
        <ele>1687</ele>
        <time>2013-02-10T11:04:54Z</time>
      </trkpt>
      <trkpt lat="45.24766" lon="6.01358">
        <ele>1692</ele>
        <time>2013-02-10T11:05:08Z</time>
      </trkpt>
      <trkpt lat="45.24751" lon="6.0138">
        <ele>1699</ele>
        <time>2013-02-10T11:05:21Z</time>
      </trkpt>
      <trkpt lat="45.24734" lon="6.01404">
        <ele>1717</ele>
        <time>2013-02-10T11:05:34Z</time>
      </trkpt>
      <trkpt lat="45.24719" lon="6.01425">
        <ele>1738</ele>
        <time>2013-02-10T11:05:45Z</time>
      </trkpt>
      <trkpt lat="45.24717" lon="6.01428">
        <ele>1739</ele>
        <time>2013-02-10T11:05:50Z</time>
      </trkpt>
      <trkpt lat="45.24717" lon="6.01428">
        <ele>1739</ele>
        <time>2013-02-10T11:05:58Z</time>
      </trkpt>
      <trkpt lat="45.24716" lon="6.0143">
        <ele>1739</ele>
        <time>2013-02-10T11:06:47Z</time>
      </trkpt>
      <trkpt lat="45.24708" lon="6.01439">
        <ele>1741</ele>
        <time>2013-02-10T11:06:54Z</time>
      </trkpt>
      <trkpt lat="45.24695" lon="6.01456">
        <ele>1745</ele>
        <time>2013-02-10T11:07:03Z</time>
      </trkpt>
      <trkpt lat="45.24682" lon="6.01475">
        <ele>1750</ele>
        <time>2013-02-10T11:07:13Z</time>
      </trkpt>
      <trkpt lat="45.24667" lon="6.01495">
        <ele>1761</ele>
        <time>2013-02-10T11:07:24Z</time>
      </trkpt>
      <trkpt lat="45.24651" lon="6.01518">
        <ele>1780</ele>
        <time>2013-02-10T11:07:36Z</time>
      </trkpt>
      <trkpt lat="45.2463" lon="6.01546">
        <ele>1790</ele>
        <time>2013-02-10T11:07:51Z</time>
      </trkpt>
      <trkpt lat="45.24609" lon="6.01575">
        <ele>1798</ele>
        <time>2013-02-10T11:08:07Z</time>
      </trkpt>
      <trkpt lat="45.24589" lon="6.01602">
        <ele>1825</ele>
        <time>2013-02-10T11:08:22Z</time>
      </trkpt>
      <trkpt lat="45.24577" lon="6.01618">
        <ele>1837</ele>
        <time>2013-02-10T11:08:31Z</time>
      </trkpt>
      <trkpt lat="45.24562" lon="6.01642">
        <ele>1845</ele>
        <time>2013-02-10T11:08:43Z</time>
      </trkpt>
      <trkpt lat="45.24544" lon="6.01668">
        <ele>1871</ele>
        <time>2013-02-10T11:08:57Z</time>
      </trkpt>
      <trkpt lat="45.24529" lon="6.01687">
        <ele>1873</ele>
        <time>2013-02-10T11:09:08Z</time>
      </trkpt>
      <trkpt lat="45.24513" lon="6.01708">
        <ele>1876</ele>
        <time>2013-02-10T11:09:19Z</time>
      </trkpt>
      <trkpt lat="45.24505" lon="6.0172">
        <ele>1877</ele>
        <time>2013-02-10T11:09:25Z</time>
      </trkpt>
      <trkpt lat="45.2449" lon="6.01738">
        <ele>1876</ele>
        <time>2013-02-10T11:09:33Z</time>
      </trkpt>
      <trkpt lat="45.24481" lon="6.01752">
        <ele>1878</ele>
        <time>2013-02-10T11:09:38Z</time>
      </trkpt>
      <trkpt lat="45.24474" lon="6.0175">
        <ele>1877</ele>
        <time>2013-02-10T11:09:42Z</time>
      </trkpt>
      <trkpt lat="45.24474" lon="6.01749">
        <ele>1874</ele>
        <time>2013-02-10T11:09:50Z</time>
      </trkpt>
      <trkpt lat="45.24474" lon="6.0175">
        <ele>1874</ele>
        <time>2013-02-10T11:10:00Z</time>
      </trkpt>
      <trkpt lat="45.24473" lon="6.0175">
        <ele>1874</ele>
        <time>2013-02-10T11:10:10Z</time>
      </trkpt>
      <trkpt lat="45.24474" lon="6.0175">
        <ele>1874</ele>
        <time>2013-02-10T11:10:18Z</time>
      </trkpt>
      <trkpt lat="45.24473" lon="6.01752">
        <ele>1877</ele>
        <time>2013-02-10T11:10:31Z</time>
      </trkpt>
      <trkpt lat="45.24463" lon="6.01766">
        <ele>1875</ele>
        <time>2013-02-10T11:10:35Z</time>
      </trkpt>
      <trkpt lat="45.24457" lon="6.01771">
        <ele>1875</ele>
        <time>2013-02-10T11:10:36Z</time>
      </trkpt>
      <trkpt lat="45.24433" lon="6.01761">
        <ele>1871</ele>
        <time>2013-02-10T11:10:39Z</time>
      </trkpt>
      <trkpt lat="45.24425" lon="6.01752">
        <ele>1869</ele>
        <time>2013-02-10T11:10:40Z</time>
      </trkpt>
      <trkpt lat="45.24408" lon="6.01724">
        <ele>1866</ele>
        <time>2013-02-10T11:10:43Z</time>
      </trkpt>
      <trkpt lat="45.24395" lon="6.01691">
        <ele>1864</ele>
        <time>2013-02-10T11:10:47Z</time>
      </trkpt>
      <trkpt lat="45.24393" lon="6.01684">
        <ele>1863</ele>
        <time>2013-02-10T11:10:49Z</time>
      </trkpt>
      <trkpt lat="45.24394" lon="6.01683">
        <ele>1863</ele>
        <time>2013-02-10T11:10:53Z</time>
      </trkpt>
      <trkpt lat="45.24394" lon="6.01684">
        <ele>1863</ele>
        <time>2013-02-10T11:11:03Z</time>
      </trkpt>
      <trkpt lat="45.24393" lon="6.01684">
        <ele>1863</ele>
        <time>2013-02-10T11:11:09Z</time>
      </trkpt>
      <trkpt lat="45.24393" lon="6.01684">
        <ele>1863</ele>
        <time>2013-02-10T11:11:10Z</time>
      </trkpt>
      <trkpt lat="45.24391" lon="6.01662">
        <ele>1854</ele>
        <time>2013-02-10T11:11:14Z</time>
      </trkpt>
      <trkpt lat="45.24384" lon="6.01634">
        <ele>1851</ele>
        <time>2013-02-10T11:11:17Z</time>
      </trkpt>
      <trkpt lat="45.24383" lon="6.01622">
        <ele>1849</ele>
        <time>2013-02-10T11:11:18Z</time>
      </trkpt>
      <trkpt lat="45.24377" lon="6.01553">
        <ele>1828</ele>
        <time>2013-02-10T11:11:23Z</time>
      </trkpt>
      <trkpt lat="45.24376" lon="6.01505">
        <ele>1822</ele>
        <time>2013-02-10T11:11:26Z</time>
      </trkpt>
      <trkpt lat="45.2438" lon="6.01474">
        <ele>1808</ele>
        <time>2013-02-10T11:11:28Z</time>
      </trkpt>
      <trkpt lat="45.24387" lon="6.0143">
        <ele>1803</ele>
        <time>2013-02-10T11:11:31Z</time>
      </trkpt>
      <trkpt lat="45.2439" lon="6.01416">
        <ele>1796</ele>
        <time>2013-02-10T11:11:32Z</time>
      </trkpt>
      <trkpt lat="45.24402" lon="6.01336">
        <ele>1787</ele>
        <time>2013-02-10T11:11:37Z</time>
      </trkpt>
      <trkpt lat="45.24405" lon="6.0132">
        <ele>1784</ele>
        <time>2013-02-10T11:11:38Z</time>
      </trkpt>
      <trkpt lat="45.24413" lon="6.01292">
        <ele>1784</ele>
        <time>2013-02-10T11:11:40Z</time>
      </trkpt>
      <trkpt lat="45.24423" lon="6.01245">
        <ele>1757</ele>
        <time>2013-02-10T11:11:44Z</time>
      </trkpt>
      <trkpt lat="45.24439" lon="6.01212">
        <ele>1746</ele>
        <time>2013-02-10T11:11:47Z</time>
      </trkpt>
      <trkpt lat="45.24446" lon="6.01186">
        <ele>1743</ele>
        <time>2013-02-10T11:11:49Z</time>
      </trkpt>
      <trkpt lat="45.24455" lon="6.0116">
        <ele>1733</ele>
        <time>2013-02-10T11:11:51Z</time>
      </trkpt>
      <trkpt lat="45.24471" lon="6.01141">
        <ele>1728</ele>
        <time>2013-02-10T11:11:53Z</time>
      </trkpt>
      <trkpt lat="45.24477" lon="6.01126">
        <ele>1727</ele>
        <time>2013-02-10T11:11:54Z</time>
      </trkpt>
      <trkpt lat="45.24501" lon="6.01075">
        <ele>1700</ele>
        <time>2013-02-10T11:11:58Z</time>
      </trkpt>
      <trkpt lat="45.24512" lon="6.01049">
        <ele>1694</ele>
        <time>2013-02-10T11:12:00Z</time>
      </trkpt>
      <trkpt lat="45.2453" lon="6.01032">
        <ele>1692</ele>
        <time>2013-02-10T11:12:02Z</time>
      </trkpt>
      <trkpt lat="45.24556" lon="6.01003">
        <ele>1686</ele>
        <time>2013-02-10T11:12:05Z</time>
      </trkpt>
      <trkpt lat="45.24566" lon="6.00998">
        <ele>1682</ele>
        <time>2013-02-10T11:12:06Z</time>
      </trkpt>
      <trkpt lat="45.24615" lon="6.00965">
        <ele>1656</ele>
        <time>2013-02-10T11:12:11Z</time>
      </trkpt>
      <trkpt lat="45.24644" lon="6.00945">
        <ele>1648</ele>
        <time>2013-02-10T11:12:14Z</time>
      </trkpt>
      <trkpt lat="45.24665" lon="6.00941">
        <ele>1643</ele>
        <time>2013-02-10T11:12:16Z</time>
      </trkpt>
      <trkpt lat="45.24673" lon="6.00934">
        <ele>1626</ele>
        <time>2013-02-10T11:12:17Z</time>
      </trkpt>
      <trkpt lat="45.24706" lon="6.00911">
        <ele>1615</ele>
        <time>2013-02-10T11:12:20Z</time>
      </trkpt>
      <trkpt lat="45.24783" lon="6.00851">
        <ele>1596</ele>
        <time>2013-02-10T11:12:26Z</time>
      </trkpt>
      <trkpt lat="45.24796" lon="6.00842">
        <ele>1594</ele>
        <time>2013-02-10T11:12:27Z</time>
      </trkpt>
      <trkpt lat="45.24818" lon="6.00824">
        <ele>1593</ele>
        <time>2013-02-10T11:12:29Z</time>
      </trkpt>
      <trkpt lat="45.24836" lon="6.00814">
        <ele>1584</ele>
        <time>2013-02-10T11:12:31Z</time>
      </trkpt>
      <trkpt lat="45.2488" lon="6.0078">
        <ele>1580</ele>
        <time>2013-02-10T11:12:36Z</time>
      </trkpt>
      <trkpt lat="45.24903" lon="6.00766">
        <ele>1576</ele>
        <time>2013-02-10T11:12:38Z</time>
      </trkpt>
      <trkpt lat="45.24956" lon="6.00749">
        <ele>1564</ele>
        <time>2013-02-10T11:12:42Z</time>
      </trkpt>
      <trkpt lat="45.24994" lon="6.00731">
        <ele>1558</ele>
        <time>2013-02-10T11:12:45Z</time>
      </trkpt>
      <trkpt lat="45.25029" lon="6.00716">
        <ele>1544</ele>
        <time>2013-02-10T11:12:48Z</time>
      </trkpt>
      <trkpt lat="45.25041" lon="6.00702">
        <ele>1543</ele>
        <time>2013-02-10T11:12:51Z</time>
      </trkpt>
      <trkpt lat="45.25041" lon="6.00699">
        <ele>1543</ele>
        <time>2013-02-10T11:12:54Z</time>
      </trkpt>
      <trkpt lat="45.25038" lon="6.00702">
        <ele>1543</ele>
        <time>2013-02-10T11:13:01Z</time>
      </trkpt>
      <trkpt lat="45.25039" lon="6.00702">
        <ele>1543</ele>
        <time>2013-02-10T11:13:07Z</time>
      </trkpt>
      <trkpt lat="45.2504" lon="6.00702">
        <ele>1543</ele>
        <time>2013-02-10T11:13:17Z</time>
      </trkpt>
      <trkpt lat="45.2504" lon="6.00702">
        <ele>1543</ele>
        <time>2013-02-10T11:13:24Z</time>
      </trkpt>
      <trkpt lat="45.25042" lon="6.00701">
        <ele>1543</ele>
        <time>2013-02-10T11:13:32Z</time>
      </trkpt>
      <trkpt lat="45.25057" lon="6.00701">
        <ele>1541</ele>
        <time>2013-02-10T11:13:37Z</time>
      </trkpt>
      <trkpt lat="45.25077" lon="6.00699">
        <ele>1539</ele>
        <time>2013-02-10T11:13:40Z</time>
      </trkpt>
      <trkpt lat="45.25093" lon="6.007">
        <ele>1521</ele>
        <time>2013-02-10T11:13:42Z</time>
      </trkpt>
      <trkpt lat="45.25111" lon="6.00695">
        <ele>1518</ele>
        <time>2013-02-10T11:13:44Z</time>
      </trkpt>
      <trkpt lat="45.25134" lon="6.0068">
        <ele>1513</ele>
        <time>2013-02-10T11:13:47Z</time>
      </trkpt>
      <trkpt lat="45.25151" lon="6.00675">
        <ele>1508</ele>
        <time>2013-02-10T11:13:49Z</time>
      </trkpt>
      <trkpt lat="45.25203" lon="6.00685">
        <ele>1489</ele>
        <time>2013-02-10T11:13:54Z</time>
      </trkpt>
      <trkpt lat="45.25216" lon="6.00705">
        <ele>1487</ele>
        <time>2013-02-10T11:13:56Z</time>
      </trkpt>
      <trkpt lat="45.25223" lon="6.00723">
        <ele>1485</ele>
        <time>2013-02-10T11:13:59Z</time>
      </trkpt>
      <trkpt lat="45.2522" lon="6.00734">
        <ele>1484</ele>
        <time>2013-02-10T11:14:03Z</time>
      </trkpt>
      <trkpt lat="45.25219" lon="6.00735">
        <ele>1485</ele>
        <time>2013-02-10T11:14:04Z</time>
      </trkpt>
      <trkpt lat="45.25217" lon="6.00737">
        <ele>1485</ele>
        <time>2013-02-10T11:14:10Z</time>
      </trkpt>
      <trkpt lat="45.25217" lon="6.00739">
        <ele>1485</ele>
        <time>2013-02-10T11:14:17Z</time>
      </trkpt>
      <trkpt lat="45.25214" lon="6.00741">
        <ele>1485</ele>
        <time>2013-02-10T11:14:20Z</time>
      </trkpt>
      <trkpt lat="45.25211" lon="6.00745">
        <ele>1486</ele>
        <time>2013-02-10T11:14:28Z</time>
      </trkpt>
      <trkpt lat="45.25205" lon="6.00753">
        <ele>1485</ele>
        <time>2013-02-10T11:14:32Z</time>
      </trkpt>
      <trkpt lat="45.252" lon="6.0076">
        <ele>1486</ele>
        <time>2013-02-10T11:14:36Z</time>
      </trkpt>
      <trkpt lat="45.25194" lon="6.00768">
        <ele>1487</ele>
        <time>2013-02-10T11:14:40Z</time>
      </trkpt>
      <trkpt lat="45.25188" lon="6.00776">
        <ele>1488</ele>
        <time>2013-02-10T11:14:44Z</time>
      </trkpt>
      <trkpt lat="45.25182" lon="6.00784">
        <ele>1488</ele>
        <time>2013-02-10T11:14:48Z</time>
      </trkpt>
      <trkpt lat="45.25175" lon="6.00793">
        <ele>1489</ele>
        <time>2013-02-10T11:14:53Z</time>
      </trkpt>
      <trkpt lat="45.25165" lon="6.00807">
        <ele>1508</ele>
        <time>2013-02-10T11:15:01Z</time>
      </trkpt>
      <trkpt lat="45.25155" lon="6.00821">
        <ele>1508</ele>
        <time>2013-02-10T11:15:08Z</time>
      </trkpt>
      <trkpt lat="45.25135" lon="6.0085">
        <ele>1515</ele>
        <time>2013-02-10T11:15:22Z</time>
      </trkpt>
      <trkpt lat="45.25115" lon="6.00878">
        <ele>1520</ele>
        <time>2013-02-10T11:15:36Z</time>
      </trkpt>
      <trkpt lat="45.25094" lon="6.00907">
        <ele>1528</ele>
        <time>2013-02-10T11:15:51Z</time>
      </trkpt>
      <trkpt lat="45.2508" lon="6.00928">
        <ele>1542</ele>
        <time>2013-02-10T11:16:02Z</time>
      </trkpt>
      <trkpt lat="45.25061" lon="6.00954">
        <ele>1547</ele>
        <time>2013-02-10T11:16:15Z</time>
      </trkpt>
      <trkpt lat="45.25035" lon="6.0099">
        <ele>1552</ele>
        <time>2013-02-10T11:16:33Z</time>
      </trkpt>
      <trkpt lat="45.25012" lon="6.01022">
        <ele>1560</ele>
        <time>2013-02-10T11:16:49Z</time>
      </trkpt>
      <trkpt lat="45.24996" lon="6.01045">
        <ele>1576</ele>
        <time>2013-02-10T11:17:01Z</time>
      </trkpt>
      <trkpt lat="45.2498" lon="6.01067">
        <ele>1578</ele>
        <time>2013-02-10T11:17:12Z</time>
      </trkpt>
      <trkpt lat="45.24961" lon="6.01093">
        <ele>1587</ele>
        <time>2013-02-10T11:17:25Z</time>
      </trkpt>
      <trkpt lat="45.24939" lon="6.01123">
        <ele>1591</ele>
        <time>2013-02-10T11:17:40Z</time>
      </trkpt>
      <trkpt lat="45.24914" lon="6.01157">
        <ele>1605</ele>
        <time>2013-02-10T11:17:58Z</time>
      </trkpt>
      <trkpt lat="45.24897" lon="6.01179">
        <ele>1613</ele>
        <time>2013-02-10T11:18:10Z</time>
      </trkpt>
      <trkpt lat="45.24886" lon="6.01194">
        <ele>1616</ele>
        <time>2013-02-10T11:18:18Z</time>
      </trkpt>
      <trkpt lat="45.24875" lon="6.01209">
        <ele>1618</ele>
        <time>2013-02-10T11:18:26Z</time>
      </trkpt>
      <trkpt lat="45.24858" lon="6.01233">
        <ele>1622</ele>
        <time>2013-02-10T11:18:38Z</time>
      </trkpt>
      <trkpt lat="45.24836" lon="6.01262">
        <ele>1635</ele>
        <time>2013-02-10T11:18:53Z</time>
      </trkpt>
      <trkpt lat="45.24822" lon="6.01283">
        <ele>1650</ele>
        <time>2013-02-10T11:19:04Z</time>
      </trkpt>
      <trkpt lat="45.24801" lon="6.01313">
        <ele>1659</ele>
        <time>2013-02-10T11:19:21Z</time>
      </trkpt>
      <trkpt lat="45.2478" lon="6.01342">
        <ele>1688</ele>
        <time>2013-02-10T11:19:38Z</time>
      </trkpt>
      <trkpt lat="45.24759" lon="6.01371">
        <ele>1696</ele>
        <time>2013-02-10T11:19:55Z</time>
      </trkpt>
      <trkpt lat="45.24749" lon="6.01385">
        <ele>1713</ele>
        <time>2013-02-10T11:20:03Z</time>
      </trkpt>
      <trkpt lat="45.2473" lon="6.01411">
        <ele>1718</ele>
        <time>2013-02-10T11:20:18Z</time>
      </trkpt>
      <trkpt lat="45.24715" lon="6.01432">
        <ele>1740</ele>
        <time>2013-02-10T11:20:29Z</time>
      </trkpt>
      <trkpt lat="45.24693" lon="6.01462">
        <ele>1746</ele>
        <time>2013-02-10T11:20:45Z</time>
      </trkpt>
      <trkpt lat="45.24675" lon="6.01488">
        <ele>1756</ele>
        <time>2013-02-10T11:20:59Z</time>
      </trkpt>
      <trkpt lat="45.2466" lon="6.01507">
        <ele>1773</ele>
        <time>2013-02-10T11:21:09Z</time>
      </trkpt>
      <trkpt lat="45.24638" lon="6.01537">
        <ele>1788</ele>
        <time>2013-02-10T11:21:25Z</time>
      </trkpt>
      <trkpt lat="45.24614" lon="6.0157">
        <ele>1796</ele>
        <time>2013-02-10T11:21:43Z</time>
      </trkpt>
      <trkpt lat="45.24593" lon="6.01599">
        <ele>1824</ele>
        <time>2013-02-10T11:21:59Z</time>
      </trkpt>
      <trkpt lat="45.2458" lon="6.01618">
        <ele>1837</ele>
        <time>2013-02-10T11:22:09Z</time>
      </trkpt>
      <trkpt lat="45.24557" lon="6.01649">
        <ele>1847</ele>
        <time>2013-02-10T11:22:26Z</time>
      </trkpt>
      <trkpt lat="45.24533" lon="6.01681">
        <ele>1872</ele>
        <time>2013-02-10T11:22:44Z</time>
      </trkpt>
      <trkpt lat="45.24524" lon="6.01693">
        <ele>1874</ele>
        <time>2013-02-10T11:22:50Z</time>
      </trkpt>
      <trkpt lat="45.24507" lon="6.01714">
        <ele>1876</ele>
        <time>2013-02-10T11:23:01Z</time>
      </trkpt>
      <trkpt lat="45.24497" lon="6.01729">
        <ele>1875</ele>
        <time>2013-02-10T11:23:08Z</time>
      </trkpt>
      <trkpt lat="45.24486" lon="6.01747">
        <ele>1876</ele>
        <time>2013-02-10T11:23:13Z</time>
      </trkpt>
      <trkpt lat="45.24472" lon="6.01777">
        <ele>1876</ele>
        <time>2013-02-10T11:23:19Z</time>
      </trkpt>
      <trkpt lat="45.24468" lon="6.01785">
        <ele>1876</ele>
        <time>2013-02-10T11:23:21Z</time>
      </trkpt>
      <trkpt lat="45.24467" lon="6.01786">
        <ele>1876</ele>
        <time>2013-02-10T11:23:25Z</time>
      </trkpt>
      <trkpt lat="45.24467" lon="6.01786">
        <ele>1876</ele>
        <time>2013-02-10T11:23:38Z</time>
      </trkpt>
      <trkpt lat="45.2447" lon="6.01785">
        <ele>1876</ele>
        <time>2013-02-10T11:23:47Z</time>
      </trkpt>
      <trkpt lat="45.24472" lon="6.01786">
        <ele>1876</ele>
        <time>2013-02-10T11:24:01Z</time>
      </trkpt>
      <trkpt lat="45.24469" lon="6.01787">
        <ele>1876</ele>
        <time>2013-02-10T11:24:21Z</time>
      </trkpt>
      <trkpt lat="45.24451" lon="6.0178">
        <ele>1874</ele>
        <time>2013-02-10T11:24:25Z</time>
      </trkpt>
      <trkpt lat="45.2443" lon="6.01757">
        <ele>1871</ele>
        <time>2013-02-10T11:24:28Z</time>
      </trkpt>
      <trkpt lat="45.24403" lon="6.01711">
        <ele>1865</ele>
        <time>2013-02-10T11:24:33Z</time>
      </trkpt>
      <trkpt lat="45.24399" lon="6.01702">
        <ele>1864</ele>
        <time>2013-02-10T11:24:34Z</time>
      </trkpt>
      <trkpt lat="45.2439" lon="6.01674">
        <ele>1863</ele>
        <time>2013-02-10T11:24:37Z</time>
      </trkpt>
      <trkpt lat="45.24384" lon="6.01656">
        <ele>1853</ele>
        <time>2013-02-10T11:24:39Z</time>
      </trkpt>
      <trkpt lat="45.24376" lon="6.01634">
        <ele>1851</ele>
        <time>2013-02-10T11:24:41Z</time>
      </trkpt>
      <trkpt lat="45.24375" lon="6.01611">
        <ele>1848</ele>
        <time>2013-02-10T11:24:43Z</time>
      </trkpt>
      <trkpt lat="45.24372" lon="6.01585">
        <ele>1846</ele>
        <time>2013-02-10T11:24:45Z</time>
      </trkpt>
      <trkpt lat="45.24374" lon="6.01546">
        <ele>1827</ele>
        <time>2013-02-10T11:24:48Z</time>
      </trkpt>
      <trkpt lat="45.24374" lon="6.01517">
        <ele>1823</ele>
        <time>2013-02-10T11:24:50Z</time>
      </trkpt>
      <trkpt lat="45.24375" lon="6.01503">
        <ele>1822</ele>
        <time>2013-02-10T11:24:51Z</time>
      </trkpt>
      <trkpt lat="45.24379" lon="6.01453">
        <ele>1807</ele>
        <time>2013-02-10T11:24:54Z</time>
      </trkpt>
      <trkpt lat="45.24388" lon="6.01385">
        <ele>1797</ele>
        <time>2013-02-10T11:24:58Z</time>
      </trkpt>
      <trkpt lat="45.24391" lon="6.01367">
        <ele>1795</ele>
        <time>2013-02-10T11:24:59Z</time>
      </trkpt>
      <trkpt lat="45.24405" lon="6.01296">
        <ele>1786</ele>
        <time>2013-02-10T11:25:04Z</time>
      </trkpt>
      <trkpt lat="45.24416" lon="6.01262">
        <ele>1774</ele>
        <time>2013-02-10T11:25:07Z</time>
      </trkpt>
      <trkpt lat="45.2442" lon="6.01236">
        <ele>1755</ele>
        <time>2013-02-10T11:25:09Z</time>
      </trkpt>
      <trkpt lat="45.24433" lon="6.01216">
        <ele>1747</ele>
        <time>2013-02-10T11:25:11Z</time>
      </trkpt>
      <trkpt lat="45.24445" lon="6.01195">
        <ele>1744</ele>
        <time>2013-02-10T11:25:13Z</time>
      </trkpt>
      <trkpt lat="45.24449" lon="6.01165">
        <ele>1735</ele>
        <time>2013-02-10T11:25:15Z</time>
      </trkpt>
      <trkpt lat="45.24455" lon="6.01151">
        <ele>1732</ele>
        <time>2013-02-10T11:25:16Z</time>
      </trkpt>
      <trkpt lat="45.24472" lon="6.01105">
        <ele>1725</ele>
        <time>2013-02-10T11:25:19Z</time>
      </trkpt>
      <trkpt lat="45.24497" lon="6.01067">
        <ele>1714</ele>
        <time>2013-02-10T11:25:22Z</time>
      </trkpt>
      <trkpt lat="45.24511" lon="6.01039">
        <ele>1694</ele>
        <time>2013-02-10T11:25:24Z</time>
      </trkpt>
      <trkpt lat="45.24531" lon="6.01023">
        <ele>1691</ele>
        <time>2013-02-10T11:25:26Z</time>
      </trkpt>
      <trkpt lat="45.24568" lon="6.00992">
        <ele>1682</ele>
        <time>2013-02-10T11:25:30Z</time>
      </trkpt>
      <trkpt lat="45.24589" lon="6.00984">
        <ele>1665</ele>
        <time>2013-02-10T11:25:32Z</time>
      </trkpt>
      <trkpt lat="45.24608" lon="6.00972">
        <ele>1658</ele>
        <time>2013-02-10T11:25:34Z</time>
      </trkpt>
      <trkpt lat="45.24637" lon="6.00955">
        <ele>1651</ele>
        <time>2013-02-10T11:25:37Z</time>
      </trkpt>
      <trkpt lat="45.24662" lon="6.00946">
        <ele>1645</ele>
        <time>2013-02-10T11:25:40Z</time>
      </trkpt>
      <trkpt lat="45.2468" lon="6.00927">
        <ele>1625</ele>
        <time>2013-02-10T11:25:42Z</time>
      </trkpt>
      <trkpt lat="45.24703" lon="6.00916">
        <ele>1616</ele>
        <time>2013-02-10T11:25:44Z</time>
      </trkpt>
      <trkpt lat="45.24716" lon="6.00907">
        <ele>1613</ele>
        <time>2013-02-10T11:25:45Z</time>
      </trkpt>
      <trkpt lat="45.24801" lon="6.00839">
        <ele>1593</ele>
        <time>2013-02-10T11:25:51Z</time>
      </trkpt>
      <trkpt lat="45.24816" lon="6.00827">
        <ele>1593</ele>
        <time>2013-02-10T11:25:52Z</time>
      </trkpt>
      <trkpt lat="45.24892" lon="6.00774">
        <ele>1578</ele>
        <time>2013-02-10T11:25:58Z</time>
      </trkpt>
      <trkpt lat="45.24931" lon="6.00752">
        <ele>1566</ele>
        <time>2013-02-10T11:26:01Z</time>
      </trkpt>
      <trkpt lat="45.24984" lon="6.0073">
        <ele>1560</ele>
        <time>2013-02-10T11:26:05Z</time>
      </trkpt>
      <trkpt lat="45.25012" lon="6.0072">
        <ele>1546</ele>
        <time>2013-02-10T11:26:07Z</time>
      </trkpt>
      <trkpt lat="45.25065" lon="6.00709">
        <ele>1540</ele>
        <time>2013-02-10T11:26:11Z</time>
      </trkpt>
      <trkpt lat="45.2511" lon="6.00695">
        <ele>1518</ele>
        <time>2013-02-10T11:26:15Z</time>
      </trkpt>
      <trkpt lat="45.2513" lon="6.00679">
        <ele>1514</ele>
        <time>2013-02-10T11:26:17Z</time>
      </trkpt>
      <trkpt lat="45.25151" lon="6.00671">
        <ele>1508</ele>
        <time>2013-02-10T11:26:19Z</time>
      </trkpt>
      <trkpt lat="45.25161" lon="6.00674">
        <ele>1505</ele>
        <time>2013-02-10T11:26:20Z</time>
      </trkpt>
      <trkpt lat="45.25211" lon="6.00684">
        <ele>1488</ele>
        <time>2013-02-10T11:26:25Z</time>
      </trkpt>
      <trkpt lat="45.25239" lon="6.00694">
        <ele>1485</ele>
        <time>2013-02-10T11:26:28Z</time>
      </trkpt>
      <trkpt lat="45.25246" lon="6.00695">
        <ele>1484</ele>
        <time>2013-02-10T11:26:31Z</time>
      </trkpt>
      <trkpt lat="45.25246" lon="6.00694">
        <ele>1484</ele>
        <time>2013-02-10T11:26:33Z</time>
      </trkpt>
      <trkpt lat="45.25243" lon="6.00697">
        <ele>1485</ele>
        <time>2013-02-10T11:26:45Z</time>
      </trkpt>
      <trkpt lat="45.2524" lon="6.00701">
        <ele>1485</ele>
        <time>2013-02-10T11:26:51Z</time>
      </trkpt>
      <trkpt lat="45.25239" lon="6.00705">
        <ele>1485</ele>
        <time>2013-02-10T11:26:53Z</time>
      </trkpt>
      <trkpt lat="45.25235" lon="6.00704">
        <ele>1485</ele>
        <time>2013-02-10T11:26:58Z</time>
      </trkpt>
      <trkpt lat="45.25235" lon="6.00704">
        <ele>1485</ele>
        <time>2013-02-10T11:27:04Z</time>
      </trkpt>
      <trkpt lat="45.25235" lon="6.00705">
        <ele>1485</ele>
        <time>2013-02-10T11:27:10Z</time>
      </trkpt>
      <trkpt lat="45.25235" lon="6.00705">
        <ele>1485</ele>
        <time>2013-02-10T11:27:17Z</time>
      </trkpt>
      <trkpt lat="45.25234" lon="6.00706">
        <ele>1485</ele>
        <time>2013-02-10T11:27:24Z</time>
      </trkpt>
      <trkpt lat="45.25235" lon="6.00706">
        <ele>1485</ele>
        <time>2013-02-10T11:27:32Z</time>
      </trkpt>
      <trkpt lat="45.25235" lon="6.00706">
        <ele>1485</ele>
        <time>2013-02-10T11:27:54Z</time>
      </trkpt>
      <trkpt lat="45.25235" lon="6.00705">
        <ele>1485</ele>
        <time>2013-02-10T11:28:23Z</time>
      </trkpt>
      <trkpt lat="45.25245" lon="6.00704">
        <ele>1484</ele>
        <time>2013-02-10T11:28:27Z</time>
      </trkpt>
      <trkpt lat="45.25262" lon="6.00693">
        <ele>1473</ele>
        <time>2013-02-10T11:28:32Z</time>
      </trkpt>
      <trkpt lat="45.25285" lon="6.00675">
        <ele>1472</ele>
        <time>2013-02-10T11:28:37Z</time>
      </trkpt>
      <trkpt lat="45.25314" lon="6.00649">
        <ele>1480</ele>
        <time>2013-02-10T11:28:43Z</time>
      </trkpt>
      <trkpt lat="45.25351" lon="6.0061">
        <ele>1470</ele>
        <time>2013-02-10T11:28:51Z</time>
      </trkpt>
      <trkpt lat="45.25371" lon="6.00589">
        <ele>1468</ele>
        <time>2013-02-10T11:28:55Z</time>
      </trkpt>
      <trkpt lat="45.25388" lon="6.00576">
        <ele>1478</ele>
        <time>2013-02-10T11:28:58Z</time>
      </trkpt>
      <trkpt lat="45.2541" lon="6.00551">
        <ele>1478</ele>
        <time>2013-02-10T11:29:02Z</time>
      </trkpt>
      <trkpt lat="45.2543" lon="6.00524">
        <ele>1455</ele>
        <time>2013-02-10T11:29:06Z</time>
      </trkpt>
      <trkpt lat="45.25456" lon="6.00485">
        <ele>1462</ele>
        <time>2013-02-10T11:29:11Z</time>
      </trkpt>
      <trkpt lat="45.25472" lon="6.00456">
        <ele>1459</ele>
        <time>2013-02-10T11:29:14Z</time>
      </trkpt>
      <trkpt lat="45.25494" lon="6.004">
        <ele>1461</ele>
        <time>2013-02-10T11:29:19Z</time>
      </trkpt>
      <trkpt lat="45.25498" lon="6.00389">
        <ele>1465</ele>
        <time>2013-02-10T11:29:20Z</time>
      </trkpt>
      <trkpt lat="45.25517" lon="6.00347">
        <ele>1436</ele>
        <time>2013-02-10T11:29:24Z</time>
      </trkpt>
      <trkpt lat="45.25527" lon="6.00299">
        <ele>1434</ele>
        <time>2013-02-10T11:29:28Z</time>
      </trkpt>
      <trkpt lat="45.25529" lon="6.00287">
        <ele>1433</ele>
        <time>2013-02-10T11:29:29Z</time>
      </trkpt>
      <trkpt lat="45.25539" lon="6.00251">
        <ele>1431</ele>
        <time>2013-02-10T11:29:32Z</time>
      </trkpt>
      <trkpt lat="45.25555" lon="6.00203">
        <ele>1425</ele>
        <time>2013-02-10T11:29:36Z</time>
      </trkpt>
      <trkpt lat="45.2556" lon="6.00179">
        <ele>1422</ele>
        <time>2013-02-10T11:29:38Z</time>
      </trkpt>
      <trkpt lat="45.25577" lon="6.00135">
        <ele>1419</ele>
        <time>2013-02-10T11:29:43Z</time>
      </trkpt>
      <trkpt lat="45.25586" lon="6.00103">
        <ele>1398</ele>
        <time>2013-02-10T11:29:46Z</time>
      </trkpt>
      <trkpt lat="45.25587" lon="6.00081">
        <ele>1402</ele>
        <time>2013-02-10T11:29:48Z</time>
      </trkpt>
      <trkpt lat="45.2559" lon="6.00034">
        <ele>1389</ele>
        <time>2013-02-10T11:29:52Z</time>
      </trkpt>
      <trkpt lat="45.25591" lon="5.99998">
        <ele>1386</ele>
        <time>2013-02-10T11:29:55Z</time>
      </trkpt>
      <trkpt lat="45.25589" lon="5.99972">
        <ele>1379</ele>
        <time>2013-02-10T11:29:57Z</time>
      </trkpt>
      <trkpt lat="45.2559" lon="5.99916">
        <ele>1373</ele>
        <time>2013-02-10T11:30:01Z</time>
      </trkpt>
      <trkpt lat="45.25592" lon="5.99875">
        <ele>1365</ele>
        <time>2013-02-10T11:30:04Z</time>
      </trkpt>
      <trkpt lat="45.256" lon="5.99837">
        <ele>1363</ele>
        <time>2013-02-10T11:30:07Z</time>
      </trkpt>
      <trkpt lat="45.25621" lon="5.99781">
        <ele>1352</ele>
        <time>2013-02-10T11:30:12Z</time>
      </trkpt>
      <trkpt lat="45.25624" lon="5.9977">
        <ele>1351</ele>
        <time>2013-02-10T11:30:13Z</time>
      </trkpt>
      <trkpt lat="45.25632" lon="5.99713">
        <ele>1344</ele>
        <time>2013-02-10T11:30:18Z</time>
      </trkpt>
      <trkpt lat="45.25642" lon="5.99688">
        <ele>1341</ele>
        <time>2013-02-10T11:30:21Z</time>
      </trkpt>
      <trkpt lat="45.25651" lon="5.99688">
        <ele>1341</ele>
        <time>2013-02-10T11:30:23Z</time>
      </trkpt>
      <trkpt lat="45.25659" lon="5.99702">
        <ele>1342</ele>
        <time>2013-02-10T11:30:26Z</time>
      </trkpt>
      <trkpt lat="45.25663" lon="5.9972">
        <ele>1343</ele>
        <time>2013-02-10T11:30:31Z</time>
      </trkpt>
      <trkpt lat="45.25664" lon="5.99721">
        <ele>1343</ele>
        <time>2013-02-10T11:30:37Z</time>
      </trkpt>
      <trkpt lat="45.25664" lon="5.99722">
        <ele>1343</ele>
        <time>2013-02-10T11:30:45Z</time>
      </trkpt>
      <trkpt lat="45.25666" lon="5.99724">
        <ele>1343</ele>
        <time>2013-02-10T11:30:57Z</time>
      </trkpt>
      <trkpt lat="45.25669" lon="5.99727">
        <ele>1334</ele>
        <time>2013-02-10T11:31:02Z</time>
      </trkpt>
      <trkpt lat="45.25672" lon="5.99728">
        <ele>1334</ele>
        <time>2013-02-10T11:31:11Z</time>
      </trkpt>
      <trkpt lat="45.25671" lon="5.99733">
        <ele>1335</ele>
        <time>2013-02-10T11:31:16Z</time>
      </trkpt>
      <trkpt lat="45.2567" lon="5.99737">
        <ele>1336</ele>
        <time>2013-02-10T11:31:18Z</time>
      </trkpt>
      <trkpt lat="45.25661" lon="5.99754">
        <ele>1345</ele>
        <time>2013-02-10T11:31:23Z</time>
      </trkpt>
      <trkpt lat="45.25647" lon="5.99783">
        <ele>1350</ele>
        <time>2013-02-10T11:31:28Z</time>
      </trkpt>
      <trkpt lat="45.25635" lon="5.99809">
        <ele>1352</ele>
        <time>2013-02-10T11:31:33Z</time>
      </trkpt>
      <trkpt lat="45.25623" lon="5.99837">
        <ele>1360</ele>
        <time>2013-02-10T11:31:38Z</time>
      </trkpt>
      <trkpt lat="45.25611" lon="5.99863">
        <ele>1362</ele>
        <time>2013-02-10T11:31:43Z</time>
      </trkpt>
      <trkpt lat="45.25597" lon="5.99896">
        <ele>1367</ele>
        <time>2013-02-10T11:31:49Z</time>
      </trkpt>
      <trkpt lat="45.25583" lon="5.99928">
        <ele>1385</ele>
        <time>2013-02-10T11:31:55Z</time>
      </trkpt>
      <trkpt lat="45.25563" lon="5.99971">
        <ele>1398</ele>
        <time>2013-02-10T11:32:03Z</time>
      </trkpt>
      <trkpt lat="45.25547" lon="6.00008">
        <ele>1411</ele>
        <time>2013-02-10T11:32:10Z</time>
      </trkpt>
      <trkpt lat="45.25535" lon="6.00039">
        <ele>1416</ele>
        <time>2013-02-10T11:32:16Z</time>
      </trkpt>
      <trkpt lat="45.25521" lon="6.00074">
        <ele>1425</ele>
        <time>2013-02-10T11:32:23Z</time>
      </trkpt>
      <trkpt lat="45.25516" lon="6.00083">
        <ele>1432</ele>
        <time>2013-02-10T11:32:25Z</time>
      </trkpt>
      <trkpt lat="45.255" lon="6.0012">
        <ele>1431</ele>
        <time>2013-02-10T11:32:32Z</time>
      </trkpt>
      <trkpt lat="45.25489" lon="6.00146">
        <ele>1452</ele>
        <time>2013-02-10T11:32:37Z</time>
      </trkpt>
      <trkpt lat="45.2547" lon="6.00192">
        <ele>1463</ele>
        <time>2013-02-10T11:32:46Z</time>
      </trkpt>
      <trkpt lat="45.25463" lon="6.00207">
        <ele>1466</ele>
        <time>2013-02-10T11:32:49Z</time>
      </trkpt>
      <trkpt lat="45.25447" lon="6.00243">
        <ele>1473</ele>
        <time>2013-02-10T11:32:56Z</time>
      </trkpt>
      <trkpt lat="45.25432" lon="6.00279">
        <ele>1483</ele>
        <time>2013-02-10T11:33:03Z</time>
      </trkpt>
      <trkpt lat="45.25416" lon="6.00315">
        <ele>1510</ele>
        <time>2013-02-10T11:33:10Z</time>
      </trkpt>
      <trkpt lat="45.25408" lon="6.00334">
        <ele>1510</ele>
        <time>2013-02-10T11:33:14Z</time>
      </trkpt>
      <trkpt lat="45.25396" lon="6.00367">
        <ele>1515</ele>
        <time>2013-02-10T11:33:20Z</time>
      </trkpt>
      <trkpt lat="45.25388" lon="6.00389">
        <ele>1516</ele>
        <time>2013-02-10T11:33:24Z</time>
      </trkpt>
      <trkpt lat="45.2538" lon="6.00409">
        <ele>1516</ele>
        <time>2013-02-10T11:33:28Z</time>
      </trkpt>
      <trkpt lat="45.25361" lon="6.00442">
        <ele>1510</ele>
        <time>2013-02-10T11:33:34Z</time>
      </trkpt>
      <trkpt lat="45.25342" lon="6.00479">
        <ele>1508</ele>
        <time>2013-02-10T11:33:41Z</time>
      </trkpt>
      <trkpt lat="45.25316" lon="6.00536">
        <ele>1505</ele>
        <time>2013-02-10T11:33:52Z</time>
      </trkpt>
      <trkpt lat="45.25287" lon="6.006">
        <ele>1490</ele>
        <time>2013-02-10T11:34:04Z</time>
      </trkpt>
      <trkpt lat="45.25258" lon="6.00665">
        <ele>1483</ele>
        <time>2013-02-10T11:34:16Z</time>
      </trkpt>
      <trkpt lat="45.25224" lon="6.0074">
        <ele>1483</ele>
        <time>2013-02-10T11:34:30Z</time>
      </trkpt>
      <trkpt lat="45.25188" lon="6.00821">
        <ele>1490</ele>
        <time>2013-02-10T11:34:45Z</time>
      </trkpt>
      <trkpt lat="45.2516" lon="6.00886">
        <ele>1510</ele>
        <time>2013-02-10T11:34:57Z</time>
      </trkpt>
      <trkpt lat="45.25132" lon="6.00948">
        <ele>1517</ele>
        <time>2013-02-10T11:35:09Z</time>
      </trkpt>
      <trkpt lat="45.25104" lon="6.0101">
        <ele>1531</ele>
        <time>2013-02-10T11:35:21Z</time>
      </trkpt>
      <trkpt lat="45.25088" lon="6.01046">
        <ele>1533</ele>
        <time>2013-02-10T11:35:28Z</time>
      </trkpt>
      <trkpt lat="45.2507" lon="6.01089">
        <ele>1556</ele>
        <time>2013-02-10T11:35:36Z</time>
      </trkpt>
      <trkpt lat="45.2504" lon="6.01157">
        <ele>1569</ele>
        <time>2013-02-10T11:35:49Z</time>
      </trkpt>
      <trkpt lat="45.25018" lon="6.01208">
        <ele>1585</ele>
        <time>2013-02-10T11:35:59Z</time>
      </trkpt>
      <trkpt lat="45.24992" lon="6.01267">
        <ele>1615</ele>
        <time>2013-02-10T11:36:11Z</time>
      </trkpt>
      <trkpt lat="45.24975" lon="6.01304">
        <ele>1627</ele>
        <time>2013-02-10T11:36:19Z</time>
      </trkpt>
      <trkpt lat="45.24953" lon="6.01356">
        <ele>1655</ele>
        <time>2013-02-10T11:36:30Z</time>
      </trkpt>
      <trkpt lat="45.24937" lon="6.01387">
        <ele>1664</ele>
        <time>2013-02-10T11:36:37Z</time>
      </trkpt>
      <trkpt lat="45.24914" lon="6.0144">
        <ele>1708</ele>
        <time>2013-02-10T11:36:49Z</time>
      </trkpt>
      <trkpt lat="45.2489" lon="6.01493">
        <ele>1725</ele>
        <time>2013-02-10T11:37:01Z</time>
      </trkpt>
      <trkpt lat="45.24882" lon="6.01512">
        <ele>1755</ele>
        <time>2013-02-10T11:37:07Z</time>
      </trkpt>
      <trkpt lat="45.24877" lon="6.01523">
        <ele>1757</ele>
        <time>2013-02-10T11:37:14Z</time>
      </trkpt>
      <trkpt lat="45.24872" lon="6.01535">
        <ele>1761</ele>
        <time>2013-02-10T11:37:24Z</time>
      </trkpt>
      <trkpt lat="45.24866" lon="6.0155">
        <ele>1766</ele>
        <time>2013-02-10T11:37:34Z</time>
      </trkpt>
      <trkpt lat="45.24859" lon="6.01565">
        <ele>1773</ele>
        <time>2013-02-10T11:37:41Z</time>
      </trkpt>
      <trkpt lat="45.2485" lon="6.01585">
        <ele>1803</ele>
        <time>2013-02-10T11:37:49Z</time>
      </trkpt>
      <trkpt lat="45.24835" lon="6.01617">
        <ele>1811</ele>
        <time>2013-02-10T11:37:58Z</time>
      </trkpt>
      <trkpt lat="45.24819" lon="6.01655">
        <ele>1840</ele>
        <time>2013-02-10T11:38:07Z</time>
      </trkpt>
      <trkpt lat="45.24805" lon="6.01686">
        <ele>1874</ele>
        <time>2013-02-10T11:38:14Z</time>
      </trkpt>
      <trkpt lat="45.24787" lon="6.01726">
        <ele>1889</ele>
        <time>2013-02-10T11:38:23Z</time>
      </trkpt>
      <trkpt lat="45.24769" lon="6.01768">
        <ele>1923</ele>
        <time>2013-02-10T11:38:33Z</time>
      </trkpt>
      <trkpt lat="45.24755" lon="6.01798">
        <ele>1929</ele>
        <time>2013-02-10T11:38:40Z</time>
      </trkpt>
      <trkpt lat="45.24745" lon="6.01822">
        <ele>1950</ele>
        <time>2013-02-10T11:38:45Z</time>
      </trkpt>
      <trkpt lat="45.24738" lon="6.01843">
        <ele>1959</ele>
        <time>2013-02-10T11:38:49Z</time>
      </trkpt>
      <trkpt lat="45.24733" lon="6.0186">
        <ele>1962</ele>
        <time>2013-02-10T11:38:52Z</time>
      </trkpt>
      <trkpt lat="45.24726" lon="6.01879">
        <ele>1965</ele>
        <time>2013-02-10T11:38:57Z</time>
      </trkpt>
      <trkpt lat="45.24718" lon="6.01891">
        <ele>1967</ele>
        <time>2013-02-10T11:39:02Z</time>
      </trkpt>
      <trkpt lat="45.24717" lon="6.01894">
        <ele>1967</ele>
        <time>2013-02-10T11:39:03Z</time>
      </trkpt>
      <trkpt lat="45.24724" lon="6.01906">
        <ele>1969</ele>
        <time>2013-02-10T11:39:08Z</time>
      </trkpt>
      <trkpt lat="45.24727" lon="6.01909">
        <ele>1969</ele>
        <time>2013-02-10T11:39:10Z</time>
      </trkpt>
      <trkpt lat="45.2473" lon="6.0191">
        <ele>1970</ele>
        <time>2013-02-10T11:39:17Z</time>
      </trkpt>
      <trkpt lat="45.24731" lon="6.01911">
        <ele>1970</ele>
        <time>2013-02-10T11:39:18Z</time>
      </trkpt>
      <trkpt lat="45.24734" lon="6.01914">
        <ele>1971</ele>
        <time>2013-02-10T11:39:23Z</time>
      </trkpt>
      <trkpt lat="45.24738" lon="6.01915">
        <ele>1972</ele>
        <time>2013-02-10T11:39:28Z</time>
      </trkpt>
      <trkpt lat="45.2474" lon="6.01916">
        <ele>1973</ele>
        <time>2013-02-10T11:39:30Z</time>
      </trkpt>
      <trkpt lat="45.24749" lon="6.01921">
        <ele>1977</ele>
        <time>2013-02-10T11:39:37Z</time>
      </trkpt>
      <trkpt lat="45.24756" lon="6.01927">
        <ele>1971</ele>
        <time>2013-02-10T11:39:41Z</time>
      </trkpt>
      <trkpt lat="45.24767" lon="6.01943">
        <ele>1966</ele>
        <time>2013-02-10T11:39:47Z</time>
      </trkpt>
      <trkpt lat="45.24786" lon="6.01975">
        <ele>1962</ele>
        <time>2013-02-10T11:39:53Z</time>
      </trkpt>
      <trkpt lat="45.24805" lon="6.02015">
        <ele>1962</ele>
        <time>2013-02-10T11:39:58Z</time>
      </trkpt>
      <trkpt lat="45.24816" lon="6.02043">
        <ele>1963</ele>
        <time>2013-02-10T11:40:01Z</time>
      </trkpt>
      <trkpt lat="45.24834" lon="6.02089">
        <ele>1949</ele>
        <time>2013-02-10T11:40:06Z</time>
      </trkpt>
      <trkpt lat="45.24856" lon="6.02125">
        <ele>1937</ele>
        <time>2013-02-10T11:40:10Z</time>
      </trkpt>
      <trkpt lat="45.24866" lon="6.02158">
        <ele>1936</ele>
        <time>2013-02-10T11:40:13Z</time>
      </trkpt>
      <trkpt lat="45.24868" lon="6.02195">
        <ele>1935</ele>
        <time>2013-02-10T11:40:16Z</time>
      </trkpt>
      <trkpt lat="45.24872" lon="6.02231">
        <ele>1934</ele>
        <time>2013-02-10T11:40:19Z</time>
      </trkpt>
      <trkpt lat="45.2487" lon="6.02249">
        <ele>1935</ele>
        <time>2013-02-10T11:40:21Z</time>
      </trkpt>
      <trkpt lat="45.24874" lon="6.02264">
        <ele>1937</ele>
        <time>2013-02-10T11:40:23Z</time>
      </trkpt>
      <trkpt lat="45.2489" lon="6.02295">
        <ele>1935</ele>
        <time>2013-02-10T11:40:29Z</time>
      </trkpt>
      <trkpt lat="45.24907" lon="6.02307">
        <ele>1932</ele>
        <time>2013-02-10T11:40:33Z</time>
      </trkpt>
      <trkpt lat="45.24921" lon="6.02314">
        <ele>1917</ele>
        <time>2013-02-10T11:40:35Z</time>
      </trkpt>
      <trkpt lat="45.24945" lon="6.02324">
        <ele>1914</ele>
        <time>2013-02-10T11:40:38Z</time>
      </trkpt>
      <trkpt lat="45.24991" lon="6.02344">
        <ele>1909</ele>
        <time>2013-02-10T11:40:43Z</time>
      </trkpt>
      <trkpt lat="45.25" lon="6.02347">
        <ele>1909</ele>
        <time>2013-02-10T11:40:44Z</time>
      </trkpt>
      <trkpt lat="45.2503" lon="6.0235">
        <ele>1903</ele>
        <time>2013-02-10T11:40:48Z</time>
      </trkpt>
      <trkpt lat="45.25036" lon="6.02349">
        <ele>1903</ele>
        <time>2013-02-10T11:40:49Z</time>
      </trkpt>
      <trkpt lat="45.25072" lon="6.02333">
        <ele>1895</ele>
        <time>2013-02-10T11:40:55Z</time>
      </trkpt>
      <trkpt lat="45.25088" lon="6.02325">
        <ele>1892</ele>
        <time>2013-02-10T11:40:58Z</time>
      </trkpt>
      <trkpt lat="45.25113" lon="6.02322">
        <ele>1887</ele>
        <time>2013-02-10T11:41:03Z</time>
      </trkpt>
      <trkpt lat="45.25147" lon="6.02331">
        <ele>1886</ele>
        <time>2013-02-10T11:41:10Z</time>
      </trkpt>
      <trkpt lat="45.25181" lon="6.0234">
        <ele>1889</ele>
        <time>2013-02-10T11:41:17Z</time>
      </trkpt>
      <trkpt lat="45.25197" lon="6.02342">
        <ele>1889</ele>
        <time>2013-02-10T11:41:20Z</time>
      </trkpt>
      <trkpt lat="45.25208" lon="6.02342">
        <ele>1889</ele>
        <time>2013-02-10T11:41:22Z</time>
      </trkpt>
      <trkpt lat="45.2523" lon="6.02345">
        <ele>1887</ele>
        <time>2013-02-10T11:41:26Z</time>
      </trkpt>
      <trkpt lat="45.25259" lon="6.0234">
        <ele>1883</ele>
        <time>2013-02-10T11:41:30Z</time>
      </trkpt>
      <trkpt lat="45.25277" lon="6.02348">
        <ele>1883</ele>
        <time>2013-02-10T11:41:35Z</time>
      </trkpt>
      <trkpt lat="45.2528" lon="6.0235">
        <ele>1883</ele>
        <time>2013-02-10T11:41:37Z</time>
      </trkpt>
      <trkpt lat="45.25282" lon="6.02353">
        <ele>1883</ele>
        <time>2013-02-10T11:41:39Z</time>
      </trkpt>
      <trkpt lat="45.25282" lon="6.02355">
        <ele>1883</ele>
        <time>2013-02-10T11:41:45Z</time>
      </trkpt>
      <trkpt lat="45.2528" lon="6.02356">
        <ele>1883</ele>
        <time>2013-02-10T11:42:06Z</time>
      </trkpt>
      <trkpt lat="45.25281" lon="6.02357">
        <ele>1883</ele>
        <time>2013-02-10T11:42:14Z</time>
      </trkpt>
      <trkpt lat="45.25285" lon="6.02359">
        <ele>1884</ele>
        <time>2013-02-10T11:42:28Z</time>
      </trkpt>
      <trkpt lat="45.25287" lon="6.02364">
        <ele>1884</ele>
        <time>2013-02-10T11:42:33Z</time>
      </trkpt>
      <trkpt lat="45.25289" lon="6.02366">
        <ele>1884</ele>
        <time>2013-02-10T11:42:36Z</time>
      </trkpt>
      <trkpt lat="45.25297" lon="6.02379">
        <ele>1885</ele>
        <time>2013-02-10T11:42:41Z</time>
      </trkpt>
      <trkpt lat="45.25304" lon="6.02391">
        <ele>1886</ele>
        <time>2013-02-10T11:42:46Z</time>
      </trkpt>
      <trkpt lat="45.25316" lon="6.02413">
        <ele>1888</ele>
        <time>2013-02-10T11:42:55Z</time>
      </trkpt>
      <trkpt lat="45.25326" lon="6.02428">
        <ele>1894</ele>
        <time>2013-02-10T11:43:01Z</time>
      </trkpt>
      <trkpt lat="45.25345" lon="6.02457">
        <ele>1901</ele>
        <time>2013-02-10T11:43:13Z</time>
      </trkpt>
      <trkpt lat="45.25362" lon="6.02485">
        <ele>1904</ele>
        <time>2013-02-10T11:43:25Z</time>
      </trkpt>
      <trkpt lat="45.25384" lon="6.02521">
        <ele>1919</ele>
        <time>2013-02-10T11:43:40Z</time>
      </trkpt>
      <trkpt lat="45.25402" lon="6.0255">
        <ele>1924</ele>
        <time>2013-02-10T11:43:53Z</time>
      </trkpt>
      <trkpt lat="45.25413" lon="6.02567">
        <ele>1929</ele>
        <time>2013-02-10T11:44:00Z</time>
      </trkpt>
      <trkpt lat="45.25426" lon="6.02591">
        <ele>1945</ele>
        <time>2013-02-10T11:44:10Z</time>
      </trkpt>
      <trkpt lat="45.25443" lon="6.02619">
        <ele>1955</ele>
        <time>2013-02-10T11:44:22Z</time>
      </trkpt>
      <trkpt lat="45.25457" lon="6.0264">
        <ele>1959</ele>
        <time>2013-02-10T11:44:31Z</time>
      </trkpt>
      <trkpt lat="45.25472" lon="6.02663">
        <ele>1964</ele>
        <time>2013-02-10T11:44:41Z</time>
      </trkpt>
      <trkpt lat="45.25491" lon="6.02692">
        <ele>1976</ele>
        <time>2013-02-10T11:44:53Z</time>
      </trkpt>
      <trkpt lat="45.25511" lon="6.02725">
        <ele>1997</ele>
        <time>2013-02-10T11:45:07Z</time>
      </trkpt>
      <trkpt lat="45.25533" lon="6.02761">
        <ele>2010</ele>
        <time>2013-02-10T11:45:22Z</time>
      </trkpt>
      <trkpt lat="45.25546" lon="6.02784">
        <ele>2015</ele>
        <time>2013-02-10T11:45:33Z</time>
      </trkpt>
      <trkpt lat="45.25564" lon="6.02811">
        <ele>2022</ele>
        <time>2013-02-10T11:45:45Z</time>
      </trkpt>
      <trkpt lat="45.25576" lon="6.02832">
        <ele>2032</ele>
        <time>2013-02-10T11:45:54Z</time>
      </trkpt>
      <trkpt lat="45.2559" lon="6.02854">
        <ele>2051</ele>
        <time>2013-02-10T11:46:04Z</time>
      </trkpt>
      <trkpt lat="45.25605" lon="6.02878">
        <ele>2059</ele>
        <time>2013-02-10T11:46:15Z</time>
      </trkpt>
      <trkpt lat="45.25621" lon="6.02904">
        <ele>2064</ele>
        <time>2013-02-10T11:46:27Z</time>
      </trkpt>
      <trkpt lat="45.25637" lon="6.02928">
        <ele>2081</ele>
        <time>2013-02-10T11:46:37Z</time>
      </trkpt>
      <trkpt lat="45.25651" lon="6.02951">
        <ele>2085</ele>
        <time>2013-02-10T11:46:47Z</time>
      </trkpt>
      <trkpt lat="45.25663" lon="6.0297">
        <ele>2090</ele>
        <time>2013-02-10T11:46:56Z</time>
      </trkpt>
      <trkpt lat="45.25671" lon="6.02985">
        <ele>2100</ele>
        <time>2013-02-10T11:47:02Z</time>
      </trkpt>
      <trkpt lat="45.25683" lon="6.03006">
        <ele>2102</ele>
        <time>2013-02-10T11:47:10Z</time>
      </trkpt>
      <trkpt lat="45.25684" lon="6.03011">
        <ele>2101</ele>
        <time>2013-02-10T11:47:11Z</time>
      </trkpt>
      <trkpt lat="45.25683" lon="6.03026">
        <ele>2099</ele>
        <time>2013-02-10T11:47:16Z</time>
      </trkpt>
      <trkpt lat="45.25683" lon="6.03025">
        <ele>2099</ele>
        <time>2013-02-10T11:47:25Z</time>
      </trkpt>
      <trkpt lat="45.25682" lon="6.03024">
        <ele>2100</ele>
        <time>2013-02-10T11:48:03Z</time>
      </trkpt>
      <trkpt lat="45.25682" lon="6.03026">
        <ele>2099</ele>
        <time>2013-02-10T11:48:09Z</time>
      </trkpt>
      <trkpt lat="45.25681" lon="6.03028">
        <ele>2099</ele>
        <time>2013-02-10T11:48:24Z</time>
      </trkpt>
      <trkpt lat="45.25679" lon="6.03029">
        <ele>2099</ele>
        <time>2013-02-10T11:48:32Z</time>
      </trkpt>
      <trkpt lat="45.25675" lon="6.03034">
        <ele>2099</ele>
        <time>2013-02-10T11:48:40Z</time>
      </trkpt>
      <trkpt lat="45.25668" lon="6.03041">
        <ele>2100</ele>
        <time>2013-02-10T11:48:48Z</time>
      </trkpt>
      <trkpt lat="45.25654" lon="6.03055">
        <ele>2097</ele>
        <time>2013-02-10T11:48:56Z</time>
      </trkpt>
      <trkpt lat="45.25646" lon="6.0307">
        <ele>2097</ele>
        <time>2013-02-10T11:49:01Z</time>
      </trkpt>
      <trkpt lat="45.25638" lon="6.03084">
        <ele>2095</ele>
        <time>2013-02-10T11:49:04Z</time>
      </trkpt>
      <trkpt lat="45.25627" lon="6.03101">
        <ele>2093</ele>
        <time>2013-02-10T11:49:07Z</time>
      </trkpt>
      <trkpt lat="45.25617" lon="6.0313">
        <ele>2091</ele>
        <time>2013-02-10T11:49:11Z</time>
      </trkpt>
      <trkpt lat="45.25622" lon="6.03144">
        <ele>2090</ele>
        <time>2013-02-10T11:49:13Z</time>
      </trkpt>
      <trkpt lat="45.2564" lon="6.03159">
        <ele>2088</ele>
        <time>2013-02-10T11:49:16Z</time>
      </trkpt>
      <trkpt lat="45.25676" lon="6.03179">
        <ele>2068</ele>
        <time>2013-02-10T11:49:21Z</time>
      </trkpt>
      <trkpt lat="45.25685" lon="6.0318">
        <ele>2065</ele>
        <time>2013-02-10T11:49:22Z</time>
      </trkpt>
      <trkpt lat="45.25712" lon="6.03187">
        <ele>2058</ele>
        <time>2013-02-10T11:49:25Z</time>
      </trkpt>
      <trkpt lat="45.2574" lon="6.03195">
        <ele>2055</ele>
        <time>2013-02-10T11:49:28Z</time>
      </trkpt>
      <trkpt lat="45.25776" lon="6.03216">
        <ele>2043</ele>
        <time>2013-02-10T11:49:32Z</time>
      </trkpt>
      <trkpt lat="45.25798" lon="6.03235">
        <ele>2041</ele>
        <time>2013-02-10T11:49:35Z</time>
      </trkpt>
      <trkpt lat="45.25801" lon="6.0324">
        <ele>2041</ele>
        <time>2013-02-10T11:49:36Z</time>
      </trkpt>
      <trkpt lat="45.258" lon="6.03239">
        <ele>2041</ele>
        <time>2013-02-10T11:49:43Z</time>
      </trkpt>
      <trkpt lat="45.258" lon="6.0324">
        <ele>2041</ele>
        <time>2013-02-10T11:49:53Z</time>
      </trkpt>
      <trkpt lat="45.25801" lon="6.03241">
        <ele>2041</ele>
        <time>2013-02-10T11:50:00Z</time>
      </trkpt>
      <trkpt lat="45.25807" lon="6.03267">
        <ele>2037</ele>
        <time>2013-02-10T11:50:04Z</time>
      </trkpt>
      <trkpt lat="45.25813" lon="6.03279">
        <ele>2036</ele>
        <time>2013-02-10T11:50:05Z</time>
      </trkpt>
      <trkpt lat="45.25847" lon="6.03354">
        <ele>2031</ele>
        <time>2013-02-10T11:50:10Z</time>
      </trkpt>
      <trkpt lat="45.25877" lon="6.03412">
        <ele>2030</ele>
        <time>2013-02-10T11:50:14Z</time>
      </trkpt>
      <trkpt lat="45.2591" lon="6.03466">
        <ele>2021</ele>
        <time>2013-02-10T11:50:19Z</time>
      </trkpt>
      <trkpt lat="45.25951" lon="6.03539">
        <ele>2013</ele>
        <time>2013-02-10T11:50:26Z</time>
      </trkpt>
      <trkpt lat="45.25983" lon="6.03595">
        <ele>1995</ele>
        <time>2013-02-10T11:50:31Z</time>
      </trkpt>
      <trkpt lat="45.26016" lon="6.03633">
        <ele>2000</ele>
        <time>2013-02-10T11:50:35Z</time>
      </trkpt>
      <trkpt lat="45.2605" lon="6.03694">
        <ele>1982</ele>
        <time>2013-02-10T11:50:40Z</time>
      </trkpt>
      <trkpt lat="45.26067" lon="6.03734">
        <ele>1979</ele>
        <time>2013-02-10T11:50:43Z</time>
      </trkpt>
      <trkpt lat="45.26083" lon="6.03771">
        <ele>1965</ele>
        <time>2013-02-10T11:50:46Z</time>
      </trkpt>
      <trkpt lat="45.26122" lon="6.03843">
        <ele>1956</ele>
        <time>2013-02-10T11:50:52Z</time>
      </trkpt>
      <trkpt lat="45.26129" lon="6.03855">
        <ele>1956</ele>
        <time>2013-02-10T11:50:53Z</time>
      </trkpt>
      <trkpt lat="45.26162" lon="6.03891">
        <ele>1952</ele>
        <time>2013-02-10T11:50:57Z</time>
      </trkpt>
      <trkpt lat="45.26168" lon="6.03895">
        <ele>1960</ele>
        <time>2013-02-10T11:50:58Z</time>
      </trkpt>
      <trkpt lat="45.26168" lon="6.03898">
        <ele>1959</ele>
        <time>2013-02-10T11:51:02Z</time>
      </trkpt>
      <trkpt lat="45.26167" lon="6.03898">
        <ele>1959</ele>
        <time>2013-02-10T11:51:10Z</time>
      </trkpt>
      <trkpt lat="45.2617" lon="6.03908">
        <ele>1954</ele>
        <time>2013-02-10T11:51:14Z</time>
      </trkpt>
      <trkpt lat="45.2618" lon="6.0393">
        <ele>1944</ele>
        <time>2013-02-10T11:51:17Z</time>
      </trkpt>
      <trkpt lat="45.26185" lon="6.03939">
        <ele>1943</ele>
        <time>2013-02-10T11:51:18Z</time>
      </trkpt>
      <trkpt lat="45.26214" lon="6.03971">
        <ele>1940</ele>
        <time>2013-02-10T11:51:22Z</time>
      </trkpt>
      <trkpt lat="45.26222" lon="6.03979">
        <ele>1939</ele>
        <time>2013-02-10T11:51:23Z</time>
      </trkpt>
      <trkpt lat="45.26249" lon="6.04005">
        <ele>1932</ele>
        <time>2013-02-10T11:51:26Z</time>
      </trkpt>
      <trkpt lat="45.26265" lon="6.04026">
        <ele>1925</ele>
        <time>2013-02-10T11:51:28Z</time>
      </trkpt>
      <trkpt lat="45.26298" lon="6.04064">
        <ele>1918</ele>
        <time>2013-02-10T11:51:32Z</time>
      </trkpt>
      <trkpt lat="45.26316" lon="6.04081">
        <ele>1914</ele>
        <time>2013-02-10T11:51:34Z</time>
      </trkpt>
      <trkpt lat="45.26356" lon="6.04102">
        <ele>1891</ele>
        <time>2013-02-10T11:51:38Z</time>
      </trkpt>
      <trkpt lat="45.26366" lon="6.04104">
        <ele>1888</ele>
        <time>2013-02-10T11:51:39Z</time>
      </trkpt>
      <trkpt lat="45.26417" lon="6.04103">
        <ele>1878</ele>
        <time>2013-02-10T11:51:44Z</time>
      </trkpt>
      <trkpt lat="45.26427" lon="6.04106">
        <ele>1876</ele>
        <time>2013-02-10T11:51:45Z</time>
      </trkpt>
      <trkpt lat="45.26469" lon="6.04113">
        <ele>1871</ele>
        <time>2013-02-10T11:51:50Z</time>
      </trkpt>
      <trkpt lat="45.2651" lon="6.04118">
        <ele>1862</ele>
        <time>2013-02-10T11:51:54Z</time>
      </trkpt>
      <trkpt lat="45.26519" lon="6.04121">
        <ele>1862</ele>
        <time>2013-02-10T11:51:55Z</time>
      </trkpt>
      <trkpt lat="45.26541" lon="6.04129">
        <ele>1860</ele>
        <time>2013-02-10T11:51:58Z</time>
      </trkpt>
      <trkpt lat="45.2657" lon="6.04143">
        <ele>1857</ele>
        <time>2013-02-10T11:52:02Z</time>
      </trkpt>
      <trkpt lat="45.26599" lon="6.04153">
        <ele>1848</ele>
        <time>2013-02-10T11:52:05Z</time>
      </trkpt>
      <trkpt lat="45.26619" lon="6.04177">
        <ele>1837</ele>
        <time>2013-02-10T11:52:08Z</time>
      </trkpt>
      <trkpt lat="45.26617" lon="6.04183">
        <ele>1837</ele>
        <time>2013-02-10T11:52:10Z</time>
      </trkpt>
      <trkpt lat="45.26618" lon="6.0418">
        <ele>1837</ele>
        <time>2013-02-10T11:52:14Z</time>
      </trkpt>
      <trkpt lat="45.26617" lon="6.04181">
        <ele>1837</ele>
        <time>2013-02-10T11:52:19Z</time>
      </trkpt>
      <trkpt lat="45.26616" lon="6.04181">
        <ele>1837</ele>
        <time>2013-02-10T11:52:29Z</time>
      </trkpt>
      <trkpt lat="45.26617" lon="6.04181">
        <ele>1837</ele>
        <time>2013-02-10T11:52:36Z</time>
      </trkpt>
      <trkpt lat="45.26636" lon="6.04182">
        <ele>1834</ele>
        <time>2013-02-10T11:52:40Z</time>
      </trkpt>
      <trkpt lat="45.2667" lon="6.04184">
        <ele>1821</ele>
        <time>2013-02-10T11:52:44Z</time>
      </trkpt>
      <trkpt lat="45.26698" lon="6.0419">
        <ele>1816</ele>
        <time>2013-02-10T11:52:47Z</time>
      </trkpt>
      <trkpt lat="45.26713" lon="6.04204">
        <ele>1812</ele>
        <time>2013-02-10T11:52:49Z</time>
      </trkpt>
      <trkpt lat="45.26731" lon="6.04236">
        <ele>1803</ele>
        <time>2013-02-10T11:52:52Z</time>
      </trkpt>
      <trkpt lat="45.26735" lon="6.04251">
        <ele>1792</ele>
        <time>2013-02-10T11:52:53Z</time>
      </trkpt>
      <trkpt lat="45.26757" lon="6.0432">
        <ele>1771</ele>
        <time>2013-02-10T11:52:58Z</time>
      </trkpt>
      <trkpt lat="45.26762" lon="6.04333">
        <ele>1770</ele>
        <time>2013-02-10T11:52:59Z</time>
      </trkpt>
      <trkpt lat="45.26786" lon="6.04407">
        <ele>1750</ele>
        <time>2013-02-10T11:53:04Z</time>
      </trkpt>
      <trkpt lat="45.26799" lon="6.04447">
        <ele>1734</ele>
        <time>2013-02-10T11:53:07Z</time>
      </trkpt>
      <trkpt lat="45.26808" lon="6.04471">
        <ele>1730</ele>
        <time>2013-02-10T11:53:09Z</time>
      </trkpt>
      <trkpt lat="45.26818" lon="6.04498">
        <ele>1723</ele>
        <time>2013-02-10T11:53:11Z</time>
      </trkpt>
      <trkpt lat="45.26815" lon="6.04536">
        <ele>1711</ele>
        <time>2013-02-10T11:53:14Z</time>
      </trkpt>
      <trkpt lat="45.26814" lon="6.04558">
        <ele>1706</ele>
        <time>2013-02-10T11:53:16Z</time>
      </trkpt>
      <trkpt lat="45.26829" lon="6.04613">
        <ele>1687</ele>
        <time>2013-02-10T11:53:20Z</time>
      </trkpt>
      <trkpt lat="45.26833" lon="6.04676">
        <ele>1665</ele>
        <time>2013-02-10T11:53:24Z</time>
      </trkpt>
      <trkpt lat="45.26831" lon="6.04686">
        <ele>1665</ele>
        <time>2013-02-10T11:53:25Z</time>
      </trkpt>
      <trkpt lat="45.26817" lon="6.04707">
        <ele>1663</ele>
        <time>2013-02-10T11:53:28Z</time>
      </trkpt>
      <trkpt lat="45.26815" lon="6.0471">
        <ele>1663</ele>
        <time>2013-02-10T11:53:30Z</time>
      </trkpt>
      <trkpt lat="45.26815" lon="6.0471">
        <ele>1663</ele>
        <time>2013-02-10T11:53:37Z</time>
      </trkpt>
      <trkpt lat="45.26816" lon="6.0471">
        <ele>1662</ele>
        <time>2013-02-10T11:53:47Z</time>
      </trkpt>
      <trkpt lat="45.26817" lon="6.04711">
        <ele>1662</ele>
        <time>2013-02-10T11:53:56Z</time>
      </trkpt>
      <trkpt lat="45.26828" lon="6.04724">
        <ele>1659</ele>
        <time>2013-02-10T11:54:00Z</time>
      </trkpt>
      <trkpt lat="45.26846" lon="6.04741">
        <ele>1648</ele>
        <time>2013-02-10T11:54:03Z</time>
      </trkpt>
      <trkpt lat="45.26861" lon="6.04752">
        <ele>1635</ele>
        <time>2013-02-10T11:54:05Z</time>
      </trkpt>
      <trkpt lat="45.26874" lon="6.0477">
        <ele>1631</ele>
        <time>2013-02-10T11:54:07Z</time>
      </trkpt>
      <trkpt lat="45.269" lon="6.0479">
        <ele>1627</ele>
        <time>2013-02-10T11:54:10Z</time>
      </trkpt>
      <trkpt lat="45.26913" lon="6.0481">
        <ele>1622</ele>
        <time>2013-02-10T11:54:12Z</time>
      </trkpt>
      <trkpt lat="45.26929" lon="6.04829">
        <ele>1615</ele>
        <time>2013-02-10T11:54:14Z</time>
      </trkpt>
      <trkpt lat="45.26967" lon="6.04883">
        <ele>1598</ele>
        <time>2013-02-10T11:54:19Z</time>
      </trkpt>
      <trkpt lat="45.26989" lon="6.04919">
        <ele>1585</ele>
        <time>2013-02-10T11:54:22Z</time>
      </trkpt>
      <trkpt lat="45.27006" lon="6.04962">
        <ele>1581</ele>
        <time>2013-02-10T11:54:25Z</time>
      </trkpt>
      <trkpt lat="45.27012" lon="6.04977">
        <ele>1579</ele>
        <time>2013-02-10T11:54:26Z</time>
      </trkpt>
      <trkpt lat="45.27038" lon="6.05049">
        <ele>1563</ele>
        <time>2013-02-10T11:54:31Z</time>
      </trkpt>
      <trkpt lat="45.27054" lon="6.05082">
        <ele>1559</ele>
        <time>2013-02-10T11:54:34Z</time>
      </trkpt>
      <trkpt lat="45.27063" lon="6.051">
        <ele>1548</ele>
        <time>2013-02-10T11:54:36Z</time>
      </trkpt>
      <trkpt lat="45.27058" lon="6.05109">
        <ele>1547</ele>
        <time>2013-02-10T11:54:41Z</time>
      </trkpt>
      <trkpt lat="45.27057" lon="6.05109">
        <ele>1547</ele>
        <time>2013-02-10T11:54:45Z</time>
      </trkpt>
      <trkpt lat="45.27056" lon="6.05108">
        <ele>1547</ele>
        <time>2013-02-10T11:54:50Z</time>
      </trkpt>
      <trkpt lat="45.27056" lon="6.05108">
        <ele>1547</ele>
        <time>2013-02-10T11:54:54Z</time>
      </trkpt>
      <trkpt lat="45.27061" lon="6.05125">
        <ele>1545</ele>
        <time>2013-02-10T11:54:58Z</time>
      </trkpt>
      <trkpt lat="45.27072" lon="6.05133">
        <ele>1544</ele>
        <time>2013-02-10T11:55:01Z</time>
      </trkpt>
      <trkpt lat="45.27072" lon="6.05133">
        <ele>1544</ele>
        <time>2013-02-10T11:55:04Z</time>
      </trkpt>
      <trkpt lat="45.27072" lon="6.05135">
        <ele>1544</ele>
        <time>2013-02-10T11:55:19Z</time>
      </trkpt>
      <trkpt lat="45.27072" lon="6.05135">
        <ele>1544</ele>
        <time>2013-02-10T11:55:30Z</time>
      </trkpt>
      <trkpt lat="45.27072" lon="6.05136">
        <ele>1544</ele>
        <time>2013-02-10T11:55:38Z</time>
      </trkpt>
      <trkpt lat="45.27078" lon="6.05152">
        <ele>1541</ele>
        <time>2013-02-10T11:55:41Z</time>
      </trkpt>
      <trkpt lat="45.27089" lon="6.05168">
        <ele>1533</ele>
        <time>2013-02-10T11:55:44Z</time>
      </trkpt>
      <trkpt lat="45.27097" lon="6.0518">
        <ele>1529</ele>
        <time>2013-02-10T11:55:48Z</time>
      </trkpt>
      <trkpt lat="45.27094" lon="6.05183">
        <ele>1529</ele>
        <time>2013-02-10T11:55:50Z</time>
      </trkpt>
      <trkpt lat="45.27093" lon="6.05185">
        <ele>1528</ele>
        <time>2013-02-10T11:55:54Z</time>
      </trkpt>
      <trkpt lat="45.27093" lon="6.05186">
        <ele>1528</ele>
        <time>2013-02-10T11:55:55Z</time>
      </trkpt>
      <trkpt lat="45.27093" lon="6.05208">
        <ele>1523</ele>
        <time>2013-02-10T11:55:58Z</time>
      </trkpt>
      <trkpt lat="45.27097" lon="6.05217">
        <ele>1521</ele>
        <time>2013-02-10T11:55:59Z</time>
      </trkpt>
      <trkpt lat="45.27106" lon="6.05238">
        <ele>1518</ele>
        <time>2013-02-10T11:56:01Z</time>
      </trkpt>
      <trkpt lat="45.27129" lon="6.05276">
        <ele>1499</ele>
        <time>2013-02-10T11:56:05Z</time>
      </trkpt>
      <trkpt lat="45.27135" lon="6.05284">
        <ele>1498</ele>
        <time>2013-02-10T11:56:06Z</time>
      </trkpt>
      <trkpt lat="45.27157" lon="6.05335">
        <ele>1480</ele>
        <time>2013-02-10T11:56:11Z</time>
      </trkpt>
      <trkpt lat="45.27167" lon="6.05378">
        <ele>1474</ele>
        <time>2013-02-10T11:56:15Z</time>
      </trkpt>
      <trkpt lat="45.2717" lon="6.05413">
        <ele>1469</ele>
        <time>2013-02-10T11:56:18Z</time>
      </trkpt>
      <trkpt lat="45.27175" lon="6.05448">
        <ele>1464</ele>
        <time>2013-02-10T11:56:21Z</time>
      </trkpt>
      <trkpt lat="45.27189" lon="6.05471">
        <ele>1462</ele>
        <time>2013-02-10T11:56:24Z</time>
      </trkpt>
      <trkpt lat="45.2721" lon="6.05484">
        <ele>1462</ele>
        <time>2013-02-10T11:56:29Z</time>
      </trkpt>
      <trkpt lat="45.27217" lon="6.05483">
        <ele>1463</ele>
        <time>2013-02-10T11:56:35Z</time>
      </trkpt>
      <trkpt lat="45.27215" lon="6.05476">
        <ele>1463</ele>
        <time>2013-02-10T11:56:40Z</time>
      </trkpt>
      <trkpt lat="45.27211" lon="6.05475">
        <ele>1463</ele>
        <time>2013-02-10T11:56:45Z</time>
      </trkpt>
      <trkpt lat="45.27207" lon="6.05474">
        <ele>1463</ele>
        <time>2013-02-10T11:56:51Z</time>
      </trkpt>
      <trkpt lat="45.27204" lon="6.05473">
        <ele>1463</ele>
        <time>2013-02-10T11:56:53Z</time>
      </trkpt>
      <trkpt lat="45.27202" lon="6.05469">
        <ele>1463</ele>
        <time>2013-02-10T11:56:59Z</time>
      </trkpt>
      <trkpt lat="45.27204" lon="6.05467">
        <ele>1463</ele>
        <time>2013-02-10T11:57:07Z</time>
      </trkpt>
      <trkpt lat="45.27205" lon="6.05462">
        <ele>1464</ele>
        <time>2013-02-10T11:57:17Z</time>
      </trkpt>
      <trkpt lat="45.27206" lon="6.05457">
        <ele>1464</ele>
        <time>2013-02-10T11:57:23Z</time>
      </trkpt>
      <trkpt lat="45.27206" lon="6.05455">
        <ele>1464</ele>
        <time>2013-02-10T11:57:29Z</time>
      </trkpt>
      <trkpt lat="45.27206" lon="6.05447">
        <ele>1465</ele>
        <time>2013-02-10T11:57:42Z</time>
      </trkpt>
      <trkpt lat="45.27208" lon="6.05442">
        <ele>1465</ele>
        <time>2013-02-10T11:57:47Z</time>
      </trkpt>
      <trkpt lat="45.27213" lon="6.05436">
        <ele>1466</ele>
        <time>2013-02-10T11:57:54Z</time>
      </trkpt>
      <trkpt lat="45.27215" lon="6.05427">
        <ele>1467</ele>
        <time>2013-02-10T11:58:02Z</time>
      </trkpt>
      <trkpt lat="45.27216" lon="6.05414">
        <ele>1477</ele>
        <time>2013-02-10T11:58:13Z</time>
      </trkpt>
      <trkpt lat="45.27218" lon="6.05403">
        <ele>1478</ele>
        <time>2013-02-10T11:58:24Z</time>
      </trkpt>
      <trkpt lat="45.27221" lon="6.05393">
        <ele>1479</ele>
        <time>2013-02-10T11:58:35Z</time>
      </trkpt>
      <trkpt lat="45.27225" lon="6.0538">
        <ele>1481</ele>
        <time>2013-02-10T11:58:46Z</time>
      </trkpt>
      <trkpt lat="45.27227" lon="6.05369">
        <ele>1483</ele>
        <time>2013-02-10T11:58:58Z</time>
      </trkpt>
      <trkpt lat="45.27231" lon="6.05357">
        <ele>1486</ele>
        <time>2013-02-10T11:59:08Z</time>
      </trkpt>
      <trkpt lat="45.27231" lon="6.05354">
        <ele>1486</ele>
        <time>2013-02-10T11:59:10Z</time>
      </trkpt>
      <trkpt lat="45.27236" lon="6.05334">
        <ele>1491</ele>
        <time>2013-02-10T11:59:22Z</time>
      </trkpt>
      <trkpt lat="45.27242" lon="6.05312">
        <ele>1502</ele>
        <time>2013-02-10T11:59:31Z</time>
      </trkpt>
      <trkpt lat="45.27247" lon="6.05291">
        <ele>1506</ele>
        <time>2013-02-10T11:59:39Z</time>
      </trkpt>
      <trkpt lat="45.27255" lon="6.05263">
        <ele>1520</ele>
        <time>2013-02-10T11:59:50Z</time>
      </trkpt>
      <trkpt lat="45.27264" lon="6.05231">
        <ele>1534</ele>
        <time>2013-02-10T12:00:03Z</time>
      </trkpt>
      <trkpt lat="45.27268" lon="6.05211">
        <ele>1539</ele>
        <time>2013-02-10T12:00:12Z</time>
      </trkpt>
      <trkpt lat="45.27272" lon="6.05195">
        <ele>1541</ele>
        <time>2013-02-10T12:00:18Z</time>
      </trkpt>
      <trkpt lat="45.27276" lon="6.05175">
        <ele>1544</ele>
        <time>2013-02-10T12:00:26Z</time>
      </trkpt>
      <trkpt lat="45.2728" lon="6.05162">
        <ele>1557</ele>
        <time>2013-02-10T12:00:31Z</time>
      </trkpt>
      <trkpt lat="45.27285" lon="6.05147">
        <ele>1559</ele>
        <time>2013-02-10T12:00:37Z</time>
      </trkpt>
      <trkpt lat="45.27289" lon="6.05131">
        <ele>1562</ele>
        <time>2013-02-10T12:00:43Z</time>
      </trkpt>
      <trkpt lat="45.27294" lon="6.05111">
        <ele>1565</ele>
        <time>2013-02-10T12:00:51Z</time>
      </trkpt>
      <trkpt lat="45.27298" lon="6.05095">
        <ele>1567</ele>
        <time>2013-02-10T12:00:57Z</time>
      </trkpt>
      <trkpt lat="45.27303" lon="6.05076">
        <ele>1585</ele>
        <time>2013-02-10T12:01:05Z</time>
      </trkpt>
      <trkpt lat="45.27308" lon="6.05056">
        <ele>1588</ele>
        <time>2013-02-10T12:01:13Z</time>
      </trkpt>
      <trkpt lat="45.27314" lon="6.0503">
        <ele>1594</ele>
        <time>2013-02-10T12:01:24Z</time>
      </trkpt>
      <trkpt lat="45.27321" lon="6.05002">
        <ele>1603</ele>
        <time>2013-02-10T12:01:36Z</time>
      </trkpt>
      <trkpt lat="45.27327" lon="6.04977">
        <ele>1621</ele>
        <time>2013-02-10T12:01:47Z</time>
      </trkpt>
      <trkpt lat="45.27332" lon="6.04958">
        <ele>1628</ele>
        <time>2013-02-10T12:01:55Z</time>
      </trkpt>
      <trkpt lat="45.27338" lon="6.04934">
        <ele>1647</ele>
        <time>2013-02-10T12:02:05Z</time>
      </trkpt>
      <trkpt lat="45.27345" lon="6.04906">
        <ele>1663</ele>
        <time>2013-02-10T12:02:17Z</time>
      </trkpt>
      <trkpt lat="45.2735" lon="6.04888">
        <ele>1670</ele>
        <time>2013-02-10T12:02:25Z</time>
      </trkpt>
      <trkpt lat="45.27358" lon="6.04858">
        <ele>1676</ele>
        <time>2013-02-10T12:02:37Z</time>
      </trkpt>
      <trkpt lat="45.27366" lon="6.04828">
        <ele>1695</ele>
        <time>2013-02-10T12:02:49Z</time>
      </trkpt>
      <trkpt lat="45.27375" lon="6.04791">
        <ele>1701</ele>
        <time>2013-02-10T12:03:04Z</time>
      </trkpt>
      <trkpt lat="45.27382" lon="6.04764">
        <ele>1706</ele>
        <time>2013-02-10T12:03:15Z</time>
      </trkpt>
      <trkpt lat="45.27391" lon="6.04725">
        <ele>1726</ele>
        <time>2013-02-10T12:03:31Z</time>
      </trkpt>
      <trkpt lat="45.27397" lon="6.04702">
        <ele>1731</ele>
        <time>2013-02-10T12:03:41Z</time>
      </trkpt>
      <trkpt lat="45.27403" lon="6.04679">
        <ele>1737</ele>
        <time>2013-02-10T12:03:50Z</time>
      </trkpt>
      <trkpt lat="45.27412" lon="6.04644">
        <ele>1752</ele>
        <time>2013-02-10T12:04:04Z</time>
      </trkpt>
      <trkpt lat="45.27418" lon="6.04617">
        <ele>1763</ele>
        <time>2013-02-10T12:04:15Z</time>
      </trkpt>
      <trkpt lat="45.27424" lon="6.04593">
        <ele>1767</ele>
        <time>2013-02-10T12:04:24Z</time>
      </trkpt>
      <trkpt lat="45.27432" lon="6.04557">
        <ele>1780</ele>
        <time>2013-02-10T12:04:38Z</time>
      </trkpt>
      <trkpt lat="45.27439" lon="6.04527">
        <ele>1784</ele>
        <time>2013-02-10T12:04:50Z</time>
      </trkpt>
      <trkpt lat="45.27444" lon="6.04503">
        <ele>1786</ele>
        <time>2013-02-10T12:04:59Z</time>
      </trkpt>
      <trkpt lat="45.27454" lon="6.04461">
        <ele>1800</ele>
        <time>2013-02-10T12:05:15Z</time>
      </trkpt>
      <trkpt lat="45.27467" lon="6.04409">
        <ele>1817</ele>
        <time>2013-02-10T12:05:35Z</time>
      </trkpt>
      <trkpt lat="45.27477" lon="6.04365">
        <ele>1823</ele>
        <time>2013-02-10T12:05:52Z</time>
      </trkpt>
      <trkpt lat="45.27485" lon="6.04332">
        <ele>1838</ele>
        <time>2013-02-10T12:06:05Z</time>
      </trkpt>
      <trkpt lat="45.27497" lon="6.04282">
        <ele>1844</ele>
        <time>2013-02-10T12:06:24Z</time>
      </trkpt>
      <trkpt lat="45.27509" lon="6.04235">
        <ele>1860</ele>
        <time>2013-02-10T12:06:42Z</time>
      </trkpt>
      <trkpt lat="45.27515" lon="6.04213">
        <ele>1865</ele>
        <time>2013-02-10T12:06:51Z</time>
      </trkpt>
      <trkpt lat="45.27522" lon="6.04178">
        <ele>1869</ele>
        <time>2013-02-10T12:07:04Z</time>
      </trkpt>
      <trkpt lat="45.27531" lon="6.04141">
        <ele>1879</ele>
        <time>2013-02-10T12:07:18Z</time>
      </trkpt>
      <trkpt lat="45.27536" lon="6.04127">
        <ele>1880</ele>
        <time>2013-02-10T12:07:25Z</time>
      </trkpt>
      <trkpt lat="45.27537" lon="6.04117">
        <ele>1881</ele>
        <time>2013-02-10T12:07:34Z</time>
      </trkpt>
      <trkpt lat="45.27541" lon="6.04107">
        <ele>1882</ele>
        <time>2013-02-10T12:07:41Z</time>
      </trkpt>
      <trkpt lat="45.27546" lon="6.04096">
        <ele>1882</ele>
        <time>2013-02-10T12:07:46Z</time>
      </trkpt>
      <trkpt lat="45.27554" lon="6.04092">
        <ele>1882</ele>
        <time>2013-02-10T12:07:53Z</time>
      </trkpt>
      <trkpt lat="45.2756" lon="6.04094">
        <ele>1882</ele>
        <time>2013-02-10T12:08:00Z</time>
      </trkpt>
      <trkpt lat="45.27564" lon="6.04098">
        <ele>1881</ele>
        <time>2013-02-10T12:08:07Z</time>
      </trkpt>
      <trkpt lat="45.27567" lon="6.041">
        <ele>1881</ele>
        <time>2013-02-10T12:08:15Z</time>
      </trkpt>
      <trkpt lat="45.27571" lon="6.04103">
        <ele>1881</ele>
        <time>2013-02-10T12:08:21Z</time>
      </trkpt>
      <trkpt lat="45.27574" lon="6.04106">
        <ele>1881</ele>
        <time>2013-02-10T12:08:27Z</time>
      </trkpt>
      <trkpt lat="45.27574" lon="6.04106">
        <ele>1881</ele>
        <time>2013-02-10T12:08:35Z</time>
      </trkpt>
      <trkpt lat="45.27574" lon="6.04104">
        <ele>1881</ele>
        <time>2013-02-10T12:09:01Z</time>
      </trkpt>
      <trkpt lat="45.27575" lon="6.04106">
        <ele>1881</ele>
        <time>2013-02-10T12:09:07Z</time>
      </trkpt>
      <trkpt lat="45.27579" lon="6.04112">
        <ele>1881</ele>
        <time>2013-02-10T12:09:13Z</time>
      </trkpt>
      <trkpt lat="45.27589" lon="6.04119">
        <ele>1877</ele>
        <time>2013-02-10T12:09:18Z</time>
      </trkpt>
      <trkpt lat="45.27603" lon="6.04124">
        <ele>1876</ele>
        <time>2013-02-10T12:09:22Z</time>
      </trkpt>
      <trkpt lat="45.27623" lon="6.04127">
        <ele>1875</ele>
        <time>2013-02-10T12:09:25Z</time>
      </trkpt>
      <trkpt lat="45.27643" lon="6.04131">
        <ele>1873</ele>
        <time>2013-02-10T12:09:27Z</time>
      </trkpt>
      <trkpt lat="45.27684" lon="6.0414">
        <ele>1864</ele>
        <time>2013-02-10T12:09:31Z</time>
      </trkpt>
      <trkpt lat="45.27702" lon="6.04153">
        <ele>1862</ele>
        <time>2013-02-10T12:09:33Z</time>
      </trkpt>
      <trkpt lat="45.27751" lon="6.042">
        <ele>1849</ele>
        <time>2013-02-10T12:09:38Z</time>
      </trkpt>
      <trkpt lat="45.2777" lon="6.04215">
        <ele>1849</ele>
        <time>2013-02-10T12:09:40Z</time>
      </trkpt>
      <trkpt lat="45.2781" lon="6.04258">
        <ele>1844</ele>
        <time>2013-02-10T12:09:44Z</time>
      </trkpt>
      <trkpt lat="45.27819" lon="6.0427">
        <ele>1844</ele>
        <time>2013-02-10T12:09:45Z</time>
      </trkpt>
      <trkpt lat="45.27845" lon="6.04319">
        <ele>1836</ele>
        <time>2013-02-10T12:09:49Z</time>
      </trkpt>
      <trkpt lat="45.27851" lon="6.04335">
        <ele>1834</ele>
        <time>2013-02-10T12:09:50Z</time>
      </trkpt>
      <trkpt lat="45.27875" lon="6.04397">
        <ele>1831</ele>
        <time>2013-02-10T12:09:54Z</time>
      </trkpt>
      <trkpt lat="45.27903" lon="6.04474">
        <ele>1824</ele>
        <time>2013-02-10T12:10:00Z</time>
      </trkpt>
      <trkpt lat="45.27916" lon="6.04517">
        <ele>1817</ele>
        <time>2013-02-10T12:10:03Z</time>
      </trkpt>
      <trkpt lat="45.27928" lon="6.0459">
        <ele>1807</ele>
        <time>2013-02-10T12:10:07Z</time>
      </trkpt>
      <trkpt lat="45.27938" lon="6.04679">
        <ele>1801</ele>
        <time>2013-02-10T12:10:12Z</time>
      </trkpt>
      <trkpt lat="45.27952" lon="6.04738">
        <ele>1799</ele>
        <time>2013-02-10T12:10:16Z</time>
      </trkpt>
      <trkpt lat="45.27957" lon="6.04769">
        <ele>1794</ele>
        <time>2013-02-10T12:10:18Z</time>
      </trkpt>
      <trkpt lat="45.27952" lon="6.04805">
        <ele>1791</ele>
        <time>2013-02-10T12:10:21Z</time>
      </trkpt>
      <trkpt lat="45.27949" lon="6.04813">
        <ele>1790</ele>
        <time>2013-02-10T12:10:22Z</time>
      </trkpt>
      <trkpt lat="45.27942" lon="6.04843">
        <ele>1782</ele>
        <time>2013-02-10T12:10:26Z</time>
      </trkpt>
      <trkpt lat="45.27938" lon="6.0486">
        <ele>1782</ele>
        <time>2013-02-10T12:10:28Z</time>
      </trkpt>
      <trkpt lat="45.27935" lon="6.04892">
        <ele>1779</ele>
        <time>2013-02-10T12:10:32Z</time>
      </trkpt>
      <trkpt lat="45.27939" lon="6.04934">
        <ele>1772</ele>
        <time>2013-02-10T12:10:36Z</time>
      </trkpt>
      <trkpt lat="45.27952" lon="6.0497">
        <ele>1772</ele>
        <time>2013-02-10T12:10:41Z</time>
      </trkpt>
      <trkpt lat="45.27958" lon="6.05001">
        <ele>1765</ele>
        <time>2013-02-10T12:10:46Z</time>
      </trkpt>
      <trkpt lat="45.27958" lon="6.05009">
        <ele>1765</ele>
        <time>2013-02-10T12:10:48Z</time>
      </trkpt>
      <trkpt lat="45.27959" lon="6.0502">
        <ele>1765</ele>
        <time>2013-02-10T12:10:53Z</time>
      </trkpt>
      <trkpt lat="45.27959" lon="6.05025">
        <ele>1765</ele>
        <time>2013-02-10T12:11:00Z</time>
      </trkpt>
      <trkpt lat="45.27961" lon="6.05028">
        <ele>1765</ele>
        <time>2013-02-10T12:11:27Z</time>
      </trkpt>
      <trkpt lat="45.27965" lon="6.05044">
        <ele>1764</ele>
        <time>2013-02-10T12:11:31Z</time>
      </trkpt>
      <trkpt lat="45.27968" lon="6.05065">
        <ele>1764</ele>
        <time>2013-02-10T12:11:33Z</time>
      </trkpt>
      <trkpt lat="45.27955" lon="6.05084">
        <ele>1755</ele>
        <time>2013-02-10T12:11:36Z</time>
      </trkpt>
      <trkpt lat="45.27938" lon="6.0508">
        <ele>1757</ele>
        <time>2013-02-10T12:11:38Z</time>
      </trkpt>
      <trkpt lat="45.2793" lon="6.05076">
        <ele>1755</ele>
        <time>2013-02-10T12:11:39Z</time>
      </trkpt>
      <trkpt lat="45.27903" lon="6.05061">
        <ele>1746</ele>
        <time>2013-02-10T12:11:42Z</time>
      </trkpt>
      <trkpt lat="45.27888" lon="6.05048">
        <ele>1745</ele>
        <time>2013-02-10T12:11:44Z</time>
      </trkpt>
      <trkpt lat="45.27854" lon="6.05032">
        <ele>1743</ele>
        <time>2013-02-10T12:11:50Z</time>
      </trkpt>
      <trkpt lat="45.27831" lon="6.05028">
        <ele>1732</ele>
        <time>2013-02-10T12:11:54Z</time>
      </trkpt>
      <trkpt lat="45.27816" lon="6.05014">
        <ele>1733</ele>
        <time>2013-02-10T12:11:57Z</time>
      </trkpt>
      <trkpt lat="45.27789" lon="6.05006">
        <ele>1729</ele>
        <time>2013-02-10T12:12:02Z</time>
      </trkpt>
      <trkpt lat="45.27776" lon="6.05001">
        <ele>1727</ele>
        <time>2013-02-10T12:12:04Z</time>
      </trkpt>
      <trkpt lat="45.27755" lon="6.04983">
        <ele>1732</ele>
        <time>2013-02-10T12:12:08Z</time>
      </trkpt>
      <trkpt lat="45.2775" lon="6.0498">
        <ele>1726</ele>
        <time>2013-02-10T12:12:09Z</time>
      </trkpt>
      <trkpt lat="45.27714" lon="6.04967">
        <ele>1725</ele>
        <time>2013-02-10T12:12:14Z</time>
      </trkpt>
      <trkpt lat="45.27708" lon="6.04965">
        <ele>1724</ele>
        <time>2013-02-10T12:12:15Z</time>
      </trkpt>
      <trkpt lat="45.27676" lon="6.04963">
        <ele>1722</ele>
        <time>2013-02-10T12:12:20Z</time>
      </trkpt>
      <trkpt lat="45.27636" lon="6.04952">
        <ele>1710</ele>
        <time>2013-02-10T12:12:25Z</time>
      </trkpt>
      <trkpt lat="45.27615" lon="6.04935">
        <ele>1709</ele>
        <time>2013-02-10T12:12:28Z</time>
      </trkpt>
      <trkpt lat="45.27612" lon="6.04929">
        <ele>1709</ele>
        <time>2013-02-10T12:12:29Z</time>
      </trkpt>
      <trkpt lat="45.27592" lon="6.04921">
        <ele>1709</ele>
        <time>2013-02-10T12:12:33Z</time>
      </trkpt>
      <trkpt lat="45.27561" lon="6.04907">
        <ele>1706</ele>
        <time>2013-02-10T12:12:37Z</time>
      </trkpt>
      <trkpt lat="45.27545" lon="6.04897">
        <ele>1704</ele>
        <time>2013-02-10T12:12:39Z</time>
      </trkpt>
      <trkpt lat="45.27518" lon="6.04887">
        <ele>1701</ele>
        <time>2013-02-10T12:12:43Z</time>
      </trkpt>
      <trkpt lat="45.27511" lon="6.04886">
        <ele>1700</ele>
        <time>2013-02-10T12:12:44Z</time>
      </trkpt>
      <trkpt lat="45.27489" lon="6.04878">
        <ele>1690</ele>
        <time>2013-02-10T12:12:47Z</time>
      </trkpt>
      <trkpt lat="45.27463" lon="6.04876">
        <ele>1689</ele>
        <time>2013-02-10T12:12:51Z</time>
      </trkpt>
      <trkpt lat="45.27432" lon="6.04876">
        <ele>1686</ele>
        <time>2013-02-10T12:12:55Z</time>
      </trkpt>
      <trkpt lat="45.27414" lon="6.04867">
        <ele>1679</ele>
        <time>2013-02-10T12:12:58Z</time>
      </trkpt>
      <trkpt lat="45.27403" lon="6.04865">
        <ele>1679</ele>
        <time>2013-02-10T12:13:00Z</time>
      </trkpt>
      <trkpt lat="45.27378" lon="6.04865">
        <ele>1676</ele>
        <time>2013-02-10T12:13:05Z</time>
      </trkpt>
      <trkpt lat="45.27359" lon="6.04866">
        <ele>1675</ele>
        <time>2013-02-10T12:13:08Z</time>
      </trkpt>
      <trkpt lat="45.27334" lon="6.04864">
        <ele>1675</ele>
        <time>2013-02-10T12:13:12Z</time>
      </trkpt>
      <trkpt lat="45.27315" lon="6.04871">
        <ele>1662</ele>
        <time>2013-02-10T12:13:17Z</time>
      </trkpt>
      <trkpt lat="45.27282" lon="6.04864">
        <ele>1659</ele>
        <time>2013-02-10T12:13:22Z</time>
      </trkpt>
      <trkpt lat="45.27275" lon="6.04859">
        <ele>1659</ele>
        <time>2013-02-10T12:13:23Z</time>
      </trkpt>
      <trkpt lat="45.27234" lon="6.04851">
        <ele>1650</ele>
        <time>2013-02-10T12:13:28Z</time>
      </trkpt>
      <trkpt lat="45.27225" lon="6.04851">
        <ele>1648</ele>
        <time>2013-02-10T12:13:29Z</time>
      </trkpt>
      <trkpt lat="45.2719" lon="6.04843">
        <ele>1644</ele>
        <time>2013-02-10T12:13:33Z</time>
      </trkpt>
      <trkpt lat="45.27137" lon="6.04833">
        <ele>1642</ele>
        <time>2013-02-10T12:13:39Z</time>
      </trkpt>
      <trkpt lat="45.2712" lon="6.04825">
        <ele>1639</ele>
        <time>2013-02-10T12:13:41Z</time>
      </trkpt>
      <trkpt lat="45.27091" lon="6.04801">
        <ele>1638</ele>
        <time>2013-02-10T12:13:45Z</time>
      </trkpt>
      <trkpt lat="45.27044" lon="6.04766">
        <ele>1625</ele>
        <time>2013-02-10T12:13:51Z</time>
      </trkpt>
      <trkpt lat="45.27004" lon="6.04759">
        <ele>1621</ele>
        <time>2013-02-10T12:13:55Z</time>
      </trkpt>
      <trkpt lat="45.2699" lon="6.04766">
        <ele>1619</ele>
        <time>2013-02-10T12:13:57Z</time>
      </trkpt>
      <trkpt lat="45.26981" lon="6.04795">
        <ele>1615</ele>
        <time>2013-02-10T12:14:01Z</time>
      </trkpt>
      <trkpt lat="45.26986" lon="6.04817">
        <ele>1611</ele>
        <time>2013-02-10T12:14:03Z</time>
      </trkpt>
      <trkpt lat="45.26993" lon="6.0484">
        <ele>1602</ele>
        <time>2013-02-10T12:14:05Z</time>
      </trkpt>
      <trkpt lat="45.27" lon="6.0487">
        <ele>1600</ele>
        <time>2013-02-10T12:14:07Z</time>
      </trkpt>
      <trkpt lat="45.2701" lon="6.049">
        <ele>1594</ele>
        <time>2013-02-10T12:14:09Z</time>
      </trkpt>
      <trkpt lat="45.27016" lon="6.04931">
        <ele>1584</ele>
        <time>2013-02-10T12:14:11Z</time>
      </trkpt>
      <trkpt lat="45.27026" lon="6.04964">
        <ele>1581</ele>
        <time>2013-02-10T12:14:13Z</time>
      </trkpt>
      <trkpt lat="45.27036" lon="6.0502">
        <ele>1566</ele>
        <time>2013-02-10T12:14:17Z</time>
      </trkpt>
      <trkpt lat="45.2704" lon="6.05033">
        <ele>1564</ele>
        <time>2013-02-10T12:14:18Z</time>
      </trkpt>
      <trkpt lat="45.27065" lon="6.05084">
        <ele>1549</ele>
        <time>2013-02-10T12:14:23Z</time>
      </trkpt>
      <trkpt lat="45.2707" lon="6.05085">
        <ele>1550</ele>
        <time>2013-02-10T12:14:26Z</time>
      </trkpt>
      <trkpt lat="45.27069" lon="6.05085">
        <ele>1550</ele>
        <time>2013-02-10T12:14:33Z</time>
      </trkpt>
      <trkpt lat="45.27069" lon="6.05084">
        <ele>1550</ele>
        <time>2013-02-10T12:14:39Z</time>
      </trkpt>
      <trkpt lat="45.27068" lon="6.05085">
        <ele>1550</ele>
        <time>2013-02-10T12:14:49Z</time>
      </trkpt>
      <trkpt lat="45.27068" lon="6.05085">
        <ele>1550</ele>
        <time>2013-02-10T12:14:59Z</time>
      </trkpt>
      <trkpt lat="45.2707" lon="6.05085">
        <ele>1550</ele>
        <time>2013-02-10T12:15:26Z</time>
      </trkpt>
      <trkpt lat="45.2707" lon="6.05084">
        <ele>1550</ele>
        <time>2013-02-10T12:15:35Z</time>
      </trkpt>
      <trkpt lat="45.2707" lon="6.05084">
        <ele>1550</ele>
        <time>2013-02-10T12:15:53Z</time>
      </trkpt>
      <trkpt lat="45.27071" lon="6.05084">
        <ele>1550</ele>
        <time>2013-02-10T12:15:56Z</time>
      </trkpt>
      <trkpt lat="45.27071" lon="6.05084">
        <ele>1550</ele>
        <time>2013-02-10T12:16:07Z</time>
      </trkpt>
      <trkpt lat="45.2707" lon="6.05084">
        <ele>1550</ele>
        <time>2013-02-10T12:16:17Z</time>
      </trkpt>
      <trkpt lat="45.27072" lon="6.05086">
        <ele>1550</ele>
        <time>2013-02-10T12:16:21Z</time>
      </trkpt>
      <trkpt lat="45.27071" lon="6.05107">
        <ele>1548</ele>
        <time>2013-02-10T12:16:25Z</time>
      </trkpt>
      <trkpt lat="45.27067" lon="6.05121">
        <ele>1546</ele>
        <time>2013-02-10T12:16:27Z</time>
      </trkpt>
      <trkpt lat="45.27075" lon="6.05161">
        <ele>1539</ele>
        <time>2013-02-10T12:16:31Z</time>
      </trkpt>
      <trkpt lat="45.2708" lon="6.05185">
        <ele>1528</ele>
        <time>2013-02-10T12:16:33Z</time>
      </trkpt>
      <trkpt lat="45.27095" lon="6.05235">
        <ele>1516</ele>
        <time>2013-02-10T12:16:37Z</time>
      </trkpt>
      <trkpt lat="45.27117" lon="6.05272">
        <ele>1500</ele>
        <time>2013-02-10T12:16:40Z</time>
      </trkpt>
      <trkpt lat="45.27131" lon="6.05297">
        <ele>1496</ele>
        <time>2013-02-10T12:16:42Z</time>
      </trkpt>
      <trkpt lat="45.27135" lon="6.05355">
        <ele>1476</ele>
        <time>2013-02-10T12:16:46Z</time>
      </trkpt>
      <trkpt lat="45.27123" lon="6.05404">
        <ele>1472</ele>
        <time>2013-02-10T12:16:49Z</time>
      </trkpt>
      <trkpt lat="45.27119" lon="6.0542">
        <ele>1462</ele>
        <time>2013-02-10T12:16:50Z</time>
      </trkpt>
      <trkpt lat="45.27092" lon="6.05474">
        <ele>1458</ele>
        <time>2013-02-10T12:16:55Z</time>
      </trkpt>
      <trkpt lat="45.27082" lon="6.05473">
        <ele>1455</ele>
        <time>2013-02-10T12:16:57Z</time>
      </trkpt>
      <trkpt lat="45.27076" lon="6.05469">
        <ele>1455</ele>
        <time>2013-02-10T12:16:59Z</time>
      </trkpt>
      <trkpt lat="45.27073" lon="6.05466">
        <ele>1455</ele>
        <time>2013-02-10T12:17:01Z</time>
      </trkpt>
      <trkpt lat="45.2707" lon="6.05463">
        <ele>1455</ele>
        <time>2013-02-10T12:17:03Z</time>
      </trkpt>
      <trkpt lat="45.27068" lon="6.05459">
        <ele>1455</ele>
        <time>2013-02-10T12:17:08Z</time>
      </trkpt>
      <trkpt lat="45.27069" lon="6.05459">
        <ele>1456</ele>
        <time>2013-02-10T12:17:16Z</time>
      </trkpt>
      <trkpt lat="45.2707" lon="6.0546">
        <ele>1455</ele>
        <time>2013-02-10T12:17:22Z</time>
      </trkpt>
      <trkpt lat="45.27068" lon="6.05456">
        <ele>1456</ele>
        <time>2013-02-10T12:17:27Z</time>
      </trkpt>
      <trkpt lat="45.27067" lon="6.05448">
        <ele>1456</ele>
        <time>2013-02-10T12:17:35Z</time>
      </trkpt>
      <trkpt lat="45.27059" lon="6.05431">
        <ele>1457</ele>
        <time>2013-02-10T12:17:39Z</time>
      </trkpt>
      <trkpt lat="45.27048" lon="6.054">
        <ele>1467</ele>
        <time>2013-02-10T12:17:44Z</time>
      </trkpt>
      <trkpt lat="45.27037" lon="6.05372">
        <ele>1469</ele>
        <time>2013-02-10T12:17:49Z</time>
      </trkpt>
      <trkpt lat="45.27023" lon="6.0534">
        <ele>1472</ele>
        <time>2013-02-10T12:17:55Z</time>
      </trkpt>
      <trkpt lat="45.27013" lon="6.05319">
        <ele>1485</ele>
        <time>2013-02-10T12:17:59Z</time>
      </trkpt>
      <trkpt lat="45.26999" lon="6.05287">
        <ele>1489</ele>
        <time>2013-02-10T12:18:05Z</time>
      </trkpt>
      <trkpt lat="45.26988" lon="6.05259">
        <ele>1496</ele>
        <time>2013-02-10T12:18:10Z</time>
      </trkpt>
      <trkpt lat="45.26978" lon="6.05233">
        <ele>1513</ele>
        <time>2013-02-10T12:18:15Z</time>
      </trkpt>
      <trkpt lat="45.26966" lon="6.05202">
        <ele>1519</ele>
        <time>2013-02-10T12:18:21Z</time>
      </trkpt>
      <trkpt lat="45.26953" lon="6.05172">
        <ele>1523</ele>
        <time>2013-02-10T12:18:27Z</time>
      </trkpt>
      <trkpt lat="45.26942" lon="6.05148">
        <ele>1542</ele>
        <time>2013-02-10T12:18:32Z</time>
      </trkpt>
      <trkpt lat="45.26923" lon="6.05101">
        <ele>1552</ele>
        <time>2013-02-10T12:18:41Z</time>
      </trkpt>
      <trkpt lat="45.26913" lon="6.05076">
        <ele>1561</ele>
        <time>2013-02-10T12:18:46Z</time>
      </trkpt>
      <trkpt lat="45.26909" lon="6.05065">
        <ele>1564</ele>
        <time>2013-02-10T12:18:48Z</time>
      </trkpt>
      <trkpt lat="45.26894" lon="6.05028">
        <ele>1571</ele>
        <time>2013-02-10T12:18:55Z</time>
      </trkpt>
      <trkpt lat="45.26881" lon="6.04997">
        <ele>1585</ele>
        <time>2013-02-10T12:19:01Z</time>
      </trkpt>
      <trkpt lat="45.2687" lon="6.0497">
        <ele>1587</ele>
        <time>2013-02-10T12:19:07Z</time>
      </trkpt>
      <trkpt lat="45.26864" lon="6.04954">
        <ele>1588</ele>
        <time>2013-02-10T12:19:13Z</time>
      </trkpt>
      <trkpt lat="45.2686" lon="6.04947">
        <ele>1589</ele>
        <time>2013-02-10T12:19:19Z</time>
      </trkpt>
      <trkpt lat="45.26857" lon="6.04939">
        <ele>1590</ele>
        <time>2013-02-10T12:19:26Z</time>
      </trkpt>
      <trkpt lat="45.26854" lon="6.0493">
        <ele>1591</ele>
        <time>2013-02-10T12:19:31Z</time>
      </trkpt>
      <trkpt lat="45.26847" lon="6.04911">
        <ele>1601</ele>
        <time>2013-02-10T12:19:38Z</time>
      </trkpt>
      <trkpt lat="45.26836" lon="6.04886">
        <ele>1605</ele>
        <time>2013-02-10T12:19:46Z</time>
      </trkpt>
      <trkpt lat="45.26826" lon="6.0486">
        <ele>1614</ele>
        <time>2013-02-10T12:19:52Z</time>
      </trkpt>
      <trkpt lat="45.26807" lon="6.04812">
        <ele>1634</ele>
        <time>2013-02-10T12:20:02Z</time>
      </trkpt>
      <trkpt lat="45.26791" lon="6.04773">
        <ele>1642</ele>
        <time>2013-02-10T12:20:10Z</time>
      </trkpt>
      <trkpt lat="45.26775" lon="6.04734">
        <ele>1663</ele>
        <time>2013-02-10T12:20:18Z</time>
      </trkpt>
      <trkpt lat="45.26753" lon="6.04682">
        <ele>1679</ele>
        <time>2013-02-10T12:20:29Z</time>
      </trkpt>
      <trkpt lat="45.26738" lon="6.04644">
        <ele>1707</ele>
        <time>2013-02-10T12:20:37Z</time>
      </trkpt>
      <trkpt lat="45.26726" lon="6.04615">
        <ele>1715</ele>
        <time>2013-02-10T12:20:43Z</time>
      </trkpt>
      <trkpt lat="45.26714" lon="6.04586">
        <ele>1720</ele>
        <time>2013-02-10T12:20:49Z</time>
      </trkpt>
      <trkpt lat="45.267" lon="6.04551">
        <ele>1740</ele>
        <time>2013-02-10T12:20:56Z</time>
      </trkpt>
      <trkpt lat="45.26687" lon="6.0452">
        <ele>1748</ele>
        <time>2013-02-10T12:21:02Z</time>
      </trkpt>
      <trkpt lat="45.26675" lon="6.04489">
        <ele>1764</ele>
        <time>2013-02-10T12:21:08Z</time>
      </trkpt>
      <trkpt lat="45.26661" lon="6.04454">
        <ele>1779</ele>
        <time>2013-02-10T12:21:15Z</time>
      </trkpt>
      <trkpt lat="45.26645" lon="6.04417">
        <ele>1784</ele>
        <time>2013-02-10T12:21:22Z</time>
      </trkpt>
      <trkpt lat="45.26624" lon="6.04365">
        <ele>1805</ele>
        <time>2013-02-10T12:21:32Z</time>
      </trkpt>
      <trkpt lat="45.26593" lon="6.04289">
        <ele>1825</ele>
        <time>2013-02-10T12:21:47Z</time>
      </trkpt>
      <trkpt lat="45.26574" lon="6.04242">
        <ele>1843</ele>
        <time>2013-02-10T12:21:56Z</time>
      </trkpt>
      <trkpt lat="45.26555" lon="6.04195">
        <ele>1848</ele>
        <time>2013-02-10T12:22:05Z</time>
      </trkpt>
      <trkpt lat="45.26537" lon="6.04152">
        <ele>1859</ele>
        <time>2013-02-10T12:22:13Z</time>
      </trkpt>
      <trkpt lat="45.26502" lon="6.04066">
        <ele>1872</ele>
        <time>2013-02-10T12:22:29Z</time>
      </trkpt>
      <trkpt lat="45.26476" lon="6.04003">
        <ele>1890</ele>
        <time>2013-02-10T12:22:41Z</time>
      </trkpt>
      <trkpt lat="45.26457" lon="6.03957">
        <ele>1908</ele>
        <time>2013-02-10T12:22:50Z</time>
      </trkpt>
      <trkpt lat="45.26441" lon="6.03912">
        <ele>1922</ele>
        <time>2013-02-10T12:22:58Z</time>
      </trkpt>
      <trkpt lat="45.26437" lon="6.03899">
        <ele>1923</ele>
        <time>2013-02-10T12:23:01Z</time>
      </trkpt>
      <trkpt lat="45.26433" lon="6.03885">
        <ele>1924</ele>
        <time>2013-02-10T12:23:06Z</time>
      </trkpt>
      <trkpt lat="45.26431" lon="6.03878">
        <ele>1924</ele>
        <time>2013-02-10T12:23:12Z</time>
      </trkpt>
      <trkpt lat="45.2643" lon="6.03877">
        <ele>1924</ele>
        <time>2013-02-10T12:23:21Z</time>
      </trkpt>
      <trkpt lat="45.26428" lon="6.03875">
        <ele>1924</ele>
        <time>2013-02-10T12:23:29Z</time>
      </trkpt>
      <trkpt lat="45.26427" lon="6.03875">
        <ele>1924</ele>
        <time>2013-02-10T12:23:46Z</time>
      </trkpt>
      <trkpt lat="45.26427" lon="6.03873">
        <ele>1925</ele>
        <time>2013-02-10T12:23:48Z</time>
      </trkpt>
      <trkpt lat="45.26434" lon="6.03866">
        <ele>1925</ele>
        <time>2013-02-10T12:23:53Z</time>
      </trkpt>
      <trkpt lat="45.26439" lon="6.03862">
        <ele>1924</ele>
        <time>2013-02-10T12:23:56Z</time>
      </trkpt>
      <trkpt lat="45.2644" lon="6.03861">
        <ele>1924</ele>
        <time>2013-02-10T12:24:02Z</time>
      </trkpt>
      <trkpt lat="45.26441" lon="6.03861">
        <ele>1924</ele>
        <time>2013-02-10T12:24:06Z</time>
      </trkpt>
      <trkpt lat="45.2646" lon="6.03866">
        <ele>1921</ele>
        <time>2013-02-10T12:24:10Z</time>
      </trkpt>
      <trkpt lat="45.26467" lon="6.03869">
        <ele>1920</ele>
        <time>2013-02-10T12:24:11Z</time>
      </trkpt>
      <trkpt lat="45.26485" lon="6.03869">
        <ele>1919</ele>
        <time>2013-02-10T12:24:13Z</time>
      </trkpt>
      <trkpt lat="45.26504" lon="6.03872">
        <ele>1911</ele>
        <time>2013-02-10T12:24:15Z</time>
      </trkpt>
      <trkpt lat="45.26535" lon="6.03896">
        <ele>1908</ele>
        <time>2013-02-10T12:24:19Z</time>
      </trkpt>
      <trkpt lat="45.26557" lon="6.03939">
        <ele>1891</ele>
        <time>2013-02-10T12:24:23Z</time>
      </trkpt>
      <trkpt lat="45.26562" lon="6.03986">
        <ele>1885</ele>
        <time>2013-02-10T12:24:26Z</time>
      </trkpt>
      <trkpt lat="45.2655" lon="6.04012">
        <ele>1876</ele>
        <time>2013-02-10T12:24:28Z</time>
      </trkpt>
      <trkpt lat="45.26529" lon="6.04042">
        <ele>1875</ele>
        <time>2013-02-10T12:24:31Z</time>
      </trkpt>
      <trkpt lat="45.26523" lon="6.0406">
        <ele>1873</ele>
        <time>2013-02-10T12:24:34Z</time>
      </trkpt>
      <trkpt lat="45.26523" lon="6.04061">
        <ele>1873</ele>
        <time>2013-02-10T12:24:35Z</time>
      </trkpt>
      <trkpt lat="45.26522" lon="6.04061">
        <ele>1873</ele>
        <time>2013-02-10T12:24:39Z</time>
      </trkpt>
      <trkpt lat="45.26521" lon="6.04079">
        <ele>1872</ele>
        <time>2013-02-10T12:24:43Z</time>
      </trkpt>
      <trkpt lat="45.26514" lon="6.04103">
        <ele>1864</ele>
        <time>2013-02-10T12:24:46Z</time>
      </trkpt>
      <trkpt lat="45.26509" lon="6.04136">
        <ele>1861</ele>
        <time>2013-02-10T12:24:49Z</time>
      </trkpt>
      <trkpt lat="45.26497" lon="6.0416">
        <ele>1862</ele>
        <time>2013-02-10T12:24:52Z</time>
      </trkpt>
      <trkpt lat="45.26497" lon="6.04168">
        <ele>1859</ele>
        <time>2013-02-10T12:24:54Z</time>
      </trkpt>
      <trkpt lat="45.26496" lon="6.04167">
        <ele>1859</ele>
        <time>2013-02-10T12:24:59Z</time>
      </trkpt>
      <trkpt lat="45.26496" lon="6.04168">
        <ele>1859</ele>
        <time>2013-02-10T12:25:05Z</time>
      </trkpt>
      <trkpt lat="45.26497" lon="6.04166">
        <ele>1861</ele>
        <time>2013-02-10T12:25:10Z</time>
      </trkpt>
      <trkpt lat="45.26495" lon="6.04164">
        <ele>1862</ele>
        <time>2013-02-10T12:25:17Z</time>
      </trkpt>
      <trkpt lat="45.26494" lon="6.04164">
        <ele>1862</ele>
        <time>2013-02-10T12:25:24Z</time>
      </trkpt>
      <trkpt lat="45.26493" lon="6.04164">
        <ele>1863</ele>
        <time>2013-02-10T12:25:30Z</time>
      </trkpt>
      <trkpt lat="45.26492" lon="6.04164">
        <ele>1863</ele>
        <time>2013-02-10T12:25:35Z</time>
      </trkpt>
      <trkpt lat="45.26493" lon="6.04164">
        <ele>1862</ele>
        <time>2013-02-10T12:25:44Z</time>
      </trkpt>
      <trkpt lat="45.26493" lon="6.04165">
        <ele>1862</ele>
        <time>2013-02-10T12:25:51Z</time>
      </trkpt>
      <trkpt lat="45.26494" lon="6.04166">
        <ele>1862</ele>
        <time>2013-02-10T12:25:59Z</time>
      </trkpt>
      <trkpt lat="45.26489" lon="6.04181">
        <ele>1855</ele>
        <time>2013-02-10T12:26:04Z</time>
      </trkpt>
      <trkpt lat="45.26486" lon="6.04187">
        <ele>1854</ele>
        <time>2013-02-10T12:26:05Z</time>
      </trkpt>
      <trkpt lat="45.26477" lon="6.04204">
        <ele>1852</ele>
        <time>2013-02-10T12:26:07Z</time>
      </trkpt>
      <trkpt lat="45.26467" lon="6.0423">
        <ele>1848</ele>
        <time>2013-02-10T12:26:11Z</time>
      </trkpt>
      <trkpt lat="45.26467" lon="6.04229">
        <ele>1848</ele>
        <time>2013-02-10T12:26:16Z</time>
      </trkpt>
      <trkpt lat="45.26466" lon="6.04229">
        <ele>1848</ele>
        <time>2013-02-10T12:26:23Z</time>
      </trkpt>
      <trkpt lat="45.26466" lon="6.04229">
        <ele>1848</ele>
        <time>2013-02-10T12:26:32Z</time>
      </trkpt>
      <trkpt lat="45.26466" lon="6.0423">
        <ele>1848</ele>
        <time>2013-02-10T12:26:33Z</time>
      </trkpt>
      <trkpt lat="45.26452" lon="6.0424">
        <ele>1847</ele>
        <time>2013-02-10T12:26:37Z</time>
      </trkpt>
      <trkpt lat="45.26437" lon="6.04247">
        <ele>1844</ele>
        <time>2013-02-10T12:26:39Z</time>
      </trkpt>
      <trkpt lat="45.26415" lon="6.04265">
        <ele>1833</ele>
        <time>2013-02-10T12:26:42Z</time>
      </trkpt>
      <trkpt lat="45.26404" lon="6.04296">
        <ele>1827</ele>
        <time>2013-02-10T12:26:45Z</time>
      </trkpt>
      <trkpt lat="45.26396" lon="6.04331">
        <ele>1819</ele>
        <time>2013-02-10T12:26:48Z</time>
      </trkpt>
      <trkpt lat="45.26393" lon="6.04358">
        <ele>1804</ele>
        <time>2013-02-10T12:26:50Z</time>
      </trkpt>
      <trkpt lat="45.26392" lon="6.04384">
        <ele>1800</ele>
        <time>2013-02-10T12:26:52Z</time>
      </trkpt>
      <trkpt lat="45.26392" lon="6.04419">
        <ele>1783</ele>
        <time>2013-02-10T12:26:55Z</time>
      </trkpt>
      <trkpt lat="45.26386" lon="6.04448">
        <ele>1780</ele>
        <time>2013-02-10T12:26:58Z</time>
      </trkpt>
      <trkpt lat="45.26377" lon="6.04465">
        <ele>1778</ele>
        <time>2013-02-10T12:27:00Z</time>
      </trkpt>
      <trkpt lat="45.26362" lon="6.04512">
        <ele>1761</ele>
        <time>2013-02-10T12:27:05Z</time>
      </trkpt>
      <trkpt lat="45.2636" lon="6.04555">
        <ele>1755</ele>
        <time>2013-02-10T12:27:08Z</time>
      </trkpt>
      <trkpt lat="45.26364" lon="6.0461">
        <ele>1736</ele>
        <time>2013-02-10T12:27:12Z</time>
      </trkpt>
      <trkpt lat="45.26366" lon="6.04636">
        <ele>1732</ele>
        <time>2013-02-10T12:27:14Z</time>
      </trkpt>
      <trkpt lat="45.26355" lon="6.04657">
        <ele>1729</ele>
        <time>2013-02-10T12:27:16Z</time>
      </trkpt>
      <trkpt lat="45.26353" lon="6.04679">
        <ele>1714</ele>
        <time>2013-02-10T12:27:18Z</time>
      </trkpt>
      <trkpt lat="45.26352" lon="6.04704">
        <ele>1709</ele>
        <time>2013-02-10T12:27:20Z</time>
      </trkpt>
      <trkpt lat="45.26342" lon="6.04725">
        <ele>1705</ele>
        <time>2013-02-10T12:27:22Z</time>
      </trkpt>
      <trkpt lat="45.26317" lon="6.04751">
        <ele>1691</ele>
        <time>2013-02-10T12:27:25Z</time>
      </trkpt>
      <trkpt lat="45.26274" lon="6.04758">
        <ele>1686</ele>
        <time>2013-02-10T12:27:29Z</time>
      </trkpt>
      <trkpt lat="45.26235" lon="6.04753">
        <ele>1683</ele>
        <time>2013-02-10T12:27:33Z</time>
      </trkpt>
      <trkpt lat="45.26218" lon="6.04753">
        <ele>1679</ele>
        <time>2013-02-10T12:27:35Z</time>
      </trkpt>
      <trkpt lat="45.26195" lon="6.04775">
        <ele>1674</ele>
        <time>2013-02-10T12:27:38Z</time>
      </trkpt>
      <trkpt lat="45.26182" lon="6.04798">
        <ele>1672</ele>
        <time>2013-02-10T12:27:40Z</time>
      </trkpt>
      <trkpt lat="45.26173" lon="6.04818">
        <ele>1668</ele>
        <time>2013-02-10T12:27:42Z</time>
      </trkpt>
      <trkpt lat="45.26159" lon="6.04827">
        <ele>1662</ele>
        <time>2013-02-10T12:27:45Z</time>
      </trkpt>
      <trkpt lat="45.26155" lon="6.04823">
        <ele>1662</ele>
        <time>2013-02-10T12:27:47Z</time>
      </trkpt>
      <trkpt lat="45.26154" lon="6.0482">
        <ele>1662</ele>
        <time>2013-02-10T12:27:53Z</time>
      </trkpt>
      <trkpt lat="45.26159" lon="6.04826">
        <ele>1662</ele>
        <time>2013-02-10T12:28:27Z</time>
      </trkpt>
      <trkpt lat="45.26155" lon="6.04823">
        <ele>1662</ele>
        <time>2013-02-10T12:28:45Z</time>
      </trkpt>
      <trkpt lat="45.26155" lon="6.04817">
        <ele>1662</ele>
        <time>2013-02-10T12:28:56Z</time>
      </trkpt>
      <trkpt lat="45.26146" lon="6.04805">
        <ele>1661</ele>
        <time>2013-02-10T12:29:00Z</time>
      </trkpt>
      <trkpt lat="45.26132" lon="6.04783">
        <ele>1662</ele>
        <time>2013-02-10T12:29:04Z</time>
      </trkpt>
      <trkpt lat="45.2612" lon="6.04757">
        <ele>1663</ele>
        <time>2013-02-10T12:29:09Z</time>
      </trkpt>
      <trkpt lat="45.26099" lon="6.04717">
        <ele>1679</ele>
        <time>2013-02-10T12:29:17Z</time>
      </trkpt>
      <trkpt lat="45.26079" lon="6.04679">
        <ele>1688</ele>
        <time>2013-02-10T12:29:25Z</time>
      </trkpt>
      <trkpt lat="45.26058" lon="6.0464">
        <ele>1705</ele>
        <time>2013-02-10T12:29:33Z</time>
      </trkpt>
      <trkpt lat="45.26038" lon="6.04603">
        <ele>1712</ele>
        <time>2013-02-10T12:29:41Z</time>
      </trkpt>
      <trkpt lat="45.26014" lon="6.04557">
        <ele>1733</ele>
        <time>2013-02-10T12:29:51Z</time>
      </trkpt>
      <trkpt lat="45.25992" lon="6.04515">
        <ele>1743</ele>
        <time>2013-02-10T12:30:00Z</time>
      </trkpt>
      <trkpt lat="45.25974" lon="6.04482">
        <ele>1759</ele>
        <time>2013-02-10T12:30:07Z</time>
      </trkpt>
      <trkpt lat="45.25952" lon="6.0444">
        <ele>1765</ele>
        <time>2013-02-10T12:30:16Z</time>
      </trkpt>
      <trkpt lat="45.2593" lon="6.04398">
        <ele>1786</ele>
        <time>2013-02-10T12:30:25Z</time>
      </trkpt>
      <trkpt lat="45.259" lon="6.04343">
        <ele>1802</ele>
        <time>2013-02-10T12:30:37Z</time>
      </trkpt>
      <trkpt lat="45.25876" lon="6.04297">
        <ele>1819</ele>
        <time>2013-02-10T12:30:47Z</time>
      </trkpt>
      <trkpt lat="45.25858" lon="6.04264">
        <ele>1824</ele>
        <time>2013-02-10T12:30:54Z</time>
      </trkpt>
      <trkpt lat="45.25838" lon="6.04226">
        <ele>1837</ele>
        <time>2013-02-10T12:31:02Z</time>
      </trkpt>
      <trkpt lat="45.25815" lon="6.04184">
        <ele>1843</ele>
        <time>2013-02-10T12:31:11Z</time>
      </trkpt>
      <trkpt lat="45.25794" lon="6.04144">
        <ele>1853</ele>
        <time>2013-02-10T12:31:19Z</time>
      </trkpt>
      <trkpt lat="45.25765" lon="6.0409">
        <ele>1860</ele>
        <time>2013-02-10T12:31:30Z</time>
      </trkpt>
      <trkpt lat="45.25744" lon="6.04046">
        <ele>1887</ele>
        <time>2013-02-10T12:31:39Z</time>
      </trkpt>
      <trkpt lat="45.25728" lon="6.04017">
        <ele>1891</ele>
        <time>2013-02-10T12:31:46Z</time>
      </trkpt>
      <trkpt lat="45.25705" lon="6.03975">
        <ele>1912</ele>
        <time>2013-02-10T12:31:56Z</time>
      </trkpt>
      <trkpt lat="45.25681" lon="6.03931">
        <ele>1928</ele>
        <time>2013-02-10T12:32:07Z</time>
      </trkpt>
      <trkpt lat="45.25655" lon="6.03883">
        <ele>1973</ele>
        <time>2013-02-10T12:32:19Z</time>
      </trkpt>
      <trkpt lat="45.25636" lon="6.03848">
        <ele>1982</ele>
        <time>2013-02-10T12:32:28Z</time>
      </trkpt>
      <trkpt lat="45.25615" lon="6.03809">
        <ele>2006</ele>
        <time>2013-02-10T12:32:38Z</time>
      </trkpt>
      <trkpt lat="45.25603" lon="6.03787">
        <ele>2013</ele>
        <time>2013-02-10T12:32:43Z</time>
      </trkpt>
      <trkpt lat="45.25587" lon="6.03757">
        <ele>2035</ele>
        <time>2013-02-10T12:32:50Z</time>
      </trkpt>
      <trkpt lat="45.25569" lon="6.03723">
        <ele>2060</ele>
        <time>2013-02-10T12:32:58Z</time>
      </trkpt>
      <trkpt lat="45.25558" lon="6.03704">
        <ele>2065</ele>
        <time>2013-02-10T12:33:02Z</time>
      </trkpt>
      <trkpt lat="45.25545" lon="6.0368">
        <ele>2069</ele>
        <time>2013-02-10T12:33:07Z</time>
      </trkpt>
      <trkpt lat="45.25528" lon="6.03646">
        <ele>2085</ele>
        <time>2013-02-10T12:33:14Z</time>
      </trkpt>
      <trkpt lat="45.25511" lon="6.03613">
        <ele>2092</ele>
        <time>2013-02-10T12:33:21Z</time>
      </trkpt>
      <trkpt lat="45.25489" lon="6.0357">
        <ele>2108</ele>
        <time>2013-02-10T12:33:30Z</time>
      </trkpt>
      <trkpt lat="45.25468" lon="6.03531">
        <ele>2111</ele>
        <time>2013-02-10T12:33:38Z</time>
      </trkpt>
      <trkpt lat="45.25433" lon="6.03464">
        <ele>2124</ele>
        <time>2013-02-10T12:33:52Z</time>
      </trkpt>
      <trkpt lat="45.25413" lon="6.03425">
        <ele>2136</ele>
        <time>2013-02-10T12:34:01Z</time>
      </trkpt>
      <trkpt lat="45.2538" lon="6.03362">
        <ele>2173</ele>
        <time>2013-02-10T12:34:16Z</time>
      </trkpt>
      <trkpt lat="45.25353" lon="6.03313">
        <ele>2203</ele>
        <time>2013-02-10T12:34:28Z</time>
      </trkpt>
      <trkpt lat="45.25343" lon="6.03301">
        <ele>2205</ele>
        <time>2013-02-10T12:34:32Z</time>
      </trkpt>
      <trkpt lat="45.25338" lon="6.03294">
        <ele>2207</ele>
        <time>2013-02-10T12:34:34Z</time>
      </trkpt>
      <trkpt lat="45.25332" lon="6.03283">
        <ele>2226</ele>
        <time>2013-02-10T12:34:39Z</time>
      </trkpt>
      <trkpt lat="45.25332" lon="6.03279">
        <ele>2227</ele>
        <time>2013-02-10T12:34:40Z</time>
      </trkpt>
      <trkpt lat="45.25334" lon="6.03264">
        <ele>2217</ele>
        <time>2013-02-10T12:34:45Z</time>
      </trkpt>
      <trkpt lat="45.25336" lon="6.03263">
        <ele>2218</ele>
        <time>2013-02-10T12:34:48Z</time>
      </trkpt>
      <trkpt lat="45.25341" lon="6.03263">
        <ele>2217</ele>
        <time>2013-02-10T12:34:53Z</time>
      </trkpt>
      <trkpt lat="45.25344" lon="6.03263">
        <ele>2215</ele>
        <time>2013-02-10T12:35:01Z</time>
      </trkpt>
      <trkpt lat="45.25351" lon="6.03266">
        <ele>2211</ele>
        <time>2013-02-10T12:35:08Z</time>
      </trkpt>
      <trkpt lat="45.25361" lon="6.03268">
        <ele>2207</ele>
        <time>2013-02-10T12:35:13Z</time>
      </trkpt>
      <trkpt lat="45.25361" lon="6.03268">
        <ele>2207</ele>
        <time>2013-02-10T12:35:20Z</time>
      </trkpt>
      <trkpt lat="45.2536" lon="6.03268">
        <ele>2207</ele>
        <time>2013-02-10T12:35:29Z</time>
      </trkpt>
      <trkpt lat="45.25365" lon="6.03269">
        <ele>2205</ele>
        <time>2013-02-10T12:35:54Z</time>
      </trkpt>
      <trkpt lat="45.25378" lon="6.03285">
        <ele>2199</ele>
        <time>2013-02-10T12:35:58Z</time>
      </trkpt>
      <trkpt lat="45.25379" lon="6.03284">
        <ele>2199</ele>
        <time>2013-02-10T12:36:01Z</time>
      </trkpt>
      <trkpt lat="45.2538" lon="6.03282">
        <ele>2199</ele>
        <time>2013-02-10T12:36:02Z</time>
      </trkpt>
      <trkpt lat="45.25393" lon="6.0326">
        <ele>2196</ele>
        <time>2013-02-10T12:36:06Z</time>
      </trkpt>
      <trkpt lat="45.25401" lon="6.03249">
        <ele>2189</ele>
        <time>2013-02-10T12:36:08Z</time>
      </trkpt>
      <trkpt lat="45.2542" lon="6.0323">
        <ele>2172</ele>
        <time>2013-02-10T12:36:12Z</time>
      </trkpt>
      <trkpt lat="45.25437" lon="6.03215">
        <ele>2165</ele>
        <time>2013-02-10T12:36:15Z</time>
      </trkpt>
      <trkpt lat="45.25455" lon="6.032">
        <ele>2160</ele>
        <time>2013-02-10T12:36:18Z</time>
      </trkpt>
      <trkpt lat="45.25477" lon="6.03197">
        <ele>2157</ele>
        <time>2013-02-10T12:36:21Z</time>
      </trkpt>
      <trkpt lat="45.25488" lon="6.03208">
        <ele>2156</ele>
        <time>2013-02-10T12:36:23Z</time>
      </trkpt>
      <trkpt lat="45.25491" lon="6.03237">
        <ele>2155</ele>
        <time>2013-02-10T12:36:26Z</time>
      </trkpt>
      <trkpt lat="45.25482" lon="6.03273">
        <ele>2156</ele>
        <time>2013-02-10T12:36:29Z</time>
      </trkpt>
      <trkpt lat="45.25476" lon="6.0331">
        <ele>2154</ele>
        <time>2013-02-10T12:36:32Z</time>
      </trkpt>
      <trkpt lat="45.25483" lon="6.03331">
        <ele>2148</ele>
        <time>2013-02-10T12:36:34Z</time>
      </trkpt>
      <trkpt lat="45.25513" lon="6.03334">
        <ele>2121</ele>
        <time>2013-02-10T12:36:38Z</time>
      </trkpt>
      <trkpt lat="45.25517" lon="6.03325">
        <ele>2122</ele>
        <time>2013-02-10T12:36:39Z</time>
      </trkpt>
      <trkpt lat="45.25541" lon="6.03274">
        <ele>2112</ele>
        <time>2013-02-10T12:36:44Z</time>
      </trkpt>
      <trkpt lat="45.25549" lon="6.03249">
        <ele>2113</ele>
        <time>2013-02-10T12:36:46Z</time>
      </trkpt>
      <trkpt lat="45.25567" lon="6.03209">
        <ele>2110</ele>
        <time>2013-02-10T12:36:50Z</time>
      </trkpt>
      <trkpt lat="45.25584" lon="6.03184">
        <ele>2085</ele>
        <time>2013-02-10T12:36:53Z</time>
      </trkpt>
      <trkpt lat="45.25606" lon="6.03132">
        <ele>2091</ele>
        <time>2013-02-10T12:36:58Z</time>
      </trkpt>
      <trkpt lat="45.25605" lon="6.03092">
        <ele>2091</ele>
        <time>2013-02-10T12:37:03Z</time>
      </trkpt>
      <trkpt lat="45.25605" lon="6.03081">
        <ele>2091</ele>
        <time>2013-02-10T12:37:05Z</time>
      </trkpt>
      <trkpt lat="45.25605" lon="6.03077">
        <ele>2091</ele>
        <time>2013-02-10T12:37:10Z</time>
      </trkpt>
      <trkpt lat="45.25605" lon="6.03078">
        <ele>2091</ele>
        <time>2013-02-10T12:37:19Z</time>
      </trkpt>
      <trkpt lat="45.25605" lon="6.03075">
        <ele>2091</ele>
        <time>2013-02-10T12:37:24Z</time>
      </trkpt>
      <trkpt lat="45.25592" lon="6.0307">
        <ele>2089</ele>
        <time>2013-02-10T12:37:28Z</time>
      </trkpt>
      <trkpt lat="45.25588" lon="6.03059">
        <ele>2089</ele>
        <time>2013-02-10T12:37:30Z</time>
      </trkpt>
      <trkpt lat="45.25578" lon="6.03052">
        <ele>2076</ele>
        <time>2013-02-10T12:37:32Z</time>
      </trkpt>
      <trkpt lat="45.25568" lon="6.0304">
        <ele>2073</ele>
        <time>2013-02-10T12:37:34Z</time>
      </trkpt>
      <trkpt lat="45.25542" lon="6.03008">
        <ele>2067</ele>
        <time>2013-02-10T12:37:39Z</time>
      </trkpt>
      <trkpt lat="45.25528" lon="6.02981">
        <ele>2048</ele>
        <time>2013-02-10T12:37:42Z</time>
      </trkpt>
      <trkpt lat="45.25516" lon="6.02957">
        <ele>2043</ele>
        <time>2013-02-10T12:37:45Z</time>
      </trkpt>
      <trkpt lat="45.25502" lon="6.02928">
        <ele>2031</ele>
        <time>2013-02-10T12:37:48Z</time>
      </trkpt>
      <trkpt lat="45.25489" lon="6.02892">
        <ele>2011</ele>
        <time>2013-02-10T12:37:51Z</time>
      </trkpt>
      <trkpt lat="45.25474" lon="6.02859">
        <ele>2005</ele>
        <time>2013-02-10T12:37:54Z</time>
      </trkpt>
      <trkpt lat="45.25464" lon="6.02843">
        <ele>2003</ele>
        <time>2013-02-10T12:37:56Z</time>
      </trkpt>
      <trkpt lat="45.25445" lon="6.02807">
        <ele>1987</ele>
        <time>2013-02-10T12:38:00Z</time>
      </trkpt>
      <trkpt lat="45.25434" lon="6.0279">
        <ele>1985</ele>
        <time>2013-02-10T12:38:02Z</time>
      </trkpt>
      <trkpt lat="45.25417" lon="6.02768">
        <ele>1979</ele>
        <time>2013-02-10T12:38:05Z</time>
      </trkpt>
      <trkpt lat="45.25397" lon="6.02749">
        <ele>1961</ele>
        <time>2013-02-10T12:38:08Z</time>
      </trkpt>
      <trkpt lat="45.25381" lon="6.02738">
        <ele>1956</ele>
        <time>2013-02-10T12:38:10Z</time>
      </trkpt>
      <trkpt lat="45.25357" lon="6.02715">
        <ele>1951</ele>
        <time>2013-02-10T12:38:13Z</time>
      </trkpt>
      <trkpt lat="45.2533" lon="6.02684">
        <ele>1937</ele>
        <time>2013-02-10T12:38:16Z</time>
      </trkpt>
      <trkpt lat="45.25313" lon="6.02661">
        <ele>1931</ele>
        <time>2013-02-10T12:38:18Z</time>
      </trkpt>
      <trkpt lat="45.25277" lon="6.02613">
        <ele>1925</ele>
        <time>2013-02-10T12:38:22Z</time>
      </trkpt>
      <trkpt lat="45.25258" lon="6.02574">
        <ele>1916</ele>
        <time>2013-02-10T12:38:25Z</time>
      </trkpt>
      <trkpt lat="45.25232" lon="6.02502">
        <ele>1910</ele>
        <time>2013-02-10T12:38:30Z</time>
      </trkpt>
      <trkpt lat="45.25226" lon="6.02439">
        <ele>1900</ele>
        <time>2013-02-10T12:38:34Z</time>
      </trkpt>
      <trkpt lat="45.25231" lon="6.02409">
        <ele>1892</ele>
        <time>2013-02-10T12:38:36Z</time>
      </trkpt>
      <trkpt lat="45.25242" lon="6.02346">
        <ele>1886</ele>
        <time>2013-02-10T12:38:41Z</time>
      </trkpt>
      <trkpt lat="45.25245" lon="6.02337">
        <ele>1884</ele>
        <time>2013-02-10T12:38:42Z</time>
      </trkpt>
      <trkpt lat="45.25254" lon="6.02302">
        <ele>1865</ele>
        <time>2013-02-10T12:38:47Z</time>
      </trkpt>
      <trkpt lat="45.25255" lon="6.02302">
        <ele>1865</ele>
        <time>2013-02-10T12:38:49Z</time>
      </trkpt>
      <trkpt lat="45.25255" lon="6.02303">
        <ele>1865</ele>
        <time>2013-02-10T12:38:56Z</time>
      </trkpt>
      <trkpt lat="45.25254" lon="6.02304">
        <ele>1866</ele>
        <time>2013-02-10T12:39:09Z</time>
      </trkpt>
      <trkpt lat="45.25254" lon="6.02303">
        <ele>1866</ele>
        <time>2013-02-10T12:39:24Z</time>
      </trkpt>
      <trkpt lat="45.2525" lon="6.02304">
        <ele>1866</ele>
        <time>2013-02-10T12:39:51Z</time>
      </trkpt>
      <trkpt lat="45.2525" lon="6.02304">
        <ele>1873</ele>
        <time>2013-02-10T12:39:56Z</time>
      </trkpt>
      <trkpt lat="45.2525" lon="6.02301">
        <ele>1865</ele>
        <time>2013-02-10T12:40:04Z</time>
      </trkpt>
      <trkpt lat="45.25249" lon="6.023">
        <ele>1872</ele>
        <time>2013-02-10T12:40:05Z</time>
      </trkpt>
      <trkpt lat="45.25238" lon="6.02291">
        <ele>1870</ele>
        <time>2013-02-10T12:40:09Z</time>
      </trkpt>
      <trkpt lat="45.25221" lon="6.02275">
        <ele>1868</ele>
        <time>2013-02-10T12:40:12Z</time>
      </trkpt>
      <trkpt lat="45.25202" lon="6.02256">
        <ele>1868</ele>
        <time>2013-02-10T12:40:15Z</time>
      </trkpt>
      <trkpt lat="45.25195" lon="6.02248">
        <ele>1851</ele>
        <time>2013-02-10T12:40:16Z</time>
      </trkpt>
      <trkpt lat="45.25164" lon="6.02203">
        <ele>1857</ele>
        <time>2013-02-10T12:40:21Z</time>
      </trkpt>
      <trkpt lat="45.25146" lon="6.02178">
        <ele>1853</ele>
        <time>2013-02-10T12:40:24Z</time>
      </trkpt>
      <trkpt lat="45.2514" lon="6.02169">
        <ele>1853</ele>
        <time>2013-02-10T12:40:25Z</time>
      </trkpt>
      <trkpt lat="45.25111" lon="6.02124">
        <ele>1835</ele>
        <time>2013-02-10T12:40:30Z</time>
      </trkpt>
      <trkpt lat="45.25102" lon="6.02094">
        <ele>1832</ele>
        <time>2013-02-10T12:40:33Z</time>
      </trkpt>
      <trkpt lat="45.25094" lon="6.02067">
        <ele>1814</ele>
        <time>2013-02-10T12:40:36Z</time>
      </trkpt>
      <trkpt lat="45.25087" lon="6.0204">
        <ele>1806</ele>
        <time>2013-02-10T12:40:39Z</time>
      </trkpt>
      <trkpt lat="45.25084" lon="6.02021">
        <ele>1802</ele>
        <time>2013-02-10T12:40:41Z</time>
      </trkpt>
      <trkpt lat="45.25077" lon="6.01995">
        <ele>1802</ele>
        <time>2013-02-10T12:40:44Z</time>
      </trkpt>
      <trkpt lat="45.25072" lon="6.01979">
        <ele>1805</ele>
        <time>2013-02-10T12:40:46Z</time>
      </trkpt>
      <trkpt lat="45.25071" lon="6.0197">
        <ele>1805</ele>
        <time>2013-02-10T12:40:47Z</time>
      </trkpt>
      <trkpt lat="45.2507" lon="6.01935">
        <ele>1797</ele>
        <time>2013-02-10T12:40:51Z</time>
      </trkpt>
      <trkpt lat="45.25073" lon="6.0191">
        <ele>1781</ele>
        <time>2013-02-10T12:40:54Z</time>
      </trkpt>
      <trkpt lat="45.25078" lon="6.01881">
        <ele>1781</ele>
        <time>2013-02-10T12:40:57Z</time>
      </trkpt>
      <trkpt lat="45.25084" lon="6.0186">
        <ele>1752</ele>
        <time>2013-02-10T12:40:59Z</time>
      </trkpt>
      <trkpt lat="45.251" lon="6.0181">
        <ele>1736</ele>
        <time>2013-02-10T12:41:04Z</time>
      </trkpt>
      <trkpt lat="45.25105" lon="6.01775">
        <ele>1730</ele>
        <time>2013-02-10T12:41:07Z</time>
      </trkpt>
      <trkpt lat="45.25102" lon="6.01752">
        <ele>1729</ele>
        <time>2013-02-10T12:41:09Z</time>
      </trkpt>
      <trkpt lat="45.25095" lon="6.01717">
        <ele>1713</ele>
        <time>2013-02-10T12:41:12Z</time>
      </trkpt>
      <trkpt lat="45.25087" lon="6.01684">
        <ele>1710</ele>
        <time>2013-02-10T12:41:15Z</time>
      </trkpt>
      <trkpt lat="45.25084" lon="6.01672">
        <ele>1710</ele>
        <time>2013-02-10T12:41:16Z</time>
      </trkpt>
      <trkpt lat="45.2507" lon="6.01604">
        <ele>1706</ele>
        <time>2013-02-10T12:41:21Z</time>
      </trkpt>
      <trkpt lat="45.25067" lon="6.01589">
        <ele>1701</ele>
        <time>2013-02-10T12:41:22Z</time>
      </trkpt>
      <trkpt lat="45.25063" lon="6.0156">
        <ele>1688</ele>
        <time>2013-02-10T12:41:24Z</time>
      </trkpt>
      <trkpt lat="45.25061" lon="6.01514">
        <ele>1678</ele>
        <time>2013-02-10T12:41:28Z</time>
      </trkpt>
      <trkpt lat="45.25061" lon="6.01511">
        <ele>1678</ele>
        <time>2013-02-10T12:41:30Z</time>
      </trkpt>
      <trkpt lat="45.25061" lon="6.01512">
        <ele>1678</ele>
        <time>2013-02-10T12:41:31Z</time>
      </trkpt>
      <trkpt lat="45.25062" lon="6.01512">
        <ele>1677</ele>
        <time>2013-02-10T12:41:37Z</time>
      </trkpt>
      <trkpt lat="45.25062" lon="6.01511">
        <ele>1677</ele>
        <time>2013-02-10T12:41:45Z</time>
      </trkpt>
      <trkpt lat="45.25052" lon="6.0149">
        <ele>1663</ele>
        <time>2013-02-10T12:41:49Z</time>
      </trkpt>
      <trkpt lat="45.25041" lon="6.01472">
        <ele>1664</ele>
        <time>2013-02-10T12:41:51Z</time>
      </trkpt>
      <trkpt lat="45.25021" lon="6.01416">
        <ele>1646</ele>
        <time>2013-02-10T12:41:56Z</time>
      </trkpt>
      <trkpt lat="45.25017" lon="6.01406">
        <ele>1647</ele>
        <time>2013-02-10T12:41:57Z</time>
      </trkpt>
      <trkpt lat="45.25008" lon="6.01374">
        <ele>1639</ele>
        <time>2013-02-10T12:42:01Z</time>
      </trkpt>
      <trkpt lat="45.24999" lon="6.01348">
        <ele>1646</ele>
        <time>2013-02-10T12:42:04Z</time>
      </trkpt>
      <trkpt lat="45.24983" lon="6.0132">
        <ele>1630</ele>
        <time>2013-02-10T12:42:07Z</time>
      </trkpt>
      <trkpt lat="45.24964" lon="6.01291">
        <ele>1626</ele>
        <time>2013-02-10T12:42:10Z</time>
      </trkpt>
      <trkpt lat="45.24952" lon="6.01257">
        <ele>1622</ele>
        <time>2013-02-10T12:42:13Z</time>
      </trkpt>
      <trkpt lat="45.24944" lon="6.01216">
        <ele>1605</ele>
        <time>2013-02-10T12:42:18Z</time>
      </trkpt>
      <trkpt lat="45.24942" lon="6.01203">
        <ele>1604</ele>
        <time>2013-02-10T12:42:21Z</time>
      </trkpt>
      <trkpt lat="45.24951" lon="6.01194">
        <ele>1602</ele>
        <time>2013-02-10T12:42:24Z</time>
      </trkpt>
      <trkpt lat="45.24953" lon="6.01192">
        <ele>1602</ele>
        <time>2013-02-10T12:42:27Z</time>
      </trkpt>
      <trkpt lat="45.24953" lon="6.0119">
        <ele>1602</ele>
        <time>2013-02-10T12:42:32Z</time>
      </trkpt>
      <trkpt lat="45.24957" lon="6.01187">
        <ele>1601</ele>
        <time>2013-02-10T12:42:51Z</time>
      </trkpt>
      <trkpt lat="45.24961" lon="6.01184">
        <ele>1600</ele>
        <time>2013-02-10T12:43:11Z</time>
      </trkpt>
      <trkpt lat="45.24952" lon="6.01188">
        <ele>1602</ele>
        <time>2013-02-10T12:43:25Z</time>
      </trkpt>
      <trkpt lat="45.2495" lon="6.01188">
        <ele>1602</ele>
        <time>2013-02-10T12:43:35Z</time>
      </trkpt>
      <trkpt lat="45.24957" lon="6.01186">
        <ele>1601</ele>
        <time>2013-02-10T12:43:54Z</time>
      </trkpt>
      <trkpt lat="45.2495" lon="6.01188">
        <ele>1602</ele>
        <time>2013-02-10T12:44:14Z</time>
      </trkpt>
      <trkpt lat="45.24948" lon="6.01189">
        <ele>1603</ele>
        <time>2013-02-10T12:44:26Z</time>
      </trkpt>
      <trkpt lat="45.2495" lon="6.01188">
        <ele>1602</ele>
        <time>2013-02-10T12:44:35Z</time>
      </trkpt>
      <trkpt lat="45.24966" lon="6.01175">
        <ele>1598</ele>
        <time>2013-02-10T12:44:39Z</time>
      </trkpt>
      <trkpt lat="45.24997" lon="6.01155">
        <ele>1585</ele>
        <time>2013-02-10T12:44:43Z</time>
      </trkpt>
      <trkpt lat="45.25012" lon="6.01143">
        <ele>1573</ele>
        <time>2013-02-10T12:44:45Z</time>
      </trkpt>
      <trkpt lat="45.2502" lon="6.01138">
        <ele>1571</ele>
        <time>2013-02-10T12:44:46Z</time>
      </trkpt>
      <trkpt lat="45.2506" lon="6.01115">
        <ele>1563</ele>
        <time>2013-02-10T12:44:51Z</time>
      </trkpt>
      <trkpt lat="45.25076" lon="6.01099">
        <ele>1557</ele>
        <time>2013-02-10T12:44:53Z</time>
      </trkpt>
      <trkpt lat="45.25083" lon="6.01091">
        <ele>1546</ele>
        <time>2013-02-10T12:44:54Z</time>
      </trkpt>
      <trkpt lat="45.25125" lon="6.01055">
        <ele>1528</ele>
        <time>2013-02-10T12:44:59Z</time>
      </trkpt>
      <trkpt lat="45.2513" lon="6.01045">
        <ele>1527</ele>
        <time>2013-02-10T12:45:00Z</time>
      </trkpt>
      <trkpt lat="45.25149" lon="6.00973">
        <ele>1515</ele>
        <time>2013-02-10T12:45:05Z</time>
      </trkpt>
      <trkpt lat="45.25152" lon="6.00955">
        <ele>1514</ele>
        <time>2013-02-10T12:45:06Z</time>
      </trkpt>
      <trkpt lat="45.25172" lon="6.00896">
        <ele>1489</ele>
        <time>2013-02-10T12:45:10Z</time>
      </trkpt>
      <trkpt lat="45.25185" lon="6.00867">
        <ele>1487</ele>
        <time>2013-02-10T12:45:12Z</time>
      </trkpt>
      <trkpt lat="45.25217" lon="6.00814">
        <ele>1483</ele>
        <time>2013-02-10T12:45:16Z</time>
      </trkpt>
      <trkpt lat="45.25237" lon="6.00754">
        <ele>1478</ele>
        <time>2013-02-10T12:45:20Z</time>
      </trkpt>
      <trkpt lat="45.25242" lon="6.00742">
        <ele>1478</ele>
        <time>2013-02-10T12:45:21Z</time>
      </trkpt>
      <trkpt lat="45.25271" lon="6.00694">
        <ele>1472</ele>
        <time>2013-02-10T12:45:26Z</time>
      </trkpt>
      <trkpt lat="45.25305" lon="6.00663">
        <ele>1480</ele>
        <time>2013-02-10T12:45:31Z</time>
      </trkpt>
      <trkpt lat="45.25334" lon="6.00636">
        <ele>1467</ele>
        <time>2013-02-10T12:45:36Z</time>
      </trkpt>
      <trkpt lat="45.25374" lon="6.00594">
        <ele>1467</ele>
        <time>2013-02-10T12:45:43Z</time>
      </trkpt>
      <trkpt lat="45.25388" lon="6.00573">
        <ele>1478</ele>
        <time>2013-02-10T12:45:46Z</time>
      </trkpt>
      <trkpt lat="45.2541" lon="6.00546">
        <ele>1479</ele>
        <time>2013-02-10T12:45:50Z</time>
      </trkpt>
      <trkpt lat="45.25416" lon="6.0054">
        <ele>1480</ele>
        <time>2013-02-10T12:45:51Z</time>
      </trkpt>
      <trkpt lat="45.25431" lon="6.00517">
        <ele>1458</ele>
        <time>2013-02-10T12:45:54Z</time>
      </trkpt>
      <trkpt lat="45.25446" lon="6.00491">
        <ele>1466</ele>
        <time>2013-02-10T12:45:57Z</time>
      </trkpt>
      <trkpt lat="45.25468" lon="6.00455">
        <ele>1460</ele>
        <time>2013-02-10T12:46:01Z</time>
      </trkpt>
      <trkpt lat="45.25477" lon="6.00436">
        <ele>1459</ele>
        <time>2013-02-10T12:46:03Z</time>
      </trkpt>
      <trkpt lat="45.25495" lon="6.00381">
        <ele>1467</ele>
        <time>2013-02-10T12:46:08Z</time>
      </trkpt>
      <trkpt lat="45.25509" lon="6.00325">
        <ele>1445</ele>
        <time>2013-02-10T12:46:13Z</time>
      </trkpt>
      <trkpt lat="45.25511" lon="6.00313">
        <ele>1440</ele>
        <time>2013-02-10T12:46:14Z</time>
      </trkpt>
      <trkpt lat="45.25521" lon="6.00279">
        <ele>1435</ele>
        <time>2013-02-10T12:46:17Z</time>
      </trkpt>
      <trkpt lat="45.2553" lon="6.00255">
        <ele>1434</ele>
        <time>2013-02-10T12:46:19Z</time>
      </trkpt>
      <trkpt lat="45.25541" lon="6.00221">
        <ele>1428</ele>
        <time>2013-02-10T12:46:22Z</time>
      </trkpt>
      <trkpt lat="45.25556" lon="6.00184">
        <ele>1424</ele>
        <time>2013-02-10T12:46:26Z</time>
      </trkpt>
      <trkpt lat="45.25554" lon="6.0016">
        <ele>1422</ele>
        <time>2013-02-10T12:46:29Z</time>
      </trkpt>
      <trkpt lat="45.25565" lon="6.0013">
        <ele>1420</ele>
        <time>2013-02-10T12:46:33Z</time>
      </trkpt>
      <trkpt lat="45.25575" lon="6.00097">
        <ele>1414</ele>
        <time>2013-02-10T12:46:36Z</time>
      </trkpt>
      <trkpt lat="45.25576" lon="6.00062">
        <ele>1410</ele>
        <time>2013-02-10T12:46:39Z</time>
      </trkpt>
      <trkpt lat="45.25575" lon="6.00041">
        <ele>1409</ele>
        <time>2013-02-10T12:46:41Z</time>
      </trkpt>
      <trkpt lat="45.2557" lon="5.99997">
        <ele>1395</ele>
        <time>2013-02-10T12:46:45Z</time>
      </trkpt>
      <trkpt lat="45.25568" lon="5.9996">
        <ele>1396</ele>
        <time>2013-02-10T12:46:48Z</time>
      </trkpt>
      <trkpt lat="45.25566" lon="5.99912">
        <ele>1381</ele>
        <time>2013-02-10T12:46:52Z</time>
      </trkpt>
      <trkpt lat="45.25572" lon="5.99869">
        <ele>1379</ele>
        <time>2013-02-10T12:46:56Z</time>
      </trkpt>
      <trkpt lat="45.25577" lon="5.99834">
        <ele>1369</ele>
        <time>2013-02-10T12:46:59Z</time>
      </trkpt>
      <trkpt lat="45.25586" lon="5.99813">
        <ele>1358</ele>
        <time>2013-02-10T12:47:01Z</time>
      </trkpt>
      <trkpt lat="45.25598" lon="5.99786">
        <ele>1354</ele>
        <time>2013-02-10T12:47:04Z</time>
      </trkpt>
      <trkpt lat="45.25601" lon="5.99778">
        <ele>1353</ele>
        <time>2013-02-10T12:47:05Z</time>
      </trkpt>
      <trkpt lat="45.25614" lon="5.99743">
        <ele>1346</ele>
        <time>2013-02-10T12:47:10Z</time>
      </trkpt>
      <trkpt lat="45.25616" lon="5.99736">
        <ele>1346</ele>
        <time>2013-02-10T12:47:11Z</time>
      </trkpt>
      <trkpt lat="45.25627" lon="5.99678">
        <ele>1343</ele>
        <time>2013-02-10T12:47:18Z</time>
      </trkpt>
      <trkpt lat="45.25638" lon="5.99657">
        <ele>1337</ele>
        <time>2013-02-10T12:47:21Z</time>
      </trkpt>
      <trkpt lat="45.25642" lon="5.99657">
        <ele>1337</ele>
        <time>2013-02-10T12:47:23Z</time>
      </trkpt>
      <trkpt lat="45.25642" lon="5.99658">
        <ele>1337</ele>
        <time>2013-02-10T12:47:28Z</time>
      </trkpt>
      <trkpt lat="45.25641" lon="5.99658">
        <ele>1337</ele>
        <time>2013-02-10T12:48:01Z</time>
      </trkpt>
      <trkpt lat="45.25641" lon="5.99658">
        <ele>1337</ele>
        <time>2013-02-10T12:48:10Z</time>
      </trkpt>
      <trkpt lat="45.25641" lon="5.99655">
        <ele>1337</ele>
        <time>2013-02-10T12:48:34Z</time>
      </trkpt>
      <trkpt lat="45.25639" lon="5.99643">
        <ele>1337</ele>
        <time>2013-02-10T12:48:39Z</time>
      </trkpt>
      <trkpt lat="45.2564" lon="5.99643">
        <ele>1337</ele>
        <time>2013-02-10T12:48:50Z</time>
      </trkpt>
      <trkpt lat="45.2564" lon="5.99642">
        <ele>1337</ele>
        <time>2013-02-10T12:49:03Z</time>
      </trkpt>
      <trkpt lat="45.25641" lon="5.99642">
        <ele>1337</ele>
        <time>2013-02-10T12:49:15Z</time>
      </trkpt>
      <trkpt lat="45.2564" lon="5.99641">
        <ele>1337</ele>
        <time>2013-02-10T12:49:48Z</time>
      </trkpt>
      <trkpt lat="45.2564" lon="5.99641">
        <ele>1337</ele>
        <time>2013-02-10T12:49:55Z</time>
      </trkpt>
      <trkpt lat="45.2564" lon="5.99641">
        <ele>1337</ele>
        <time>2013-02-10T12:50:06Z</time>
      </trkpt>
      <trkpt lat="45.2564" lon="5.99641">
        <ele>1337</ele>
        <time>2013-02-10T12:50:15Z</time>
      </trkpt>
      <trkpt lat="45.25639" lon="5.99643">
        <ele>1337</ele>
        <time>2013-02-10T12:50:23Z</time>
      </trkpt>
      <trkpt lat="45.25639" lon="5.99644">
        <ele>1337</ele>
        <time>2013-02-10T12:50:28Z</time>
      </trkpt>
      <trkpt lat="45.25638" lon="5.99644">
        <ele>1337</ele>
        <time>2013-02-10T12:50:33Z</time>
      </trkpt>
      <trkpt lat="45.25638" lon="5.99644">
        <ele>1337</ele>
        <time>2013-02-10T12:50:37Z</time>
      </trkpt>
      <trkpt lat="45.25635" lon="5.99626">
        <ele>1337</ele>
        <time>2013-02-10T12:50:42Z</time>
      </trkpt>
      <trkpt lat="45.25629" lon="5.99604">
        <ele>1337</ele>
        <time>2013-02-10T12:50:46Z</time>
      </trkpt>
      <trkpt lat="45.25639" lon="5.99585">
        <ele>1335</ele>
        <time>2013-02-10T12:50:51Z</time>
      </trkpt>
      <trkpt lat="45.25648" lon="5.99587">
        <ele>1334</ele>
        <time>2013-02-10T12:50:55Z</time>
      </trkpt>
      <trkpt lat="45.25654" lon="5.99592">
        <ele>1333</ele>
        <time>2013-02-10T12:50:58Z</time>
      </trkpt>
      <trkpt lat="45.25654" lon="5.99592">
        <ele>1333</ele>
        <time>2013-02-10T12:51:04Z</time>
      </trkpt>
      <trkpt lat="45.25654" lon="5.99591">
        <ele>1333</ele>
        <time>2013-02-10T12:51:12Z</time>
      </trkpt>
      <trkpt lat="45.25654" lon="5.99592">
        <ele>1333</ele>
        <time>2013-02-10T12:51:15Z</time>
      </trkpt>
    </trkseg>
  </trk>
</gpx>